# Wetter Temperatur Luftdruck Luftfeuchtigkeit Sichtweite Windgeschwindigkeit Windrichtung Zeit
1 Clouds -15 1013 71 10000 3 170 10:20 08.04.2020
2 Clouds -16 1013 71 10000 2 170 09:56 08.04.2020
3 Clouds -16 1013 71 10000 2 170 09:38 08.04.2020
4 Clouds -16 1013 71 10000 2 170 09:18 08.04.2020
5 Clouds -17 1013 84 10000 3 150 08:56 08.04.2020
6 Clouds -17 1013 84 10000 3 150 08:38 08.04.2020
7 Clouds -17 1013 84 10000 3 150 08:20 08.04.2020
8 Clouds -15 1014 71 10000 2 190 07:42 08.04.2020
9 Clouds -15 1014 71 10000 1 150 07:20 08.04.2020
10 Clouds -14 1014 71 10000 1 200 06:22 08.04.2020
11 Clouds -14 1015 65 10000 1 80 04:54 08.04.2020
12 Clear -15 1016 65 10000 1 50 02:50 08.04.2020
13 Clear -15 1016 65 10000 1 350 02:21 08.04.2020
14 Clear -16 1016 71 10000 1 350 01:56 08.04.2020
15 Clear -17 1016 77 10000 2 20 01:27 08.04.2020
16 Clear -17 1016 70 10000 4 30 00:44 08.04.2020
17 Clear -17 1016 70 10000 4 30 00:23 08.04.2020
18 Clear -18 1016 77 10000 3 30 23:40 07.04.2020
19 Clear -18 1016 77 10000 3 30 23:22 07.04.2020
20 Clear -21 1017 83 10000 3 30 22:58 07.04.2020
21 Clear -21 1017 76 10000 3 30 22:40 07.04.2020
22 Clear -21 1017 76 10000 3 30 22:21 07.04.2020
23 Clear -23 1017 76 10000 3 10 21:58 07.04.2020
24 Clear -23 1017 76 10000 3 10 21:40 07.04.2020
25 Clear -23 1017 76 10000 3 10 21:20 07.04.2020
26 Clouds -24 1017 76 10000 2 70 20:58 07.04.2020
27 Clouds -24 1017 76 10000 2 70 20:39 07.04.2020
28 Clouds -27 1017 75 10000 1 340 20:20 07.04.2020
29 Clouds -27 1017 75 10000 1 340 19:57 07.04.2020
30 Clouds -27 1017 75 10000 1 340 19:37 07.04.2020
31 Clouds -26 1017 75 10000 1 330 19:19 07.04.2020
32 Clouds -26 1017 75 10000 1 330 19:19 07.04.2020
33 Clouds -26 1017 75 10000 1 330 18:57 07.04.2020
34 Clouds -26 1017 75 10000 1 330 18:39 07.04.2020
35 Clouds -26 1017 75 10000 1 330 18:19 07.04.2020
36 Clouds -23 1017 76 10000 4 100 17:45 07.04.2020
37 Clouds -23 1017 76 10000 4 100 17:21 07.04.2020
38 Clouds -22 1017 69 10000 2 100 16:47 07.04.2020
39 Clouds -22 1017 69 10000 2 100 16:29 07.04.2020
40 Clear -19 1018 70 10000 3 110 15:59 07.04.2020
41 Clear -19 1018 70 10000 3 110 15:41 07.04.2020
42 Clear -22 1018 76 10000 1 140 15:23 07.04.2020
43 Clear -22 1018 76 10000 1 140 14:42 07.04.2020
44 Clear -22 1018 76 10000 1 140 14:23 07.04.2020
45 Clear -22 1018 69 10000 3 110 13:57 07.04.2020
46 Clear -22 1018 69 10000 3 110 13:39 07.04.2020
47 Clear -21 1018 70 10000 1 110 13:18 07.04.2020
48 Clear -21 1018 70 10000 1 110 12:55 07.04.2020
49 Clear -21 1018 70 10000 1 110 12:36 07.04.2020
50 Clear -22 1018 69 10000 1 110 12:18 07.04.2020
51 Clear -22 1018 69 10000 1 110 11:44 07.04.2020
52 Clear -22 1018 69 10000 1 110 11:26 07.04.2020
53 Clear -21 1019 70 10000 2 100 10:59 07.04.2020
54 Clear -21 1019 70 10000 2 100 10:38 07.04.2020
55 Clear -21 1019 70 10000 2 100 10:19 07.04.2020
56 Clear -19 1019 70 10000 1 310 09:45 07.04.2020
57 Clear -19 1019 70 10000 1 310 09:20 07.04.2020
58 Clear -19 1019 77 10000 2 50 08:57 07.04.2020
59 Clear -19 1019 77 10000 2 50 08:38 07.04.2020
60 Clear -19 1019 77 10000 2 50 08:19 07.04.2020
61 Clear -17 1019 70 10000 2 320 07:43 07.04.2020
62 Clear -17 1019 70 10000 2 320 07:25 07.04.2020
63 Clear -17 1019 64 10000 1 360 06:51 07.04.2020
64 Clear -17 1019 70 10000 2 340 06:25 07.04.2020
65 Clear -16 1020 59 10000 0.46 328 05:46 07.04.2020
66 Clear -16 1020 59 10000 0.46 328 05:22 07.04.2020
67 Clear -18 1020 70 10000 2 300 03:32 07.04.2020
68 Clear -18 1020 64 10000 1 340 02:59 07.04.2020
69 Clear -19 1020 70 10000 2 60 02:33 07.04.2020
70 Clear -19 1021 64 10000 1 10 01:33 07.04.2020
71 Clear -21 1021 70 10000 2 360 00:44 07.04.2020
72 Clear -21 1021 70 10000 2 360 00:25 07.04.2020
73 Clear -22 1021 69 10000 2 30 23:39 06.04.2020
74 Clear -22 1021 69 10000 2 30 23:20 06.04.2020
75 Clear -23 1021 69 10000 3 10 22:41 06.04.2020
76 Clear -23 1021 69 10000 3 10 22:23 06.04.2020
77 Clear -24 1021 69 10000 2 60 21:59 06.04.2020
78 Clear -24 1021 69 10000 2 60 21:40 06.04.2020
79 Clouds -24 1021 69 10000 2 60 21:19 06.04.2020
80 Clouds -26 1021 75 10000 4 50 20:56 06.04.2020
81 Clouds -26 1021 75 10000 4 50 20:38 06.04.2020
82 Clouds -26 1021 75 10000 4 50 20:19 06.04.2020
83 Clouds -27 1021 75 10000 2 50 19:54 06.04.2020
84 Clouds -27 1021 75 10000 2 50 19:36 06.04.2020
85 Clouds -26 1020 75 10000 3 20 19:18 06.04.2020
86 Clouds -25 1020 75 10000 3 20 18:41 06.04.2020
87 Clouds -25 1020 75 10000 2 50 18:23 06.04.2020
88 Clouds -26 1020 75 10000 2 50 17:55 06.04.2020
89 Clouds -26 1020 75 10000 2 50 17:37 06.04.2020
90 Clouds -26 1020 75 10000 2 50 17:18 06.04.2020
91 Clouds -24 1020 76 10000 2 290 16:47 06.04.2020
92 Clouds -24 1020 76 10000 2 290 16:29 06.04.2020
93 Clouds -25 1019 75 10000 2 70 14:46 06.04.2020
94 Clouds -25 1019 75 10000 2 70 14:46 06.04.2020
95 Clouds -25 1019 75 10000 2 70 14:46 06.04.2020
96 Clouds -25 1019 75 10000 2 70 14:46 06.04.2020
97 Clouds -25 1019 75 10000 2 70 14:46 06.04.2020
98 Clear -24 1019 83 10000 1 10 13:44 06.04.2020
99 Clear -24 1019 83 10000 1 10 13:21 06.04.2020
100 Clear -24 1019 83 10000 1 10 13:21 06.04.2020
101 Clear -22 1019 76 10000 2 10 12:41 06.04.2020
102 Clear -22 1019 76 10000 2 10 12:41 06.04.2020
103 Clear -22 1019 76 10000 2 10 12:18 06.04.2020
104 Clear -22 1019 76 10000 2 10 12:18 06.04.2020
105 Clear -21 1018 76 10000 3 320 11:40 06.04.2020
106 Clear -21 1018 76 10000 3 320 11:40 06.04.2020
107 Clear -21 1018 76 10000 3 320 11:40 06.04.2020
108 Clear -21 1018 76 10000 3 320 11:40 06.04.2020
109 Clear -21 1018 76 10000 3 320 11:40 06.04.2020
110 Clear -21 1018 76 10000 1 60 10:53 06.04.2020
111 Clear -21 1018 76 10000 1 60 10:53 06.04.2020
112 Clear -21 1018 76 10000 1 60 10:53 06.04.2020
113 Clear -20 1017 76 10000 5 300 10:23 06.04.2020
114 Clear -20 1017 76 10000 7 300 10:03 06.04.2020
115 Clear -20 1017 76 10000 7 300 10:03 06.04.2020
116 Clear -20 1017 76 10000 7 300 10:03 06.04.2020
117 Clear -20 1017 76 10000 7 300 09:37 06.04.2020
118 Clear -19 1017 77 10000 6 300 09:18 06.04.2020
119 Clear -19 1016 77 10000 6 300 08:41 06.04.2020
120 Clear -19 1016 77 10000 6 300 08:41 06.04.2020
121 Clear -18 1016 77 10000 6 290 07:56 06.04.2020
122 Clear -18 1016 77 10000 6 290 07:56 06.04.2020
123 Clear -18 1016 77 10000 6 290 07:56 06.04.2020
124 Clear -17 1016 77 10000 6 290 07:19 06.04.2020
125 Clear -17 1015 77 10000 7 300 06:26 06.04.2020
126 Fog -17 1015 77 10000 8 300 05:42 06.04.2020
127 Fog -17 1014 77 10000 8 290 03:29 06.04.2020
128 Fog -18 1014 77 10000 7 290 02:49 06.04.2020
129 Fog -18 1014 77 10000 7 290 02:49 06.04.2020
130 Fog -19 1014 84 10000 7 290 01:53 06.04.2020
131 Clouds -19 1013 77 9000 6 290 00:52 06.04.2020
132 Mist -20 1013 83 9000 4 340 00:27 06.04.2020
133 Fog -20 1013 76 10000 5 320 23:50 05.04.2020
134 Fog -21 1013 83 10000 5 320 23:32 05.04.2020
135 Fog -21 1013 83 10000 5 320 23:32 05.04.2020
136 Fog -21 1013 83 10000 5 320 23:32 05.04.2020
137 Clouds -21 1012 83 8000 7 300 22:57 05.04.2020
138 Clouds -21 1012 83 8000 7 300 22:38 05.04.2020
139 Mist -21 1012 76 4200 6 290 22:19 05.04.2020
140 Mist -22 1011 83 3800 8 300 21:58 05.04.2020
141 Mist -22 1011 83 3800 8 300 21:39 05.04.2020
142 Mist -22 1011 83 3800 8 300 21:21 05.04.2020
143 Mist -22 1011 83 1600 9 300 20:21 05.04.2020
144 Clouds -21 1010 76 900 9 300 19:41 05.04.2020
145 Clouds -21 1010 76 900 9 300 19:22 05.04.2020
146 Clouds -21 1010 83 1000 8 300 18:46 05.04.2020
147 Clouds -21 1010 83 1000 8 300 18:46 05.04.2020
148 Snow -21 1010 83 650 10 290 17:59 05.04.2020
149 Snow -21 1010 83 650 10 290 17:40 05.04.2020
150 Snow -21 1010 83 650 10 290 17:40 05.04.2020
151 Snow -21 1010 83 650 10 290 17:40 05.04.2020
152 Snow -21 1010 83 650 10 290 17:40 05.04.2020
153 Snow -21 1010 83 650 10 290 17:39 05.04.2020
154 Snow -21 1010 83 650 10 290 17:20 05.04.2020
155 Snow -21 1010 83 650 10 290 17:20 05.04.2020
156 Snow -21 1009 83 500 11 290 16:46 05.04.2020
157 Snow -21 1009 83 500 11 290 16:46 05.04.2020
158 Snow -21 1009 83 500 11 290 16:46 05.04.2020
159 Snow -21 1009 83 500 11 290 16:46 05.04.2020
160 Snow -21 1009 83 500 11 290 16:46 05.04.2020
161 Snow -21 1009 83 500 11 290 16:18 05.04.2020
162 Snow -20 1009 76 600 11 290 15:44 05.04.2020
163 Snow -20 1009 76 600 11 290 15:25 05.04.2020
164 Snow -20 1009 76 600 11 290 15:25 05.04.2020
165 Snow -20 1008 83 450 12 290 14:48 05.04.2020
166 Snow -20 1008 83 450 12 290 14:48 05.04.2020
167 Snow -20 1008 83 450 12 290 14:48 05.04.2020
168 Snow -20 1008 83 450 12 290 14:48 05.04.2020
169 Snow -20 1008 83 450 12 290 14:48 05.04.2020
170 Snow -20 1008 83 600 12 290 13:46 05.04.2020
171 Snow -20 1008 83 600 12 290 13:46 05.04.2020
172 Snow -20 1008 83 600 12 290 13:46 05.04.2020
173 Snow -20 1008 83 600 12 290 13:46 05.04.2020
174 Snow -20 1007 83 500 12 290 12:57 05.04.2020
175 Snow -20 1007 83 500 12 290 12:57 05.04.2020
176 Snow -19 1007 77 650 12 280 11:58 05.04.2020
177 Snow -19 1007 77 650 12 280 11:58 05.04.2020
178 Snow -19 1007 77 650 12 280 11:58 05.04.2020
179 Snow -19 1007 77 650 12 280 11:38 05.04.2020
180 Snow -19 1007 77 650 12 280 11:19 05.04.2020
181 Clouds -19 1006 84 600 11 290 10:44 05.04.2020
182 Clouds -19 1006 84 600 11 290 10:44 05.04.2020
183 Clouds -19 1006 84 600 11 290 10:44 05.04.2020
184 Clouds -19 1006 84 600 11 290 10:44 05.04.2020
185 Clouds -19 1006 84 600 11 290 10:19 05.04.2020
186 Clouds -18 1005 77 650 12 290 09:52 05.04.2020
187 Clouds -18 1005 77 650 12 290 09:52 05.04.2020
188 Clouds -18 1005 77 650 12 290 09:25 05.04.2020
189 Clouds -18 1005 77 650 12 290 09:25 05.04.2020
190 Clouds -18 1005 77 650 12 290 09:25 05.04.2020
191 Clouds -18 1005 77 650 12 290 09:25 05.04.2020
192 Clouds -18 1005 77 650 12 290 09:25 05.04.2020
193 Clouds -17 1004 84 900 13 300 07:58 05.04.2020
194 Snow -16 1004 84 1600 13 300 04:56 05.04.2020
195 Snow -14 1003 77 8000 10 330 03:35 05.04.2020
196 Snow -14 1003 77 5000 9 330 02:53 05.04.2020
197 Snow -15 1003 84 5000 9 330 01:51 05.04.2020
198 Snow -15 1003 84 5000 9 330 01:32 05.04.2020
199 Snow -15 1004 84 4700 8 330 00:48 05.04.2020
200 Snow -15 1004 84 4700 8 330 00:22 05.04.2020
201 Snow -15 1004 84 4700 8 330 00:22 05.04.2020
202 Snow -15 1004 77 10000 7 330 23:57 04.04.2020
203 Snow -15 1004 77 10000 7 330 23:38 04.04.2020
204 Snow -15 1004 77 10000 7 330 23:20 04.04.2020
205 Snow -15 1004 84 4400 4 320 22:56 04.04.2020
206 Snow -15 1004 84 4400 4 320 22:37 04.04.2020
207 Snow -15 1004 84 4400 4 320 22:19 04.04.2020
208 Snow -15 1005 84 3100 3 320 21:55 04.04.2020
209 Snow -15 1005 84 3100 3 320 21:36 04.04.2020
210 Snow -15 1005 84 3100 3 320 21:18 04.04.2020
211 Snow -15 1005 84 8000 4 10 20:42 04.04.2020
212 Snow -15 1005 84 8000 4 10 20:23 04.04.2020
213 Snow -15 1005 84 7000 6 20 19:59 04.04.2020
214 Snow -15 1005 84 7000 6 20 19:38 04.04.2020
215 Snow -15 1005 84 7000 6 20 19:19 04.04.2020
216 Snow -15 1005 84 5000 4 10 18:58 04.04.2020
217 Snow -15 1005 84 5000 4 10 18:39 04.04.2020
218 Snow -15 1005 84 5000 4 10 18:19 04.04.2020
219 Snow -15 1005 84 6000 5 10 17:56 04.04.2020
220 Snow -15 1005 84 6000 5 10 17:38 04.04.2020
221 Snow -15 1005 84 6000 5 10 17:19 04.04.2020
222 Snow -15 1005 84 8000 6 350 16:42 04.04.2020
223 Snow -15 1005 84 8000 6 350 16:23 04.04.2020
224 Snow -15 1006 84 10000 6 360 15:58 04.04.2020
225 Snow -15 1006 84 10000 6 360 15:38 04.04.2020
226 Snow -15 1006 84 10000 6 360 15:19 04.04.2020
227 Snow -15 1006 84 10000 6 360 15:19 04.04.2020
228 Snow -15 1006 84 10000 6 360 15:19 04.04.2020
229 Snow -15 1006 84 10000 6 360 15:19 04.04.2020
230 Snow -15 1006 84 7000 7 350 14:46 04.04.2020
231 Snow -15 1006 84 7000 7 350 14:25 04.04.2020
232 Snow -15 1006 84 10000 6 360 13:58 04.04.2020
233 Snow -15 1006 84 10000 6 360 13:40 04.04.2020
234 Snow -15 1006 84 10000 6 360 13:20 04.04.2020
235 Snow -15 1006 84 10000 5 360 12:57 04.04.2020
236 Snow -15 1006 84 10000 5 360 12:39 04.04.2020
237 Snow -15 1006 84 10000 5 360 12:19 04.04.2020
238 Clouds -14 1007 77 10000 5 30 11:41 04.04.2020
239 Clouds -14 1007 77 10000 5 30 11:23 04.04.2020
240 Clouds -14 1007 77 10000 7 360 10:58 04.04.2020
241 Clouds -14 1007 77 10000 7 360 10:40 04.04.2020
242 Clouds -14 1007 77 10000 7 360 10:21 04.04.2020
243 Snow -14 1008 84 10000 4 10 09:55 04.04.2020
244 Snow -14 1008 84 10000 4 10 09:37 04.04.2020
245 Clouds -14 1008 84 10000 4 10 09:19 04.04.2020
246 Clouds -13 1008 84 10000 7 360 08:42 04.04.2020
247 Clouds -13 1008 84 10000 7 360 08:23 04.04.2020
248 Clouds -13 1008 84 10000 2 340 07:55 04.04.2020
249 Clouds -13 1008 84 10000 2 340 07:37 04.04.2020
250 Clouds -13 1008 84 10000 2 340 07:19 04.04.2020
251 Clouds -13 1008 84 10000 5 30 06:22 04.04.2020
252 Snow -13 1008 84 10000 5 40 05:51 04.04.2020
253 Snow -13 1008 84 10000 5 40 05:32 04.04.2020
254 Snow -13 1008 78 9000 8 10 04:34 04.04.2020
255 Snow -15 1009 77 9000 8 10 03:55 04.04.2020
256 Snow -16 1009 84 10000 8 360 03:27 04.04.2020
257 Clouds -16 1010 84 6000 7 350 02:42 04.04.2020
258 Mist -18 1010 84 2100 6 360 02:24 04.04.2020
259 Mist -19 1011 84 1200 6 360 01:27 04.04.2020
260 Mist -20 1011 76 1500 5 350 00:57 04.04.2020
261 Mist -21 1011 76 8000 6 340 00:31 04.04.2020
262 Mist -21 1011 76 2300 5 330 23:57 03.04.2020
263 Fog -22 1011 76 10000 5 340 23:38 03.04.2020
264 Fog -22 1011 76 10000 5 340 23:19 03.04.2020
265 Fog -22 1012 83 10000 5 340 22:40 03.04.2020
266 Fog -21 1012 83 10000 3 320 22:19 03.04.2020
267 Fog -21 1012 83 10000 3 320 22:19 03.04.2020
268 Clouds -21 1012 76 10000 4 350 21:56 03.04.2020
269 Clouds -21 1012 76 10000 4 350 21:38 03.04.2020
270 Clouds -21 1012 76 10000 4 350 21:20 03.04.2020
271 Clouds -22 1012 83 10000 4 350 20:55 03.04.2020
272 Clouds -22 1012 83 10000 4 350 20:36 03.04.2020
273 Clouds -22 1012 83 10000 4 350 20:18 03.04.2020
274 Clouds -22 1013 83 10000 3 10 19:55 03.04.2020
275 Clouds -22 1013 83 10000 3 10 19:36 03.04.2020
276 Clouds -22 1013 83 10000 3 10 19:18 03.04.2020
277 Clouds -21 1013 83 10000 3 10 18:57 03.04.2020
278 Clouds -21 1013 83 10000 3 10 18:39 03.04.2020
279 Clouds -21 1013 83 10000 3 10 18:39 03.04.2020
280 Clouds -21 1013 83 10000 3 10 18:21 03.04.2020
281 Clouds -21 1013 83 10000 4 20 17:41 03.04.2020
282 Clouds -21 1013 83 10000 4 20 17:19 03.04.2020
283 Clouds -20 1013 83 10000 5 20 16:55 03.04.2020
284 Clouds -20 1013 83 10000 5 20 16:36 03.04.2020
285 Clouds -20 1013 83 10000 5 20 16:36 03.04.2020
286 Clouds -20 1013 83 10000 5 20 16:18 03.04.2020
287 Clouds -20 1013 83 10000 4 40 15:55 03.04.2020
288 Clouds -20 1013 83 10000 4 40 15:36 03.04.2020
289 Clouds -20 1014 83 10000 2 40 15:18 03.04.2020
290 Clouds -17 1014 84 0 4.92 360 14:40 03.04.2020
291 Clouds -17 1014 84 10000 2 330 14:22 03.04.2020
292 Clouds -17 1014 84 10000 2 330 13:54 03.04.2020
293 Clouds -17 1014 84 10000 2 330 13:36 03.04.2020
294 Clouds -17 1014 84 10000 2 330 13:18 03.04.2020
295 Clouds -17 1014 84 10000 2 350 12:42 03.04.2020
296 Clouds -17 1014 84 10000 2 350 12:19 03.04.2020
297 Clouds -16 1014 84 10000 2 340 11:56 03.04.2020
298 Clouds -16 1014 84 10000 2 340 11:37 03.04.2020
299 Clouds -16 1014 84 10000 2 340 11:18 03.04.2020
300 Clouds -16 1014 84 10000 3 340 10:57 03.04.2020
301 Clouds -16 1014 84 10000 3 340 10:38 03.04.2020
302 Clouds -16 1014 84 10000 3 340 10:38 03.04.2020
303 Clouds -16 1014 84 10000 3 340 10:20 03.04.2020
304 Clouds -16 1014 84 10000 3 340 10:20 03.04.2020
305 Clouds -14 1014 84 10000 3 340 09:57 03.04.2020
306 Clouds -14 1014 84 10000 3 340 09:38 03.04.2020
307 Clouds -14 1014 84 10000 3 340 09:20 03.04.2020
308 Snow -14 1013 84 4700 3 330 08:45 03.04.2020
309 Snow -14 1013 84 4700 3 330 08:25 03.04.2020
310 Snow -13 1013 84 2600 4 330 07:59 03.04.2020
311 Snow -13 1013 84 4500 5 340 07:40 03.04.2020
312 Snow -13 1013 84 4500 5 340 07:22 03.04.2020
313 Snow -12 1013 85 10000 3 350 06:29 03.04.2020
314 Clouds -12 1013 85 10000 5 340 05:43 03.04.2020
315 Snow -12 1012 85 8000 7 330 04:30 03.04.2020
316 Clouds -13 1012 84 10000 4 350 03:35 03.04.2020
317 Clouds -14 1012 84 10000 4 350 02:47 03.04.2020
318 Clouds -16 1012 84 10000 6 350 01:27 03.04.2020
319 Clouds -15 1011 77 10000 7 330 00:56 03.04.2020
320 Fog -16 1011 84 10000 7 340 00:33 03.04.2020
321 Clouds -17 1011 84 9000 7 340 23:57 02.04.2020
322 Clouds -17 1011 84 9000 7 340 23:38 02.04.2020
323 Mist -18 1011 84 6000 6 330 23:19 02.04.2020
324 Mist -17 1011 77 1600 5 340 22:43 02.04.2020
325 Mist -16 1011 84 6000 5 360 22:24 02.04.2020
326 Clouds -19 1010 84 10000 2 10 21:59 02.04.2020
327 Clouds -19 1010 84 10000 2 10 21:59 02.04.2020
328 Clouds -19 1010 84 10000 2 10 21:59 02.04.2020
329 Clouds -19 1010 84 10000 2 10 21:37 02.04.2020
330 Clouds -19 1010 84 10000 2 10 21:19 02.04.2020
331 Clouds -19 1010 84 10000 4 350 20:54 02.04.2020
332 Clouds -19 1010 84 10000 4 350 20:36 02.04.2020
333 Clouds -19 1010 84 10000 4 350 20:18 02.04.2020
334 Fog -18 1010 84 10000 3 10 19:42 02.04.2020
335 Fog -18 1010 84 10000 3 10 19:20 02.04.2020
336 Clouds -16 1010 84 10000 3 30 18:56 02.04.2020
337 Clouds -16 1010 84 10000 3 30 18:38 02.04.2020
338 Clouds -16 1010 84 10000 3 30 18:19 02.04.2020
339 Clouds -14 1010 84 10000 2 40 17:43 02.04.2020
340 Clouds -14 1010 84 10000 2 40 17:24 02.04.2020
341 Clouds -15 1010 84 10000 2 360 16:59 02.04.2020
342 Clouds -15 1010 84 10000 2 360 16:40 02.04.2020
343 Clouds -15 1010 84 10000 2 360 16:22 02.04.2020
344 Clouds -13 1010 84 10000 3 350 15:57 02.04.2020
345 Clouds -13 1010 84 10000 3 350 15:39 02.04.2020
346 Clouds -13 1010 84 10000 3 350 15:19 02.04.2020
347 Clouds -11 1010 72 10000 2 80 14:57 02.04.2020
348 Clouds -11 1010 72 10000 2 80 14:38 02.04.2020
349 Clouds -11 1010 72 10000 2 80 14:19 02.04.2020
350 Clouds -12 1011 78 10000 2 90 13:55 02.04.2020
351 Clouds -12 1011 78 10000 2 90 13:37 02.04.2020
352 Clouds -12 1011 78 10000 2 90 13:18 02.04.2020
353 Clouds -13 1011 78 10000 1 90 12:45 02.04.2020
354 Clouds -13 1011 78 10000 1 90 12:20 02.04.2020
355 Clouds -13 1011 78 10000 2 70 11:58 02.04.2020
356 Clouds -13 1011 78 10000 2 70 11:39 02.04.2020
357 Clouds -13 1011 78 10000 2 70 11:20 02.04.2020
358 Clouds -12 1011 78 10000 2 80 10:57 02.04.2020
359 Clouds -12 1011 78 10000 2 80 10:38 02.04.2020
360 Clouds -12 1011 78 10000 2 80 10:20 02.04.2020
361 Clouds -13 1011 71 10000 3 70 09:59 02.04.2020
362 Clouds -13 1011 71 10000 3 70 09:41 02.04.2020
363 Clouds -13 1011 71 10000 3 70 09:21 02.04.2020
364 Clouds -11 1011 72 10000 3 50 08:48 02.04.2020
365 Clouds -8 1011 72 10000 3 160 08:28 02.04.2020
366 Clouds -7 1011 73 10000 3 160 07:59 02.04.2020
367 Clouds -7 1011 73 10000 3 140 07:40 02.04.2020
368 Clouds -7 1011 73 10000 3 140 07:19 02.04.2020
369 Clouds -7 1011 73 10000 3 160 06:25 02.04.2020
370 Clouds -7 1011 73 10000 3 150 05:46 02.04.2020
371 Clouds -7 1011 73 10000 4 140 04:58 02.04.2020
372 Clear -10 1012 85 10000 2 80 02:21 02.04.2020
373 Clear -11 1012 85 10000 3 160 01:27 02.04.2020
374 Clear -11 1012 85 10000 3 170 00:41 02.04.2020
375 Clear -11 1012 85 10000 2 180 00:20 02.04.2020
376 Clear -11 1012 85 10000 3 170 23:39 01.04.2020
377 Clear -11 1012 85 10000 3 160 23:19 01.04.2020
378 Clear -11 1012 85 10000 2 190 22:57 01.04.2020
379 Clear -11 1012 85 10000 2 190 22:57 01.04.2020
380 Clear -11 1012 85 10000 2 190 22:38 01.04.2020
381 Clouds -11 1012 85 10000 3 190 22:19 01.04.2020
382 Clouds -11 1012 85 10000 3 190 22:19 01.04.2020
383 Clouds -10 1011 85 10000 2 160 21:41 01.04.2020
384 Clouds -10 1011 85 10000 2 160 21:19 01.04.2020
385 Clouds -10 1011 85 10000 2 160 21:19 01.04.2020
386 Snow -9 1011 85 10000 2 180 20:56 01.04.2020
387 Snow -9 1011 85 10000 2 180 20:38 01.04.2020
388 Snow -9 1011 85 10000 2 180 20:20 01.04.2020
389 Snow -8 1011 78 10000 1 150 19:58 01.04.2020
390 Snow -8 1011 78 10000 1 150 19:39 01.04.2020
391 Snow -8 1011 78 10000 1 150 19:19 01.04.2020
392 Snow -8 1011 78 10000 1 110 18:42 01.04.2020
393 Snow -8 1011 78 10000 1 110 18:42 01.04.2020
394 Snow -8 1011 78 10000 1 110 18:23 01.04.2020
395 Snow -8 1010 78 10000 3 60 17:57 01.04.2020
396 Snow -8 1010 78 10000 3 60 17:38 01.04.2020
397 Snow -8 1010 78 10000 3 60 17:19 01.04.2020
398 Snow -8 1010 78 10000 3 60 17:19 01.04.2020
399 Snow -9 1010 85 10000 2 20 16:58 01.04.2020
400 Snow -9 1010 85 10000 2 20 16:39 01.04.2020
401 Snow -9 1010 85 10000 2 20 16:39 01.04.2020
402 Snow -9 1010 85 10000 2 20 16:20 01.04.2020
403 Snow -10 1010 85 10000 1 350 15:57 01.04.2020
404 Snow -10 1010 85 10000 1 350 15:37 01.04.2020
405 Snow -10 1010 85 10000 1 350 15:18 01.04.2020
406 Snow -10 1009 85 10000 2 10 14:41 01.04.2020
407 Snow -10 1009 85 10000 2 10 14:23 01.04.2020
408 Snow -11 1009 92 10000 2 360 13:59 01.04.2020
409 Snow -11 1009 92 10000 2 360 13:40 01.04.2020
410 Snow -11 1009 92 10000 2 360 13:20 01.04.2020
411 Snow -11 1009 92 10000 2 360 13:20 01.04.2020
412 Snow -10 1008 92 10000 3 10 12:59 01.04.2020
413 Snow -10 1008 92 10000 3 10 12:41 01.04.2020
414 Snow -10 1008 92 10000 3 10 12:22 01.04.2020
415 Clouds -9 1007 85 10000 5 340 11:57 01.04.2020
416 Clouds -9 1007 85 10000 5 340 11:38 01.04.2020
417 Clouds -9 1007 85 10000 5 340 11:20 01.04.2020
418 Clouds -9 1007 92 10000 5 340 10:40 01.04.2020
419 Clouds -9 1007 92 10000 5 340 10:21 01.04.2020
420 Clouds -8 1006 85 10000 2 260 09:59 01.04.2020
421 Clouds -8 1006 85 10000 2 260 09:40 01.04.2020
422 Clouds -8 1006 85 10000 2 260 09:20 01.04.2020
423 Clouds -7 1006 85 10000 1 320 08:54 01.04.2020
424 Clouds -7 1005 85 10000 7 280 08:36 01.04.2020
425 Clouds -7 1005 85 10000 7 280 08:18 01.04.2020
426 Snow -6 1004 92 10000 6 290 07:40 01.04.2020
427 Clouds -1 1003 86 10000 6 160 07:19 01.04.2020
428 Clouds -1 1003 86 10000 6 150 06:43 01.04.2020
429 Clouds -1 1003 86 10000 7 140 06:21 01.04.2020
430 Clouds -1 1003 86 10000 8 140 05:41 01.04.2020
431 Clouds -1 1002 80 10000 8 130 03:57 01.04.2020
432 Clouds -1 1003 80 10000 9 130 03:19 01.04.2020
433 Snow -1 1003 80 9000 10 150 02:37 01.04.2020
434 Clouds -1 1003 74 10000 10 150 01:53 01.04.2020
435 Clouds -1 1003 74 10000 9 140 01:27 01.04.2020
436 Snow -2 1003 79 9000 9 140 00:47 01.04.2020
437 Snow -2 1003 79 9000 9 130 00:23 01.04.2020
438 Clouds -2 1003 79 10000 9 130 23:59 31.03.2020
439 Clouds -2 1003 79 10000 9 130 23:40 31.03.2020
440 Clouds -1 1003 74 5000 11 130 23:21 31.03.2020
441 Clouds -3 1003 86 8000 11 130 22:41 31.03.2020
442 Clouds -3 1003 86 8000 11 130 22:21 31.03.2020
443 Snow -4 1003 85 3400 10 130 21:58 31.03.2020
444 Snow -4 1003 85 3400 10 130 21:40 31.03.2020
445 Snow -4 1003 85 3400 10 130 21:21 31.03.2020
446 Snow -5 1004 79 4000 9 140 20:57 31.03.2020
447 Snow -5 1004 79 4000 9 140 20:57 31.03.2020
448 Snow -5 1004 79 4000 9 140 20:57 31.03.2020
449 Snow -5 1004 79 4000 9 140 20:57 31.03.2020
450 Snow -5 1004 79 4000 9 140 20:37 31.03.2020
451 Snow -5 1004 79 4000 9 140 20:19 31.03.2020
452 Clouds -4 1004 53 10000 5 130 19:56 31.03.2020
453 Clouds -4 1004 53 10000 5 130 19:37 31.03.2020
454 Clouds -5 1004 53 10000 3 150 19:19 31.03.2020
455 Clouds -5 1004 53 10000 3 150 18:43 31.03.2020
456 Snow -7 1004 57 10000 5 160 18:20 31.03.2020
457 Clouds -7 1004 57 10000 5 160 17:57 31.03.2020
458 Clouds -7 1004 57 10000 5 160 17:39 31.03.2020
459 Clouds -7 1004 57 10000 5 160 17:21 31.03.2020
460 Clouds -8 1004 57 10000 5 180 16:56 31.03.2020
461 Clouds -8 1004 57 10000 5 180 16:36 31.03.2020
462 Clouds -8 1004 57 10000 5 180 16:18 31.03.2020
463 Clouds -9 1004 66 10000 5 170 15:54 31.03.2020
464 Clouds -9 1004 66 10000 5 170 15:36 31.03.2020
465 Clear -9 1004 66 10000 5 170 15:18 31.03.2020
466 Clouds -10 1004 72 10000 6 180 14:41 31.03.2020
467 Clouds -10 1004 72 10000 6 180 14:22 31.03.2020
468 Clouds -9 1003 72 10000 5 180 13:58 31.03.2020
469 Clouds -9 1003 72 10000 5 180 13:39 31.03.2020
470 Clouds -9 1003 72 10000 5 180 13:19 31.03.2020
471 Clear -9 1003 72 10000 5 170 12:44 31.03.2020
472 Clear -9 1003 72 10000 5 170 12:20 31.03.2020
473 Clouds -9 1002 78 10000 4 150 11:56 31.03.2020
474 Clouds -9 1002 78 10000 4 150 11:37 31.03.2020
475 Clouds -9 1002 78 10000 4 150 11:18 31.03.2020
476 Clouds -8 1002 72 10000 4 170 10:55 31.03.2020
477 Clouds -8 1002 72 10000 4 170 10:55 31.03.2020
478 Clouds -8 1002 72 10000 4 170 10:37 31.03.2020
479 Clouds -8 1002 72 10000 4 170 10:18 31.03.2020
480 Clouds -8 1002 72 10000 4 170 10:18 31.03.2020
481 Clouds -8 1001 78 10000 4 220 09:43 31.03.2020
482 Clear -8 1001 78 10000 3 220 09:25 31.03.2020
483 Clouds -7 1000 79 10000 3 240 08:58 31.03.2020
484 Clouds -7 1000 79 10000 3 240 08:39 31.03.2020
485 Clouds -6 1000 73 10000 3 230 08:20 31.03.2020
486 Clouds -6 1000 73 10000 3 230 08:20 31.03.2020
487 Clouds -6 999 79 10000 5 260 07:57 31.03.2020
488 Clouds -7 999 85 10000 7 270 07:38 31.03.2020
489 Clouds -7 999 85 10000 7 270 07:20 31.03.2020
490 Clouds -7 998 85 10000 6 280 06:51 31.03.2020
491 Clouds -6 998 79 10000 5 250 06:30 31.03.2020
492 Clouds -7 997 85 10000 7 290 05:40 31.03.2020
493 Clouds -7 996 85 10000 7 290 03:43 31.03.2020
494 Clouds -8 994 92 4500 8 280 02:25 31.03.2020
495 Clouds -8 994 92 3500 9 280 01:46 31.03.2020
496 Clouds -7 992 92 2100 8 280 00:52 31.03.2020
497 Clouds -7 992 92 6000 9 290 00:25 31.03.2020
498 Snow -6 991 92 2000 11 300 23:59 30.03.2020
499 Snow -6 991 92 2000 11 300 23:38 30.03.2020
500 Snow -2 991 86 1100 4 190 23:18 30.03.2020
501 -273 0 0 0 0 0 22:56 30.03.2020
502 Snow -2 990 92 2300 7 130 22:37 30.03.2020
503 Snow -2 990 92 2300 7 130 22:18 30.03.2020
504 Snow -2 990 92 1900 9 130 21:55 30.03.2020
505 Snow -2 990 92 1900 9 130 21:36 30.03.2020
506 Snow -2 990 92 1900 9 130 21:18 30.03.2020
507 Snow -2 990 92 750 13 130 20:42 30.03.2020
508 Snow -2 990 92 750 13 130 20:24 30.03.2020
509 Snow -2 990 92 750 13 130 20:24 30.03.2020
510 Clouds -1 990 86 5000 12 130 19:59 30.03.2020
511 Clouds -1 990 86 5000 12 130 19:40 30.03.2020
512 Clouds -1 990 86 5000 12 130 19:21 30.03.2020
513 Clouds -2 990 92 2000 14 130 18:57 30.03.2020
514 Clouds -2 990 92 2000 14 130 18:38 30.03.2020
515 Clouds -2 990 92 2000 14 130 18:20 30.03.2020
516 Clouds -2 991 92 1000 15 120 17:57 30.03.2020
517 Clouds -2 991 92 1000 15 120 17:38 30.03.2020
518 Clouds -2 991 92 1000 15 120 17:18 30.03.2020
519 Clouds -4 991 92 400 17 110 16:55 30.03.2020
520 Clouds -4 991 92 400 17 110 16:36 30.03.2020
521 Clouds -4 991 92 400 17 110 16:18 30.03.2020
522 Clouds -6 991 85 150 21 100 15:54 30.03.2020
523 Clouds -6 991 85 150 21 100 15:36 30.03.2020
524 Clouds -6 991 85 150 21 100 15:18 30.03.2020
525 Clouds -8 991 92 100 24 100 14:39 30.03.2020
526 Clouds -8 991 92 100 24 100 14:19 30.03.2020
527 Clouds -8 991 92 100 24 100 14:19 30.03.2020
528 Clouds -8 993 85 100 23 100 13:59 30.03.2020
529 Clouds -8 993 85 100 23 100 13:40 30.03.2020
530 Clouds -8 993 85 100 23 100 13:20 30.03.2020
531 Clouds -9 995 92 100 21 100 12:54 30.03.2020
532 Clouds -9 995 92 100 21 100 12:36 30.03.2020
533 Clouds -9 995 92 100 21 100 12:18 30.03.2020
534 Clouds -9 995 92 100 21 100 12:18 30.03.2020
535 Clouds -9 996 92 100 21 110 11:43 30.03.2020
536 -273 0 0 0 0 0 11:24 30.03.2020
537 Clouds -10 998 92 100 22 110 10:59 30.03.2020
538 Clouds -10 998 92 100 22 110 10:39 30.03.2020
539 Clouds -10 998 92 100 22 110 10:21 30.03.2020
540 Clouds -10 999 92 200 21 110 09:54 30.03.2020
541 Clouds -10 999 92 200 21 110 09:36 30.03.2020
542 Clouds -10 999 92 200 21 110 09:18 30.03.2020
543 Clouds -10 1001 85 300 20 110 08:39 30.03.2020
544 Clouds -10 1001 85 300 20 110 08:20 30.03.2020
545 Clouds -10 1002 85 250 21 110 07:45 30.03.2020
546 Clouds -10 1002 85 150 23 110 07:23 30.03.2020
547 Clouds -10 1003 85 150 21 110 06:47 30.03.2020
548 Clouds -10 1004 85 150 21 110 06:27 30.03.2020
549 Clouds -10 1004 85 150 21 110 05:44 30.03.2020
550 Clouds -9 1005 85 100 22 110 04:37 30.03.2020
551 Clouds -9 1006 92 100 20 110 04:18 30.03.2020
552 Snow -8 1010 85 150 19 120 02:52 30.03.2020
553 Snow -7 1012 85 300 16 120 01:58 30.03.2020
554 Snow -7 1011 85 350 15 120 01:18 30.03.2020
555 Clouds -7 1013 79 800 17 130 00:29 30.03.2020
556 Clouds -7 1013 85 650 15 130 23:57 29.03.2020
557 Clouds -7 1013 85 650 15 130 23:57 29.03.2020
558 Clouds -7 1013 85 650 15 130 23:39 29.03.2020
559 Clouds -8 1013 85 350 18 130 23:20 29.03.2020
560 Clouds -8 1014 85 550 16 130 22:55 29.03.2020
561 Clouds -8 1014 85 550 16 130 22:55 29.03.2020
562 Clouds -8 1014 85 550 16 130 22:37 29.03.2020
563 Clouds -8 1014 85 550 16 130 22:37 29.03.2020
564 Clouds -8 1014 85 600 14 120 22:18 29.03.2020
565 Clouds -9 1016 85 700 13 130 21:38 29.03.2020
566 Clouds -9 1016 85 700 13 130 21:20 29.03.2020
567 Clouds -9 1017 85 2100 11 120 20:56 29.03.2020
568 Clouds -9 1017 85 2100 11 120 20:37 29.03.2020
569 Clouds -9 1017 85 2100 11 120 20:37 29.03.2020
570 Clouds -9 1017 85 2100 11 120 20:19 29.03.2020
571 Clouds -8 1018 78 6000 11 130 19:57 29.03.2020
572 Clouds -8 1018 78 6000 11 130 19:39 29.03.2020
573 Clouds -8 1019 78 8000 11 120 19:21 29.03.2020
574 Clouds -8 1019 78 8000 11 120 18:57 29.03.2020
575 Clouds -8 1019 78 8000 11 120 18:38 29.03.2020
576 Clouds -9 1020 78 8000 10 120 18:19 29.03.2020
577 Clouds -9 1020 78 8000 10 120 17:56 29.03.2020
578 Clouds -9 1020 78 8000 10 120 17:37 29.03.2020
579 Clouds -9 1020 78 8000 10 120 17:18 29.03.2020
580 Clouds -9 1021 78 9000 11 130 16:56 29.03.2020
581 Clouds -9 1021 78 9000 11 130 16:38 29.03.2020
582 Clouds -9 1021 78 9000 11 130 16:18 29.03.2020
583 Clouds -10 1021 85 8000 10 110 15:41 29.03.2020
584 Clouds -10 1021 85 8000 10 110 15:23 29.03.2020
585 Clouds -10 1021 85 8000 10 110 15:23 29.03.2020
586 Clouds -10 1022 85 9000 10 110 14:58 29.03.2020
587 Clouds -10 1022 85 9000 10 110 14:40 29.03.2020
588 Clouds -10 1022 85 9000 10 110 14:20 29.03.2020
589 Clouds -9 1022 78 6000 10 110 13:57 29.03.2020
590 Clouds -9 1022 78 10000 10 100 13:39 29.03.2020
591 Clouds -9 1022 78 9000 13 110 13:20 29.03.2020
592 Clouds -9 1022 78 9000 13 110 12:55 29.03.2020
593 Clouds -9 1023 78 8000 12 120 12:37 29.03.2020
594 Clouds -9 1023 78 8000 12 120 12:19 29.03.2020
595 Clouds -9 1023 78 8000 12 120 12:19 29.03.2020
596 Clouds -9 1023 78 6000 14 120 11:55 29.03.2020
597 Clouds -8 1023 72 2200 15 120 11:36 29.03.2020
598 Clouds -8 1023 72 2200 15 120 11:18 29.03.2020
599 Clouds -9 1023 78 1800 16 120 10:38 29.03.2020
600 Clouds -9 1023 78 1800 16 120 10:18 29.03.2020
601 Clouds -9 1023 78 1800 16 120 10:18 29.03.2020
602 Clouds -10 1023 78 3800 14 110 09:41 29.03.2020
603 Clouds -10 1023 78 6000 13 110 09:20 29.03.2020
604 Clouds -10 1023 78 10000 12 110 08:54 29.03.2020
605 Clouds -10 1023 78 10000 12 110 08:54 29.03.2020
606 Clouds -11 1024 78 10000 12 110 08:30 29.03.2020
607 Clouds -11 1024 72 10000 12 120 07:59 29.03.2020
608 Clouds -10 1024 72 10000 12 120 07:41 29.03.2020
609 Clouds -10 1024 72 10000 12 120 07:20 29.03.2020
610 Clouds -11 1026 61 10000 10 130 05:41 29.03.2020
611 Clouds -11 1027 56 10000 9 120 03:58 29.03.2020
612 Clouds -12 1027 55 10000 9 130 03:28 29.03.2020
613 Clouds -12 1027 51 10000 8 130 01:51 29.03.2020
614 Clouds -12 1028 46 10000 7 130 01:23 29.03.2020
615 Clouds -12 1028 43 10000 6 120 00:55 29.03.2020
616 Clouds -12 1028 46 10000 6 120 00:32 29.03.2020
617 Clouds -14 1028 50 10000 6 140 23:43 28.03.2020
618 Clouds -14 1028 50 10000 6 140 23:24 28.03.2020
619 Clouds -15 1028 60 10000 6 150 22:59 28.03.2020
620 Clouds -16 1028 59 10000 1 140 22:39 28.03.2020
621 Clouds -16 1028 59 10000 1 140 22:20 28.03.2020
622 Clouds -23 1028 76 10000 1 340 21:54 28.03.2020
623 Clouds -23 1028 76 10000 1 340 21:36 28.03.2020
624 Clouds -23 1028 76 10000 1 340 21:18 28.03.2020
625 Clouds -24 1028 76 10000 2 350 20:41 28.03.2020
626 Clouds -24 1028 76 10000 2 350 20:23 28.03.2020
627 Clouds -23 1028 76 10000 1 270 19:57 28.03.2020
628 Clouds -23 1028 76 10000 1 270 19:39 28.03.2020
629 Clouds -23 1028 76 10000 1 270 19:20 28.03.2020
630 Clouds -23 1028 76 10000 2.21 106 18:58 28.03.2020
631 Clouds -23 1028 76 10000 2.21 106 18:38 28.03.2020
632 Clouds -23 1028 76 10000 2.21 106 18:19 28.03.2020
633 Clouds -21 1028 70 10000 1 110 17:39 28.03.2020
634 Clear -21 1028 70 10000 1 190 17:20 28.03.2020
635 Clear -21 1028 70 10000 1 190 16:43 28.03.2020
636 Clear -21 1028 70 10000 1 190 16:20 28.03.2020
637 Clear -24 1028 69 10000 3 70 15:58 28.03.2020
638 Clear -24 1028 69 10000 3 70 15:39 28.03.2020
639 Clear -24 1028 69 10000 3 70 15:19 28.03.2020
640 Clear -22 1028 76 10000 3 320 14:54 28.03.2020
641 Clear -22 1028 76 10000 3 320 14:36 28.03.2020
642 Clear -22 1028 76 10000 3 320 14:18 28.03.2020
643 Clear -24 1028 76 10000 3 60 13:38 28.03.2020
644 Clear -24 1028 76 10000 3 60 13:20 28.03.2020
645 Clear -22 1027 76 10000 2 40 12:39 28.03.2020
646 Clear -22 1027 76 10000 2 40 12:21 28.03.2020
647 Clear -21 1027 76 10000 2 20 11:42 28.03.2020
648 Clear -21 1027 76 10000 2 20 11:23 28.03.2020
649 Clear -23 1027 76 10000 3 30 10:56 28.03.2020
650 Clear -23 1027 76 10000 3 30 10:38 28.03.2020
651 Clear -23 1027 76 10000 3 30 10:18 28.03.2020
652 Clear -21 1026 76 10000 4 350 09:42 28.03.2020
653 Clear -21 1026 76 10000 4 350 09:23 28.03.2020
654 Clear -19 1026 70 10000 6 340 08:46 28.03.2020
655 Clear -19 1026 70 10000 6 340 08:27 28.03.2020
656 Clear -18 1025 70 10000 5 290 07:59 28.03.2020
657 Clear -18 1025 70 10000 5 290 07:41 28.03.2020
658 Clear -17 1024 70 10000 6 350 06:56 28.03.2020
659 Clear -17 1024 70 10000 6 350 06:33 28.03.2020
660 Clear -17 1024 70 10000 5 360 05:41 28.03.2020
661 Clear -17 1024 70 10000 5 360 05:19 28.03.2020
662 Clear -17 1023 77 10000 10 360 04:40 28.03.2020
663 Clear -18 1022 70 10000 5 360 02:55 28.03.2020
664 Clouds -18 1022 70 10000 5 10 01:48 28.03.2020
665 Clouds -18 1022 70 10000 5 10 01:24 28.03.2020
666 Clouds -18 1021 70 10000 5 350 00:54 28.03.2020
667 Clouds -18 1021 70 10000 5 350 00:33 28.03.2020
668 Clouds -19 1020 70 10000 6 360 23:45 27.03.2020
669 Clouds -19 1020 70 10000 6 360 23:26 27.03.2020
670 Clouds -20 1020 76 10000 3 10 22:58 27.03.2020
671 Clouds -20 1020 76 10000 3 10 22:40 27.03.2020
672 Clouds -20 1020 76 10000 3 10 22:21 27.03.2020
673 Clouds -21 1019 76 10000 5 350 22:00 27.03.2020
674 Clouds -21 1019 76 10000 5 350 21:41 27.03.2020
675 Clouds -21 1019 76 10000 5 350 21:23 27.03.2020
676 Clouds -21 1018 76 10000 6 10 20:57 27.03.2020
677 Clouds -21 1018 76 10000 6 10 20:39 27.03.2020
678 Clouds -21 1018 76 10000 6 10 20:19 27.03.2020
679 Clouds -21 1018 76 10000 6 10 20:19 27.03.2020
680 Clouds -21 1018 76 10000 9 20 19:56 27.03.2020
681 Clouds -21 1018 76 10000 9 20 19:38 27.03.2020
682 Clouds -21 1018 76 10000 9 20 19:19 27.03.2020
683 Clouds -21 1017 76 10000 10 10 18:43 27.03.2020
684 Clouds -21 1017 76 10000 10 10 18:23 27.03.2020
685 Clouds -20 1016 76 9000 6 350 17:55 27.03.2020
686 Clouds -20 1016 76 9000 6 350 17:37 27.03.2020
687 Clouds -18 1016 77 2200 15 40 17:19 27.03.2020
688 Clouds -16 1016 77 2200 15 40 16:44 27.03.2020
689 Clouds -16 1016 77 2200 15 40 16:25 27.03.2020
690 Clouds -17 1016 77 1500 15 30 15:45 27.03.2020
691 Clouds -17 1016 77 1500 15 30 15:26 27.03.2020
692 Clouds -17 1015 84 700 17 30 14:57 27.03.2020
693 Clouds -17 1015 84 700 17 30 14:39 27.03.2020
694 Clouds -17 1015 84 700 17 30 14:21 27.03.2020
695 Clouds -16 1015 77 1200 18 40 13:43 27.03.2020
696 Clouds -16 1015 77 1200 18 40 13:22 27.03.2020
697 Clouds -17 1015 84 250 16 30 12:59 27.03.2020
698 Clouds -17 1015 84 250 16 30 12:41 27.03.2020
699 Clouds -17 1015 84 250 16 30 12:19 27.03.2020
700 Clouds -16 1015 84 650 14 40 11:43 27.03.2020
701 Clouds -16 1015 84 650 14 40 11:25 27.03.2020
702 Clouds -15 1015 84 300 17 30 10:57 27.03.2020
703 Clouds -15 1015 84 300 17 30 10:39 27.03.2020
704 Clouds -15 1015 84 300 17 30 10:20 27.03.2020
705 Clouds -13 1015 84 2100 13 30 09:58 27.03.2020
706 Clouds -13 1015 84 2100 13 30 09:58 27.03.2020
707 Clouds -13 1015 84 2100 13 30 09:39 27.03.2020
708 Clouds -13 1015 84 2100 13 30 09:21 27.03.2020
709 Clouds -14 1014 84 450 16 30 08:58 27.03.2020
710 Clouds -14 1014 84 450 16 30 08:39 27.03.2020
711 Clouds -14 1014 84 450 16 30 08:21 27.03.2020
712 Clouds -10 1014 78 700 14 30 07:53 27.03.2020
713 Clouds -10 1014 78 700 14 30 07:28 27.03.2020
714 Clouds -10 1014 78 800 12 60 06:57 27.03.2020
715 Snow -10 1014 85 1000 13 30 06:37 27.03.2020
716 Clouds -10 1014 85 200 16 20 05:37 27.03.2020
717 Snow -8 1013 85 550 12 60 02:51 27.03.2020
718 Snow -8 1013 85 1300 12 50 01:50 27.03.2020
719 Snow -7 1013 79 1900 14 60 00:55 27.03.2020
720 Snow -8 1013 85 600 14 70 00:32 27.03.2020
721 Snow -7 1013 85 1300 14 70 23:45 26.03.2020
722 Snow -7 1013 85 1300 14 70 23:25 26.03.2020
723 Snow -7 1013 85 800 13 70 22:59 26.03.2020
724 Snow -7 1013 85 900 12 70 22:39 26.03.2020
725 Snow -7 1013 85 900 12 70 22:20 26.03.2020
726 Clouds -7 1013 92 600 12 70 21:59 26.03.2020
727 Clouds -7 1013 92 600 12 70 21:39 26.03.2020
728 Clouds -7 1013 85 350 12 80 21:21 26.03.2020
729 Clouds -7 1012 85 150 17 90 20:58 26.03.2020
730 Clouds -7 1012 85 150 17 90 20:38 26.03.2020
731 -273 0 0 0 0 0 20:20 26.03.2020
732 Clouds -7 1012 92 100 21 90 19:56 26.03.2020
733 Clouds -7 1012 92 100 21 90 19:38 26.03.2020
734 Clouds -7 1012 92 100 21 90 19:20 26.03.2020
735 Clouds -6 1012 92 100 20 90 18:55 26.03.2020
736 Clouds -6 1012 92 100 20 90 18:37 26.03.2020
737 Clouds -6 1011 92 150 22 90 18:19 26.03.2020
738 Clouds -5 1011 92 150 22 90 17:42 26.03.2020
739 Snow -5 1012 92 200 20 100 17:19 26.03.2020
740 Snow -5 1012 92 200 20 100 17:19 26.03.2020
741 Snow -5 1012 92 200 20 100 16:45 26.03.2020
742 Snow -5 1012 92 200 20 100 16:27 26.03.2020
743 Snow -5 1013 92 600 15 90 15:59 26.03.2020
744 Snow -5 1013 92 600 15 90 15:41 26.03.2020
745 Snow -5 1013 92 600 15 90 15:22 26.03.2020
746 Snow -5 1014 92 1000 14 90 14:58 26.03.2020
747 Snow -5 1014 92 1000 14 90 14:39 26.03.2020
748 Snow -5 1014 92 1000 14 90 14:19 26.03.2020
749 Snow -5 1014 92 900 14 90 13:43 26.03.2020
750 Snow -5 1014 92 900 14 90 13:23 26.03.2020
751 Snow -4 1015 92 1800 8 100 12:57 26.03.2020
752 Snow -4 1015 92 1800 8 100 12:38 26.03.2020
753 Snow -4 1015 92 3600 7 100 12:19 26.03.2020
754 Snow -3 1015 92 3600 7 100 11:45 26.03.2020
755 Snow -3 1015 92 3600 7 100 11:21 26.03.2020
756 Snow -4 1015 92 6000 3 30 10:56 26.03.2020
757 Snow -4 1015 92 6000 3 30 10:37 26.03.2020
758 Snow -4 1015 92 6000 3 30 10:18 26.03.2020
759 Snow -2 1016 92 5000 4 50 09:43 26.03.2020
760 Snow -2 1016 92 5000 4 50 09:20 26.03.2020
761 Snow -5 1016 100 9000 5 68 08:55 26.03.2020
762 Snow -5 1016 100 9000 5 68 08:37 26.03.2020
763 Snow -5 1016 100 9000 3.43 67 08:18 26.03.2020
764 Clouds -5 1016 92 10000 1 190 07:41 26.03.2020
765 Clouds -5 1016 92 10000 1 190 07:20 26.03.2020
766 Fog -5 1016 92 10000 2 320 06:48 26.03.2020
767 Snow -4 1016 92 10000 1 360 05:54 26.03.2020
768 Fog -4 1017 92 10000 4 10 03:59 26.03.2020
769 Fog -4 1017 92 10000 2 360 03:36 26.03.2020
770 Fog -4 1017 92 10000 1 50 02:54 26.03.2020
771 Fog -5 1017 92 10000 2 320 01:50 26.03.2020
772 Clouds -6 1018 92 10000 1 50 00:48 26.03.2020
773 Clouds -7 1018 92 10000 2 240 23:56 25.03.2020
774 Clouds -8 1018 92 10000 2 250 23:36 25.03.2020
775 Clouds -8 1018 92 10000 2 210 23:18 25.03.2020
776 Clouds -8 1018 92 10000 1 60 22:38 25.03.2020
777 Clouds -7 1018 92 10000 1 60 22:20 25.03.2020
778 Clouds -8 1018 92 10000 0.42 220 21:55 25.03.2020
779 Fog -8 1017 92 10000 1 70 21:37 25.03.2020
780 Fog -8 1017 92 10000 1 70 21:18 25.03.2020
781 Fog -8 1017 92 10000 1 30 20:40 25.03.2020
782 Fog -8 1017 92 10000 1 30 20:20 25.03.2020
783 Fog -9 1017 92 10000 2 20 19:59 25.03.2020
784 Fog -9 1017 92 10000 2 20 19:41 25.03.2020
785 Fog -9 1017 92 10000 2 20 19:21 25.03.2020
786 Mist -9 1017 92 2200 2 20 18:56 25.03.2020
787 Mist -9 1017 92 2200 2 20 18:37 25.03.2020
788 Mist -9 1017 92 2200 2 20 18:37 25.03.2020
789 Fog -8 1017 92 200 1 50 18:19 25.03.2020
790 Fog -7 1017 92 200 1 50 17:54 25.03.2020
791 Fog -7 1017 92 200 1 50 17:36 25.03.2020
792 Fog -7 1016 92 100 1 360 17:18 25.03.2020
793 Fog -6 1016 92 100 1 360 16:41 25.03.2020
794 Fog -6 1016 92 100 1 360 16:21 25.03.2020
795 Fog -5 1016 92 100 1 360 15:57 25.03.2020
796 Fog -5 1016 92 100 1 360 15:37 25.03.2020
797 Fog -5 1016 92 100 1 360 15:18 25.03.2020
798 Fog -5 1016 92 100 1 360 15:18 25.03.2020
799 Fog -4 1016 92 150 1 350 14:41 25.03.2020
800 Fog -4 1016 92 150 1 350 14:21 25.03.2020
801 Fog -4 1015 100 100 4 330 13:46 25.03.2020
802 Fog -4 1015 100 100 4 330 13:26 25.03.2020
803 Clouds -2 1015 92 10000 4 310 12:57 25.03.2020
804 Clouds -2 1015 92 10000 4 310 12:37 25.03.2020
805 Clouds -2 1015 92 10000 4 310 12:18 25.03.2020
806 Clouds -2 1015 92 10000 2.62 303 11:43 25.03.2020
807 Clouds -2 1015 92 10000 2.62 303 11:21 25.03.2020
808 Clouds -2 1015 92 10000 2.62 303 11:21 25.03.2020
809 Clouds -2 1015 92 10000 1 310 10:59 25.03.2020
810 Clouds -2 1015 92 10000 1 310 10:40 25.03.2020
811 Clouds -2 1015 92 10000 1 310 10:19 25.03.2020
812 Clouds -1 1014 92 10000 3.01 265 09:59 25.03.2020
813 Clouds -1 1014 92 10000 3.01 265 09:40 25.03.2020
814 Clouds -1 1014 92 10000 3.01 265 09:22 25.03.2020
815 Clouds -1 1014 86 10000 1 180 08:54 25.03.2020
816 Clouds -1 1013 86 10000 3.01 265 08:36 25.03.2020
817 Clouds -1 1013 86 10000 1.69 243 08:18 25.03.2020
818 Clouds -1 1013 92 10000 1 290 07:39 25.03.2020
819 Clouds -1 1013 92 10000 1 290 07:19 25.03.2020
820 Clouds -1 1013 86 10000 1 310 06:45 25.03.2020
821 Clouds -1 1013 92 10000 1 310 06:25 25.03.2020
822 Clouds 0 1012 96 10000 2 30 05:50 25.03.2020
823 Clouds -1 1012 92 10000 2 40 04:59 25.03.2020
824 Clouds -1 1013 92 10000 2 30 04:36 25.03.2020
825 Clouds -2 1013 92 10000 1.93 230 03:34 25.03.2020
826 Clouds -2 1013 86 10000 2 180 01:55 25.03.2020
827 Snow -3 1013 92 8000 1 210 01:20 25.03.2020
828 Clouds -3 1013 92 7000 2 200 00:43 25.03.2020
829 Clouds -3 1013 92 7000 2 200 00:19 25.03.2020
830 Mist -3 1013 92 6000 3 170 23:42 24.03.2020
831 Mist -3 1013 92 6000 3 170 23:22 24.03.2020
832 Mist -3 1013 92 10000 2 230 22:55 24.03.2020
833 Fog -3 1012 92 10000 4 150 22:37 24.03.2020
834 Fog -3 1012 92 10000 4 150 22:37 24.03.2020
835 Fog -3 1012 92 10000 4 150 22:19 24.03.2020
836 Fog -2 1013 86 10000 4 150 21:54 24.03.2020
837 Clouds -2 1013 86 10000 4 170 21:36 24.03.2020
838 Clouds -2 1013 86 10000 4 170 21:18 24.03.2020
839 Clouds -2 1013 86 10000 3 170 20:41 24.03.2020
840 Clouds -2 1013 86 10000 3 170 20:23 24.03.2020
841 Clouds 0 1013 97 10000 4 140 19:54 24.03.2020
842 Clouds 0 1013 97 10000 4 140 19:36 24.03.2020
843 Clouds 0 1013 97 10000 4 140 19:18 24.03.2020
844 Clouds 0 1013 97 10000 5 140 18:54 24.03.2020
845 Clouds 0 1013 97 10000 5 140 18:36 24.03.2020
846 Clouds 0 1014 97 10000 5 140 18:18 24.03.2020
847 Clouds 0 1014 97 10000 5 140 17:41 24.03.2020
848 Clouds 0 1014 97 10000 5 140 17:22 24.03.2020
849 Clouds 0 1014 97 10000 5 140 17:22 24.03.2020
850 Clouds -3 1014 86 10000 3 170 16:57 24.03.2020
851 Clouds -3 1014 86 10000 3 170 16:39 24.03.2020
852 -273 0 0 0 0 0 16:20 24.03.2020
853 Clouds -1 1015 80 10000 3 160 15:55 24.03.2020
854 Clouds -1 1015 80 10000 3 160 15:37 24.03.2020
855 Clouds -1 1015 80 10000 3 160 15:19 24.03.2020
856 Clouds -1 1015 80 10000 4 170 14:42 24.03.2020
857 Clouds -1 1015 80 10000 4 170 14:18 24.03.2020
858 Clouds -2 1016 86 10000 5 180 13:42 24.03.2020
859 Clouds -2 1016 86 10000 5 180 13:23 24.03.2020
860 Clouds -2 1016 86 10000 4 170 12:54 24.03.2020
861 Clouds -2 1016 86 10000 4 170 12:36 24.03.2020
862 Clouds -2 1016 86 10000 4 170 12:18 24.03.2020
863 Clouds -2 1017 86 10000 4 180 11:39 24.03.2020
864 Clouds -2 1017 86 10000 4 180 11:19 24.03.2020
865 Clouds 0 1017 90 10000 4 170 10:43 24.03.2020
866 Clouds 0 1017 90 10000 4 170 10:43 24.03.2020
867 Clouds 0 1017 90 10000 4 170 10:20 24.03.2020
868 Clouds 0 1017 90 10000 4 170 09:58 24.03.2020
869 Clouds 0 1017 90 10000 4 170 09:39 24.03.2020
870 Clouds 0 1017 90 10000 4 170 09:21 24.03.2020
871 Clouds -1 1017 80 10000 4 160 08:38 24.03.2020
872 Clear -1 1017 80 10000 4 160 08:20 24.03.2020
873 Clear -1 1017 74 10000 2 120 07:47 24.03.2020
874 Clear -1 1017 74 10000 2 120 07:24 24.03.2020
875 Clear 0 1017 90 10000 2 140 06:53 24.03.2020
876 Clear -1 1017 80 10000 2 150 06:27 24.03.2020
877 Clear -2 1017 79 10000 3.35 220 04:57 24.03.2020
878 Clear -3 1017 86 10000 1 230 03:48 24.03.2020
879 Clear -2 1017 79 10000 1 160 03:18 24.03.2020
880 Clouds -1 1017 80 10000 2 160 01:47 24.03.2020
881 Clouds -3 1017 79 10000 4 150 00:48 24.03.2020
882 Clouds -2 1017 79 10000 3 150 00:25 24.03.2020
883 Clouds -4 1017 85 10000 4 150 23:45 23.03.2020
884 Clouds -4 1017 85 10000 4 150 23:26 23.03.2020
885 Clouds -3 1017 86 10000 4 150 22:56 23.03.2020
886 Clouds -3 1016 79 10000 4 160 22:37 23.03.2020
887 Clouds -2 1016 79 10000 4 160 22:19 23.03.2020
888 Clouds -2 1016 86 10000 4 170 21:44 23.03.2020
889 Clouds -2 1017 86 10000 4 180 21:21 23.03.2020
890 Clouds -1 1017 80 10000 4 170 20:58 23.03.2020
891 Clouds -1 1017 80 10000 4 170 20:40 23.03.2020
892 Clouds -1 1017 80 10000 4 170 20:22 23.03.2020
893 Clouds -1 1016 80 10000 5 180 19:46 23.03.2020
894 Clouds -1 1016 80 10000 5 180 19:28 23.03.2020
895 Clouds -1 1017 86 10000 5 180 18:59 23.03.2020
896 Clouds -1 1017 86 10000 5 180 18:41 23.03.2020
897 Clouds -1 1017 86 10000 5 180 18:22 23.03.2020
898 Clouds 0 1017 88 10000 5 170 17:56 23.03.2020
899 Clouds 0 1017 88 10000 5 170 17:37 23.03.2020
900 Clouds 0 1017 87 10000 6 170 17:18 23.03.2020
901 Clouds 0 1017 87 10000 6 170 16:43 23.03.2020
902 Clouds 0 1017 87 10000 6 170 16:24 23.03.2020
903 Clouds 0 1018 87 10000 6 170 15:42 23.03.2020
904 Clouds 0 1018 87 10000 6 170 15:21 23.03.2020
905 Clouds 0 1018 87 10000 7 170 14:57 23.03.2020
906 Clouds 0 1018 87 10000 7 170 14:37 23.03.2020
907 Clouds 0 1018 90 10000 7 170 14:18 23.03.2020
908 Clouds 1 1019 86 10000 6 180 13:41 23.03.2020
909 Clouds 1 1019 86 10000 6 180 13:41 23.03.2020
910 Clouds 1 1019 86 10000 6 180 13:22 23.03.2020
911 Clouds 1 1019 86 10000 5 180 12:58 23.03.2020
912 Clouds 1 1019 86 10000 5 180 12:58 23.03.2020
913 Clouds 1 1019 86 10000 5 180 12:40 23.03.2020
914 Clouds 1 1019 86 10000 5 180 12:21 23.03.2020
915 Snow 1 1020 86 10000 7 170 11:42 23.03.2020
916 Snow 1 1020 86 10000 7 170 11:42 23.03.2020
917 Snow 1 1020 86 10000 7 170 11:21 23.03.2020
918 Snow 1 1019 86 9000 6 170 10:58 23.03.2020
919 Snow 1 1019 86 9000 6 170 10:39 23.03.2020
920 Snow 1 1019 86 9000 6 170 10:21 23.03.2020
921 Snow 1 1020 86 10000 7 150 09:57 23.03.2020
922 Snow 1 1020 86 10000 7 150 09:39 23.03.2020
923 Snow 1 1020 86 10000 7 150 09:18 23.03.2020
924 Clouds 1 1020 74 10000 5 150 08:38 23.03.2020
925 Clouds 1 1020 74 10000 5 150 08:19 23.03.2020
926 Clouds 1 1020 74 10000 7 150 07:50 23.03.2020
927 Clouds 1 1020 69 10000 7 140 07:32 23.03.2020
928 Clouds 0 1020 89 10000 7 150 06:54 23.03.2020
929 Clouds 0 1020 89 10000 7 150 06:32 23.03.2020
930 Clouds -1 1021 80 10000 5 150 05:42 23.03.2020
931 Fog 0 1022 85 10000 4 150 03:45 23.03.2020
932 Fog -1 1022 85 10000 4 160 02:43 23.03.2020
933 Clouds 0 1022 89 10000 6 170 01:38 23.03.2020
934 Clouds 0 1022 74 10000 4 160 00:44 23.03.2020
935 Fog 0 1022 90 10000 5 150 23:54 22.03.2020
936 Fog 0 1022 90 10000 5 160 23:36 22.03.2020
937 Fog 0 1022 96 10000 5 160 23:18 22.03.2020
938 Fog 0 1021 96 10000 6 150 22:40 22.03.2020
939 Fog 0 1021 96 10000 6 150 22:19 22.03.2020
940 Fog -1 1021 80 10000 5 180 21:40 22.03.2020
941 Fog -2 1021 86 10000 4 180 21:21 22.03.2020
942 Fog -5 1021 85 10000 2 300 20:58 22.03.2020
943 Fog -5 1021 85 10000 2 300 20:39 22.03.2020
944 Fog -5 1021 85 10000 2 300 20:21 22.03.2020
945 Fog -3 1021 100 10000 1 280 19:55 22.03.2020
946 Fog -3 1021 100 10000 1 280 19:37 22.03.2020
947 Fog -3 1021 100 10000 1 280 19:19 22.03.2020
948 Fog -8 1021 92 9000 2 320 18:56 22.03.2020
949 Fog -8 1021 92 9000 2 320 18:38 22.03.2020
950 Fog -8 1021 92 9000 2 320 18:18 22.03.2020
951 Fog -10 1021 92 10000 4 120 17:56 22.03.2020
952 Fog -10 1021 92 10000 4 120 17:37 22.03.2020
953 Fog -10 1021 92 10000 4 120 17:19 22.03.2020
954 Fog -10 1022 92 10000 2 320 16:55 22.03.2020
955 Fog -10 1022 92 10000 2 320 16:36 22.03.2020
956 Fog -10 1022 92 10000 2 320 16:18 22.03.2020
957 Fog -10 1022 92 10000 2 20 15:39 22.03.2020
958 Clouds -8 1022 85 10000 2 340 14:55 22.03.2020
959 Clouds -8 1022 85 10000 2 340 14:37 22.03.2020
960 Clouds -8 1022 85 10000 2 340 14:18 22.03.2020
961 Clouds -4 1023 92 10000 2 20 13:41 22.03.2020
962 Clouds -4 1023 92 10000 2 20 13:20 22.03.2020
963 Clouds -3 1022 92 10000 3 210 12:47 22.03.2020
964 Clouds -3 1022 92 10000 3 210 12:23 22.03.2020
965 Clouds -1 1022 86 10000 3 190 11:59 22.03.2020
966 Clouds -1 1022 86 10000 3 190 11:41 22.03.2020
967 Clouds -1 1022 86 10000 3 190 11:23 22.03.2020
968 Snow -1 1021 86 10000 8 150 10:56 22.03.2020
969 Snow -1 1021 86 10000 8 150 10:38 22.03.2020
970 Snow -1 1021 86 10000 8 150 10:20 22.03.2020
971 Snow -3 1020 86 10000 9 110 09:42 22.03.2020
972 Snow -3 1020 86 10000 9 110 09:22 22.03.2020
973 Snow -4 1021 85 2300 12 110 08:44 22.03.2020
974 Snow -4 1021 85 2300 12 110 08:24 22.03.2020
975 Snow -5 1021 85 6000 11 120 07:52 22.03.2020
976 Snow -5 1021 85 6000 11 120 07:26 22.03.2020
977 Snow -6 1021 85 1300 13 110 06:35 22.03.2020
978 Snow -7 1022 85 1400 12 120 05:35 22.03.2020
979 Snow -8 1024 61 10000 7 140 03:46 22.03.2020
980 Clouds -9 1026 61 10000 1 340 01:28 22.03.2020
981 Clouds -13 1026 71 10000 2 60 00:48 22.03.2020
982 Clouds -13 1026 71 10000 2 60 00:29 22.03.2020
983 Clouds -15 1026 71 10000 1 230 23:44 21.03.2020
984 Clouds -15 1026 71 10000 1 230 23:19 21.03.2020
985 Clouds -17 1026 77 10000 1 220 22:58 21.03.2020
986 Clouds -17 1026 77 10000 1 220 22:37 21.03.2020
987 Clouds -17 1026 77 10000 1 220 22:18 21.03.2020
988 Clouds -18 1025 77 10000 2 120 21:56 21.03.2020
989 Clouds -18 1025 77 10000 2 120 21:37 21.03.2020
990 Clouds -18 1025 77 10000 2 120 21:18 21.03.2020
991 Clouds -20 1025 76 10000 2 90 20:41 21.03.2020
992 Clouds -20 1025 76 10000 2 90 20:20 21.03.2020
993 Clouds -20 1024 76 10000 2 60 19:44 21.03.2020
994 Clouds -20 1024 76 10000 2 60 19:25 21.03.2020
995 Clouds -22 1024 69 10000 2 60 18:59 21.03.2020
996 Clouds -22 1024 69 10000 2 60 18:39 21.03.2020
997 Clouds -22 1024 69 10000 2 60 18:20 21.03.2020
998 Clouds -21 1023 76 10000 2 100 17:57 21.03.2020
999 Clouds -21 1023 76 10000 2 100 17:39 21.03.2020
1000 Clear -21 1023 76 10000 2 100 17:20 21.03.2020
1001 Clear -22 1023 76 10000 2 80 16:41 21.03.2020
1002 Clear -22 1023 76 10000 2 80 16:21 21.03.2020
1003 Clear -22 1022 76 10000 2 50 15:56 21.03.2020
1004 Clear -22 1022 76 10000 2 50 15:37 21.03.2020
1005 Clear -22 1022 76 10000 2 50 15:19 21.03.2020
1006 Clear -20 1021 76 10000 2 50 14:54 21.03.2020
1007 Clear -20 1021 76 10000 2 50 14:36 21.03.2020
1008 Clear -20 1021 76 10000 2 50 14:36 21.03.2020
1009 Clear -20 1021 76 10000 2 50 14:18 21.03.2020
1010 Clear -19 1021 77 10000 2 310 13:57 21.03.2020
1011 Clear -19 1021 77 10000 2 310 13:38 21.03.2020
1012 Clear -19 1021 77 10000 2 310 13:19 21.03.2020
1013 Clear -18 1020 70 10000 3 300 12:40 21.03.2020
1014 Clear -18 1020 70 10000 3 300 12:20 21.03.2020
1015 Clear -18 1020 70 10000 3 300 12:20 21.03.2020
1016 Clear -19 1019 70 10000 3 310 11:59 21.03.2020
1017 Clear -19 1019 70 10000 3 310 11:39 21.03.2020
1018 Clear -19 1019 70 10000 3 310 11:39 21.03.2020
1019 Clear -18 1019 70 10000 2 270 11:20 21.03.2020
1020 Clear -17 1019 70 10000 2 270 10:58 21.03.2020
1021 Clear -17 1019 70 10000 2 270 10:39 21.03.2020
1022 Clear -17 1019 70 10000 2 270 10:21 21.03.2020
1023 Clear -17 1018 70 10000 2 300 09:58 21.03.2020
1024 Clear -17 1018 70 10000 2 300 09:38 21.03.2020
1025 Clear -17 1018 70 10000 2 300 09:20 21.03.2020
1026 Clear -16 1017 71 10000 1 330 08:55 21.03.2020
1027 Clear -16 1017 71 10000 1 330 08:37 21.03.2020
1028 Clear -16 1017 71 10000 1 330 08:18 21.03.2020
1029 Clear -15 1016 71 10000 3 310 07:33 21.03.2020
1030 Clear -14 1016 71 10000 2 340 06:56 21.03.2020
1031 Clear -14 1016 71 10000 2 340 06:36 21.03.2020
1032 Clear -14 1015 71 10000 3 320 06:18 21.03.2020
1033 Clear -13 1015 71 10000 3 320 05:23 21.03.2020
1034 Clear -13 1014 78 10000 1 200 03:39 21.03.2020
1035 Clear -13 1014 71 10000 1 160 02:36 21.03.2020
1036 Clear -13 1013 71 10000 2 170 01:43 21.03.2020
1037 Clear -14 1013 71 10000 2 180 01:22 21.03.2020
1038 Clear -14 1013 65 10000 2 160 00:39 21.03.2020
1039 Clear -14 1013 65 10000 2 160 00:20 21.03.2020
1040 Clear -14 1012 60 10000 1 110 23:41 20.03.2020
1041 Clear -14 1012 60 10000 1 110 23:20 20.03.2020
1042 Clear -16 1012 65 10000 1 60 22:44 20.03.2020
1043 Clear -17 1011 70 10000 1 20 22:24 20.03.2020
1044 Clear -17 1011 70 10000 1 340 21:58 20.03.2020
1045 Clear -17 1011 65 10000 2 350 21:39 20.03.2020
1046 Clear -16 1011 65 10000 2 350 21:19 20.03.2020
1047 Clear -16 1010 71 10000 2 360 20:57 20.03.2020
1048 Clear -16 1010 71 10000 2 360 20:39 20.03.2020
1049 Clouds -16 1010 71 10000 2 360 20:19 20.03.2020
1050 Clouds -16 1009 71 10000 3 340 19:46 20.03.2020
1051 Clouds -16 1009 71 10000 3 340 19:20 20.03.2020
1052 Clouds -16 1008 71 10000 2 330 18:57 20.03.2020
1053 Clouds -16 1008 71 10000 2 330 18:38 20.03.2020
1054 Clouds -16 1008 71 10000 2 330 18:19 20.03.2020
1055 Clouds -16 1008 65 10000 2 30 17:56 20.03.2020
1056 Clouds -16 1008 65 10000 2 30 17:37 20.03.2020
1057 Snow -16 1007 65 10000 2 10 17:18 20.03.2020
1058 Snow -16 1007 65 10000 2 10 16:41 20.03.2020
1059 Snow -16 1007 65 10000 2 10 16:41 20.03.2020
1060 Snow -16 1007 65 10000 2 10 16:20 20.03.2020
1061 Clouds -17 1006 70 10000 4 350 15:44 20.03.2020
1062 Clouds -17 1006 70 10000 4 350 15:23 20.03.2020
1063 Clouds -16 1006 65 10000 3 350 14:58 20.03.2020
1064 Clouds -16 1006 65 10000 3 350 14:40 20.03.2020
1065 Clouds -16 1006 65 10000 3 350 14:20 20.03.2020
1066 Clouds -16 1005 71 10000 3 320 13:48 20.03.2020
1067 Clouds -16 1005 71 10000 3 320 13:22 20.03.2020
1068 Clouds -16 1004 71 10000 3 310 12:58 20.03.2020
1069 Clouds -16 1004 71 10000 3 310 12:38 20.03.2020
1070 Clouds -16 1004 71 10000 3 310 12:19 20.03.2020
1071 Clouds -17 1003 77 10000 3 360 11:39 20.03.2020
1072 Clouds -17 1002 71 10000 2 360 11:20 20.03.2020
1073 Clouds -16 1002 71 10000 2 360 10:55 20.03.2020
1074 Clouds -17 1002 77 10000 2 360 10:36 20.03.2020
1075 Clouds -17 1002 77 10000 2 360 10:18 20.03.2020
1076 Clouds -17 1001 77 10000 3 340 09:44 20.03.2020
1077 Clouds -16 1001 71 10000 3 330 09:20 20.03.2020
1078 Clouds -16 1000 71 10000 4 310 08:44 20.03.2020
1079 Clouds -16 999 77 10000 5 310 08:23 20.03.2020
1080 Clouds -16 999 77 10000 9 300 07:59 20.03.2020
1081 Clouds -16 998 77 10000 11 290 07:38 20.03.2020
1082 Clouds -16 998 77 10000 11 290 07:19 20.03.2020
1083 Clouds -16 997 77 9000 10 300 06:42 20.03.2020
1084 Clouds -16 996 77 8000 14 290 06:18 20.03.2020
1085 Clouds -15 994 77 4300 11 290 04:38 20.03.2020
1086 Clouds -14 993 77 2200 14 290 02:50 20.03.2020
1087 Clouds -14 992 84 2100 13 290 01:50 20.03.2020
1088 Clouds -13 991 78 8000 9 300 00:41 20.03.2020
1089 Clouds -13 990 84 9000 8 300 23:59 19.03.2020
1090 Clouds -13 989 84 9000 4 300 23:40 19.03.2020
1091 Clouds -13 989 84 9000 4 300 23:22 19.03.2020
1092 Snow -13 987 92 3000 13 300 22:41 19.03.2020
1093 Snow -13 987 92 3000 13 300 22:22 19.03.2020
1094 Snow -12 987 92 3600 10 300 21:58 19.03.2020
1095 Snow -11 986 85 2300 8 300 21:38 19.03.2020
1096 Snow -11 986 85 2300 8 300 21:19 19.03.2020
1097 Snow -11 984 92 900 8 290 20:44 19.03.2020
1098 Snow -11 984 92 900 8 290 20:25 19.03.2020
1099 Snow -10 983 92 800 3 310 19:59 19.03.2020
1100 Snow -10 983 92 800 3 310 19:39 19.03.2020
1101 Snow -10 983 92 800 3 310 19:20 19.03.2020
1102 Snow -8 981 92 3500 8 300 18:58 19.03.2020
1103 Snow -8 981 92 3500 8 300 18:40 19.03.2020
1104 Mist -6 980 92 1200 7 290 18:21 19.03.2020
1105 Mist -6 980 92 1200 7 290 18:21 19.03.2020
1106 Mist -6 980 92 1200 7 290 17:44 19.03.2020
1107 Mist -5 978 92 1900 8 280 17:20 19.03.2020
1108 Mist -5 978 92 1900 8 280 17:20 19.03.2020
1109 Mist -4 978 92 1900 8 280 16:58 19.03.2020
1110 Mist -4 978 92 1900 8 280 16:39 19.03.2020
1111 Mist -4 978 92 1900 8 280 16:21 19.03.2020
1112 Fog -1 977 92 10000 4.54 293 15:42 19.03.2020
1113 Fog -1 977 92 10000 4.54 293 15:23 19.03.2020
1114 Fog -1 977 92 10000 4.54 293 15:23 19.03.2020
1115 Clouds -1 977 92 10000 2 220 14:43 19.03.2020
1116 Clouds -1 977 92 10000 2 220 14:23 19.03.2020
1117 Snow 0 976 97 4700 1 110 13:57 19.03.2020
1118 Snow 0 976 97 4700 1 110 13:37 19.03.2020
1119 Snow 0 976 97 4700 1 110 13:18 19.03.2020
1120 Snow 0 976 98 10000 3 140 12:41 19.03.2020
1121 Snow 0 976 98 10000 3 140 12:22 19.03.2020
1122 Snow 0 976 98 5000 5 120 11:57 19.03.2020
1123 Snow 0 976 98 5000 5 120 11:38 19.03.2020
1124 Snow 0 976 98 2800 6 140 11:20 19.03.2020
1125 Snow 0 976 98 2800 6 140 10:41 19.03.2020
1126 Snow 0 976 98 2800 6 140 10:20 19.03.2020
1127 Snow 0 976 98 2200 8 130 09:57 19.03.2020
1128 Snow 0 976 98 2200 8 130 09:37 19.03.2020
1129 Snow 0 976 98 2200 8 130 09:18 19.03.2020
1130 Clouds 0 977 98 10000 10 130 08:42 19.03.2020
1131 Clouds 0 977 98 10000 10 130 08:21 19.03.2020
1132 Clouds 0 977 92 9000 9 120 07:46 19.03.2020
1133 Clouds 0 977 92 9000 9 120 07:28 19.03.2020
1134 Clouds 0 977 92 8000 10 130 06:48 19.03.2020
1135 Mist 0 978 92 5000 10 130 05:49 19.03.2020
1136 Mist 0 978 90 4800 11 130 04:59 19.03.2020
1137 Clouds 0 979 90 8000 10 130 04:40 19.03.2020
1138 Clouds 0 980 90 6000 10 120 02:50 19.03.2020
1139 Fog 0 982 91 650 10 120 01:25 19.03.2020
1140 Fog 0 982 91 550 11 130 00:35 19.03.2020
1141 Fog 0 982 91 550 10 120 23:57 18.03.2020
1142 Mist 0 983 91 1200 12 130 23:31 18.03.2020
1143 Clouds 0 983 96 2000 11 120 22:58 18.03.2020
1144 Clouds 0 983 96 1200 13 120 22:40 18.03.2020
1145 Clouds 0 983 96 1200 13 120 22:21 18.03.2020
1146 Snow 0 983 96 1000 13 120 21:43 18.03.2020
1147 Snow 0 983 96 650 17 130 21:22 18.03.2020
1148 Snow -1 985 92 650 17 130 20:59 18.03.2020
1149 Snow -1 985 92 650 17 130 20:41 18.03.2020
1150 Snow -1 985 92 650 17 130 20:21 18.03.2020
1151 Snow -1 986 92 400 18 120 19:58 18.03.2020
1152 Snow -1 986 92 400 18 120 19:40 18.03.2020
1153 Snow -2 986 92 400 18 120 19:21 18.03.2020
1154 Snow -2 988 92 300 17 110 18:42 18.03.2020
1155 Snow -3 990 92 250 17 110 18:21 18.03.2020
1156 Snow -3 990 92 250 17 110 17:59 18.03.2020
1157 Snow -3 990 92 250 17 110 17:59 18.03.2020
1158 Snow -3 990 92 250 17 110 17:41 18.03.2020
1159 Snow -3 993 92 300 18 100 17:22 18.03.2020
1160 Snow -2 993 92 300 18 100 16:58 18.03.2020
1161 Snow -2 993 92 300 18 100 16:40 18.03.2020
1162 Snow -2 993 92 300 18 100 16:20 18.03.2020
1163 Snow -2 996 86 500 15 110 15:46 18.03.2020
1164 Snow -2 996 86 500 15 110 15:27 18.03.2020
1165 Snow -2 999 86 4400 13 120 14:58 18.03.2020
1166 Snow -2 999 86 4400 13 120 14:40 18.03.2020
1167 Snow -2 999 86 4400 13 120 14:20 18.03.2020
1168 Snow -3 999 86 1600 16 110 13:40 18.03.2020
1169 Snow -3 999 86 1600 16 110 13:19 18.03.2020
1170 Clouds -2 1001 63 10000 11 100 12:42 18.03.2020
1171 Clouds -2 1002 63 10000 5 100 12:21 18.03.2020
1172 Clouds -2 1002 63 10000 5 100 11:58 18.03.2020
1173 Clouds -2 1002 63 10000 5 100 11:37 18.03.2020
1174 Clouds -3 1004 63 10000 3 110 11:18 18.03.2020
1175 Clouds -3 1004 63 10000 3 110 10:55 18.03.2020
1176 Clouds -3 1004 63 10000 3 110 10:36 18.03.2020
1177 Clouds -3 1004 63 10000 3 110 10:18 18.03.2020
1178 Clouds -2 1004 54 10000 3 160 09:41 18.03.2020
1179 Clouds -2 1004 54 10000 3 160 09:22 18.03.2020
1180 Clouds -3 1004 58 10000 3 140 08:40 18.03.2020
1181 Clouds -3 1004 58 10000 3 140 08:22 18.03.2020
1182 Clouds -5 1003 67 10000 4 120 07:59 18.03.2020
1183 Clouds -5 1003 67 10000 4 120 07:37 18.03.2020
1184 Clouds -5 1003 67 10000 4 120 07:19 18.03.2020
1185 Clouds -4 1004 73 10000 3 160 06:39 18.03.2020
1186 Clouds -4 1003 73 10000 3 150 05:43 18.03.2020
1187 Clouds -4 1003 73 10000 3 140 04:58 18.03.2020
1188 Clouds -3 1001 73 10000 3 190 03:21 18.03.2020
1189 Clouds -4 1001 79 10000 3 190 02:37 18.03.2020
1190 Clouds -4 1001 79 10000 3 190 02:37 18.03.2020
1191 Clouds -4 1001 79 10000 3 190 02:37 18.03.2020
1192 Clouds -4 1001 79 10000 3 240 01:45 18.03.2020
1193 Clouds -4 1000 73 10000 1 150 01:19 18.03.2020
1194 Clouds -5 1000 79 10000 3 190 00:22 18.03.2020
1195 Clouds -5 999 79 10000 2 150 23:43 17.03.2020
1196 Clouds -5 998 79 10000 3 160 23:22 17.03.2020
1197 Clouds -5 998 85 10000 2 160 22:47 17.03.2020
1198 Clouds -6 998 85 10000 2 160 22:28 17.03.2020
1199 Clouds -6 997 85 10000 3 180 21:57 17.03.2020
1200 Clouds -6 997 79 10000 5 160 21:36 17.03.2020
1201 Clouds -6 997 79 10000 5 160 21:18 17.03.2020
1202 Clear -6 996 79 10000 4 160 20:38 17.03.2020
1203 Snow -6 996 79 10000 4 160 20:19 17.03.2020
1204 Snow -5 995 85 10000 5 190 19:42 17.03.2020
1205 Snow -5 995 85 10000 5 190 19:22 17.03.2020
1206 Clouds -3 995 86 10000 5 180 18:59 17.03.2020
1207 Clouds -3 995 86 10000 5 180 18:40 17.03.2020
1208 Clouds -3 995 86 10000 5 180 18:22 17.03.2020
1209 Snow -2 995 92 10000 7 170 17:59 17.03.2020
1210 Snow -2 995 92 10000 7 170 17:39 17.03.2020
1211 Snow -2 995 92 10000 7 170 17:19 17.03.2020
1212 Snow -2 995 92 2000 9 140 16:43 17.03.2020
1213 Snow -2 995 92 2000 9 140 16:19 17.03.2020
1214 Snow -2 995 92 1800 11 130 15:48 17.03.2020
1215 Snow -2 995 92 1800 11 130 15:23 17.03.2020
1216 Snow -2 996 92 1300 13 130 14:49 17.03.2020
1217 Snow -2 996 92 1300 13 130 14:30 17.03.2020
1218 Snow -2 997 92 750 13 120 13:59 17.03.2020
1219 Snow -2 997 92 750 13 120 13:41 17.03.2020
1220 -273 0 0 0 0 0 13:22 17.03.2020
1221 Snow -2 998 92 600 15 130 12:47 17.03.2020
1222 Snow -2 998 92 600 15 130 12:25 17.03.2020
1223 Snow -2 999 92 500 15 120 11:57 17.03.2020
1224 Snow -2 999 92 500 15 120 11:39 17.03.2020
1225 Snow -2 1000 92 400 16 120 11:20 17.03.2020
1226 Snow -2 1000 92 400 16 120 10:54 17.03.2020
1227 Snow -2 1000 92 400 16 120 10:36 17.03.2020
1228 Snow -2 1000 92 400 16 120 10:18 17.03.2020
1229 Snow -2 1001 92 400 16 120 09:45 17.03.2020
1230 Snow -2 1001 92 400 16 120 09:45 17.03.2020
1231 Snow -2 1001 92 400 16 120 09:20 17.03.2020
1232 Clouds -2 1000 92 3900 19 130 08:57 17.03.2020
1233 Clouds -2 1000 92 3900 19 130 08:39 17.03.2020
1234 Clouds -2 1000 92 3900 19 130 08:18 17.03.2020
1235 Clouds -2 1001 92 2100 20 130 07:47 17.03.2020
1236 Clouds -2 1001 92 10000 20 140 07:20 17.03.2020
1237 Clouds -1 1003 86 10000 18 120 06:45 17.03.2020
1238 Clouds -1 1004 86 10000 18 120 06:24 17.03.2020
1239 Clouds -1 1005 86 10000 18 130 05:18 17.03.2020
1240 Mist -1 1006 92 10000 17 120 03:27 17.03.2020
1241 Clouds -1 1008 92 700 16 120 01:50 17.03.2020
1242 Clouds -1 1008 92 800 16 120 01:30 17.03.2020
1243 Clouds -2 1009 92 1000 16 120 00:51 17.03.2020
1244 Clouds -3 1010 92 800 17 120 23:52 16.03.2020
1245 Clouds -3 1010 92 800 17 120 23:34 16.03.2020
1246 Clouds -3 1011 92 1400 16 120 22:55 16.03.2020
1247 Clouds -3 1010 92 1000 17 120 22:36 16.03.2020
1248 Clouds -3 1010 92 1000 17 120 22:18 16.03.2020
1249 Clouds -3 1011 92 1300 15 120 21:41 16.03.2020
1250 Mist -3 1012 92 5000 16 130 21:23 16.03.2020
1251 Mist -3 1012 92 6000 15 120 20:58 16.03.2020
1252 Mist -3 1012 92 6000 15 120 20:38 16.03.2020
1253 Mist -3 1012 92 6000 15 120 20:20 16.03.2020
1254 Clouds -3 1012 92 7000 16 150 19:42 16.03.2020
1255 Clouds -3 1012 92 7000 16 150 19:23 16.03.2020
1256 Mist -2 1013 86 5000 15 130 18:57 16.03.2020
1257 Mist -2 1013 86 5000 15 130 18:37 16.03.2020
1258 Clouds -2 1014 86 10000 12 130 18:18 16.03.2020
1259 Clouds -2 1014 86 10000 12 130 17:43 16.03.2020
1260 Clouds -2 1014 86 10000 12 130 17:24 16.03.2020
1261 Snow -2 1014 86 10000 13 130 16:47 16.03.2020
1262 Snow -2 1014 86 10000 13 130 16:29 16.03.2020
1263 Snow -1 1015 86 10000 15 140 15:57 16.03.2020
1264 Snow -1 1015 86 10000 15 140 15:39 16.03.2020
1265 Snow -1 1015 86 10000 15 140 15:19 16.03.2020
1266 Snow -1 1016 80 10000 12 140 14:43 16.03.2020
1267 Snow -1 1016 80 10000 12 140 14:19 16.03.2020
1268 Snow -1 1017 74 10000 10 140 13:42 16.03.2020
1269 Snow -1 1017 74 10000 10 140 13:24 16.03.2020
1270 Snow -3 1018 79 10000 10 120 12:46 16.03.2020
1271 Snow -3 1018 79 10000 10 120 12:27 16.03.2020
1272 Snow -3 1018 86 10000 10 120 11:59 16.03.2020
1273 Snow -3 1019 86 10000 11 120 11:41 16.03.2020
1274 Snow -3 1018 79 10000 10 130 11:18 16.03.2020
1275 Snow -3 1019 79 10000 10 110 10:42 16.03.2020
1276 Snow -3 1019 79 10000 10 110 10:24 16.03.2020
1277 Snow -4 1019 85 10000 11 110 09:45 16.03.2020
1278 Snow -3 1019 79 10000 9 110 09:27 16.03.2020
1279 Snow -3 1020 79 10000 10 110 08:56 16.03.2020
1280 Clouds -3 1019 79 10000 9 110 08:26 16.03.2020
1281 Clouds -5 1019 85 10000 11 110 07:50 16.03.2020
1282 Mist -4 1020 85 9000 12 110 07:28 16.03.2020
1283 Clouds -4 1020 85 10000 10 110 06:54 16.03.2020
1284 Clouds -4 1020 85 10000 10 110 06:54 16.03.2020
1285 Clouds -4 1020 85 10000 9 110 06:26 16.03.2020
1286 Clouds -4 1020 85 10000 9 110 05:50 16.03.2020
1287 Clouds -5 1021 79 10000 2 30 02:46 16.03.2020
1288 Clouds -5 1021 85 10000 1 20 01:20 16.03.2020
1289 Clouds -5 1021 85 10000 3 350 00:40 16.03.2020
1290 Clouds -5 1021 85 10000 3 350 23:49 15.03.2020
1291 Clouds -5 1021 85 10000 2 20 23:21 15.03.2020
1292 Snow -6 1021 92 10000 1 10 22:56 15.03.2020
1293 Snow -6 1022 92 10000 1.79 1 22:37 15.03.2020
1294 Snow -6 1022 92 10000 1.79 1 22:19 15.03.2020
1295 Snow -6 1022 85 10000 2 290 21:39 15.03.2020
1296 Clouds -6 1021 92 10000 2 320 21:19 15.03.2020
1297 Snow -3 1020 79 10000 2 170 20:43 15.03.2020
1298 Snow -3 1020 79 10000 2 170 20:22 15.03.2020
1299 Snow -3 1020 79 10000 3 200 19:58 15.03.2020
1300 Snow -3 1020 79 10000 3 200 19:40 15.03.2020
1301 Snow -3 1020 79 10000 3 200 19:22 15.03.2020
1302 Clouds -3 1019 79 10000 6 180 18:56 15.03.2020
1303 Clouds -3 1019 79 10000 6 180 18:38 15.03.2020
1304 Clouds -3 1019 79 10000 6 180 18:20 15.03.2020
1305 Snow -3 1020 79 10000 7 170 17:41 15.03.2020
1306 Snow -3 1020 79 10000 7 170 17:22 15.03.2020
1307 Clouds -3 1020 79 10000 6 180 16:59 15.03.2020
1308 Clouds -3 1020 79 10000 6 180 16:40 15.03.2020
1309 Clouds -3 1020 79 10000 6 180 16:21 15.03.2020
1310 Clouds -3 1019 79 10000 8 170 15:54 15.03.2020
1311 Clouds -3 1019 79 10000 8 170 15:36 15.03.2020
1312 Clouds -3 1019 79 10000 8 170 15:18 15.03.2020
1313 Clear -3 1020 79 10000 7 160 14:39 15.03.2020
1314 Clear -3 1020 79 10000 7 160 14:21 15.03.2020
1315 Clouds -4 1020 85 10000 8 150 13:56 15.03.2020
1316 Clouds -4 1020 85 10000 8 150 13:37 15.03.2020
1317 Clouds -4 1020 85 10000 8 150 13:18 15.03.2020
1318 Clouds -3 1021 79 10000 10 140 12:40 15.03.2020
1319 Clouds -3 1021 79 10000 10 140 12:22 15.03.2020
1320 Clouds -5 1021 92 10000 8 150 11:44 15.03.2020
1321 Clouds -5 1021 92 10000 8 150 11:25 15.03.2020
1322 Snow -4 1021 85 7000 11 140 10:59 15.03.2020
1323 Snow -4 1021 85 7000 11 140 10:40 15.03.2020
1324 Snow -4 1021 85 7000 11 140 10:21 15.03.2020
1325 Snow -5 1022 92 9000 11 120 09:57 15.03.2020
1326 Snow -5 1022 92 9000 11 120 09:36 15.03.2020
1327 Snow -5 1022 92 9000 11 120 09:18 15.03.2020
1328 Clouds -5 1021 85 10000 11 130 08:41 15.03.2020
1329 Clouds -5 1021 85 10000 11 130 08:19 15.03.2020
1330 Clouds -5 1022 85 10000 13 120 07:45 15.03.2020
1331 Clouds -5 1022 85 10000 13 120 07:22 15.03.2020
1332 Clouds -5 1023 85 10000 14 110 06:43 15.03.2020
1333 Clouds -5 1023 92 10000 12 120 05:48 15.03.2020
1334 Clouds -4 1024 85 10000 12 120 04:56 15.03.2020
1335 Clouds -4 1024 85 10000 12 120 04:37 15.03.2020
1336 Clouds -4 1024 85 10000 12 120 04:18 15.03.2020
1337 Mist -5 1025 92 9000 11 130 02:54 15.03.2020
1338 Mist -5 1025 92 9000 11 130 02:22 15.03.2020
1339 Mist -6 1026 92 1000 14 120 00:58 15.03.2020
1340 Mist -6 1026 92 1000 14 120 00:40 15.03.2020
1341 Mist -6 1026 92 1000 14 120 00:19 15.03.2020
1342 Fog -6 1026 85 500 15 120 23:39 14.03.2020
1343 Fog -6 1026 85 500 15 120 23:20 14.03.2020
1344 Fog -7 1026 92 800 14 120 22:55 14.03.2020
1345 Fog -7 1026 92 800 14 120 22:37 14.03.2020
1346 Fog -7 1026 92 800 14 120 22:19 14.03.2020
1347 Mist -7 1026 92 1800 13 110 21:55 14.03.2020
1348 Mist -7 1026 92 1800 13 110 21:55 14.03.2020
1349 Mist -7 1026 92 1800 13 110 21:36 14.03.2020
1350 Mist -7 1026 92 1800 13 110 21:18 14.03.2020
1351 Clouds -6 1027 85 10000 13 110 20:55 14.03.2020
1352 Clouds -6 1027 85 10000 13 110 20:37 14.03.2020
1353 Clouds -6 1027 85 10000 13 110 20:18 14.03.2020
1354 Clouds -6 1026 79 10000 10 110 19:40 14.03.2020
1355 Clouds -6 1026 79 10000 10 110 19:20 14.03.2020
1356 Clouds -6 1026 73 10000 9 110 18:40 14.03.2020
1357 Clouds -5 1026 67 10000 6 120 18:20 14.03.2020
1358 Clouds -5 1026 67 10000 6 120 17:42 14.03.2020
1359 Clouds -5 1026 67 10000 6 120 17:23 14.03.2020
1360 Clear -6 1027 62 10000 6 140 16:58 14.03.2020
1361 Clear -6 1027 62 10000 6 140 16:38 14.03.2020
1362 Clear -6 1027 62 10000 6 140 16:19 14.03.2020
1363 Clear -7 1027 52 10000 3 120 15:44 14.03.2020
1364 Clear -7 1027 52 10000 3 120 15:22 14.03.2020
1365 Clear -8 1027 61 10000 6 170 14:40 14.03.2020
1366 Clear -8 1027 61 10000 6 170 14:21 14.03.2020
1367 Clear -8 1026 67 10000 6 180 13:57 14.03.2020
1368 Clear -8 1026 67 10000 6 180 13:38 14.03.2020
1369 Clear -8 1026 67 10000 6 180 13:19 14.03.2020
1370 Clear -9 1025 72 10000 4 170 12:44 14.03.2020
1371 Clear -9 1025 72 10000 4 170 12:25 14.03.2020
1372 Clear -9 1024 78 10000 4 170 11:46 14.03.2020
1373 Clear -9 1023 72 10000 4 160 11:26 14.03.2020
1374 Clear -9 1023 72 10000 4 160 10:57 14.03.2020
1375 Clear -9 1023 72 10000 4 160 10:38 14.03.2020
1376 Clear -9 1023 72 10000 4 160 10:20 14.03.2020
1377 Clear -9 1023 66 10000 4 170 09:41 14.03.2020
1378 Clear -9 1023 66 10000 4 170 09:22 14.03.2020
1379 Clear -9 1022 66 10000 5 170 08:47 14.03.2020
1380 Clear -9 1022 66 10000 5 170 08:47 14.03.2020
1381 Clear -9 1022 66 10000 5 170 08:27 14.03.2020
1382 Clouds -9 1021 66 10000 4 170 07:49 14.03.2020
1383 Clouds -9 1021 66 10000 4 170 07:23 14.03.2020
1384 Clouds -8 1020 85 10000 6 170 06:59 14.03.2020
1385 Clouds -8 1020 85 10000 6 170 06:39 14.03.2020
1386 Clouds -7 1018 79 10000 4 190 04:58 14.03.2020
1387 Clouds -6 1017 57 10000 1 200 03:42 14.03.2020
1388 Clouds -6 1017 57 10000 1 200 03:23 14.03.2020
1389 Clouds -6 1016 57 10000 3 340 02:19 14.03.2020
1390 Clouds -7 1015 67 10000 4 340 00:42 14.03.2020
1391 Clouds -7 1015 67 10000 6 330 23:45 13.03.2020
1392 Clouds -7 1015 67 10000 6 330 23:26 13.03.2020
1393 Snow -8 1014 78 9000 5 360 22:47 13.03.2020
1394 Snow -8 1014 78 9000 5 360 22:25 13.03.2020
1395 Clouds -8 1012 78 10000 7 350 21:43 13.03.2020
1396 Clouds -8 1012 78 10000 7 350 21:21 13.03.2020
1397 Snow -7 1011 73 10000 6 10 20:57 13.03.2020
1398 Snow -7 1011 73 10000 6 10 20:38 13.03.2020
1399 Snow -7 1011 73 10000 6 10 20:19 13.03.2020
1400 Clouds -7 1010 73 10000 5 10 19:45 13.03.2020
1401 Clouds -7 1010 73 10000 5 10 19:27 13.03.2020
1402 Snow -6 1009 79 10000 5 350 18:47 13.03.2020
1403 Snow -6 1009 79 10000 5 350 18:28 13.03.2020
1404 Clouds -4 1008 79 10000 2 220 17:57 13.03.2020
1405 Clouds -4 1008 79 10000 2 220 17:37 13.03.2020
1406 Clouds -4 1006 79 10000 6 170 17:18 13.03.2020
1407 Clouds -4 1006 79 10000 6 170 16:41 13.03.2020
1408 Clouds -4 1006 79 10000 6 170 16:23 13.03.2020
1409 Clouds -2 1005 74 10000 8 170 15:55 13.03.2020
1410 Clouds -2 1005 74 10000 8 170 15:37 13.03.2020
1411 Clouds -2 1005 74 10000 8 170 15:18 13.03.2020
1412 Clouds -3 1004 73 10000 7 170 14:41 13.03.2020
1413 Clouds -3 1004 73 10000 7 170 14:22 13.03.2020
1414 Clouds -2 1003 74 10000 8 170 13:56 13.03.2020
1415 Clouds -2 1003 74 10000 8 170 13:37 13.03.2020
1416 Clouds -2 1003 74 10000 8 170 13:18 13.03.2020
1417 Clouds -2 1002 68 10000 10 170 12:40 13.03.2020
1418 Clouds -2 1001 79 10000 8 170 12:21 13.03.2020
1419 Clouds -3 1001 79 10000 8 170 11:57 13.03.2020
1420 Clouds -3 1001 79 10000 8 170 11:38 13.03.2020
1421 Clouds -3 1000 79 10000 8 160 11:19 13.03.2020
1422 Clouds -2 1000 79 10000 8 160 10:47 13.03.2020
1423 Clouds -1 999 74 10000 9 160 10:27 13.03.2020
1424 Clouds 0 999 79 10000 10 160 09:57 13.03.2020
1425 Clouds -1 998 80 10000 7 170 09:38 13.03.2020
1426 Clouds -1 998 80 10000 7 170 09:20 13.03.2020
1427 Clouds -1 998 86 10000 7 170 08:44 13.03.2020
1428 Clouds 0 997 79 10000 8 170 08:22 13.03.2020
1429 Clouds 0 997 75 10000 7 170 07:47 13.03.2020
1430 Clouds -1 996 92 10000 9 160 07:28 13.03.2020
1431 Clouds 0 995 75 10000 10 170 06:47 13.03.2020
1432 Clouds 0 995 75 10000 10 170 06:28 13.03.2020
1433 Clouds 0 995 80 10000 10 160 05:53 13.03.2020
1434 Clouds 1 995 80 10000 11 160 05:20 13.03.2020
1435 Clouds 1 995 80 10000 12 160 04:37 13.03.2020
1436 Clouds 1 994 80 10000 11 170 03:31 13.03.2020
1437 Clouds 2 994 74 10000 12 170 01:45 13.03.2020
1438 Clouds 2 994 74 10000 12 170 01:19 13.03.2020
1439 Clouds 2 992 74 10000 15 160 00:47 13.03.2020
1440 Clouds 2 993 74 10000 11 150 00:24 13.03.2020
1441 Clouds 3 991 69 10000 14 140 23:48 12.03.2020
1442 Clouds 3 991 69 10000 14 140 23:26 12.03.2020
1443 Clouds 3 992 74 10000 13 140 22:56 12.03.2020
1444 Clouds 2 992 74 10000 13 140 22:38 12.03.2020
1445 Clouds 2 992 74 10000 13 140 22:19 12.03.2020
1446 Clouds 2 992 80 10000 16 150 21:43 12.03.2020
1447 Clouds 2 991 80 10000 17 150 21:25 12.03.2020
1448 Clouds 2 991 80 10000 17 150 21:25 12.03.2020
1449 Clouds 2 992 80 10000 13 150 20:57 12.03.2020
1450 Clouds 2 992 80 10000 13 150 20:37 12.03.2020
1451 Clouds 2 992 80 10000 13 150 20:18 12.03.2020
1452 Clouds 2 992 80 10000 15 140 19:39 12.03.2020
1453 Clouds 2 992 80 10000 15 140 19:20 12.03.2020
1454 Snow 1 991 86 2700 15 150 18:44 12.03.2020
1455 Snow 1 991 86 2700 15 150 18:24 12.03.2020
1456 Snow 0 992 88 1100 18 130 17:57 12.03.2020
1457 Snow 0 992 88 1100 18 130 17:38 12.03.2020
1458 Snow 0 992 88 1100 18 130 17:38 12.03.2020
1459 Snow 0 992 90 650 19 140 17:19 12.03.2020
1460 Snow 0 992 90 650 19 140 16:55 12.03.2020
1461 Snow 0 992 90 650 19 140 16:37 12.03.2020
1462 Snow 0 992 90 650 19 140 16:18 12.03.2020
1463 Clouds -1 995 100 500 20 140 15:44 12.03.2020
1464 Clouds -1 995 100 500 20 140 15:26 12.03.2020
1465 Clouds -1 996 92 400 20 140 14:40 12.03.2020
1466 Clouds -1 996 92 400 20 140 14:21 12.03.2020
1467 Clouds -1 998 92 400 20 140 13:56 12.03.2020
1468 Clouds -1 998 92 400 20 140 13:36 12.03.2020
1469 Clouds -1 998 92 400 20 140 13:18 12.03.2020
1470 Clouds -1 999 92 400 21 150 12:41 12.03.2020
1471 Clouds -1 999 92 400 21 150 12:21 12.03.2020
1472 Clouds -1 1000 92 200 23 150 11:56 12.03.2020
1473 Clouds -1 1000 92 200 23 150 11:38 12.03.2020
1474 Clouds -1 1002 92 200 21 140 11:19 12.03.2020
1475 Clouds -2 1002 92 200 21 140 10:58 12.03.2020
1476 Clouds -2 1002 92 200 21 140 10:40 12.03.2020
1477 Clouds -2 1002 92 200 21 140 10:22 12.03.2020
1478 Clouds -2 1004 92 100 23 140 09:46 12.03.2020
1479 Clouds -2 1004 92 100 23 140 09:25 12.03.2020
1480 Clouds -3 1007 92 100 20 130 08:44 12.03.2020
1481 Clouds -3 1007 92 100 20 130 08:20 12.03.2020
1482 Clouds -7 1009 85 50 19 110 07:56 12.03.2020
1483 Clouds -7 1009 85 50 19 110 07:38 12.03.2020
1484 Clouds -7 1009 85 50 19 110 07:20 12.03.2020
1485 Clouds -11 1014 92 150 19 110 05:48 12.03.2020
1486 Clouds -10 1014 92 150 19 110 05:25 12.03.2020
1487 Clouds -12 1019 85 200 16 100 02:41 12.03.2020
1488 Snow -14 1022 84 700 12 80 01:31 12.03.2020
1489 Snow -15 1023 84 600 13 90 00:47 12.03.2020
1490 Snow -15 1025 84 3400 9 100 00:27 12.03.2020
1491 Clouds -14 1026 77 10000 7 100 23:47 11.03.2020
1492 Clouds -14 1026 77 10000 7 100 23:25 11.03.2020
1493 Fog -23 1026 83 10000 1 160 22:48 11.03.2020
1494 Mist -24 1026 83 3500 2 230 22:30 11.03.2020
1495 Mist -25 1027 75 5000 2 200 21:59 11.03.2020
1496 Mist -25 1027 75 5000 2 200 21:41 11.03.2020
1497 Mist -25 1027 83 8000 3 200 21:22 11.03.2020
1498 Mist -26 1027 75 2100 4.56 109 20:58 11.03.2020
1499 Mist -26 1027 75 2100 4.56 109 20:39 11.03.2020
1500 Mist -26 1027 75 2100 1.17 105 20:20 11.03.2020
1501 Clouds -28 1027 82 10000 2 360 19:44 11.03.2020
1502 Clouds -28 1027 82 10000 2 360 19:26 11.03.2020
1503 Clouds -28 1027 75 10000 3 320 18:59 11.03.2020
1504 Clouds -28 1027 75 10000 3 320 18:40 11.03.2020
1505 Clouds -28 1027 75 10000 3 320 18:22 11.03.2020
1506 Clouds -27 1027 75 10000 2 320 17:59 11.03.2020
1507 Clouds -27 1027 75 10000 2 320 17:39 11.03.2020
1508 Clouds -27 1027 75 10000 4 340 17:20 11.03.2020
1509 Clouds -27 1027 75 10000 4 340 16:47 11.03.2020
1510 Clouds -27 1027 75 10000 4 340 16:23 11.03.2020
1511 Snow -27 1026 75 8000 5 350 15:59 11.03.2020
1512 Snow -27 1026 75 8000 5 350 15:40 11.03.2020
1513 Snow -27 1026 75 8000 5 350 15:22 11.03.2020
1514 Clouds -27 1027 75 10000 4 340 14:42 11.03.2020
1515 Clouds -27 1027 75 10000 4 340 14:23 11.03.2020
1516 Clouds -27 1027 75 10000 4 340 14:23 11.03.2020
1517 Clouds -27 1026 75 10000 4 360 13:56 11.03.2020
1518 Clouds -27 1026 75 10000 4 360 13:37 11.03.2020
1519 Clouds -27 1026 75 10000 4 360 13:19 11.03.2020
1520 Snow -26 1026 75 10000 3 10 12:40 11.03.2020
1521 Snow -26 1026 75 10000 3 10 12:20 11.03.2020
1522 Snow -27 1026 75 9000 3 360 11:55 11.03.2020
1523 Clouds -27 1026 82 10000 4 340 11:37 11.03.2020
1524 Clouds -27 1026 82 10000 4 340 11:18 11.03.2020
1525 Snow -26 1025 75 10000 4 340 10:42 11.03.2020
1526 Snow -26 1025 83 2900 4 340 10:18 11.03.2020
1527 Snow -25 1024 75 1800 5 340 09:43 11.03.2020
1528 Snow -24 1024 76 2300 4 340 09:25 11.03.2020
1529 Snow -24 1024 76 2000 4 330 08:58 11.03.2020
1530 Snow -24 1024 76 2000 4 330 08:39 11.03.2020
1531 Snow -24 1024 76 6000 3 330 08:18 11.03.2020
1532 Snow -24 1023 76 2300 3 330 07:42 11.03.2020
1533 Snow -25 1023 83 3200 3 330 07:19 11.03.2020
1534 Snow -25 1023 83 5000 4 330 06:43 11.03.2020
1535 Snow -25 1022 75 5000 4 330 05:36 11.03.2020
1536 -273 0 0 0 0 0 04:31 11.03.2020
1537 Clouds -26 1020 75 10000 4 340 02:20 11.03.2020
1538 Clouds -26 1020 75 10000 4 350 01:27 11.03.2020
1539 Clouds -27 1020 82 10000 5 350 00:46 11.03.2020
1540 Clouds -25 1019 75 10000 4 360 23:58 10.03.2020
1541 Clouds -27 1019 75 10000 3 330 23:40 10.03.2020
1542 Clouds -28 1019 75 10000 3 330 23:21 10.03.2020
1543 Clouds -27 1018 75 10000 4 350 22:39 10.03.2020
1544 Clouds -27 1018 75 10000 4 350 22:20 10.03.2020
1545 Clouds -27 1018 75 10000 4 350 22:20 10.03.2020
1546 Clouds -26 1018 75 10000 4 360 21:57 10.03.2020
1547 Clouds -26 1018 75 10000 4 360 21:57 10.03.2020
1548 Clouds -26 1018 75 10000 5 360 21:38 10.03.2020
1549 Clouds -27 1018 75 10000 5 360 21:20 10.03.2020
1550 Clouds -29 1018 75 10000 3 350 20:59 10.03.2020
1551 Clouds -29 1018 75 10000 3 350 20:41 10.03.2020
1552 Clouds -29 1018 75 10000 3 350 20:18 10.03.2020
1553 Clouds -27 1017 75 10000 4 350 19:56 10.03.2020
1554 Clouds -27 1017 75 10000 4 350 19:37 10.03.2020
1555 Clouds -27 1017 75 10000 4 350 19:19 10.03.2020
1556 Clouds -28 1017 82 10000 3 360 18:44 10.03.2020
1557 Clouds -28 1017 82 10000 3 360 18:26 10.03.2020
1558 Clouds -27 1016 75 10000 4 360 17:57 10.03.2020
1559 Clouds -27 1016 75 10000 4 360 17:39 10.03.2020
1560 Clouds -27 1016 75 10000 4 360 17:39 10.03.2020
1561 Clouds -27 1016 75 10000 4 360 17:21 10.03.2020
1562 Clouds -27 1016 75 10000 3 360 16:39 10.03.2020
1563 Clouds -27 1016 75 10000 3 360 16:19 10.03.2020
1564 Clouds -27 1016 75 10000 3 360 15:56 10.03.2020
1565 Clouds -27 1016 75 10000 3 360 15:56 10.03.2020
1566 Clouds -27 1016 75 10000 3 360 15:37 10.03.2020
1567 Clouds -27 1016 75 10000 3 360 15:19 10.03.2020
1568 Clouds -25 1016 75 10000 4 10 14:41 10.03.2020
1569 Clouds -25 1016 75 10000 4 10 14:20 10.03.2020
1570 Clouds -28 1016 82 10000 4 30 13:58 10.03.2020
1571 Clouds -28 1016 82 10000 4 30 13:38 10.03.2020
1572 Clouds -28 1016 82 10000 4 30 13:20 10.03.2020
1573 Clouds -26 1016 83 10000 3 360 12:42 10.03.2020
1574 Clouds -26 1016 83 10000 3 360 12:19 10.03.2020
1575 Clouds -26 1016 75 10000 3 340 11:58 10.03.2020
1576 Clouds -26 1016 75 10000 3 340 11:40 10.03.2020
1577 Clouds -26 1016 75 10000 3 340 11:22 10.03.2020
1578 Clouds -25 1015 75 10000 3 30 10:42 10.03.2020
1579 Clouds -25 1015 75 10000 3 30 10:23 10.03.2020
1580 Clouds -26 1015 83 10000 3 30 09:57 10.03.2020
1581 Clouds -26 1015 83 10000 3 30 09:39 10.03.2020
1582 Clouds -26 1015 83 10000 3 30 09:19 10.03.2020
1583 Clouds -23 1015 83 10000 2 310 08:51 10.03.2020
1584 Clouds -23 1015 83 10000 2 310 08:32 10.03.2020
1585 Clouds -23 1015 83 10000 1 330 07:50 10.03.2020
1586 Clouds -23 1015 83 10000 1 330 07:31 10.03.2020
1587 Clouds -22 1015 83 10000 1 20 06:47 10.03.2020
1588 Clouds -22 1015 83 10000 1 40 06:28 10.03.2020
1589 Clouds -21 1015 76 10000 0.58 55 05:41 10.03.2020
1590 Clouds -21 1015 76 10000 1.14 127 04:48 10.03.2020
1591 Clouds -21 1015 76 10000 1.14 127 04:48 10.03.2020
1592 Clouds -17 1015 70 10000 3 210 03:55 10.03.2020
1593 Clouds -17 1015 70 10000 6 160 02:27 10.03.2020
1594 Clouds -16 1015 65 10000 6 150 01:25 10.03.2020
1595 Clouds -17 1015 70 10000 6 150 00:42 10.03.2020
1596 Clouds -17 1015 70 10000 6 150 00:23 10.03.2020
1597 Clouds -19 1015 77 10000 6 160 23:41 09.03.2020
1598 Clouds -19 1015 77 10000 6 160 23:21 09.03.2020
1599 Clouds -19 1015 77 10000 5 160 22:43 09.03.2020
1600 Clouds -19 1015 77 10000 5 160 22:22 09.03.2020
1601 Clouds -20 1015 83 10000 5 160 21:59 09.03.2020
1602 Clouds -20 1015 76 10000 4 160 21:40 09.03.2020
1603 Clouds -20 1015 76 10000 4 160 21:21 09.03.2020
1604 Clouds -22 1016 83 10000 4 180 20:56 09.03.2020
1605 Clouds -22 1016 83 10000 4 180 20:56 09.03.2020
1606 Clouds -22 1016 83 10000 4 180 20:38 09.03.2020
1607 Clouds -22 1016 83 10000 4 180 20:20 09.03.2020
1608 Clouds -22 1016 76 10000 5 160 19:44 09.03.2020
1609 Clouds -22 1016 76 10000 5 160 19:25 09.03.2020
1610 Clouds -23 1016 76 10000 5 170 18:58 09.03.2020
1611 Clouds -23 1016 76 10000 5 170 18:58 09.03.2020
1612 Clouds -23 1016 76 10000 5 170 18:38 09.03.2020
1613 Clouds -23 1016 76 10000 5 170 18:20 09.03.2020
1614 Clouds -25 1016 75 10000 4 170 17:57 09.03.2020
1615 Clouds -25 1016 75 10000 4 170 17:38 09.03.2020
1616 Clouds -26 1016 75 10000 4 190 17:20 09.03.2020
1617 Clouds -26 1016 75 10000 4 190 16:58 09.03.2020
1618 Clouds -26 1016 75 10000 4 190 16:58 09.03.2020
1619 Clouds -28 1017 99 0 0.64 253 16:39 09.03.2020
1620 Clouds -23 1015 76 10000 4 140 16:21 09.03.2020
1621 Clouds -23 1015 76 10000 4 140 15:58 09.03.2020
1622 Clouds -23 1015 76 10000 4 140 15:38 09.03.2020
1623 Clouds -23 1015 76 10000 4 140 15:19 09.03.2020
1624 Clouds -26 1016 75 10000 2 130 14:54 09.03.2020
1625 Clouds -26 1016 75 10000 2 130 14:36 09.03.2020
1626 Clouds -26 1016 75 10000 2 130 14:36 09.03.2020
1627 Clear -26 1016 75 10000 2 130 14:18 09.03.2020
1628 Clear -27 1016 75 10000 1 160 13:54 09.03.2020
1629 Clear -27 1016 75 10000 1 160 13:36 09.03.2020
1630 Clear -27 1016 75 10000 1 160 13:18 09.03.2020
1631 Clear -28 1016 75 10000 2 110 12:41 09.03.2020
1632 Clear -28 1016 75 10000 2 110 12:21 09.03.2020
1633 Clear -27 1016 75 10000 1 350 11:41 09.03.2020
1634 Clear -27 1016 75 10000 1 350 11:21 09.03.2020
1635 Clear -25 1016 83 10000 1 10 10:58 09.03.2020
1636 Clear -25 1016 83 10000 1 10 10:40 09.03.2020
1637 Clear -25 1016 83 10000 1 10 10:20 09.03.2020
1638 Clear -27 1016 82 10000 2 40 09:44 09.03.2020
1639 Clear -27 1016 82 10000 2 40 09:24 09.03.2020
1640 Clear -27 1016 82 10000 2 40 09:24 09.03.2020
1641 Clear -27 1016 75 10000 2 20 08:59 09.03.2020
1642 Clear -27 1016 75 10000 2 20 08:41 09.03.2020
1643 Clear -27 1016 75 10000 2 20 08:23 09.03.2020
1644 Clear -26 1016 75 10000 3 340 07:41 09.03.2020
1645 Clear -26 1016 75 10000 3 340 07:21 09.03.2020
1646 Clear -26 1016 75 10000 3 330 06:43 09.03.2020
1647 Clear -26 1016 75 10000 3 330 06:24 09.03.2020
1648 Clear -24 1016 76 10000 3 360 05:47 09.03.2020
1649 Clear -24 1016 76 10000 3 360 05:20 09.03.2020
1650 Clear -24 1016 83 10000 2 330 04:40 09.03.2020
1651 Clear -24 1016 83 10000 2 330 04:21 09.03.2020
1652 Clear -23 1016 76 10000 4 360 02:58 09.03.2020
1653 Clear -23 1016 76 10000 4 10 01:26 09.03.2020
1654 Clear -23 1016 76 10000 4 10 01:26 09.03.2020
1655 Clear -25 1016 75 10000 4 10 00:38 09.03.2020
1656 Clear -25 1016 75 10000 4 10 00:20 09.03.2020
1657 Clouds -26 1017 75 10000 4 20 23:47 08.03.2020
1658 Clouds -26 1017 75 10000 4 20 23:22 08.03.2020
1659 Clear -26 1016 75 10000 3 10 22:56 08.03.2020
1660 Clear -26 1016 75 10000 3 10 22:38 08.03.2020
1661 Clear -26 1016 75 10000 3 10 22:18 08.03.2020
1662 Clear -29 1016 75 10000 4 10 21:54 08.03.2020
1663 Clear -29 1016 75 10000 4 10 21:36 08.03.2020
1664 Clear -29 1016 75 10000 4 10 21:18 08.03.2020
1665 Clouds -30 1016 74 10000 5 20 20:39 08.03.2020
1666 Clouds -30 1016 74 10000 5 20 20:21 08.03.2020
1667 Clouds -30 1016 74 10000 4 40 19:54 08.03.2020
1668 Clouds -30 1016 74 10000 4 40 19:36 08.03.2020
1669 Clouds -30 1016 74 10000 4 40 19:18 08.03.2020
1670 Clouds -27 1016 75 10000 3 10 18:40 08.03.2020
1671 Clouds -27 1016 75 10000 3 10 18:22 08.03.2020
1672 Clear -27 1016 75 0 4.92 30 17:56 08.03.2020
1673 Clear -27 1016 75 0 4.92 30 17:37 08.03.2020
1674 Clouds -27 1016 75 10000 4 20 17:18 08.03.2020
1675 Clouds -28 1016 75 10000 4 20 16:43 08.03.2020
1676 Clouds -28 1016 75 10000 4 20 16:25 08.03.2020
1677 Clouds -28 1016 75 10000 4 30 15:56 08.03.2020
1678 Clouds -28 1016 75 10000 4 30 15:37 08.03.2020
1679 Clouds -28 1016 75 10000 4 30 15:18 08.03.2020
1680 Clouds -29 1016 75 10000 3 30 14:40 08.03.2020
1681 Clouds -29 1016 75 10000 3 30 14:21 08.03.2020
1682 Clouds -29 1016 75 10000 3 30 14:21 08.03.2020
1683 Clouds -30 1015 74 10000 4 30 13:57 08.03.2020
1684 Clouds -30 1015 74 10000 4 30 13:38 08.03.2020
1685 Clouds -30 1015 74 10000 4 30 13:19 08.03.2020
1686 Clouds -31 1015 74 10000 3 40 12:39 08.03.2020
1687 Clouds -31 1015 74 10000 3 40 12:20 08.03.2020
1688 Clear -31 1015 74 0 3.41 320 11:44 08.03.2020
1689 Clouds -30 1015 74 10000 4 10 11:25 08.03.2020
1690 Clouds -30 1015 74 10000 4 10 10:59 08.03.2020
1691 Clouds -30 1015 74 10000 4 10 10:41 08.03.2020
1692 Clouds -30 1015 74 10000 4 10 10:22 08.03.2020
1693 Clouds -31 1015 74 10000 3 30 09:40 08.03.2020
1694 Clouds -31 1015 74 10000 3 30 09:22 08.03.2020
1695 Fog -31 1015 74 10000 3 10 08:49 08.03.2020
1696 Fog -31 1015 74 10000 3 10 08:27 08.03.2020
1697 Fog -30 1014 74 10000 3 340 07:51 08.03.2020
1698 Fog -30 1014 74 10000 3 340 07:29 08.03.2020
1699 Fog -30 1014 74 10000 3 10 06:58 08.03.2020
1700 Fog -30 1014 74 10000 3 10 06:37 08.03.2020
1701 Fog -30 1014 75 10000 3 360 06:18 08.03.2020
1702 Fog -29 1013 75 10000 4 330 05:18 08.03.2020
1703 Fog -28 1014 75 10000 3 350 03:50 08.03.2020
1704 Clouds -29 1013 75 10000 3 350 02:28 08.03.2020
1705 Fog -30 1014 67 10000 2 330 01:23 08.03.2020
1706 Fog -30 1014 67 10000 2 330 00:44 08.03.2020
1707 Clear -30 1014 74 10000 3 350 00:25 08.03.2020
1708 Clear -30 1014 74 10000 3 350 23:44 07.03.2020
1709 Clear -30 1014 74 10000 3 350 23:23 07.03.2020
1710 Clear -31 1013 74 10000 3 340 22:40 07.03.2020
1711 Clear -31 1013 74 10000 3 340 22:21 07.03.2020
1712 Clear -29 1014 75 10000 1 30 21:49 07.03.2020
1713 Clear -29 1014 75 10000 1 30 21:25 07.03.2020
1714 Clear -30 1014 74 10000 2 20 20:42 07.03.2020
1715 Clear -30 1014 74 10000 2 20 20:42 07.03.2020
1716 Clear -30 1014 74 10000 2 20 20:24 07.03.2020
1717 Fog -31 1013 74 10000 2 20 19:59 07.03.2020
1718 Fog -31 1013 74 10000 2 20 19:41 07.03.2020
1719 Fog -31 1013 74 10000 2 20 19:21 07.03.2020
1720 Clear -30 1013 74 10000 2 340 18:43 07.03.2020
1721 Clear -30 1013 74 10000 2 340 18:25 07.03.2020
1722 Clear -29 1013 75 10000 3 340 17:56 07.03.2020
1723 Clear -29 1013 75 10000 3 340 17:38 07.03.2020
1724 Clear -29 1013 75 10000 3 340 17:18 07.03.2020
1725 Clear -29 1013 75 10000 3 340 16:43 07.03.2020
1726 Clear -29 1013 75 10000 3 340 16:43 07.03.2020
1727 Clear -29 1013 75 10000 3 340 16:23 07.03.2020
1728 Clear -29 1014 75 10000 1 340 15:58 07.03.2020
1729 Clear -29 1014 75 10000 1 340 15:40 07.03.2020
1730 Clear -29 1014 75 10000 1 340 15:21 07.03.2020
1731 Clear -28 1014 75 10000 3 360 14:58 07.03.2020
1732 Clear -28 1014 75 10000 3 360 14:39 07.03.2020
1733 Clear -28 1014 75 10000 3 360 14:21 07.03.2020
1734 Clear -27 1014 82 10000 2 10 13:40 07.03.2020
1735 Clear -27 1014 82 10000 2 10 13:21 07.03.2020
1736 Clear -28 1014 82 10000 2 360 12:45 07.03.2020
1737 Clear -28 1014 82 10000 2 360 12:23 07.03.2020
1738 Clear -27 1014 75 10000 3 30 11:59 07.03.2020
1739 Clear -27 1014 75 10000 3 30 11:40 07.03.2020
1740 Clear -27 1014 75 10000 3 30 11:22 07.03.2020
1741 Clear -27 1014 75 10000 3 10 10:44 07.03.2020
1742 Clear -27 1014 75 10000 3 10 10:22 07.03.2020
1743 Clear -25 1014 75 10000 3 360 09:59 07.03.2020
1744 Clear -25 1014 75 10000 3 360 09:40 07.03.2020
1745 Clear -25 1014 75 10000 3 360 09:19 07.03.2020
1746 Clear -25 1014 75 10000 3 330 08:44 07.03.2020
1747 Clear -25 1014 75 10000 3 330 08:44 07.03.2020
1748 Clear -25 1014 75 10000 3 330 08:25 07.03.2020
1749 Clear -24 1014 76 10000 1 20 07:59 07.03.2020
1750 Clear -24 1014 76 0 3.11 329 07:41 07.03.2020
1751 Clear -24 1014 76 0 3.11 329 07:20 07.03.2020
1752 Clear -21 1014 76 0 3.11 329 06:38 07.03.2020
1753 Clear -20 1014 76 10000 2 340 05:57 07.03.2020
1754 Clear -20 1014 76 10000 2 340 05:35 07.03.2020
1755 Clouds -23 1014 83 10000 2 340 02:58 07.03.2020
1756 Clouds -23 1014 83 10000 2 340 02:39 07.03.2020
1757 Clouds -24 1014 83 10000 2 340 01:51 07.03.2020
1758 Clouds -24 1014 76 10000 2 350 00:43 07.03.2020
1759 Clouds -24 1015 76 10000 1 330 00:23 07.03.2020
1760 Clouds -23 1014 76 10000 2 340 23:56 06.03.2020
1761 Clouds -23 1014 76 10000 2 340 23:38 06.03.2020
1762 Clouds -23 1014 76 10000 2 340 23:20 06.03.2020
1763 Clouds -24 1014 76 10000 2 360 22:42 06.03.2020
1764 Clouds -24 1014 76 10000 2 360 22:19 06.03.2020
1765 Clouds -24 1014 76 10000 2 360 22:19 06.03.2020
1766 Fog -27 1014 82 10000 2 10 21:45 06.03.2020
1767 Fog -27 1014 82 10000 2 10 21:19 06.03.2020
1768 Mist -26 1014 75 4600 3 30 20:42 06.03.2020
1769 Mist -26 1014 75 4600 3 30 20:21 06.03.2020
1770 Mist -26 1014 75 4600 3 30 20:21 06.03.2020
1771 Clouds -26 1014 83 10000 3 20 19:54 06.03.2020
1772 Clouds -26 1014 83 10000 3 20 19:36 06.03.2020
1773 Clouds -26 1014 82 9000 3 360 19:18 06.03.2020
1774 Clouds -27 1014 82 9000 3 360 18:41 06.03.2020
1775 Clouds -27 1014 82 9000 3 360 18:20 06.03.2020
1776 Mist -27 1013 82 1100 2 320 17:56 06.03.2020
1777 Mist -27 1013 82 1100 2 320 17:36 06.03.2020
1778 Mist -27 1013 82 1100 2 320 17:36 06.03.2020
1779 Clouds -26 1013 83 10000 4 360 17:18 06.03.2020
1780 Clouds -26 1013 83 10000 4 360 16:42 06.03.2020
1781 Clouds -26 1013 83 10000 4 360 16:21 06.03.2020
1782 Mist -26 1013 75 9000 3 360 15:58 06.03.2020
1783 Mist -26 1013 75 9000 3 360 15:39 06.03.2020
1784 Mist -26 1013 75 9000 3 360 15:20 06.03.2020
1785 Clouds -24 1013 83 10000 5 20 14:39 06.03.2020
1786 Clouds -24 1013 83 10000 5 20 14:21 06.03.2020
1787 Clouds -25 1014 83 9000 3 20 13:43 06.03.2020
1788 Clouds -25 1014 83 9000 3 20 13:43 06.03.2020
1789 Clear -25 1014 83 9000 3 20 13:23 06.03.2020
1790 Clear -25 1014 83 10000 3 350 12:58 06.03.2020
1791 Clear -25 1014 83 10000 3 350 12:38 06.03.2020
1792 Clear -25 1014 83 10000 3 350 12:20 06.03.2020
1793 Clear -23 1014 76 10000 4 360 11:58 06.03.2020
1794 Clear -23 1014 76 10000 4 360 11:40 06.03.2020
1795 Clear -23 1014 76 10000 4 360 11:20 06.03.2020
1796 Clear -25 1014 75 10000 3 30 10:40 06.03.2020
1797 Clear -25 1014 75 10000 3 30 10:21 06.03.2020
1798 Clear -24 1014 76 10000 2 340 09:56 06.03.2020
1799 Clear -24 1014 76 10000 2 340 09:37 06.03.2020
1800 Clear -24 1014 76 10000 2 340 09:19 06.03.2020
1801 Clear -25 1014 75 10000 2 330 08:46 06.03.2020
1802 Clear -25 1014 75 10000 2 330 08:27 06.03.2020
1803 Clear -24 1014 83 10000 4 360 07:59 06.03.2020
1804 Clear -24 1014 83 10000 4 360 07:39 06.03.2020
1805 Clear -24 1014 83 10000 4 360 07:20 06.03.2020
1806 Clear -23 1014 76 10000 4 350 06:41 06.03.2020
1807 Clear -22 1014 83 10000 2 350 05:52 06.03.2020
1808 Clear -21 1014 83 10000 3 350 05:31 06.03.2020
1809 Clear -21 1014 83 10000 3 360 04:59 06.03.2020
1810 Clear -21 1014 83 10000 2 360 03:46 06.03.2020
1811 Clouds -21 1016 83 10000 3 10 01:42 06.03.2020
1812 Clouds -19 1016 77 10000 3 350 01:24 06.03.2020
1813 Clouds -19 1016 77 10000 2 30 00:47 06.03.2020
1814 Clouds -21 1016 76 10000 3 360 00:20 06.03.2020
1815 Clouds -22 1017 83 10000 3 40 23:43 05.03.2020
1816 Clouds -24 1017 76 10000 2 20 23:23 05.03.2020
1817 Clouds -24 1017 76 10000 2 50 22:41 05.03.2020
1818 Clouds -24 1017 76 10000 2 50 22:23 05.03.2020
1819 Clouds -25 1017 83 10000 1 60 21:58 05.03.2020
1820 Clouds -26 1017 82 10000 2 40 21:39 05.03.2020
1821 Clouds -27 1017 82 10000 2 40 21:21 05.03.2020
1822 Clouds -24 1017 76 10000 3 50 20:59 05.03.2020
1823 Clouds -24 1017 76 10000 3 50 20:41 05.03.2020
1824 Clear -24 1017 76 10000 3 50 20:20 05.03.2020
1825 Clear -22 1018 76 10000 3 350 19:58 05.03.2020
1826 Clear -22 1018 76 10000 3 350 19:39 05.03.2020
1827 Clear -22 1018 76 10000 3 350 19:19 05.03.2020
1828 Clear -23 1018 76 10000 0.32 270 18:57 05.03.2020
1829 Clear -23 1018 76 10000 0.32 270 18:37 05.03.2020
1830 Clear -23 1018 76 10000 0.32 270 18:37 05.03.2020
1831 Clear -23 1018 76 10000 0.32 270 18:18 05.03.2020
1832 Clear -23 1018 83 10000 1 10 17:42 05.03.2020
1833 Clear -23 1018 83 10000 1 10 17:24 05.03.2020
1834 Clear -25 1019 83 10000 2 80 16:59 05.03.2020
1835 Clear -25 1019 83 10000 2 80 16:41 05.03.2020
1836 Clear -25 1019 83 10000 2 80 16:21 05.03.2020
1837 Clear -23 1020 76 10000 2 100 15:45 05.03.2020
1838 Clear -23 1020 76 10000 2 100 15:24 05.03.2020
1839 Clear -21 1020 76 10000 0.78 224 14:59 05.03.2020
1840 Clear -21 1020 76 10000 0.78 224 14:41 05.03.2020
1841 Clear -21 1020 76 10000 0.78 224 14:22 05.03.2020
1842 Clouds -22 1020 76 10000 0.8 245 13:57 05.03.2020
1843 Clouds -22 1020 76 10000 0.8 245 13:38 05.03.2020
1844 Clouds -22 1020 76 10000 0.8 245 13:20 05.03.2020
1845 Clouds -21 1021 76 10000 1 260 12:42 05.03.2020
1846 Clouds -21 1021 76 10000 1 260 12:21 05.03.2020
1847 Clouds -21 1021 76 10000 2 140 11:57 05.03.2020
1848 Clouds -21 1021 76 10000 2 140 11:37 05.03.2020
1849 Clouds -21 1021 76 10000 2 140 11:19 05.03.2020
1850 Clouds -20 1022 76 10000 1 120 10:58 05.03.2020
1851 Clouds -20 1022 76 10000 1 120 10:40 05.03.2020
1852 Clouds -20 1022 76 10000 1 120 10:40 05.03.2020
1853 Clouds -20 1022 76 10000 1 120 10:21 05.03.2020
1854 Clouds -21 1022 76 10000 1 330 09:49 05.03.2020
1855 Clouds -21 1022 76 10000 1 330 09:28 05.03.2020
1856 Clouds -21 1022 83 10000 1 40 08:59 05.03.2020
1857 Clouds -21 1022 83 10000 1 40 08:41 05.03.2020
1858 Clouds -21 1022 83 10000 1 40 08:22 05.03.2020
1859 Clouds -19 1022 77 10000 1 230 07:42 05.03.2020
1860 Clouds -19 1022 77 10000 1 230 07:21 05.03.2020
1861 Clouds -18 1022 77 10000 2 210 06:44 05.03.2020
1862 Clouds -18 1022 77 10000 2 210 06:44 05.03.2020
1863 Clouds -18 1022 77 10000 2 170 06:20 05.03.2020
1864 Clouds -16 1022 71 10000 4 10 05:35 05.03.2020
1865 Clouds -15 1023 71 10000 5 20 04:24 05.03.2020
1866 Clouds -14 1023 65 10000 5 10 03:58 05.03.2020
1867 Clouds -15 1024 71 10000 4 350 02:41 05.03.2020
1868 Clear -15 1024 65 10000 2 30 01:28 05.03.2020
1869 Clear -15 1024 65 10000 2 360 00:50 05.03.2020
1870 Clear -17 1025 70 10000 2 30 23:57 04.03.2020
1871 Clear -17 1025 64 10000 2 50 23:39 04.03.2020
1872 Clear -17 1025 64 10000 2 50 23:21 04.03.2020
1873 Clear -18 1025 70 10000 2 40 22:56 04.03.2020
1874 Clear -17 1025 70 10000 3 360 22:37 04.03.2020
1875 Clear -17 1025 70 10000 3 360 22:18 04.03.2020
1876 Clear -18 1024 70 10000 3 340 21:55 04.03.2020
1877 Clear -18 1024 70 10000 4 20 21:37 04.03.2020
1878 Clear -18 1024 70 10000 4 20 21:18 04.03.2020
1879 Clear -19 1024 77 10000 3 20 20:40 04.03.2020
1880 Clear -19 1024 77 10000 3 20 20:21 04.03.2020
1881 Clear -18 1024 70 10000 3 20 19:57 04.03.2020
1882 Clear -18 1024 70 10000 3 20 19:38 04.03.2020
1883 Clear -18 1024 70 10000 3 20 19:20 04.03.2020
1884 Clear -16 1024 65 10000 4 20 18:42 04.03.2020
1885 Clear -16 1024 65 10000 4 20 18:23 04.03.2020
1886 Clear -20 1024 76 10000 5 50 17:59 04.03.2020
1887 Clear -19 1024 70 10000 3 40 17:39 04.03.2020
1888 Clear -18 1024 70 10000 3 40 17:20 04.03.2020
1889 Clear -18 1024 70 10000 3 40 16:56 04.03.2020
1890 Clear -17 1024 77 10000 2 20 16:37 04.03.2020
1891 Clear -17 1024 77 10000 2 20 16:19 04.03.2020
1892 Clear -16 1025 65 10000 2 10 15:44 04.03.2020
1893 Clear -16 1025 65 10000 2 10 15:26 04.03.2020
1894 Clear -18 1024 70 10000 5 40 14:59 04.03.2020
1895 Clear -18 1024 70 10000 5 40 14:40 04.03.2020
1896 Clear -18 1024 70 10000 5 40 14:20 04.03.2020
1897 Clear -19 1024 70 10000 5 30 13:58 04.03.2020
1898 Clear -19 1024 70 10000 5 30 13:39 04.03.2020
1899 Clear -19 1024 70 10000 5 30 13:20 04.03.2020
1900 Clear -17 1024 64 10000 4 20 12:55 04.03.2020
1901 Clear -17 1024 64 10000 4 20 12:37 04.03.2020
1902 Clear -17 1024 64 10000 4 20 12:19 04.03.2020
1903 Clear -17 1024 70 10000 3 340 11:42 04.03.2020
1904 Clear -17 1024 70 10000 3 340 11:23 04.03.2020
1905 Clear -17 1024 70 10000 2 10 10:58 04.03.2020
1906 Clear -17 1024 70 10000 2 10 10:40 04.03.2020
1907 Clear -17 1024 70 10000 2 10 10:21 04.03.2020
1908 Clear -17 1024 77 10000 7 330 09:43 04.03.2020
1909 Clear -17 1024 77 10000 7 330 09:21 04.03.2020
1910 Clear -16 1023 71 10000 7 360 08:49 04.03.2020
1911 Clear -16 1023 71 10000 7 360 08:28 04.03.2020
1912 Clear -15 1022 71 10000 9 310 07:57 04.03.2020
1913 Clear -15 1022 71 10000 9 310 07:39 04.03.2020
1914 Clear -15 1022 71 10000 9 310 07:20 04.03.2020
1915 Clear -15 1022 71 10000 10 320 06:44 04.03.2020
1916 Clear -15 1022 77 10000 6 350 06:23 04.03.2020
1917 Clear -14 1023 71 10000 9 320 05:50 04.03.2020
1918 Clear -13 1023 71 10000 9 310 04:34 04.03.2020
1919 Clear -13 1023 71 10000 9 310 03:44 04.03.2020
1920 Clear -13 1023 71 10000 6 330 03:25 04.03.2020
1921 Clear -12 1022 60 10000 7 280 02:55 04.03.2020
1922 Clear -13 1023 65 10000 6 290 02:21 04.03.2020
1923 Clear -14 1023 65 10000 4 330 01:55 04.03.2020
1924 Clear -15 1023 60 10000 4 300 00:52 04.03.2020
1925 Clear -15 1023 60 10000 3 300 00:27 04.03.2020
1926 Clear -15 1023 60 10000 3 300 00:27 04.03.2020
1927 Clear -16 1023 59 10000 3 320 23:47 03.03.2020
1928 Clear -19 1023 64 10000 5 320 23:28 03.03.2020
1929 Clear -20 1024 58 10000 3 360 22:59 03.03.2020
1930 Clear -20 1024 64 10000 3 20 22:40 03.03.2020
1931 Clear -20 1024 64 10000 3 20 22:20 03.03.2020
1932 Clear -18 1024 59 10000 1 40 21:58 03.03.2020
1933 Clear -18 1024 64 10000 2 70 21:39 03.03.2020
1934 Clear -18 1024 64 10000 2 70 21:19 03.03.2020
1935 Clear -19 1024 64 10000 3 40 20:55 03.03.2020
1936 Clear -19 1024 64 10000 3 40 20:36 03.03.2020
1937 Clouds -19 1024 64 10000 3 40 20:18 03.03.2020
1938 Clouds -18 1025 64 10000 4 310 19:54 03.03.2020
1939 Clouds -18 1025 64 10000 4 310 19:36 03.03.2020
1940 Clouds -18 1025 64 10000 4 310 19:18 03.03.2020
1941 Clouds -16 1026 59 10000 4 330 18:42 03.03.2020
1942 Clouds -16 1026 59 10000 4 330 18:22 03.03.2020
1943 Clouds -16 1026 59 10000 4 310 17:59 03.03.2020
1944 Clouds -16 1026 59 10000 4 310 17:59 03.03.2020
1945 Clouds -16 1026 59 10000 4 310 17:40 03.03.2020
1946 Clouds -16 1026 59 10000 4 310 17:21 03.03.2020
1947 Clouds -16 1027 59 10000 4 310 16:58 03.03.2020
1948 Clouds -16 1027 59 10000 4 310 16:38 03.03.2020
1949 Clouds -16 1027 59 10000 4 310 16:19 03.03.2020
1950 Clouds -18 1028 70 10000 6 300 15:57 03.03.2020
1951 Clouds -18 1028 70 10000 6 300 15:38 03.03.2020
1952 Clouds -18 1028 70 10000 6 300 15:18 03.03.2020
1953 Clouds -17 1028 64 10000 2 320 14:41 03.03.2020
1954 Clear -17 1028 64 10000 2 320 14:19 03.03.2020
1955 Clear -19 1028 70 10000 6 310 13:57 03.03.2020
1956 Clear -19 1028 70 10000 6 310 13:39 03.03.2020
1957 Clear -19 1028 70 10000 6 310 13:19 03.03.2020
1958 Clear -19 1028 70 10000 9 290 12:46 03.03.2020
1959 Clear -19 1028 70 10000 9 290 12:25 03.03.2020
1960 Clear -19 1028 70 9000 10 290 11:57 03.03.2020
1961 Clear -19 1028 70 9000 10 290 11:37 03.03.2020
1962 Clear -19 1028 70 9000 10 290 11:18 03.03.2020
1963 Clear -20 1028 76 10000 7 300 10:55 03.03.2020
1964 Clear -20 1028 76 10000 7 300 10:37 03.03.2020
1965 Clear -20 1028 76 10000 7 300 10:18 03.03.2020
1966 Clear -21 1028 76 10000 4 280 09:43 03.03.2020
1967 Clear -21 1028 76 10000 4 280 09:43 03.03.2020
1968 Clear -21 1028 76 10000 4 280 09:22 03.03.2020
1969 Clear -20 1028 76 10000 3 260 08:56 03.03.2020
1970 Clear -20 1028 76 10000 3 260 08:37 03.03.2020
1971 Clear -20 1028 76 10000 3 260 08:19 03.03.2020
1972 Clear -19 1027 70 10000 3 340 07:42 03.03.2020
1973 Clear -19 1027 70 10000 3 340 07:19 03.03.2020
1974 Clear -18 1027 70 10000 5 320 06:41 03.03.2020
1975 Clear -18 1027 70 10000 5 320 06:22 03.03.2020
1976 Clear -18 1027 70 10000 5 320 06:22 03.03.2020
1977 Clear -18 1026 70 10000 7 320 05:46 03.03.2020
1978 Clear -17 1025 70 10000 9 330 04:57 03.03.2020
1979 Clear -17 1023 70 10000 11 320 03:32 03.03.2020
1980 Clear -17 1022 70 6000 10 330 01:39 03.03.2020
1981 Clear -17 1022 70 5000 12 330 00:48 03.03.2020
1982 Clear -17 1021 70 1900 13 320 00:26 03.03.2020
1983 Clear -17 1021 70 3300 14 320 23:51 02.03.2020
1984 Clear -18 1020 77 2900 10 330 23:23 02.03.2020
1985 Clear -19 1020 70 1500 15 320 22:58 02.03.2020
1986 Clear -20 1020 76 10000 10 330 22:39 02.03.2020
1987 Clear -21 1020 76 10000 10 330 22:20 02.03.2020
1988 Clear -22 1020 76 10000 11 330 21:58 02.03.2020
1989 Clear -22 1020 76 10000 4 310 21:39 02.03.2020
1990 Clear -22 1020 76 10000 4 310 21:21 02.03.2020
1991 Clear -22 1019 76 10000 3 320 20:58 02.03.2020
1992 Clear -22 1019 76 10000 3 320 20:38 02.03.2020
1993 Clouds -22 1019 76 10000 3 320 20:20 02.03.2020
1994 Clouds -22 1019 76 10000 3 320 20:20 02.03.2020
1995 Clouds -21 1019 76 8000 5 10 19:55 02.03.2020
1996 Clouds -21 1019 76 8000 5 10 19:55 02.03.2020
1997 Clouds -21 1019 76 8000 5 10 19:37 02.03.2020
1998 Clouds -21 1019 76 8000 5 10 19:18 02.03.2020
1999 Clouds -21 1018 76 10000 5 290 18:44 02.03.2020
2000 Clouds -21 1018 76 10000 5 290 18:19 02.03.2020
2001 Clouds -21 1018 76 10000 5 290 18:19 02.03.2020
2002 Clouds -20 1018 76 10000 7 310 17:58 02.03.2020
2003 Clouds -20 1018 76 0 8.94 320 17:40 02.03.2020
2004 Clouds -19 1018 77 10000 6 330 17:21 02.03.2020
2005 Clouds -19 1018 77 10000 6 330 16:55 02.03.2020
2006 Clouds -19 1018 77 10000 6 330 16:36 02.03.2020
2007 Clouds -19 1018 77 10000 6 330 16:18 02.03.2020
2008 Clouds -19 1018 77 10000 6 320 15:43 02.03.2020
2009 Clouds -19 1018 77 10000 6 320 15:20 02.03.2020
2010 Clouds -20 1019 76 10000 3 340 14:42 02.03.2020
2011 Clouds -20 1019 76 10000 3 340 14:20 02.03.2020
2012 Clouds -19 1018 77 10000 3 10 13:59 02.03.2020
2013 Clouds -19 1018 77 10000 3 10 13:38 02.03.2020
2014 Clear -19 1018 77 10000 3 10 13:18 02.03.2020
2015 Clear -21 1018 76 10000 3 350 12:43 02.03.2020
2016 Clear -21 1018 76 10000 3 350 12:20 02.03.2020
2017 Clear -20 1019 76 10000 4 10 11:56 02.03.2020
2018 Clear -20 1019 76 10000 4 10 11:36 02.03.2020
2019 Clear -20 1019 76 10000 4 10 11:18 02.03.2020
2020 Clear -20 1018 76 10000 5 320 10:42 02.03.2020
2021 Clear -20 1018 76 10000 5 320 10:21 02.03.2020
2022 Clear -19 1018 77 10000 9 310 09:59 02.03.2020
2023 Clear -19 1018 77 10000 9 310 09:40 02.03.2020
2024 Clear -19 1018 77 10000 9 310 09:22 02.03.2020
2025 Clear -19 1018 77 4500 11 300 08:43 02.03.2020
2026 Clear -19 1018 77 10000 10 300 08:22 02.03.2020
2027 Clear -19 1018 84 10000 10 300 07:42 02.03.2020
2028 Clear -18 1018 77 10000 4 280 07:19 02.03.2020
2029 Clear -17 1018 77 10000 7 290 06:38 02.03.2020
2030 Clear -17 1017 77 10000 8 290 05:53 02.03.2020
2031 Clear -17 1018 77 10000 5 310 04:23 02.03.2020
2032 Clear -17 1017 77 10000 3 340 03:22 02.03.2020
2033 Clear -19 1017 84 10000 2 20 02:46 02.03.2020
2034 Clear -19 1017 77 10000 4 360 01:47 02.03.2020
2035 Clear -20 1017 83 10000 4 360 01:28 02.03.2020
2036 Clear -21 1017 83 10000 6 360 00:23 02.03.2020
2037 Clear -21 1017 76 10000 3 340 23:56 01.03.2020
2038 Clear -21 1017 83 10000 1 190 23:38 01.03.2020
2039 Clear -22 1017 83 10000 1 190 23:19 01.03.2020
2040 Clear -23 1016 76 10000 4 330 22:43 01.03.2020
2041 Clear -23 1016 76 10000 4 330 22:43 01.03.2020
2042 Clear -22 1016 76 10000 1 270 22:20 01.03.2020
2043 Clear -23 1016 83 10000 3 330 21:55 01.03.2020
2044 Clear -23 1016 76 10000 6 360 21:37 01.03.2020
2045 Clear -23 1016 76 10000 6 360 21:18 01.03.2020
2046 Clear -23 1015 76 10000 5 10 20:43 01.03.2020
2047 Clear -23 1015 76 10000 5 10 20:25 01.03.2020
2048 Clear -24 1015 83 10000 6 10 19:55 01.03.2020
2049 Clear -24 1015 83 10000 6 10 19:36 01.03.2020
2050 Clear -24 1015 83 10000 6 10 19:18 01.03.2020
2051 Clear -24 1015 76 10000 7 360 18:40 01.03.2020
2052 Clear -24 1015 76 10000 7 360 18:20 01.03.2020
2053 Clear -23 1014 76 10000 4 20 17:57 01.03.2020
2054 Clear -23 1014 76 10000 4 20 17:39 01.03.2020
2055 Clear -23 1014 76 10000 4 20 17:20 01.03.2020
2056 Clear -24 1014 76 10000 3 10 16:57 01.03.2020
2057 Clear -24 1014 76 10000 3 10 16:38 01.03.2020
2058 Clear -24 1014 76 10000 3 10 16:18 01.03.2020
2059 Clear -24 1014 83 10000 8 340 15:56 01.03.2020
2060 Clear -24 1014 83 10000 8 340 15:38 01.03.2020
2061 Clear -24 1014 83 10000 8 340 15:19 01.03.2020
2062 Clear -24 1014 76 10000 4 340 14:56 01.03.2020
2063 Clear -24 1014 76 10000 4 340 14:38 01.03.2020
2064 Clear -24 1014 76 10000 4 340 14:20 01.03.2020
2065 Clear -24 1014 76 10000 2 340 13:54 01.03.2020
2066 Clear -24 1014 76 10000 2 340 13:36 01.03.2020
2067 Clear -24 1014 76 10000 2 340 13:36 01.03.2020
2068 Clear -24 1014 76 10000 2 340 13:18 01.03.2020
2069 Clear -25 1014 83 10000 3 340 12:41 01.03.2020
2070 Clear -25 1014 83 10000 3 340 12:21 01.03.2020
2071 Clear -25 1014 83 10000 3 340 12:21 01.03.2020
2072 Clear -25 1014 75 10000 4 20 11:43 01.03.2020
2073 Clear -25 1014 75 10000 4 20 11:25 01.03.2020
2074 Clear -25 1013 83 10000 5 10 10:57 01.03.2020
2075 Clear -25 1013 83 10000 5 10 10:57 01.03.2020
2076 Clear -25 1013 83 10000 5 10 10:38 01.03.2020
2077 Clear -25 1013 83 10000 5 10 10:20 01.03.2020
2078 Clear -23 1013 76 10000 4 10 09:57 01.03.2020
2079 Clear -23 1013 76 10000 4 10 09:39 01.03.2020
2080 Clear -23 1013 76 10000 4 10 09:21 01.03.2020
2081 Clear -24 1013 76 10000 4 10 08:41 01.03.2020
2082 Clear -24 1013 76 10000 4 10 08:21 01.03.2020
2083 Clear -23 1013 76 10000 3 20 07:43 01.03.2020
2084 Clear -23 1013 76 10000 3 20 07:24 01.03.2020
2085 Clear -25 1013 83 10000 6 10 06:57 01.03.2020
2086 Clear -25 1013 83 10000 6 10 06:37 01.03.2020
2087 Clear -25 1014 83 10000 3 30 04:27 01.03.2020
2088 Clear -25 1014 83 10000 3 30 04:27 01.03.2020
2089 Clouds -26 1015 75 10000 4 30 02:55 01.03.2020
2090 Clouds -27 1015 75 9000 4 340 01:54 01.03.2020
2091 Mist -27 1015 75 3500 3 340 01:31 01.03.2020
2092 Mist -29 1015 75 2300 6 340 00:45 01.03.2020
2093 Mist -29 1015 75 1900 5 350 00:22 01.03.2020
2094 Mist -29 1015 75 1200 5 330 23:54 29.02.2020
2095 Mist -29 1015 75 1700 3 270 23:33 29.02.2020
2096 Mist -29 1015 75 1400 5 360 22:45 29.02.2020
2097 Mist -30 1015 74 1300 3 340 22:25 29.02.2020
2098 Mist -29 1015 75 1300 3 340 21:44 29.02.2020
2099 Mist -29 1015 75 1300 3 340 21:26 29.02.2020
2100 Mist -29 1015 75 2600 3 20 20:45 29.02.2020
2101 Mist -29 1015 75 2600 3 20 20:22 29.02.2020
2102 Clouds -28 1014 75 9000 6 350 19:59 29.02.2020
2103 Clouds -28 1014 75 9000 6 350 19:41 29.02.2020
2104 Clouds -28 1014 75 9000 6 350 19:22 29.02.2020
2105 Clear -29 1015 75 9000 5 10 18:56 29.02.2020
2106 Clear -29 1015 75 9000 5 10 18:38 29.02.2020
2107 Clear -29 1015 75 9000 5 10 18:19 29.02.2020
2108 Mist -28 1014 75 5000 7 330 17:54 29.02.2020
2109 Mist -28 1014 75 5000 7 330 17:54 29.02.2020
2110 Mist -28 1014 75 5000 7 330 17:36 29.02.2020
2111 Mist -28 1014 75 5000 7 330 17:36 29.02.2020
2112 Mist -28 1014 75 5000 7 330 17:18 29.02.2020
2113 Mist -28 1015 82 5000 7 340 16:42 29.02.2020
2114 Mist -28 1015 82 5000 7 340 16:18 29.02.2020
2115 Clouds -27 1015 75 9000 7 340 15:42 29.02.2020
2116 Clouds -27 1015 75 9000 7 340 15:24 29.02.2020
2117 Clouds -25 1015 75 10000 5 360 14:57 29.02.2020
2118 Clouds -25 1015 75 10000 5 360 14:38 29.02.2020
2119 Clear -25 1015 75 10000 5 360 14:20 29.02.2020
2120 Clear -25 1015 75 10000 5 360 13:43 29.02.2020
2121 Clear -25 1015 75 10000 5 360 13:25 29.02.2020
2122 Clear -26 1016 83 10000 6 340 12:54 29.02.2020
2123 Clear -26 1016 83 10000 6 340 12:36 29.02.2020
2124 Clear -26 1016 83 10000 6 340 12:18 29.02.2020
2125 Clear -26 1016 83 10000 5 350 11:43 29.02.2020
2126 Clear -26 1016 83 10000 5 350 11:24 29.02.2020
2127 Clear -26 1017 75 10000 2 50 10:50 29.02.2020
2128 Clear -26 1017 75 10000 2 50 10:29 29.02.2020
2129 Clear -24 1017 76 10000 4 10 09:51 29.02.2020
2130 Clear -24 1017 76 10000 4 10 09:27 29.02.2020
2131 Clear -25 1017 83 10000 4 30 08:58 29.02.2020
2132 Clear -25 1017 83 10000 4 30 08:38 29.02.2020
2133 Clear -25 1017 83 10000 4 30 08:19 29.02.2020
2134 Clear -26 1017 83 10000 4 20 07:45 29.02.2020
2135 Clear -26 1017 83 10000 4 20 07:19 29.02.2020
2136 Clear -25 1018 75 10000 4 360 06:53 29.02.2020
2137 Clear -25 1018 75 10000 4 360 06:27 29.02.2020
2138 Clear -24 1018 76 10000 3 20 05:49 29.02.2020
2139 Clear -24 1018 76 10000 3 20 05:29 29.02.2020
2140 Clear -23 1019 83 10000 4 20 03:46 29.02.2020
2141 Clear -23 1019 83 10000 4 20 03:23 29.02.2020
2142 Clear -23 1020 76 10000 4 40 02:47 29.02.2020
2143 Clear -24 1020 83 10000 4 20 01:49 29.02.2020
2144 Clouds -24 1020 76 10000 4 50 00:46 29.02.2020
2145 Clouds -24 1021 76 10000 3 30 00:26 29.02.2020
2146 Clouds -25 1021 75 10000 4 30 23:39 28.02.2020
2147 Clouds -25 1021 75 10000 4 30 23:20 28.02.2020
2148 Clouds -25 1021 75 10000 3 20 22:42 28.02.2020
2149 Clouds -26 1021 75 10000 5 10 22:22 28.02.2020
2150 Clouds -26 1020 75 10000 5 10 21:42 28.02.2020
2151 Clouds -27 1021 82 10000 6 20 21:21 28.02.2020
2152 Clouds -26 1021 75 10000 4 360 20:57 28.02.2020
2153 Clouds -26 1021 75 10000 4 360 20:38 28.02.2020
2154 Clouds -26 1021 75 10000 4 360 20:20 28.02.2020
2155 Clouds -29 1021 75 10000 4 10 19:56 28.02.2020
2156 -273 0 0 0 0 0 19:38 28.02.2020
2157 Clouds -29 1021 75 10000 4 10 19:19 28.02.2020
2158 Clouds -26 1021 75 10000 2 360 18:46 28.02.2020
2159 Clouds -26 1021 75 10000 2 360 18:24 28.02.2020
2160 Clouds -26 1021 83 10000 2 30 17:56 28.02.2020
2161 Clouds -26 1021 83 10000 2 30 17:36 28.02.2020
2162 Clouds -26 1021 83 10000 2 30 17:18 28.02.2020
2163 Clouds -27 1021 75 10000 4 30 16:38 28.02.2020
2164 Clouds -27 1021 75 10000 4 30 16:38 28.02.2020
2165 Clouds -27 1021 75 10000 4 30 16:19 28.02.2020
2166 Clouds -27 1021 82 10000 4 20 15:56 28.02.2020
2167 Clouds -27 1021 82 10000 4 20 15:37 28.02.2020
2168 Clouds -27 1021 82 10000 4 20 15:18 28.02.2020
2169 Clouds -27 1021 75 10000 4 30 14:45 28.02.2020
2170 Clouds -27 1021 75 10000 4 30 14:19 28.02.2020
2171 Clouds -27 1021 75 10000 4 360 13:58 28.02.2020
2172 Clouds -27 1021 75 10000 4 360 13:40 28.02.2020
2173 Clouds -27 1021 75 10000 4 360 13:19 28.02.2020
2174 Clouds -27 1021 82 10000 4 10 12:45 28.02.2020
2175 Clouds -27 1021 82 10000 4 10 12:27 28.02.2020
2176 Clouds -27 1021 82 10000 3 30 11:56 28.02.2020
2177 Clouds -27 1021 82 10000 3 30 11:37 28.02.2020
2178 Clouds -27 1021 82 10000 3 30 11:19 28.02.2020
2179 Clouds -27 1020 75 10000 3 30 10:43 28.02.2020
2180 Clouds -27 1020 75 10000 3 30 10:24 28.02.2020
2181 Clouds -24 1020 76 10000 3 10 09:54 28.02.2020
2182 Clouds -24 1020 76 10000 3 10 09:36 28.02.2020
2183 Clouds -24 1020 76 10000 3 10 09:18 28.02.2020
2184 Clouds -27 1020 82 10000 3 20 08:42 28.02.2020
2185 Clouds -27 1020 82 10000 3 20 08:20 28.02.2020
2186 Clouds -25 1020 75 10000 3 20 07:45 28.02.2020
2187 Clouds -25 1020 75 10000 3 20 07:25 28.02.2020
2188 Clouds -25 1020 75 10000 2 20 06:50 28.02.2020
2189 Clouds -24 1019 76 10000 3 50 06:29 28.02.2020
2190 Clouds -24 1019 76 10000 4 30 05:22 28.02.2020
2191 Clear -24 1019 76 10000 3 360 04:31 28.02.2020
2192 Clear -22 1019 76 10000 3 20 02:47 28.02.2020
2193 Clear -23 1019 76 10000 3 40 02:28 28.02.2020
2194 Clouds -22 1020 76 10000 1 360 01:38 28.02.2020
2195 Clouds -23 1019 76 10000 2 10 00:31 28.02.2020
2196 Clouds -23 1020 83 10000 3 360 23:45 27.02.2020
2197 Clouds -23 1020 76 10000 3 360 23:22 27.02.2020
2198 Clouds -24 1019 76 10000 3 30 22:56 27.02.2020
2199 Clouds -24 1019 75 10000 3 20 22:38 27.02.2020
2200 Clouds -25 1019 75 10000 3 20 22:20 27.02.2020
2201 Clouds -26 1019 75 10000 2 20 21:41 27.02.2020
2202 Clouds -26 1019 75 10000 2 20 21:23 27.02.2020
2203 Clouds -27 1019 75 10000 4 10 20:59 27.02.2020
2204 Clouds -27 1019 75 10000 4 10 20:41 27.02.2020
2205 Clouds -27 1019 75 10000 4 10 20:21 27.02.2020
2206 Clouds -26 1019 75 10000 3 40 19:57 27.02.2020
2207 Clouds -26 1019 75 10000 3 40 19:38 27.02.2020
2208 Clouds -26 1019 75 10000 3 40 19:19 27.02.2020
2209 Clouds -25 1019 75 10000 5 30 18:43 27.02.2020
2210 Clouds -25 1019 75 10000 5 30 18:24 27.02.2020
2211 Clouds -25 1019 75 10000 4 40 17:59 27.02.2020
2212 Clouds -25 1019 75 10000 4 40 17:40 27.02.2020
2213 Clouds -25 1019 75 10000 4 40 17:40 27.02.2020
2214 Clear -25 1019 75 10000 4 40 17:20 27.02.2020
2215 Clear -25 1019 75 10000 3 30 16:59 27.02.2020
2216 Clear -25 1019 75 10000 3 30 16:39 27.02.2020
2217 Clear -25 1019 75 10000 3 30 16:19 27.02.2020
2218 Clear -25 1019 83 10000 4 360 15:58 27.02.2020
2219 Clear -25 1019 83 10000 4 360 15:37 27.02.2020
2220 Clear -25 1019 83 10000 4 360 15:18 27.02.2020
2221 Clear -24 1019 83 10000 5 360 14:56 27.02.2020
2222 Clear -24 1019 83 10000 5 360 14:37 27.02.2020
2223 Clouds -24 1019 83 10000 5 360 14:18 27.02.2020
2224 Clouds -26 1019 75 10000 6 360 13:42 27.02.2020
2225 Clouds -26 1019 75 10000 6 360 13:21 27.02.2020
2226 Clouds -26 1020 83 10000 3 350 12:48 27.02.2020
2227 Clouds -26 1020 83 10000 3 350 12:25 27.02.2020
2228 Clouds -25 1020 75 10000 3 350 11:59 27.02.2020
2229 Clouds -25 1020 75 10000 3 350 11:41 27.02.2020
2230 Clouds -25 1020 75 10000 3 350 11:21 27.02.2020
2231 Clouds -24 1020 83 10000 4 340 10:43 27.02.2020
2232 Clouds -24 1020 83 10000 4 340 10:23 27.02.2020
2233 Mist -22 1019 76 2800 5 320 09:48 27.02.2020
2234 Mist -22 1019 76 2800 5 320 09:29 27.02.2020
2235 Clouds -21 1019 76 8000 4 330 08:57 27.02.2020
2236 Clouds -21 1019 76 8000 4 330 08:39 27.02.2020
2237 Clouds -21 1019 76 8000 4 330 08:21 27.02.2020
2238 Mist -19 1019 84 5000 4 330 07:44 27.02.2020
2239 Mist -19 1019 84 5000 4 330 07:25 27.02.2020
2240 Mist -19 1019 84 6000 4 340 06:45 27.02.2020
2241 Mist -18 1019 77 1400 4 10 05:35 27.02.2020
2242 Fog -18 1019 77 800 5 360 03:38 27.02.2020
2243 Mist -18 1019 77 1600 4 10 02:20 27.02.2020
2244 Fog -19 1020 84 10000 2 360 00:45 27.02.2020
2245 Fog -19 1020 84 10000 2 350 00:26 27.02.2020
2246 Mist -19 1020 77 1100 1 20 23:40 26.02.2020
2247 Mist -19 1020 77 1100 1 20 23:19 26.02.2020
2248 Fog -20 1020 83 10000 1 350 22:57 26.02.2020
2249 Mist -20 1020 83 8000 1 360 22:39 26.02.2020
2250 Mist -20 1020 83 8000 1 360 22:19 26.02.2020
2251 Fog -20 1020 83 600 2 350 21:55 26.02.2020
2252 Clouds -20 1020 76 10000 1 360 21:36 26.02.2020
2253 Clouds -20 1020 76 10000 1 360 21:18 26.02.2020
2254 Mist -20 1020 76 1200 2 360 20:54 26.02.2020
2255 Mist -20 1020 76 1200 2 360 20:54 26.02.2020
2256 Mist -20 1020 76 1200 2 360 20:36 26.02.2020
2257 Mist -20 1020 76 1200 2 360 20:18 26.02.2020
2258 Snow -19 1020 84 10000 2 350 19:44 26.02.2020
2259 Snow -19 1020 84 10000 2 350 19:20 26.02.2020
2260 Clouds -19 1020 84 10000 1 40 18:58 26.02.2020
2261 Clouds -19 1020 84 10000 1 40 18:40 26.02.2020
2262 Clouds -19 1020 84 10000 1 40 18:22 26.02.2020
2263 Mist -18 1020 84 9000 2 40 17:42 26.02.2020
2264 Mist -18 1020 84 9000 2 40 17:24 26.02.2020
2265 Fog -18 1021 77 200 2 20 16:57 26.02.2020
2266 Fog -18 1021 77 200 2 20 16:39 26.02.2020
2267 Fog -18 1021 77 200 2 20 16:21 26.02.2020
2268 Fog -18 1021 77 200 2 20 16:21 26.02.2020
2269 Fog -19 1021 84 150 2 40 15:47 26.02.2020
2270 Fog -19 1021 84 150 2 40 15:29 26.02.2020
2271 Fog -22 1021 83 200 2 20 14:59 26.02.2020
2272 Fog -22 1021 83 200 2 20 14:40 26.02.2020
2273 Fog -22 1021 83 200 2 20 14:21 26.02.2020
2274 Snow -22 1021 83 10000 1 340 13:43 26.02.2020
2275 Snow -22 1021 83 10000 1 340 13:22 26.02.2020
2276 Clouds -21 1021 83 10000 2 50 12:40 26.02.2020
2277 Clouds -22 1021 83 10000 2 50 12:22 26.02.2020
2278 Clouds -22 1022 91 10000 2 20 11:58 26.02.2020
2279 Clouds -22 1022 91 10000 2 20 11:40 26.02.2020
2280 Clouds -22 1022 91 10000 2 20 11:21 26.02.2020
2281 Clouds -23 1021 76 10000 2 40 10:43 26.02.2020
2282 Clouds -23 1021 76 10000 2 40 10:24 26.02.2020
2283 Clouds -22 1021 76 9000 2 350 09:58 26.02.2020
2284 Clouds -22 1021 76 9000 2 350 09:40 26.02.2020
2285 Clouds -22 1021 76 9000 2 350 09:21 26.02.2020
2286 Snow -22 1021 76 4900 1 290 08:40 26.02.2020
2287 Snow -22 1021 76 4900 1 290 08:22 26.02.2020
2288 Clouds -22 1021 76 10000 2 330 07:59 26.02.2020
2289 Clouds -22 1021 76 10000 2 330 07:39 26.02.2020
2290 Clouds -22 1021 76 10000 2 330 07:20 26.02.2020
2291 Snow -21 1021 70 10000 2 350 06:44 26.02.2020
2292 Snow -21 1021 76 10000 1 350 06:22 26.02.2020
2293 Snow -21 1022 76 10000 2 340 05:48 26.02.2020
2294 Snow -21 1021 76 10000 1 330 05:18 26.02.2020
2295 Snow -21 1021 70 10000 2 340 03:20 26.02.2020
2296 Snow -22 1022 76 10000 2 360 01:57 26.02.2020
2297 Snow -22 1022 76 10000 2 350 01:25 26.02.2020
2298 Clouds -22 1022 69 10000 2 340 00:40 26.02.2020
2299 Clouds -22 1022 69 10000 2 340 00:20 26.02.2020
2300 Clouds -24 1022 76 10000 2 360 23:42 25.02.2020
2301 Clouds -23 1022 76 10000 3 10 23:22 25.02.2020
2302 Clouds -23 1022 76 10000 2 350 22:56 25.02.2020
2303 Clouds -23 1022 76 10000 2 350 22:37 25.02.2020
2304 Clouds -23 1022 76 10000 2 350 22:18 25.02.2020
2305 Clouds -23 1022 83 10000 2 10 21:38 25.02.2020
2306 Clouds -24 1022 83 10000 2 10 21:20 25.02.2020
2307 Snow -24 1022 83 10000 2 330 20:57 25.02.2020
2308 Snow -24 1022 83 10000 2 330 20:38 25.02.2020
2309 Snow -24 1022 83 10000 2 330 20:38 25.02.2020
2310 Snow -24 1022 83 10000 2 330 20:19 25.02.2020
2311 Snow -23 1022 76 10000 3 330 19:54 25.02.2020
2312 Snow -23 1022 76 10000 3 330 19:36 25.02.2020
2313 Snow -23 1022 76 10000 3 330 19:18 25.02.2020
2314 Snow -23 1022 83 8000 3 350 18:40 25.02.2020
2315 Snow -23 1022 83 8000 3 350 18:21 25.02.2020
2316 Snow -22 1022 76 10000 4 10 17:56 25.02.2020
2317 Snow -22 1022 76 10000 4 10 17:37 25.02.2020
2318 Snow -22 1022 76 10000 4 10 17:18 25.02.2020
2319 Snow -22 1022 76 10000 4 350 16:56 25.02.2020
2320 Snow -22 1022 76 10000 4 350 16:37 25.02.2020
2321 Snow -22 1022 76 10000 4 350 16:19 25.02.2020
2322 Snow -23 1023 76 6000 3 340 15:45 25.02.2020
2323 Snow -23 1023 76 6000 3 340 15:20 25.02.2020
2324 Snow -23 1023 76 6000 3 340 15:20 25.02.2020
2325 Snow -23 1023 76 10000 4 320 14:59 25.02.2020
2326 Snow -23 1023 76 10000 4 320 14:39 25.02.2020
2327 Snow -23 1023 76 10000 4 320 14:18 25.02.2020
2328 Snow -23 1023 76 8000 6 10 13:58 25.02.2020
2329 Snow -23 1023 76 8000 6 10 13:40 25.02.2020
2330 Snow -23 1023 76 8000 6 10 13:20 25.02.2020
2331 Snow -23 1023 76 10000 5 350 12:59 25.02.2020
2332 Snow -23 1023 76 10000 5 350 12:39 25.02.2020
2333 Snow -23 1023 76 10000 5 350 12:20 25.02.2020
2334 Snow -23 1023 76 8000 3 360 11:56 25.02.2020
2335 Snow -23 1023 76 8000 3 360 11:37 25.02.2020
2336 Snow -23 1023 76 8000 3 360 11:18 25.02.2020
2337 Snow -23 1023 76 10000 3 340 10:42 25.02.2020
2338 Snow -23 1023 76 10000 3 340 10:23 25.02.2020
2339 Snow -23 1023 76 9000 4 360 09:56 25.02.2020
2340 Snow -23 1023 76 9000 4 360 09:38 25.02.2020
2341 Snow -23 1023 76 9000 4 360 09:18 25.02.2020
2342 Snow -23 1023 76 10000 5 350 08:42 25.02.2020
2343 Snow -23 1023 76 10000 5 350 08:24 25.02.2020
2344 Snow -23 1023 76 10000 3 350 07:49 25.02.2020
2345 Snow -23 1023 76 10000 3 350 07:23 25.02.2020
2346 Snow -23 1023 76 10000 3 10 06:55 25.02.2020
2347 Snow -23 1022 69 10000 4 350 05:54 25.02.2020
2348 Snow -23 1022 69 10000 5 360 05:19 25.02.2020
2349 Clouds -25 1022 75 10000 4 350 02:34 25.02.2020
2350 Clouds -26 1022 75 10000 6 340 00:58 25.02.2020
2351 Snow -26 1022 75 10000 6 360 00:32 25.02.2020
2352 Clouds -25 1022 69 10000 5 350 23:48 24.02.2020
2353 Snow -24 1022 76 10000 4 360 23:29 24.02.2020
2354 Snow -24 1022 69 10000 3 10 22:59 24.02.2020
2355 Snow -24 1022 76 10000 3 30 22:37 24.02.2020
2356 Snow -24 1022 76 10000 3 30 22:18 24.02.2020
2357 Snow -25 1022 75 10000 3 40 21:54 24.02.2020
2358 Clouds -26 1022 75 10000 3 30 21:36 24.02.2020
2359 Clouds -26 1022 75 10000 3 30 21:36 24.02.2020
2360 Clouds -26 1022 75 10000 3 30 21:18 24.02.2020
2361 Snow -27 1021 75 10000 4 360 20:41 24.02.2020
2362 Snow -27 1021 75 10000 4 360 20:21 24.02.2020
2363 Clouds -28 1021 75 10000 4 360 19:59 24.02.2020
2364 Clouds -28 1021 75 10000 4 360 19:41 24.02.2020
2365 Clouds -28 1021 75 10000 4 360 19:22 24.02.2020
2366 Clouds -28 1021 75 10000 4 360 19:22 24.02.2020
2367 Snow -29 1022 75 10000 4 360 18:58 24.02.2020
2368 Snow -29 1022 75 10000 4 360 18:40 24.02.2020
2369 Snow -29 1022 75 10000 4 360 18:21 24.02.2020
2370 Snow -30 1021 74 10000 3 340 17:54 24.02.2020
2371 Snow -30 1021 74 10000 3 340 17:36 24.02.2020
2372 Snow -30 1021 74 10000 3 340 17:18 24.02.2020
2373 Clouds -29 1021 75 10000 2 40 16:54 24.02.2020
2374 Clouds -29 1021 75 10000 2 40 16:36 24.02.2020
2375 Clouds -29 1021 75 10000 2 40 16:18 24.02.2020
2376 Clouds -30 1021 74 10000 2 10 15:54 24.02.2020
2377 Clouds -30 1021 74 10000 2 10 15:36 24.02.2020
2378 Clouds -30 1021 74 10000 2 10 15:18 24.02.2020
2379 Clouds -31 1022 74 10000 3 350 14:40 24.02.2020
2380 Clouds -31 1022 74 10000 3 350 14:19 24.02.2020
2381 Clouds -31 1022 74 10000 3 350 13:57 24.02.2020
2382 Clouds -31 1022 74 10000 3 350 13:38 24.02.2020
2383 Clouds -31 1022 74 10000 3 350 13:20 24.02.2020
2384 Clouds -24 1022 83 10000 1 340 12:57 24.02.2020
2385 Clouds -24 1022 83 10000 1 340 12:38 24.02.2020
2386 Clouds -24 1022 83 10000 1 340 12:19 24.02.2020
2387 Clouds -23 1021 76 10000 4 50 11:45 24.02.2020
2388 Clouds -23 1021 76 10000 4 50 11:26 24.02.2020
2389 Clouds -24 1021 76 10000 3 60 10:45 24.02.2020
2390 Clouds -24 1021 76 10000 3 60 10:27 24.02.2020
2391 Clouds -21 1021 76 10000 5 120 09:54 24.02.2020
2392 Clouds -21 1021 76 10000 5 120 09:36 24.02.2020
2393 Clouds -21 1021 76 10000 5 120 09:18 24.02.2020
2394 Clouds -24 1021 69 10000 3 90 08:45 24.02.2020
2395 Clouds -24 1021 69 10000 3 90 08:27 24.02.2020
2396 Clouds -26 1021 75 10000 1 30 07:45 24.02.2020
2397 Clouds -26 1021 75 10000 1 30 07:27 24.02.2020
2398 Clouds -24 1021 76 10000 2.15 73 06:36 24.02.2020
2399 Clouds -24 1021 76 10000 2.15 73 06:18 24.02.2020
2400 Clouds -25 1020 75 10000 2 90 05:29 24.02.2020
2401 Clouds -28 1020 68 10000 1 160 03:54 24.02.2020
2402 Clouds -28 1020 68 10000 2.62 7 02:54 24.02.2020
2403 Clear -27 1020 75 10000 2.51 355 01:43 24.02.2020
2404 Clear -27 1020 75 10000 1 210 00:57 24.02.2020
2405 Clear -27 1020 75 10000 1 210 00:27 24.02.2020
2406 Clear -31 1020 74 10000 2 60 23:59 23.02.2020
2407 Clear -31 1020 74 10000 2 60 23:40 23.02.2020
2408 Clear -31 1020 74 10000 2 60 23:18 23.02.2020
2409 Clear -29 1019 75 10000 1 130 22:56 23.02.2020
2410 Clear -29 1019 75 10000 1 130 22:37 23.02.2020
2411 Clear -29 1019 75 10000 1 130 22:18 23.02.2020
2412 Clear -29 1019 75 10000 1 120 21:43 23.02.2020
2413 Clear -29 1019 75 10000 1 120 21:20 23.02.2020
2414 Clear -31 1019 67 10000 3 90 20:57 23.02.2020
2415 Clear -31 1019 67 10000 3 90 20:38 23.02.2020
2416 Clear -31 1019 67 10000 3 90 20:20 23.02.2020
2417 Clear -29 1019 75 10000 1 80 19:56 23.02.2020
2418 Clear -29 1019 75 10000 1 80 19:38 23.02.2020
2419 Clear -29 1019 75 10000 1 80 19:18 23.02.2020
2420 Clear -32 1018 74 10000 2 70 18:55 23.02.2020
2421 Clear -32 1018 74 10000 2 70 18:36 23.02.2020
2422 Clear -32 1018 74 10000 2 70 18:36 23.02.2020
2423 Clear -32 1018 74 10000 2 70 18:18 23.02.2020
2424 Clear -31 1018 74 10000 2 70 17:56 23.02.2020
2425 Clear -31 1018 74 10000 2 70 17:37 23.02.2020
2426 Clear -31 1018 74 10000 2 70 17:18 23.02.2020
2427 Clear -33 1017 74 10000 2 70 16:45 23.02.2020
2428 Clear -33 1017 74 10000 2 70 16:26 23.02.2020
2429 Clear -31 1017 67 10000 2 100 15:58 23.02.2020
2430 Clear -31 1017 67 10000 2 100 15:38 23.02.2020
2431 Clear -31 1017 67 10000 2 100 15:20 23.02.2020
2432 Clear -31 1017 67 10000 2 100 15:20 23.02.2020
2433 Clear -29 1017 75 10000 2 110 14:56 23.02.2020
2434 Clear -29 1017 75 10000 2 110 14:38 23.02.2020
2435 Clear -29 1017 75 10000 2 110 14:20 23.02.2020
2436 Clear -30 1016 74 10000 3 90 13:57 23.02.2020
2437 Clear -30 1016 74 10000 3 90 13:38 23.02.2020
2438 Clear -30 1016 74 10000 3 90 13:20 23.02.2020
2439 Clear -30 1016 74 10000 2 60 12:42 23.02.2020
2440 Clear -30 1016 74 10000 2 60 12:21 23.02.2020
2441 Clear -30 1016 82 10000 2 60 11:54 23.02.2020
2442 Clear -30 1016 82 10000 2 60 11:36 23.02.2020
2443 Clear -30 1016 82 10000 2 60 11:18 23.02.2020
2444 Clear -30 1015 74 10000 2 100 10:41 23.02.2020
2445 Clear -30 1015 74 10000 2 100 10:23 23.02.2020
2446 Clear -30 1015 74 10000 1 60 09:56 23.02.2020
2447 Clear -30 1015 74 10000 1 60 09:38 23.02.2020
2448 Clear -30 1015 74 10000 1 60 09:20 23.02.2020
2449 Clear -29 1014 75 10000 2 50 08:50 23.02.2020
2450 Clear -29 1014 75 10000 2 50 08:29 23.02.2020
2451 Clouds -28 1013 68 10000 2 10 07:48 23.02.2020
2452 Clouds -28 1013 68 10000 2 10 07:30 23.02.2020
2453 Clouds -26 1013 68 10000 2 350 06:28 23.02.2020
2454 Clouds -27 1013 75 10000 3 20 05:43 23.02.2020
2455 Clouds -27 1012 75 10000 3 10 04:26 23.02.2020
2456 Clouds -26 1011 68 10000 2 360 02:58 23.02.2020
2457 Clouds -27 1011 68 10000 2 330 02:25 23.02.2020
2458 Clear -27 1011 68 10000 1 360 01:23 23.02.2020
2459 Clear -27 1010 68 10000 2 40 00:45 23.02.2020
2460 Clear -27 1010 75 10000 3 10 00:24 23.02.2020
2461 Clear -26 1010 68 10000 5 330 23:45 22.02.2020
2462 Clear -26 1010 68 10000 5 330 23:45 22.02.2020
2463 Clear -27 1010 68 10000 4 320 23:26 22.02.2020
2464 Clear -27 1010 68 10000 3 10 22:56 22.02.2020
2465 Clear -27 1009 68 10000 3 350 22:36 22.02.2020
2466 Clear -27 1009 68 10000 3 350 22:18 22.02.2020
2467 Clear -27 1008 75 10000 3 300 21:40 22.02.2020
2468 Clear -27 1008 75 10000 3 300 21:21 22.02.2020
2469 Clear -27 1008 75 10000 3 320 20:43 22.02.2020
2470 Clear -27 1008 75 10000 3 320 20:24 22.02.2020
2471 Clear -25 1008 69 10000 3 270 19:54 22.02.2020
2472 Clear -25 1008 69 10000 3 270 19:54 22.02.2020
2473 Clear -25 1008 69 10000 3 270 19:54 22.02.2020
2474 Clear -25 1008 69 10000 3 270 19:36 22.02.2020
2475 Clear -25 1008 69 10000 3 270 19:18 22.02.2020
2476 Clear -25 1008 69 10000 3 270 19:18 22.02.2020
2477 Clear -25 1007 69 10000 2 300 18:39 22.02.2020
2478 Clear -25 1007 69 10000 2 300 18:21 22.02.2020
2479 Clear -25 1007 69 10000 2 300 18:21 22.02.2020
2480 Clear -25 1007 69 10000 2 300 18:21 22.02.2020
2481 Clouds -25 1007 75 10000 4 280 17:57 22.02.2020
2482 Clouds -25 1007 75 10000 4 280 17:57 22.02.2020
2483 Clouds -25 1007 75 10000 4 280 17:37 22.02.2020
2484 Clouds -25 1007 75 10000 4 280 17:19 22.02.2020
2485 Clouds -24 1007 69 10000 1.51 6 16:56 22.02.2020
2486 Clouds -24 1007 69 10000 1.51 6 16:37 22.02.2020
2487 Clouds -24 1007 69 10000 1.51 6 16:19 22.02.2020
2488 Clouds -25 1007 75 10000 1 350 15:43 22.02.2020
2489 Clouds -25 1007 75 10000 1 350 15:24 22.02.2020
2490 Clouds -25 1006 75 10000 3 330 14:43 22.02.2020
2491 Clouds -25 1006 75 10000 3 330 14:23 22.02.2020
2492 Snow -25 1006 69 10000 3 320 13:57 22.02.2020
2493 Snow -25 1006 69 10000 3 320 13:39 22.02.2020
2494 Snow -25 1006 69 10000 3 320 13:18 22.02.2020
2495 Snow -24 1006 69 10000 2 20 12:42 22.02.2020
2496 Snow -24 1006 69 10000 2 20 12:23 22.02.2020
2497 Snow -23 1006 76 10000 2 20 11:47 22.02.2020
2498 Snow -23 1006 76 10000 2 20 11:28 22.02.2020
2499 Snow -23 1006 76 5000 1.41 331 10:57 22.02.2020
2500 Snow -23 1006 76 5000 1.41 331 10:39 22.02.2020
2501 Snow -23 1006 76 5000 1.41 331 10:19 22.02.2020
2502 Snow -23 1005 76 9000 1.41 331 09:57 22.02.2020
2503 Snow -23 1005 76 9000 1.41 331 09:38 22.02.2020
2504 Snow -23 1005 76 9000 1.41 331 09:20 22.02.2020
2505 Snow -23 1005 76 6000 2 310 08:46 22.02.2020
2506 Snow -23 1005 76 6000 2 310 08:27 22.02.2020
2507 Snow -23 1005 76 6000 2 310 08:27 22.02.2020
2508 Clouds -24 1005 76 10000 2 20 07:45 22.02.2020
2509 Clouds -24 1005 76 10000 1 320 07:19 22.02.2020
2510 Clouds -25 1005 83 10000 1 40 06:47 22.02.2020
2511 Clouds -25 1005 83 10000 2 340 06:27 22.02.2020
2512 Clear -24 1005 76 10000 1 70 04:32 22.02.2020
2513 Clear -24 1005 76 10000 1 70 03:21 22.02.2020
2514 Clear -25 1005 75 10000 4 350 02:28 22.02.2020
2515 Clear -26 1005 75 10000 5 320 01:41 22.02.2020
2516 Clear -26 1005 75 10000 5 320 01:23 22.02.2020
2517 Clear -26 1005 75 10000 7 310 00:41 22.02.2020
2518 Clear -26 1005 75 10000 7 310 00:21 22.02.2020
2519 Clouds -27 1005 75 7000 4 330 23:43 21.02.2020
2520 Clouds -27 1005 75 7000 4 330 23:21 21.02.2020
2521 Clouds -27 1005 75 6000 3 360 22:45 21.02.2020
2522 Clouds -27 1005 75 6000 3 360 22:27 21.02.2020
2523 Mist -26 1005 75 3300 2 360 21:59 21.02.2020
2524 Mist -26 1005 75 3300 2 360 21:40 21.02.2020
2525 Mist -26 1005 75 3300 2 360 21:22 21.02.2020
2526 Clouds -27 1005 75 9000 6 320 20:48 21.02.2020
2527 Clouds -27 1005 75 9000 6 320 20:29 21.02.2020
2528 Mist -26 1005 68 2800 9 300 19:41 21.02.2020
2529 Mist -26 1005 68 2800 9 300 19:23 21.02.2020
2530 Mist -28 1005 75 5000 7 310 18:55 21.02.2020
2531 Mist -28 1005 75 5000 7 310 18:37 21.02.2020
2532 Mist -28 1005 75 5000 7 310 18:19 21.02.2020
2533 Clouds -27 1006 75 10000 4 320 17:40 21.02.2020
2534 Clouds -27 1006 75 10000 4 320 17:21 21.02.2020
2535 Clouds -28 1006 75 10000 1 10 16:57 21.02.2020
2536 Clouds -28 1006 75 10000 1 10 16:39 21.02.2020
2537 Clouds -28 1006 75 10000 1 10 16:20 21.02.2020
2538 Clouds -28 1006 75 10000 1 10 16:20 21.02.2020
2539 Clouds -26 1006 75 10000 3 10 15:44 21.02.2020
2540 Clouds -26 1006 75 10000 3 10 15:19 21.02.2020
2541 Mist -27 1006 75 4400 2 50 14:56 21.02.2020
2542 Mist -27 1006 75 4400 2 50 14:38 21.02.2020
2543 Mist -27 1006 75 4400 2 50 14:19 21.02.2020
2544 Mist -27 1006 75 4500 4 340 13:42 21.02.2020
2545 Mist -27 1006 75 4500 4 340 13:23 21.02.2020
2546 Mist -27 1006 75 2700 5 340 12:50 21.02.2020
2547 Mist -27 1006 75 2700 5 340 12:28 21.02.2020
2548 Mist -27 1006 75 2300 7 310 11:59 21.02.2020
2549 Mist -27 1006 75 2300 7 310 11:40 21.02.2020
2550 Mist -27 1006 75 2300 7 310 11:21 21.02.2020
2551 Mist -27 1006 75 2300 7 310 11:21 21.02.2020
2552 Mist -26 1006 75 4400 6 350 10:55 21.02.2020
2553 Mist -26 1006 75 4400 6 350 10:36 21.02.2020
2554 Mist -26 1006 75 4400 6 350 10:18 21.02.2020
2555 Mist -26 1006 75 4400 6 350 10:18 21.02.2020
2556 Clear -27 1006 82 8000 4 340 09:42 21.02.2020
2557 Clear -27 1006 82 8000 4 340 09:24 21.02.2020
2558 Clear -26 1007 75 8000 5 360 08:58 21.02.2020
2559 Clear -26 1007 75 8000 5 360 08:39 21.02.2020
2560 Clear -26 1007 75 8000 5 360 08:21 21.02.2020
2561 Clear -26 1007 75 10000 5 330 07:57 21.02.2020
2562 Clear -26 1007 75 10000 5 330 07:39 21.02.2020
2563 Clear -26 1007 75 10000 5 330 07:18 21.02.2020
2564 Clear -26 1007 75 10000 3 350 06:42 21.02.2020
2565 Clear -26 1007 75 8000 3 360 06:24 21.02.2020
2566 Clear -26 1007 75 8000 3 360 06:24 21.02.2020
2567 Clouds -26 1007 75 8000 4 350 05:42 21.02.2020
2568 Clear -26 1008 75 8000 4 40 04:32 21.02.2020
2569 Clear -25 1008 75 7000 6 310 03:57 21.02.2020
2570 Clear -25 1008 75 8000 7 320 03:22 21.02.2020
2571 Mist -26 1009 75 5000 4 340 01:50 21.02.2020
2572 Clouds -26 1009 75 6000 6 330 01:23 21.02.2020
2573 Fog -26 1009 68 10000 4 350 00:41 21.02.2020
2574 Fog -26 1009 68 10000 4 350 00:21 21.02.2020
2575 Fog -27 1010 75 10000 5 350 23:43 20.02.2020
2576 Fog -27 1010 75 10000 5 350 23:43 20.02.2020
2577 Fog -28 1010 75 10000 4 350 23:22 20.02.2020
2578 Fog -28 1010 75 10000 4 350 23:22 20.02.2020
2579 Fog -28 1010 75 10000 5 350 22:56 20.02.2020
2580 Fog -27 1010 68 10000 3 360 22:37 20.02.2020
2581 Fog -27 1010 68 10000 3 360 22:18 20.02.2020
2582 Fog -27 1010 75 10000 2 350 21:55 20.02.2020
2583 Clear -27 1010 68 10000 2 30 21:36 20.02.2020
2584 Clear -27 1010 68 10000 2 30 21:18 20.02.2020
2585 Clear -29 1011 75 10000 2 50 20:54 20.02.2020
2586 Clear -29 1011 75 10000 2 50 20:36 20.02.2020
2587 Clear -29 1011 75 10000 2 50 20:18 20.02.2020
2588 Clear -29 1011 75 10000 2 50 20:18 20.02.2020
2589 Clear -27 1011 68 10000 4 10 19:42 20.02.2020
2590 Clear -27 1011 68 10000 4 10 19:24 20.02.2020
2591 Clear -27 1011 75 10000 3 20 18:59 20.02.2020
2592 Clear -27 1011 75 10000 3 20 18:38 20.02.2020
2593 Clear -27 1011 75 10000 3 20 18:19 20.02.2020
2594 Clear -29 1011 68 10000 3 20 17:40 20.02.2020
2595 Clear -29 1011 68 10000 3 20 17:22 20.02.2020
2596 Clear -29 1011 75 10000 4 10 16:58 20.02.2020
2597 Clear -29 1011 75 10000 4 10 16:39 20.02.2020
2598 Clear -29 1011 75 10000 4 10 16:20 20.02.2020
2599 Clear -27 1011 75 10000 5 360 15:58 20.02.2020
2600 Clear -27 1011 75 10000 5 360 15:39 20.02.2020
2601 Clear -27 1011 75 10000 5 360 15:20 20.02.2020
2602 Clear -29 1011 75 10000 4 10 14:54 20.02.2020
2603 Clear -29 1011 75 10000 4 10 14:36 20.02.2020
2604 Clear -29 1011 75 10000 4 10 14:36 20.02.2020
2605 Clear -29 1011 75 10000 4 10 14:18 20.02.2020
2606 Clear -29 1012 68 10000 5 20 13:43 20.02.2020
2607 Clear -29 1012 68 10000 5 20 13:19 20.02.2020
2608 Clear -30 1011 74 10000 5 10 12:43 20.02.2020
2609 Clear -30 1011 74 10000 5 10 12:22 20.02.2020
2610 Clear -31 1012 74 10000 6 10 11:59 20.02.2020
2611 Clear -31 1012 74 10000 6 10 11:41 20.02.2020
2612 Clear -31 1012 74 10000 6 10 11:22 20.02.2020
2613 Clear -29 1011 75 10000 8 360 10:57 20.02.2020
2614 Clear -29 1011 75 10000 8 360 10:39 20.02.2020
2615 Clear -29 1011 75 10000 8 360 10:20 20.02.2020
2616 Clear -29 1011 68 10000 6 10 09:45 20.02.2020
2617 Clear -29 1011 68 10000 6 10 09:25 20.02.2020
2618 Clear -28 1011 68 10000 6 10 08:59 20.02.2020
2619 Clear -28 1011 68 10000 6 10 08:38 20.02.2020
2620 Clear -28 1011 68 10000 6 10 08:20 20.02.2020
2621 Clear -28 1011 68 10000 4 360 07:45 20.02.2020
2622 Clear -28 1011 68 10000 4 360 07:23 20.02.2020
2623 Clear -29 1011 68 10000 6 360 06:53 20.02.2020
2624 Clear -29 1011 75 10000 3 10 06:26 20.02.2020
2625 Clear -29 1011 75 10000 6 340 05:46 20.02.2020
2626 Clear -29 1011 75 10000 2 320 04:54 20.02.2020
2627 Clear -29 1011 75 10000 3 330 03:58 20.02.2020
2628 Clear -28 1011 68 10000 4 350 03:29 20.02.2020
2629 Clear -29 1011 75 10000 4 20 02:25 20.02.2020
2630 Clouds -28 1012 75 10000 6 10 00:59 20.02.2020
2631 Clouds -29 1012 75 10000 7 350 00:32 20.02.2020
2632 Clouds -29 1012 75 10000 7 350 23:49 19.02.2020
2633 Clouds -30 1012 74 10000 7 350 23:22 19.02.2020
2634 Clouds -30 1012 74 10000 5 350 22:47 19.02.2020
2635 Clouds -30 1012 74 10000 6 330 22:28 19.02.2020
2636 Clouds -31 1012 74 10000 4 340 21:59 19.02.2020
2637 Clouds -31 1012 74 10000 3 360 21:41 19.02.2020
2638 Clouds -32 1012 74 10000 3 360 21:19 19.02.2020
2639 Clouds -30 1012 74 10000 5 350 20:58 19.02.2020
2640 Clouds -30 1012 74 10000 5 350 20:39 19.02.2020
2641 Clouds -30 1012 74 10000 5 350 20:20 19.02.2020
2642 Clouds -32 1012 74 9000 5 360 19:59 19.02.2020
2643 Clouds -32 1012 74 9000 5 360 19:39 19.02.2020
2644 Clouds -32 1012 74 9000 5 360 19:20 19.02.2020
2645 Clouds -32 1012 74 10000 3 30 18:59 19.02.2020
2646 Clouds -32 1012 74 10000 3 30 18:40 19.02.2020
2647 Clouds -32 1012 74 10000 3 30 18:22 19.02.2020
2648 Clouds -31 1011 74 10000 4 20 17:59 19.02.2020
2649 Clouds -31 1011 74 10000 4 20 17:41 19.02.2020
2650 Clouds -31 1011 74 10000 4 20 17:19 19.02.2020
2651 Clouds -30 1012 74 10000 4 20 16:43 19.02.2020
2652 Clouds -30 1012 74 10000 4 20 16:19 19.02.2020
2653 Clouds -31 1012 74 10000 3 30 15:57 19.02.2020
2654 Clouds -31 1012 74 10000 3 30 15:38 19.02.2020
2655 Clouds -31 1012 74 10000 3 30 15:19 19.02.2020
2656 Clouds -30 1012 82 10000 3 10 14:41 19.02.2020
2657 Clouds -30 1012 82 10000 3 10 14:23 19.02.2020
2658 Clouds -29 1011 75 10000 4 360 13:56 19.02.2020
2659 Clouds -29 1011 75 10000 4 360 13:37 19.02.2020
2660 Clouds -29 1011 75 10000 4 360 13:18 19.02.2020
2661 Clouds -28 1011 75 10000 4 350 12:39 19.02.2020
2662 Clouds -28 1011 75 10000 4 350 12:39 19.02.2020
2663 Clouds -28 1011 75 10000 4 350 12:19 19.02.2020
2664 Clouds -28 1011 75 10000 4 350 12:19 19.02.2020
2665 Clouds -28 1011 75 10000 4 340 11:55 19.02.2020
2666 Clouds -28 1011 75 10000 4 340 11:37 19.02.2020
2667 Clouds -28 1011 75 10000 4 340 11:18 19.02.2020
2668 Clouds -28 1011 75 10000 6 340 10:56 19.02.2020
2669 Clouds -28 1011 75 10000 6 340 10:36 19.02.2020
2670 Clouds -28 1011 75 10000 6 340 10:18 19.02.2020
2671 Clouds -27 1010 75 10000 7 340 09:41 19.02.2020
2672 Clouds -27 1010 75 10000 7 340 09:20 19.02.2020
2673 Clouds -27 1010 75 10000 6 340 08:56 19.02.2020
2674 Clouds -27 1010 75 10000 6 340 08:37 19.02.2020
2675 Clear -27 1010 75 10000 6 340 08:19 19.02.2020
2676 Clear -27 1010 75 10000 5 330 07:41 19.02.2020
2677 Clear -27 1010 75 10000 5 330 07:20 19.02.2020
2678 Clear -26 1010 75 10000 5 330 06:46 19.02.2020
2679 Clear -24 1010 69 10000 4 10 05:35 19.02.2020
2680 Clear -23 1010 76 10000 4 340 03:59 19.02.2020
2681 Clear -23 1010 76 10000 5 350 02:49 19.02.2020
2682 Snow -23 1010 76 10000 5 360 01:54 19.02.2020
2683 Snow -23 1010 76 10000 5 350 01:23 19.02.2020
2684 Snow -22 1010 76 10000 3 350 00:43 19.02.2020
2685 Snow -22 1010 76 10000 4 360 00:23 19.02.2020
2686 Snow -23 1010 83 9000 6 350 23:41 18.02.2020
2687 Snow -23 1010 83 9000 6 350 23:20 18.02.2020
2688 Snow -23 1009 76 8000 5 360 22:56 18.02.2020
2689 Snow -23 1009 76 10000 5 360 22:37 18.02.2020
2690 Snow -23 1009 76 10000 5 360 22:19 18.02.2020
2691 Snow -23 1009 76 10000 5 360 21:55 18.02.2020
2692 Snow -23 1009 76 10000 6 350 21:36 18.02.2020
2693 Snow -23 1009 76 10000 6 350 21:18 18.02.2020
2694 Snow -23 1009 76 10000 4 360 20:55 18.02.2020
2695 Snow -23 1009 76 10000 4 360 20:37 18.02.2020
2696 Snow -23 1009 76 10000 4 360 20:18 18.02.2020
2697 Snow -23 1009 76 10000 5 350 19:42 18.02.2020
2698 Snow -23 1009 76 10000 5 350 19:20 18.02.2020
2699 Snow -23 1009 76 10000 5 350 18:58 18.02.2020
2700 Snow -23 1009 76 10000 5 350 18:40 18.02.2020
2701 Snow -23 1009 76 10000 5 350 18:19 18.02.2020
2702 Snow -23 1009 76 10000 5 350 17:42 18.02.2020
2703 Snow -23 1009 76 10000 5 350 17:20 18.02.2020
2704 Snow -24 1009 76 10000 6 330 16:41 18.02.2020
2705 Snow -24 1009 76 10000 6 330 16:22 18.02.2020
2706 Snow -23 1009 69 10000 7 350 15:59 18.02.2020
2707 Snow -23 1009 69 10000 7 350 15:39 18.02.2020
2708 Snow -23 1009 69 10000 7 350 15:19 18.02.2020
2709 Snow -24 1009 76 10000 7 340 14:56 18.02.2020
2710 Snow -24 1009 76 10000 7 340 14:38 18.02.2020
2711 Snow -24 1009 76 10000 7 340 14:19 18.02.2020
2712 Snow -24 1009 76 10000 6 340 13:41 18.02.2020
2713 Snow -24 1009 76 10000 6 340 13:22 18.02.2020
2714 Snow -24 1009 76 10000 6 340 13:22 18.02.2020
2715 Snow -24 1009 76 10000 4 340 12:55 18.02.2020
2716 Snow -24 1009 76 10000 4 340 12:37 18.02.2020
2717 Snow -24 1009 76 10000 4 340 12:19 18.02.2020
2718 Snow -24 1009 76 10000 5 330 11:43 18.02.2020
2719 Snow -24 1009 76 10000 5 330 11:25 18.02.2020
2720 Snow -24 1009 69 10000 4 350 10:55 18.02.2020
2721 Snow -24 1009 69 10000 4 350 10:37 18.02.2020
2722 Snow -24 1009 69 10000 4 350 10:18 18.02.2020
2723 Snow -25 1009 75 10000 3 350 09:55 18.02.2020
2724 Snow -25 1009 75 10000 3 350 09:36 18.02.2020
2725 Snow -25 1009 75 10000 3 350 09:18 18.02.2020
2726 Snow -25 1009 75 10000 5 340 08:42 18.02.2020
2727 Snow -25 1009 75 10000 5 340 08:20 18.02.2020
2728 Clouds -25 1009 69 10000 7 360 07:56 18.02.2020
2729 Clouds -25 1009 69 10000 7 360 07:31 18.02.2020
2730 Clouds -26 1009 75 10000 6 350 06:56 18.02.2020
2731 Clouds -26 1009 68 10000 3 340 06:37 18.02.2020
2732 Clouds -27 1009 75 10000 7 340 05:59 18.02.2020
2733 Clouds -27 1009 75 10000 6 350 05:33 18.02.2020
2734 Clouds -26 1009 75 10000 6 360 03:59 18.02.2020
2735 Clouds -26 1009 68 10000 8 340 02:59 18.02.2020
2736 Clouds -28 1010 75 10000 7 350 01:59 18.02.2020
2737 Clouds -27 1010 68 10000 7 340 00:54 18.02.2020
2738 Clouds -28 1010 75 10000 7 340 00:22 18.02.2020
2739 Clouds -28 1010 75 10000 8 340 23:45 17.02.2020
2740 Clouds -28 1010 75 10000 7 350 23:26 17.02.2020
2741 Clouds -28 1010 68 10000 7 350 22:59 17.02.2020
2742 Clouds -28 1011 75 10000 6 340 22:41 17.02.2020
2743 Clouds -28 1011 75 10000 6 340 22:20 17.02.2020
2744 Clouds -29 1011 75 10000 6 340 21:56 17.02.2020
2745 Clouds -28 1010 68 10000 6 350 21:37 17.02.2020
2746 Clouds -27 1010 68 10000 6 350 21:18 17.02.2020
2747 Clouds -27 1010 75 10000 3 340 20:40 17.02.2020
2748 Clouds -27 1010 75 10000 3 340 20:21 17.02.2020
2749 Clouds -27 1010 68 10000 5 350 19:57 17.02.2020
2750 Clouds -27 1010 68 10000 5 350 19:38 17.02.2020
2751 Clouds -27 1010 68 10000 5 350 19:20 17.02.2020
2752 Clouds -26 1010 75 10000 6 340 18:37 17.02.2020
2753 Clouds -26 1010 75 10000 6 340 18:37 17.02.2020
2754 Clouds -26 1010 75 10000 6 340 18:37 17.02.2020
2755 Clouds -26 1010 75 10000 6 340 18:19 17.02.2020
2756 Clouds -26 1010 75 10000 4 330 17:57 17.02.2020
2757 Clouds -26 1010 75 10000 4 330 17:37 17.02.2020
2758 Clouds -26 1010 75 10000 4 330 17:19 17.02.2020
2759 Clouds -26 1010 75 10000 4 330 17:19 17.02.2020
2760 Clouds -25 1010 69 10000 5 340 16:55 17.02.2020
2761 Clouds -25 1010 69 10000 5 340 16:36 17.02.2020
2762 Clouds -25 1010 69 10000 5 340 16:36 17.02.2020
2763 Clouds -25 1010 69 10000 5 340 16:18 17.02.2020
2764 Clouds -25 1010 69 10000 5 350 15:44 17.02.2020
2765 Clouds -25 1010 69 10000 5 350 15:26 17.02.2020
2766 -273 0 0 0 0 0 14:55 17.02.2020
2767 -273 0 0 0 0 0 14:55 17.02.2020
2768 Clouds -25 1011 69 10000 5 350 14:37 17.02.2020
2769 Clouds -25 1011 69 10000 5 350 14:19 17.02.2020
2770 Clouds -26 1011 75 10000 7 360 13:41 17.02.2020
2771 Clouds -26 1011 75 10000 7 360 13:41 17.02.2020
2772 Clouds -26 1011 75 10000 7 360 13:20 17.02.2020
2773 Clouds -26 1010 68 10000 7 350 12:57 17.02.2020
2774 Clouds -26 1010 68 10000 7 350 12:39 17.02.2020
2775 Clouds -26 1010 68 10000 7 350 12:21 17.02.2020
2776 Clouds -26 1011 75 10000 5 330 11:46 17.02.2020
2777 Clouds -26 1011 75 10000 5 330 11:27 17.02.2020
2778 Clouds -25 1010 75 10000 7 360 10:58 17.02.2020
2779 Clouds -25 1010 75 10000 7 360 10:39 17.02.2020
2780 Clouds -25 1010 75 10000 7 360 10:20 17.02.2020
2781 Clouds -24 1010 69 10000 5 350 09:57 17.02.2020
2782 Clouds -24 1010 69 10000 5 350 09:38 17.02.2020
2783 Clouds -24 1010 69 10000 5 350 09:19 17.02.2020
2784 Clouds -22 1010 69 10000 8 10 08:42 17.02.2020
2785 Clouds -22 1010 69 10000 8 10 08:23 17.02.2020
2786 Clouds -22 1009 63 10000 7 10 07:59 17.02.2020
2787 Clouds -22 1009 63 10000 7 10 07:38 17.02.2020
2788 Clouds -22 1009 63 10000 7 10 07:19 17.02.2020
2789 Clouds -22 1009 63 10000 6 10 06:42 17.02.2020
2790 Clouds -22 1009 63 10000 4 350 06:24 17.02.2020
2791 Clouds -20 1009 64 10000 6 30 05:40 17.02.2020
2792 Clouds -19 1009 64 10000 8 20 04:26 17.02.2020
2793 Clouds -18 1009 64 10000 9 30 02:49 17.02.2020
2794 Snow -19 1010 64 10000 6 30 01:22 17.02.2020
2795 Snow -18 1010 59 10000 8 20 00:39 17.02.2020
2796 Snow -18 1010 59 10000 8 20 00:19 17.02.2020
2797 Snow -17 1010 59 6000 13 40 23:48 16.02.2020
2798 Snow -18 1009 70 7000 13 40 23:27 16.02.2020
2799 Snow -19 1010 70 10000 9 10 22:56 16.02.2020
2800 Snow -18 1009 59 7000 12 40 22:38 16.02.2020
2801 Snow -17 1009 59 7000 12 40 22:18 16.02.2020
2802 Snow -18 1009 70 2900 14 40 21:43 16.02.2020
2803 Snow -19 1009 64 10000 9 30 21:24 16.02.2020
2804 Snow -19 1009 70 10000 8 20 20:59 16.02.2020
2805 Snow -19 1009 70 10000 8 20 20:41 16.02.2020
2806 Snow -19 1009 70 10000 8 20 20:22 16.02.2020
2807 Clouds -20 1009 70 10000 8 30 19:59 16.02.2020
2808 Clouds -20 1009 70 10000 8 30 19:40 16.02.2020
2809 Clouds -20 1009 70 10000 8 30 19:19 16.02.2020
2810 Clouds -18 1009 59 10000 8 30 18:59 16.02.2020
2811 Clouds -18 1009 59 10000 8 30 18:41 16.02.2020
2812 Clouds -18 1009 59 10000 8 30 18:22 16.02.2020
2813 Clouds -19 1009 70 6000 12 40 17:44 16.02.2020
2814 Clouds -19 1009 70 6000 12 40 17:20 16.02.2020
2815 Clouds -18 1008 64 4200 14 40 16:57 16.02.2020
2816 Clouds -18 1008 64 4200 14 40 16:39 16.02.2020
2817 Clouds -18 1008 64 4200 14 40 16:21 16.02.2020
2818 Clouds -18 1009 64 5000 14 40 15:56 16.02.2020
2819 Clouds -18 1009 64 5000 14 40 15:37 16.02.2020
2820 Clouds -18 1009 64 5000 14 40 15:18 16.02.2020
2821 Clouds -18 1009 64 7000 13 40 14:39 16.02.2020
2822 Clouds -18 1009 64 7000 13 40 14:21 16.02.2020
2823 Clouds -19 1010 64 10000 6 10 13:46 16.02.2020
2824 Clouds -19 1010 64 10000 6 10 13:24 16.02.2020
2825 Clouds -19 1010 64 10000 7 10 12:55 16.02.2020
2826 Clouds -19 1010 64 10000 7 10 12:36 16.02.2020
2827 Clouds -19 1010 64 10000 7 10 12:18 16.02.2020
2828 Clouds -20 1010 70 10000 6 10 11:39 16.02.2020
2829 Clouds -20 1010 70 10000 6 10 11:18 16.02.2020
2830 Clouds -20 1010 70 10000 6 10 10:56 16.02.2020
2831 Clouds -20 1010 70 10000 6 10 10:38 16.02.2020
2832 Clouds -20 1010 70 10000 6 10 10:20 16.02.2020
2833 Clouds -22 1009 76 10000 6 360 09:55 16.02.2020
2834 Clouds -22 1009 76 10000 6 360 09:36 16.02.2020
2835 Clouds -22 1009 76 10000 6 360 09:18 16.02.2020
2836 Clouds -22 1009 76 10000 7 360 08:45 16.02.2020
2837 Clouds -22 1009 76 10000 7 360 08:21 16.02.2020
2838 Clouds -22 1009 69 10000 5 360 07:54 16.02.2020
2839 Clouds -22 1009 69 10000 5 360 07:34 16.02.2020
2840 Clouds -23 1009 76 10000 7 10 06:35 16.02.2020
2841 Clouds -22 1009 69 10000 6 360 04:45 16.02.2020
2842 Clouds -22 1009 69 10000 8 10 03:33 16.02.2020
2843 Clouds -22 1010 69 10000 8 10 02:32 16.02.2020
2844 Clouds -22 1010 69 10000 6 10 01:44 16.02.2020
2845 Clouds -22 1010 69 10000 6 10 01:44 16.02.2020
2846 Clouds -22 1010 69 10000 6 10 01:44 16.02.2020
2847 Clouds -22 1010 69 10000 6 20 01:26 16.02.2020
2848 Clouds -22 1010 69 10000 7 10 00:59 16.02.2020
2849 Clouds -21 1010 64 10000 7 10 00:39 16.02.2020
2850 Clouds -20 1010 64 10000 7 10 00:19 16.02.2020
2851 Clouds -18 1010 54 10000 10 40 23:42 15.02.2020
2852 Clouds -18 1010 54 10000 10 40 23:23 15.02.2020
2853 Clouds -19 1010 58 8000 12 30 22:56 15.02.2020
2854 Clouds -20 1010 70 10000 9 10 22:37 15.02.2020
2855 Clouds -21 1010 70 10000 9 10 22:18 15.02.2020
2856 Clouds -22 1010 69 10000 8 10 21:42 15.02.2020
2857 Clouds -21 1010 63 10000 7 10 21:23 15.02.2020
2858 Clouds -18 1009 59 10000 11 40 20:43 15.02.2020
2859 Clouds -18 1009 59 10000 11 40 20:21 15.02.2020
2860 Clouds -17 1009 59 10000 13 40 19:59 15.02.2020
2861 Clouds -17 1009 59 10000 13 40 19:40 15.02.2020
2862 Clouds -17 1009 59 10000 13 40 19:21 15.02.2020
2863 Clouds -17 1009 59 10000 9 30 18:40 15.02.2020
2864 Clouds -17 1009 59 10000 9 30 18:20 15.02.2020
2865 Clouds -17 1009 59 10000 6 40 17:55 15.02.2020
2866 Clouds -17 1009 59 10000 6 40 17:37 15.02.2020
2867 Clouds -17 1009 59 10000 6 40 17:18 15.02.2020
2868 Clouds -17 1009 64 10000 7 30 16:39 15.02.2020
2869 Clouds -17 1009 64 10000 7 30 16:20 15.02.2020
2870 Clouds -15 1009 54 10000 7 30 15:49 15.02.2020
2871 Clouds -15 1009 54 10000 7 30 15:31 15.02.2020
2872 Clouds -15 1010 54 10000 7 60 14:55 15.02.2020
2873 Clouds -15 1010 54 10000 7 60 14:37 15.02.2020
2874 Clouds -15 1010 54 10000 7 60 14:18 15.02.2020
2875 Clouds -15 1010 60 10000 9 30 13:41 15.02.2020
2876 Clouds -15 1010 60 10000 9 30 13:22 15.02.2020
2877 Clouds -16 1010 65 10000 6 60 12:55 15.02.2020
2878 Clouds -16 1010 65 10000 6 60 12:37 15.02.2020
2879 Clouds -16 1010 65 10000 6 60 12:19 15.02.2020
2880 Clouds -16 1010 71 10000 8 40 11:41 15.02.2020
2881 Clouds -16 1010 71 10000 8 40 11:23 15.02.2020
2882 Clouds -13 1010 55 10000 8 30 10:46 15.02.2020
2883 Clouds -13 1010 55 10000 8 30 10:27 15.02.2020
2884 Clouds -13 1010 55 10000 8 30 10:27 15.02.2020
2885 Clouds -14 1010 60 10000 10 40 09:45 15.02.2020
2886 Clouds -14 1010 60 10000 10 40 09:25 15.02.2020
2887 Clouds -15 1010 71 10000 4 70 08:59 15.02.2020
2888 Clouds -15 1010 71 10000 4 70 08:41 15.02.2020
2889 Clouds -15 1010 71 10000 4 70 08:22 15.02.2020
2890 Clouds -15 1010 71 10000 3 140 07:42 15.02.2020
2891 Clouds -15 1010 71 10000 3 140 07:23 15.02.2020
2892 Clouds -14 1009 71 10000 3 150 06:39 15.02.2020
2893 Clouds -14 1009 71 10000 3 150 06:20 15.02.2020
2894 Clouds -13 1009 71 10000 4 140 04:52 15.02.2020
2895 Clouds -13 1009 71 10000 4 140 04:26 15.02.2020
2896 Clouds -12 1009 66 10000 4 40 02:59 15.02.2020
2897 Clouds -12 1009 66 10000 4 40 02:28 15.02.2020
2898 Clouds -12 1009 66 10000 2 150 01:59 15.02.2020
2899 Clouds -12 1009 66 10000 2 150 01:36 15.02.2020
2900 Clouds -12 1010 60 10000 5 50 00:30 15.02.2020
2901 Clouds -13 1010 65 10000 8 20 23:57 14.02.2020
2902 Clouds -13 1010 60 10000 3 20 23:36 14.02.2020
2903 Clouds -12 1010 60 10000 3 20 23:18 14.02.2020
2904 Clouds -12 1010 60 10000 3 20 23:18 14.02.2020
2905 Clouds -12 1010 60 10000 2 60 22:42 14.02.2020
2906 Clouds -12 1010 60 10000 2 60 22:22 14.02.2020
2907 Clouds -12 1010 66 10000 6 20 21:49 14.02.2020
2908 Clouds -12 1010 66 10000 6 20 21:31 14.02.2020
2909 Clouds -10 1010 61 10000 2 50 20:56 14.02.2020
2910 Clouds -10 1010 61 10000 2 50 20:38 14.02.2020
2911 Clouds -10 1010 61 10000 2 50 20:19 14.02.2020
2912 Clouds -10 1010 61 10000 2 50 20:19 14.02.2020
2913 Clouds -12 1010 72 10000 2 340 19:41 14.02.2020
2914 Clouds -12 1010 72 10000 2 340 19:23 14.02.2020
2915 Clouds -12 1010 78 10000 2 10 18:57 14.02.2020
2916 Clouds -12 1010 78 10000 2 10 18:39 14.02.2020
2917 Clouds -12 1010 78 10000 2 10 18:20 14.02.2020
2918 Clouds -11 1010 78 10000 3 350 17:44 14.02.2020
2919 Clouds -11 1010 78 10000 3 350 17:22 14.02.2020
2920 Clouds -11 1010 78 10000 3 360 16:59 14.02.2020
2921 Clouds -11 1010 78 10000 3 360 16:41 14.02.2020
2922 Clouds -11 1010 78 10000 3 360 16:22 14.02.2020
2923 Clouds -10 1010 85 10000 4 170 15:56 14.02.2020
2924 Clouds -10 1010 85 10000 4 170 15:38 14.02.2020
2925 Clouds -10 1010 85 10000 4 170 15:20 14.02.2020
2926 Clouds -12 1011 85 10000 2 360 14:58 14.02.2020
2927 Clouds -12 1011 85 10000 2 360 14:40 14.02.2020
2928 Clouds -12 1011 85 10000 2 360 14:22 14.02.2020
2929 Clouds -13 1011 84 10000 4 20 13:55 14.02.2020
2930 Clouds -13 1011 84 10000 4 20 13:37 14.02.2020
2931 Clouds -13 1011 84 10000 4 20 13:18 14.02.2020
2932 Clouds -14 1012 77 10000 5 20 12:56 14.02.2020
2933 Clouds -14 1012 77 10000 5 20 12:37 14.02.2020
2934 Clouds -14 1012 77 10000 5 20 12:18 14.02.2020
2935 Clouds -14 1012 77 10000 7 20 11:54 14.02.2020
2936 Clouds -14 1012 77 10000 7 20 11:36 14.02.2020
2937 Clouds -14 1012 77 10000 7 20 11:18 14.02.2020
2938 Clouds -12 1012 78 10000 7 20 10:40 14.02.2020
2939 Clouds -12 1012 78 10000 7 20 10:21 14.02.2020
2940 Clouds -13 1012 84 10000 8 20 09:44 14.02.2020
2941 Clouds -13 1012 84 10000 8 20 09:22 14.02.2020
2942 Clouds -12 1012 78 10000 7 20 08:56 14.02.2020
2943 Clouds -12 1012 78 10000 7 20 08:38 14.02.2020
2944 Clouds -12 1012 78 10000 7 20 08:19 14.02.2020
2945 Clouds -11 1013 85 10000 8 20 07:49 14.02.2020
2946 Clouds -11 1013 85 10000 8 20 07:24 14.02.2020
2947 Clouds -14 1013 84 10000 4 20 06:33 14.02.2020
2948 Clouds -14 1013 84 10000 4 360 05:59 14.02.2020
2949 Clouds -14 1014 84 10000 3 350 05:27 14.02.2020
2950 Clouds -8 1015 78 10000 4 90 03:31 14.02.2020
2951 Clouds -9 1015 78 10000 5 50 02:52 14.02.2020
2952 Clouds -9 1015 72 10000 7 80 01:55 14.02.2020
2953 Clouds -9 1016 61 10000 6 80 00:44 14.02.2020
2954 Clouds -9 1016 61 10000 6 80 00:44 14.02.2020
2955 Clouds -10 1016 61 10000 6 50 00:25 14.02.2020
2956 Clouds -10 1016 61 10000 5 80 23:52 13.02.2020
2957 Clouds -10 1016 61 10000 7 110 23:25 13.02.2020
2958 Clouds -10 1016 61 10000 7 100 22:59 13.02.2020
2959 Clouds -11 1016 66 10000 6 90 22:38 13.02.2020
2960 Clouds -11 1016 66 10000 6 90 22:19 13.02.2020
2961 Clouds -11 1016 61 10000 6 80 21:43 13.02.2020
2962 Clouds -11 1016 56 10000 4 60 21:24 13.02.2020
2963 Clouds -10 1016 56 10000 6 60 20:59 13.02.2020
2964 Clouds -10 1016 56 10000 6 60 20:40 13.02.2020
2965 Clouds -10 1016 56 10000 6 60 20:22 13.02.2020
2966 Clouds -11 1016 61 10000 7 90 19:57 13.02.2020
2967 Clouds -11 1016 61 10000 7 90 19:37 13.02.2020
2968 Clouds -11 1016 61 10000 7 90 19:19 13.02.2020
2969 Clouds -11 1016 66 10000 5 70 18:56 13.02.2020
2970 Clouds -11 1016 66 10000 5 70 18:37 13.02.2020
2971 Clouds -11 1016 66 10000 5 70 18:19 13.02.2020
2972 Clouds -10 1017 61 10000 6 100 17:54 13.02.2020
2973 Clouds -10 1017 61 10000 6 100 17:36 13.02.2020
2974 Clouds -10 1017 61 10000 6 100 17:18 13.02.2020
2975 Clouds -9 1017 61 10000 9 90 16:41 13.02.2020
2976 Clouds -9 1017 61 10000 9 90 16:20 13.02.2020
2977 Clouds -10 1017 66 10000 12 100 15:57 13.02.2020
2978 Clouds -10 1017 66 10000 12 100 15:39 13.02.2020
2979 Clouds -10 1017 66 10000 12 100 15:19 13.02.2020
2980 Clouds -10 1017 66 10000 9 80 14:58 13.02.2020
2981 Clouds -10 1017 66 10000 9 80 14:39 13.02.2020
2982 Clouds -10 1017 66 10000 9 80 14:21 13.02.2020
2983 Clouds -11 1017 78 10000 11 70 13:48 13.02.2020
2984 Clouds -11 1017 78 10000 11 70 13:19 13.02.2020
2985 Clouds -10 1017 72 4000 10 90 12:58 13.02.2020
2986 Clouds -10 1017 72 4000 10 90 12:40 13.02.2020
2987 Clouds -10 1017 72 4000 10 90 12:22 13.02.2020
2988 Clouds -10 1017 72 10000 7 60 11:55 13.02.2020
2989 Clouds -10 1017 72 10000 7 60 11:37 13.02.2020
2990 Clouds -10 1017 72 10000 7 60 11:18 13.02.2020
2991 Clouds -11 1016 85 600 17 110 10:41 13.02.2020
2992 -273 0 0 0 0 0 10:22 13.02.2020
2993 Clouds -11 1016 78 1100 15 100 09:44 13.02.2020
2994 Clouds -11 1016 78 1100 15 100 09:23 13.02.2020
2995 Clouds -11 1016 78 1300 14 100 08:47 13.02.2020
2996 Clouds -11 1016 78 1300 14 100 08:20 13.02.2020
2997 Clouds -10 1016 78 3000 12 100 07:43 13.02.2020
2998 Clouds -10 1016 78 3000 12 100 07:24 13.02.2020
2999 Clouds -11 1016 78 2100 13 110 06:54 13.02.2020
3000 Clouds -11 1016 78 3900 12 100 06:36 13.02.2020
3001 Clouds -10 1017 72 4000 13 100 05:52 13.02.2020
3002 Clouds -11 1017 78 2900 13 100 04:48 13.02.2020
3003 Clouds -11 1017 78 4000 12 100 04:23 13.02.2020
3004 Clouds -11 1018 72 10000 10 100 03:41 13.02.2020
3005 Clouds -11 1017 78 10000 12 100 02:58 13.02.2020
3006 Clouds -10 1017 72 9000 13 100 02:20 13.02.2020
3007 Clouds -10 1017 66 4000 12 100 01:54 13.02.2020
3008 Clouds -10 1017 66 4000 12 100 01:54 13.02.2020
3009 Clouds -10 1017 72 2300 9 90 01:25 13.02.2020
3010 Clouds -10 1018 72 10000 6 60 00:28 13.02.2020
3011 Clouds -10 1018 78 10000 6 90 23:43 12.02.2020
3012 Snow -11 1018 85 3700 10 100 23:23 12.02.2020
3013 Snow -11 1019 85 5000 5 70 22:59 12.02.2020
3014 Snow -10 1019 85 7000 5 110 22:41 12.02.2020
3015 Snow -10 1019 85 7000 5 110 22:23 12.02.2020
3016 Snow -10 1019 85 9000 1 90 21:55 12.02.2020
3017 Snow -10 1019 85 9000 3 50 21:37 12.02.2020
3018 Snow -10 1019 85 9000 3 50 21:18 12.02.2020
3019 Snow -11 1018 85 5000 9 70 20:43 12.02.2020
3020 Snow -11 1018 85 5000 9 70 20:25 12.02.2020
3021 Snow -16 1021 93 0 5.57 81 20:00 12.02.2020
3022 Snow -17 1021 94 0 4.88 81 19:41 12.02.2020
3023 Snow -11 1019 85 8000 7 100 19:22 12.02.2020
3024 Snow -11 1019 85 8000 7 100 18:54 12.02.2020
3025 Snow -11 1019 85 8000 7 100 18:36 12.02.2020
3026 Snow -11 1019 85 8000 7 100 18:18 12.02.2020
3027 Snow -12 1018 85 5000 8 90 17:40 12.02.2020
3028 Snow -12 1018 85 5000 8 90 17:19 12.02.2020
3029 Snow -12 1019 78 10000 9 90 16:57 12.02.2020
3030 Snow -12 1019 78 10000 9 90 16:37 12.02.2020
3031 Snow -12 1019 78 10000 9 90 16:18 12.02.2020
3032 Snow -12 1019 85 10000 7 90 15:39 12.02.2020
3033 Snow -12 1019 85 10000 7 90 15:20 12.02.2020
3034 Snow -12 1019 85 10000 6 80 14:43 12.02.2020
3035 Snow -12 1019 85 10000 6 80 14:21 12.02.2020
3036 Snow -12 1019 85 9000 6 90 13:59 12.02.2020
3037 Snow -12 1019 85 9000 6 90 13:40 12.02.2020
3038 Snow -12 1019 85 9000 6 90 13:22 12.02.2020
3039 Snow -12 1019 78 10000 5 100 12:58 12.02.2020
3040 Snow -12 1019 78 10000 5 100 12:39 12.02.2020
3041 Snow -12 1019 78 10000 5 100 12:19 12.02.2020
3042 Snow -12 1019 78 10000 5 100 12:19 12.02.2020
3043 Snow -12 1019 78 10000 7 90 11:59 12.02.2020
3044 Snow -12 1019 78 10000 7 90 11:40 12.02.2020
3045 Snow -12 1019 78 10000 7 90 11:21 12.02.2020
3046 Snow -12 1019 78 10000 4 80 10:58 12.02.2020
3047 Snow -12 1019 78 10000 4 80 10:40 12.02.2020
3048 Snow -12 1019 78 10000 4 80 10:20 12.02.2020
3049 Snow -13 1019 78 10000 6 70 09:42 12.02.2020
3050 Snow -13 1019 78 10000 6 70 09:42 12.02.2020
3051 Snow -13 1019 78 10000 6 70 09:24 12.02.2020
3052 Snow -13 1018 78 9000 6 80 08:59 12.02.2020
3053 Snow -13 1018 78 9000 6 80 08:39 12.02.2020
3054 Snow -13 1018 78 9000 6 80 08:20 12.02.2020
3055 Snow -13 1018 78 9000 6 80 08:20 12.02.2020
3056 Snow -13 1018 71 10000 4 90 07:59 12.02.2020
3057 Snow -13 1018 71 10000 4 90 07:41 12.02.2020
3058 Snow -13 1018 71 10000 4 90 07:20 12.02.2020
3059 Snow -13 1018 71 10000 2 100 06:43 12.02.2020
3060 Clouds -13 1018 71 10000 2 40 06:19 12.02.2020
3061 Snow -13 1018 71 10000 5 60 05:32 12.02.2020
3062 Snow -13 1018 71 10000 6 50 04:43 12.02.2020
3063 Snow -14 1018 77 8000 5 90 03:59 12.02.2020
3064 Snow -14 1019 77 4100 6 110 03:30 12.02.2020
3065 Snow -13 1019 71 4900 7 110 02:46 12.02.2020
3066 Snow -14 1019 77 8000 5 90 02:27 12.02.2020
3067 Snow -14 1019 77 7000 6 100 01:34 12.02.2020
3068 Snow -14 1019 77 5000 6 90 00:41 12.02.2020
3069 Snow -14 1019 77 5000 6 90 00:23 12.02.2020
3070 Snow -15 1019 77 5000 7 90 23:51 11.02.2020
3071 Snow -15 1019 77 6000 7 90 23:33 11.02.2020
3072 Snow -14 1019 71 7000 8 100 22:58 11.02.2020
3073 Snow -15 1019 71 10000 9 90 22:40 11.02.2020
3074 Snow -15 1019 71 10000 9 90 22:20 11.02.2020
3075 Snow -15 1019 71 3700 10 90 21:57 11.02.2020
3076 Snow -15 1019 71 8000 11 90 21:39 11.02.2020
3077 Snow -15 1019 71 8000 11 90 21:18 11.02.2020
3078 Snow -15 1019 71 3400 12 90 20:58 11.02.2020
3079 Snow -15 1019 71 3400 12 90 20:39 11.02.2020
3080 Snow -15 1019 71 3400 12 90 20:39 11.02.2020
3081 Snow -15 1019 71 3400 12 90 20:19 11.02.2020
3082 Snow -15 1019 71 1700 13 100 19:57 11.02.2020
3083 Snow -15 1019 71 1700 13 100 19:39 11.02.2020
3084 Snow -15 1019 71 1700 13 100 19:20 11.02.2020
3085 Snow -15 1018 77 1200 11 100 18:45 11.02.2020
3086 Snow -15 1018 77 1200 11 100 18:26 11.02.2020
3087 Clouds -15 1018 77 800 11 90 17:57 11.02.2020
3088 Clouds -15 1018 77 800 11 90 17:38 11.02.2020
3089 Clouds -15 1018 77 800 11 90 17:19 11.02.2020
3090 Snow -16 1019 77 2700 5 40 16:58 11.02.2020
3091 Snow -16 1019 77 2700 5 40 16:39 11.02.2020
3092 Snow -16 1019 77 2700 5 40 16:21 11.02.2020
3093 Snow -16 1020 71 8000 6 50 15:57 11.02.2020
3094 Snow -16 1020 71 8000 6 50 15:39 11.02.2020
3095 Snow -16 1020 71 8000 6 50 15:20 11.02.2020
3096 Snow -16 1021 77 10000 8 100 14:41 11.02.2020
3097 Snow -16 1021 77 10000 8 100 14:19 11.02.2020
3098 Snow -16 1021 77 10000 8 100 14:19 11.02.2020
3099 Clouds -16 1021 77 10000 6 60 13:56 11.02.2020
3100 Clouds -16 1021 77 10000 6 60 13:38 11.02.2020
3101 Clouds -16 1021 77 10000 6 60 13:19 11.02.2020
3102 Clouds -16 1022 65 10000 9 70 12:41 11.02.2020
3103 Clouds -16 1022 65 10000 9 70 12:22 11.02.2020
3104 Clouds -16 1022 65 10000 9 70 12:22 11.02.2020
3105 Clouds -17 1023 77 10000 4 50 11:59 11.02.2020
3106 Clouds -17 1023 77 10000 4 50 11:40 11.02.2020
3107 Clouds -17 1023 77 10000 4 50 11:19 11.02.2020
3108 Clouds -17 1023 77 10000 7 80 10:54 11.02.2020
3109 Clouds -17 1023 77 10000 7 80 10:36 11.02.2020
3110 Clouds -17 1023 77 10000 7 80 10:18 11.02.2020
3111 Clouds -17 1023 70 10000 4 50 09:42 11.02.2020
3112 Clouds -17 1023 70 10000 4 50 09:22 11.02.2020
3113 Clouds -18 1024 70 10000 4 60 08:55 11.02.2020
3114 Clouds -18 1024 70 10000 4 60 08:37 11.02.2020
3115 Clouds -18 1024 70 10000 4 60 08:18 11.02.2020
3116 Clouds -19 1025 70 10000 6 60 07:41 11.02.2020
3117 Clouds -19 1025 70 10000 6 60 07:19 11.02.2020
3118 Clouds -19 1025 70 10000 7 70 06:40 11.02.2020
3119 Clouds -19 1025 70 10000 7 70 06:20 11.02.2020
3120 Clouds -19 1025 70 10000 7 70 06:20 11.02.2020
3121 Clouds -25 1025 75 10000 6 70 05:47 11.02.2020
3122 Clouds -25 1025 75 10000 6 70 05:47 11.02.2020
3123 Clouds -26 1025 75 10000 2 20 05:20 11.02.2020
3124 Clouds -28 1026 75 10000 2 30 04:35 11.02.2020
3125 Clouds -29 1027 68 10000 1 10 02:40 11.02.2020
3126 Clouds -28 1027 68 10000 1 10 02:22 11.02.2020
3127 Clouds -29 1027 68 10000 3 360 01:32 11.02.2020
3128 Clouds -30 1028 67 10000 2 10 00:28 11.02.2020
3129 Clouds -31 1028 74 10000 2 20 23:50 10.02.2020
3130 Clouds -29 1028 68 10000 3 30 23:30 10.02.2020
3131 Fog -30 1028 74 10000 4 30 22:58 10.02.2020
3132 Fog -30 1028 74 10000 4 30 22:38 10.02.2020
3133 Fog -30 1028 74 10000 4 30 22:19 10.02.2020
3134 Mist -27 1028 75 4800 2 20 21:43 10.02.2020
3135 Clouds -26 1028 68 10000 2 360 21:25 10.02.2020
3136 Clouds -28 1028 68 10000 2 40 20:57 10.02.2020
3137 Clouds -28 1028 68 10000 2 40 20:38 10.02.2020
3138 Clear -28 1028 68 10000 2 40 20:20 10.02.2020
3139 Clear -29 1027 75 10000 4 40 19:58 10.02.2020
3140 Clear -29 1027 75 10000 4 40 19:38 10.02.2020
3141 Clear -29 1027 75 10000 4 40 19:18 10.02.2020
3142 Clear -27 1027 75 10000 6 30 18:58 10.02.2020
3143 Clear -27 1027 75 10000 6 30 18:39 10.02.2020
3144 Clear -27 1027 75 10000 6 30 18:20 10.02.2020
3145 Clear -26 1027 68 10000 8 20 17:56 10.02.2020
3146 Clear -26 1027 68 10000 8 20 17:37 10.02.2020
3147 Clear -26 1027 68 10000 8 20 17:19 10.02.2020
3148 Clear -27 1027 68 10000 8 20 16:58 10.02.2020
3149 Clear -27 1027 68 10000 8 20 16:38 10.02.2020
3150 Clear -27 1027 68 10000 8 20 16:19 10.02.2020
3151 Clear -27 1028 68 10000 5 30 15:55 10.02.2020
3152 Clear -27 1028 68 10000 5 30 15:37 10.02.2020
3153 Clear -27 1028 68 10000 5 30 15:18 10.02.2020
3154 Clear -27 1028 68 10000 5 10 14:41 10.02.2020
3155 Clear -27 1028 68 10000 5 10 14:41 10.02.2020
3156 Clear -27 1028 68 10000 5 10 14:20 10.02.2020
3157 Clear -27 1028 68 10000 5 10 14:20 10.02.2020
3158 Clear -29 1028 68 10000 5 20 13:57 10.02.2020
3159 Clear -29 1028 68 10000 5 20 13:39 10.02.2020
3160 Clear -29 1028 68 10000 5 20 13:20 10.02.2020
3161 Clear -26 1028 68 10000 6 20 12:47 10.02.2020
3162 Clear -26 1028 68 10000 6 20 12:26 10.02.2020
3163 Clear -27 1028 68 10000 6 20 11:56 10.02.2020
3164 Clear -27 1028 68 10000 6 20 11:37 10.02.2020
3165 Clear -27 1028 68 10000 6 20 11:19 10.02.2020
3166 Clear -27 1027 68 10000 5 360 10:46 10.02.2020
3167 Clear -27 1027 68 10000 5 360 10:26 10.02.2020
3168 Clear -26 1027 68 10000 4 20 09:45 10.02.2020
3169 Clear -26 1027 68 10000 4 20 09:26 10.02.2020
3170 Clear -29 1027 68 10000 5 20 08:56 10.02.2020
3171 Clear -29 1027 68 10000 5 20 08:37 10.02.2020
3172 Clear -29 1027 68 10000 5 20 08:18 10.02.2020
3173 Clear -29 1027 68 10000 4 360 07:47 10.02.2020
3174 Clear -29 1027 68 10000 4 360 07:26 10.02.2020
3175 Clear -27 1027 68 10000 5 20 06:19 10.02.2020
3176 Clear -26 1026 75 10000 4 20 04:27 10.02.2020
3177 Clear -25 1026 75 10000 4 340 03:34 10.02.2020
3178 Clear -25 1026 75 10000 5 30 02:54 10.02.2020
3179 Clouds -25 1026 69 10000 5 350 01:55 10.02.2020
3180 Clouds -27 1025 75 10000 5 30 00:49 10.02.2020
3181 Clouds -27 1025 75 10000 5 350 00:31 10.02.2020
3182 Clouds -27 1025 75 10000 5 360 23:56 09.02.2020
3183 Clouds -27 1025 75 10000 5 10 23:38 09.02.2020
3184 Clouds -27 1025 75 10000 5 10 23:19 09.02.2020
3185 Clouds -28 1024 75 10000 6 360 22:39 09.02.2020
3186 Clouds -28 1024 75 10000 6 360 22:21 09.02.2020
3187 Clouds -28 1024 75 10000 6 360 21:43 09.02.2020
3188 Clouds -28 1024 75 10000 5 350 21:24 09.02.2020
3189 Clouds -27 1023 75 10000 5 20 20:48 09.02.2020
3190 Clouds -27 1023 75 10000 5 20 20:28 09.02.2020
3191 Clouds -27 1022 75 10000 5 360 19:58 09.02.2020
3192 Clouds -27 1022 75 10000 5 360 19:39 09.02.2020
3193 Clouds -27 1022 75 10000 5 360 19:21 09.02.2020
3194 Clouds -26 1022 75 10000 4 30 18:56 09.02.2020
3195 Clouds -26 1022 75 10000 4 30 18:38 09.02.2020
3196 Clouds -26 1022 75 10000 4 30 18:20 09.02.2020
3197 Clouds -25 1021 75 10000 4 20 17:42 09.02.2020
3198 Clouds -25 1021 75 10000 4 20 17:22 09.02.2020
3199 Clouds -26 1021 75 10000 6 360 16:56 09.02.2020
3200 Clouds -26 1021 75 10000 6 360 16:37 09.02.2020
3201 Clouds -26 1021 75 10000 6 360 16:18 09.02.2020
3202 Clouds -26 1021 75 10000 4 30 15:54 09.02.2020
3203 Clouds -26 1021 75 10000 4 30 15:36 09.02.2020
3204 Clouds -26 1021 75 10000 4 30 15:18 09.02.2020
3205 Clouds -26 1021 75 10000 4 20 14:41 09.02.2020
3206 Clouds -26 1021 75 10000 4 20 14:23 09.02.2020
3207 Clouds -26 1020 83 10000 4 10 13:47 09.02.2020
3208 Clouds -26 1020 83 10000 4 10 13:28 09.02.2020
3209 Clouds -26 1019 75 10000 5 360 12:57 09.02.2020
3210 Clouds -26 1019 75 10000 5 360 12:39 09.02.2020
3211 Clouds -26 1019 75 10000 5 360 12:19 09.02.2020
3212 Clouds -26 1019 75 10000 5 10 11:55 09.02.2020
3213 Clouds -26 1019 75 10000 5 10 11:36 09.02.2020
3214 Clouds -26 1019 75 10000 5 10 11:18 09.02.2020
3215 Clouds -26 1019 75 10000 4 360 10:41 09.02.2020
3216 Clouds -26 1019 75 10000 4 360 10:22 09.02.2020
3217 Clouds -26 1018 83 10000 6 10 09:47 09.02.2020
3218 Clouds -26 1018 83 10000 6 10 09:28 09.02.2020
3219 Clouds -26 1018 83 10000 7 20 08:54 09.02.2020
3220 Clouds -26 1018 83 10000 7 20 08:36 09.02.2020
3221 Clear -26 1018 83 10000 7 20 08:18 09.02.2020
3222 Clear -26 1018 75 10000 5 50 07:44 09.02.2020
3223 Clear -26 1018 75 10000 6 20 06:54 09.02.2020
3224 Clear -26 1018 75 10000 6 20 06:36 09.02.2020
3225 Clear -26 1017 75 10000 7 20 05:45 09.02.2020
3226 Clear -26 1017 75 10000 7 20 05:20 09.02.2020
3227 Clear -28 1018 75 10000 5 40 03:53 09.02.2020
3228 Clear -28 1018 75 10000 5 20 02:47 09.02.2020
3229 Clear -28 1018 75 10000 5 20 02:26 09.02.2020
3230 Clouds -27 1018 75 10000 6 350 01:35 09.02.2020
3231 Clouds -26 1018 75 10000 6 350 00:52 09.02.2020
3232 Clouds -26 1018 75 10000 6 350 00:28 09.02.2020
3233 Clouds -26 1018 75 10000 7 360 23:45 08.02.2020
3234 Clouds -26 1018 75 10000 7 360 23:22 08.02.2020
3235 Clouds -26 1018 75 10000 4 20 22:55 08.02.2020
3236 Clouds -26 1018 75 10000 4 20 22:37 08.02.2020
3237 Clouds -26 1018 75 10000 4 20 22:19 08.02.2020
3238 Clouds -27 1018 82 10000 6 360 21:42 08.02.2020
3239 Clouds -27 1018 82 10000 6 360 21:24 08.02.2020
3240 Clouds -27 1018 75 10000 5 360 20:58 08.02.2020
3241 Clouds -27 1018 75 10000 5 360 20:39 08.02.2020
3242 Clouds -27 1018 75 10000 5 360 20:19 08.02.2020
3243 Clouds -27 1018 75 10000 6 10 19:56 08.02.2020
3244 Clouds -27 1018 75 10000 6 10 19:38 08.02.2020
3245 Clouds -27 1018 75 10000 6 10 19:19 08.02.2020
3246 Clouds -28 1019 75 10000 7 10 18:43 08.02.2020
3247 Clouds -28 1019 75 10000 7 10 18:24 08.02.2020
3248 Clouds -29 1019 75 10000 7 360 17:56 08.02.2020
3249 Clouds -29 1019 75 10000 7 360 17:37 08.02.2020
3250 Clouds -29 1019 75 10000 7 360 17:18 08.02.2020
3251 Clouds -29 1020 75 10000 8 10 16:40 08.02.2020
3252 Clouds -29 1020 75 10000 8 10 16:22 08.02.2020
3253 Clouds -30 1021 74 10000 8 360 15:56 08.02.2020
3254 Clouds -30 1021 74 10000 8 360 15:56 08.02.2020
3255 Clouds -30 1021 74 10000 8 360 15:38 08.02.2020
3256 Clouds -30 1021 74 10000 8 360 15:18 08.02.2020
3257 Clouds -30 1021 74 10000 8 350 14:43 08.02.2020
3258 Clouds -30 1021 74 10000 8 350 14:19 08.02.2020
3259 Clouds -31 1022 74 10000 3 320 13:55 08.02.2020
3260 Clouds -31 1022 74 10000 3 320 13:37 08.02.2020
3261 Clouds -31 1022 74 10000 3 320 13:18 08.02.2020
3262 Mist -31 1023 74 3600 4 360 12:39 08.02.2020
3263 Mist -31 1023 74 3600 4 360 12:20 08.02.2020
3264 Mist -31 1024 74 5000 7 360 11:48 08.02.2020
3265 Mist -31 1024 74 5000 7 360 11:22 08.02.2020
3266 Mist -34 1024 73 5000 6 330 10:59 08.02.2020
3267 Mist -34 1024 73 5000 6 330 10:40 08.02.2020
3268 Mist -34 1024 73 5000 6 330 10:20 08.02.2020
3269 Clouds -35 1024 73 6000 7 340 09:51 08.02.2020
3270 Clouds -35 1024 73 6000 7 340 09:26 08.02.2020
3271 Clouds -34 1025 73 10000 5 40 08:49 08.02.2020
3272 Clouds -34 1025 73 10000 5 40 08:29 08.02.2020
3273 Clouds -35 1026 73 8000 5 20 07:59 08.02.2020
3274 Clouds -35 1026 73 8000 5 20 07:39 08.02.2020
3275 Mist -36 1025 66 10000 6 320 06:56 08.02.2020
3276 Mist -36 1025 66 10000 6 320 06:23 08.02.2020
3277 Fog -39 1026 65 10000 5 330 05:40 08.02.2020
3278 Fog -39 1026 65 10000 5 330 05:21 08.02.2020
3279 Fog -38 1027 65 10000 4 330 04:31 08.02.2020
3280 Fog -38 1028 73 10000 3 360 03:39 08.02.2020
3281 Fog -37 1028 73 10000 3 350 02:43 08.02.2020
3282 Fog -36 1029 66 10000 3 350 01:37 08.02.2020
3283 Fog -36 1030 66 10000 3 20 00:59 08.02.2020
3284 Fog -36 1030 66 10000 3 20 00:37 08.02.2020
3285 Fog -36 1030 66 10000 3 20 00:37 08.02.2020
3286 Fog -36 1030 66 10000 3 20 00:18 08.02.2020
3287 Clear -37 1030 65 6000 2 30 23:42 07.02.2020
3288 Clear -37 1030 65 6000 2 30 23:20 07.02.2020
3289 Clouds -38 1030 65 8000 1 350 22:56 07.02.2020
3290 Clouds -38 1030 65 8000 1 350 22:37 07.02.2020
3291 Clouds -38 1030 65 8000 1 350 22:18 07.02.2020
3292 Fog -38 1030 65 10000 4 340 21:42 07.02.2020
3293 Fog -38 1030 65 10000 4 340 21:22 07.02.2020
3294 Clear -39 1030 72 10000 1 350 20:41 07.02.2020
3295 Clear -39 1030 72 10000 1 350 20:22 07.02.2020
3296 Clear -38 1030 73 6000 3 330 19:57 07.02.2020
3297 Clear -38 1030 73 6000 3 330 19:38 07.02.2020
3298 Clear -38 1030 73 6000 3 330 19:19 07.02.2020
3299 Clear -38 1031 65 7000 3 340 18:46 07.02.2020
3300 Clear -38 1031 65 7000 3 340 18:27 07.02.2020
3301 Mist -39 1030 65 4000 1 320 17:57 07.02.2020
3302 Mist -39 1030 65 4000 1 320 17:39 07.02.2020
3303 Mist -39 1030 65 4000 1 320 17:21 07.02.2020
3304 Mist -39 1030 72 3800 2 360 16:52 07.02.2020
3305 Mist -39 1030 72 3800 2 360 16:52 07.02.2020
3306 Mist -39 1030 72 3800 2 360 16:25 07.02.2020
3307 Mist -38 1031 65 2000 2 350 15:56 07.02.2020
3308 Mist -38 1031 65 2000 2 350 15:38 07.02.2020
3309 Mist -38 1031 65 2000 2 350 15:20 07.02.2020
3310 Mist -39 1031 72 2700 2 330 14:42 07.02.2020
3311 Mist -39 1031 72 2700 2 330 14:24 07.02.2020
3312 Mist -38 1031 73 4700 4 340 13:57 07.02.2020
3313 Mist -38 1031 73 4700 4 340 13:39 07.02.2020
3314 Mist -38 1031 73 4700 4 340 13:39 07.02.2020
3315 Mist -38 1031 73 4700 4 340 13:20 07.02.2020
3316 Mist -38 1030 73 2700 4 340 12:45 07.02.2020
3317 Mist -38 1030 73 2700 4 340 12:26 07.02.2020
3318 Mist -38 1031 65 2900 2 10 11:59 07.02.2020
3319 Mist -38 1031 65 2900 2 10 11:40 07.02.2020
3320 Mist -38 1031 65 2900 2 10 11:19 07.02.2020
3321 Mist -39 1030 72 2100 1 10 10:41 07.02.2020
3322 Mist -39 1030 72 2100 1 10 10:21 07.02.2020
3323 Mist -38 1030 73 2600 1 280 09:47 07.02.2020
3324 Mist -38 1030 73 2600 1 280 09:27 07.02.2020
3325 Clear -37 1030 65 7000 4 340 08:58 07.02.2020
3326 Clear -37 1030 65 7000 4 340 08:40 07.02.2020
3327 Clear -37 1030 65 7000 4 340 08:20 07.02.2020
3328 Mist -36 1029 73 4300 4.01 324 07:43 07.02.2020
3329 Mist -36 1029 73 4300 4.01 324 07:24 07.02.2020
3330 Mist -38 1029 73 2800 1 230 06:44 07.02.2020
3331 Mist -38 1029 73 4300 4 340 06:23 07.02.2020
3332 Mist -37 1029 65 3400 2 350 05:44 07.02.2020
3333 Mist -38 1029 73 2900 4 330 04:33 07.02.2020
3334 Mist -37 1028 73 1400 3 360 02:32 07.02.2020
3335 Mist -38 1028 65 1900 2 340 01:37 07.02.2020
3336 Mist -38 1028 73 1100 3 350 00:45 07.02.2020
3337 Mist -38 1028 65 1500 2 330 00:18 07.02.2020
3338 Mist -37 1027 65 1400 2 320 23:37 06.02.2020
3339 Mist -37 1027 65 1400 2 320 23:18 06.02.2020
3340 Mist -38 1027 65 3100 3 360 22:44 06.02.2020
3341 Mist -36 1027 73 2000 2 350 22:24 06.02.2020
3342 Fog -36 1027 65 10000 2 10 21:38 06.02.2020
3343 Fog -37 1027 65 10000 2 10 21:19 06.02.2020
3344 Clear -37 1026 65 10000 1 10 20:58 06.02.2020
3345 Clear -37 1026 65 10000 1 10 20:39 06.02.2020
3346 Clear -37 1026 65 10000 1 10 20:19 06.02.2020
3347 Clear -38 1026 73 10000 2 360 19:59 06.02.2020
3348 Clear -38 1026 73 10000 2 360 19:40 06.02.2020
3349 Clear -38 1026 73 10000 2 360 19:22 06.02.2020
3350 Clear -36 1025 66 10000 2 360 18:58 06.02.2020
3351 Clear -36 1025 66 10000 2 360 18:39 06.02.2020
3352 Clear -36 1025 66 10000 2 360 18:20 06.02.2020
3353 Clear -37 1025 65 10000 2.96 323 17:44 06.02.2020
3354 Clear -37 1025 65 10000 2.96 323 17:44 06.02.2020
3355 Clear -37 1025 65 10000 2.92 325 17:21 06.02.2020
3356 Clear -37 1025 65 10000 2 10 16:59 06.02.2020
3357 Clear -37 1025 65 10000 2 10 16:40 06.02.2020
3358 Clear -37 1025 65 10000 2 10 16:22 06.02.2020
3359 Clear -37 1024 65 10000 2 330 15:42 06.02.2020
3360 Clear -37 1024 65 10000 2 330 15:22 06.02.2020
3361 Clear -37 1024 65 10000 1 340 14:49 06.02.2020
3362 Clear -37 1024 65 10000 1 340 14:28 06.02.2020
3363 Clouds -37 1024 65 10000 1 20 13:57 06.02.2020
3364 Clouds -37 1024 65 10000 1 20 13:39 06.02.2020
3365 Clouds -37 1024 65 10000 1 20 13:19 06.02.2020
3366 Clear -36 1023 66 10000 1 330 12:43 06.02.2020
3367 Clear -36 1023 66 10000 1 330 12:19 06.02.2020
3368 -273 0 0 0 0 0 11:56 06.02.2020
3369 Clear -36 1022 73 10000 3 340 11:38 06.02.2020
3370 Clear -36 1022 73 10000 3 340 11:18 06.02.2020
3371 Clear -37 1022 73 10000 1 20 10:56 06.02.2020
3372 Clear -37 1022 73 10000 1 20 10:37 06.02.2020
3373 Clear -37 1022 73 10000 1 20 10:18 06.02.2020
3374 Clear -36 1021 66 10000 2 330 09:43 06.02.2020
3375 Clear -36 1021 66 10000 2 330 09:43 06.02.2020
3376 Clear -36 1021 66 10000 2 330 09:20 06.02.2020
3377 Clear -36 1020 66 10000 2 10 08:47 06.02.2020
3378 Clear -36 1020 66 10000 2 10 08:25 06.02.2020
3379 Clear -37 1019 65 10000 2 20 07:58 06.02.2020
3380 Clear -37 1019 65 10000 2 20 07:33 06.02.2020
3381 Clear -37 1019 73 10000 1 350 06:59 06.02.2020
3382 Clear -36 1019 66 10000 1 350 06:21 06.02.2020
3383 Fog -36 1018 73 10000 2 350 05:41 06.02.2020
3384 Clear -35 1018 73 10000 3 330 04:18 06.02.2020
3385 Clear -34 1018 66 7000 2 360 03:18 06.02.2020
3386 Clear -34 1017 73 10000 1 350 02:25 06.02.2020
3387 Mist -36 1017 73 10000 2 330 01:25 06.02.2020
3388 Clear -34 1017 66 10000 3.51 326 00:42 06.02.2020
3389 Clear -35 1017 73 10000 2 360 00:21 06.02.2020
3390 Clear -35 1017 66 10000 1 350 23:43 05.02.2020
3391 Clear -36 1017 73 10000 1 340 23:24 05.02.2020
3392 Clear -36 1016 73 10000 2 340 22:56 05.02.2020
3393 Clear -35 1016 66 10000 1 20 22:37 05.02.2020
3394 Clear -35 1016 66 10000 1 20 22:19 05.02.2020
3395 Clear -35 1015 73 10000 1 300 21:40 05.02.2020
3396 Clear -35 1015 73 10000 1 300 21:22 05.02.2020
3397 Mist -35 1015 73 3800 1 10 20:55 05.02.2020
3398 Mist -35 1015 73 3800 1 10 20:36 05.02.2020
3399 Mist -35 1015 73 3800 1 10 20:18 05.02.2020
3400 Mist -34 1014 73 1900 1 350 19:55 05.02.2020
3401 Mist -34 1014 73 1900 1 350 19:36 05.02.2020
3402 Mist -34 1014 73 1900 1 350 19:18 05.02.2020
3403 Clear -34 1014 73 9000 4 10 18:43 05.02.2020
3404 Clear -34 1014 73 9000 4 10 18:20 05.02.2020
3405 Mist -34 1014 73 6000 2 360 17:55 05.02.2020
3406 Mist -34 1014 73 6000 2 360 17:36 05.02.2020
3407 Clear -34 1013 74 10000 3 10 17:18 05.02.2020
3408 Clear -33 1013 74 10000 3 10 16:42 05.02.2020
3409 Clear -33 1013 74 10000 3 10 16:24 05.02.2020
3410 Clear -32 1013 67 10000 2 340 15:57 05.02.2020
3411 Clear -32 1013 67 10000 2 340 15:38 05.02.2020
3412 Clear -32 1013 67 10000 2 340 15:18 05.02.2020
3413 Clear -34 1013 66 10000 1 40 14:42 05.02.2020
3414 Clear -34 1013 66 10000 1 40 14:23 05.02.2020
3415 Clear -33 1013 74 10000 2 360 13:57 05.02.2020
3416 Clear -33 1013 74 10000 2 360 13:38 05.02.2020
3417 Clear -33 1013 74 10000 2 360 13:19 05.02.2020
3418 Mist -33 1012 67 3500 1 350 12:40 05.02.2020
3419 Mist -33 1012 67 3500 1 350 12:22 05.02.2020
3420 Clear -33 1012 67 10000 1 360 11:42 05.02.2020
3421 Clear -33 1012 67 10000 1 360 11:24 05.02.2020
3422 Clear -33 1012 74 10000 2 40 10:59 05.02.2020
3423 Clear -33 1012 74 10000 2 40 10:39 05.02.2020
3424 Clear -33 1012 74 10000 2 40 10:19 05.02.2020
3425 Clear -33 1012 74 10000 2 40 10:19 05.02.2020
3426 Clear -32 1011 67 10000 2 350 09:44 05.02.2020
3427 Clear -32 1011 67 10000 2 350 09:22 05.02.2020
3428 Clear -31 1010 67 10000 1 320 08:58 05.02.2020
3429 Clear -31 1010 67 10000 1 320 08:39 05.02.2020
3430 Clear -31 1010 67 10000 1 320 08:21 05.02.2020
3431 Clear -31 1010 74 10000 3 350 07:43 05.02.2020
3432 Clear -31 1010 74 10000 3 350 07:20 05.02.2020
3433 Clear -30 1010 74 10000 4 340 06:42 05.02.2020
3434 Clear -30 1009 74 10000 4 350 06:22 05.02.2020
3435 Clear -29 1009 75 10000 5 360 05:48 05.02.2020
3436 Clouds -30 1009 74 10000 4 340 05:18 05.02.2020
3437 Mist -30 1009 67 5000 3.12 329 04:41 05.02.2020
3438 Clouds -29 1009 75 10000 4 350 03:18 05.02.2020
3439 Clouds -29 1009 75 10000 4 10 02:23 05.02.2020
3440 Clouds -28 1009 75 10000 4 10 01:35 05.02.2020
3441 Clouds -30 1009 74 10000 3.79 330 00:33 05.02.2020
3442 Clouds -30 1009 74 10000 2 330 23:42 04.02.2020
3443 Clouds -30 1009 74 10000 2 330 23:23 04.02.2020
3444 Clouds -29 1009 75 10000 1 50 22:58 04.02.2020
3445 Clouds -28 1009 75 10000 3.2 327 22:40 04.02.2020
3446 Clouds -28 1009 75 10000 3.2 327 22:21 04.02.2020
3447 Clouds -27 1008 75 10000 1 20 21:57 04.02.2020
3448 Clouds -27 1008 75 10000 1 100 21:39 04.02.2020
3449 Clouds -28 1008 75 10000 1 100 21:19 04.02.2020
3450 Clouds -28 1008 75 10000 1 350 20:57 04.02.2020
3451 Clouds -28 1008 75 10000 1 350 20:38 04.02.2020
3452 Clouds -28 1008 75 10000 1 350 20:19 04.02.2020
3453 Clouds -28 1007 75 9000 2 360 19:55 04.02.2020
3454 Clouds -28 1007 75 9000 2 360 19:36 04.02.2020
3455 Clouds -28 1007 75 9000 2 360 19:18 04.02.2020
3456 Mist -27 1007 82 8000 3.17 334 18:41 04.02.2020
3457 Mist -27 1007 82 8000 3.17 334 18:21 04.02.2020
3458 Clouds -24 1007 76 10000 6 10 17:58 04.02.2020
3459 Clouds -24 1007 76 10000 6 10 17:40 04.02.2020
3460 Clouds -24 1007 76 10000 6 10 17:19 04.02.2020
3461 Mist -29 1007 75 4200 5 360 16:39 04.02.2020
3462 Mist -29 1007 75 4200 5 360 16:20 04.02.2020
3463 Mist -29 1007 75 4200 5 360 16:20 04.02.2020
3464 Clouds -25 1007 75 10000 5 10 15:57 04.02.2020
3465 Clouds -25 1007 75 10000 5 10 15:39 04.02.2020
3466 Clouds -25 1007 75 10000 5 10 15:20 04.02.2020
3467 Mist -26 1006 75 2600 2 300 14:55 04.02.2020
3468 Mist -26 1006 75 2600 2 300 14:37 04.02.2020
3469 Mist -26 1006 75 2600 2 300 14:18 04.02.2020
3470 Mist -27 1006 75 2000 1 280 13:41 04.02.2020
3471 Mist -27 1006 75 2000 1 280 13:22 04.02.2020
3472 Mist -28 1006 82 1700 4 350 12:57 04.02.2020
3473 Mist -28 1006 82 1700 4 350 12:37 04.02.2020
3474 Mist -28 1006 82 1700 4 350 12:19 04.02.2020
3475 Clouds -27 1006 75 7000 3 340 11:55 04.02.2020
3476 Clouds -27 1006 75 7000 3 340 11:36 04.02.2020
3477 Clouds -27 1006 75 7000 3 340 11:18 04.02.2020
3478 Clouds -27 1006 82 6000 6 10 10:44 04.02.2020
3479 Clouds -27 1006 82 6000 6 10 10:24 04.02.2020
3480 Mist -27 1006 82 5000 8 10 09:55 04.02.2020
3481 Mist -27 1006 82 5000 8 10 09:37 04.02.2020
3482 Mist -27 1006 82 5000 8 10 09:18 04.02.2020
3483 Mist -27 1006 82 2100 6 360 08:43 04.02.2020
3484 Mist -27 1006 82 2100 6 360 08:24 04.02.2020
3485 Mist -27 1006 82 4100 1 80 07:49 04.02.2020
3486 Mist -27 1006 82 4100 1 80 07:24 04.02.2020
3487 Clouds -27 1006 75 8000 6 350 06:44 04.02.2020
3488 Clouds -27 1006 75 10000 5 360 06:21 04.02.2020
3489 Clouds -29 1006 75 8000 6 360 05:29 04.02.2020
3490 Clouds -28 1006 75 10000 5 360 03:54 04.02.2020
3491 Mist -26 1006 75 9000 8 360 03:34 04.02.2020
3492 Mist -29 1007 75 3900 7 360 02:59 04.02.2020
3493 Mist -29 1007 75 3500 7 360 02:32 04.02.2020
3494 Mist -30 1007 74 2000 9 360 01:55 04.02.2020
3495 Mist -31 1007 74 1000 9 360 01:35 04.02.2020
3496 Mist -31 1007 74 2100 6 340 00:45 04.02.2020
3497 Mist -29 1007 75 2800 6 350 00:22 04.02.2020
3498 Mist -31 1008 67 1400 7 350 23:41 03.02.2020
3499 Mist -31 1008 67 1400 7 350 23:22 03.02.2020
3500 Mist -32 1009 74 2800 3 300 22:40 03.02.2020
3501 Mist -32 1009 74 2800 3 300 22:21 03.02.2020
3502 Mist -31 1009 74 4500 4 300 21:56 03.02.2020
3503 Mist -31 1009 74 1700 5 330 21:37 03.02.2020
3504 Mist -31 1009 74 1700 5 330 21:18 03.02.2020
3505 Mist -34 1008 73 10000 2 310 20:42 03.02.2020
3506 Mist -34 1008 73 10000 2 310 20:19 03.02.2020
3507 Mist -34 1008 73 10000 2 310 20:19 03.02.2020
3508 Mist -33 1009 67 1600 1 310 19:58 03.02.2020
3509 Mist -33 1009 67 1600 1 310 19:39 03.02.2020
3510 Mist -33 1009 67 1600 1 310 19:20 03.02.2020
3511 Mist -33 1009 74 7000 2 310 18:56 03.02.2020
3512 Mist -33 1009 74 7000 2 310 18:37 03.02.2020
3513 Mist -33 1009 74 7000 2 310 18:37 03.02.2020
3514 Mist -33 1009 74 7000 2 310 18:18 03.02.2020
3515 Mist -35 1010 73 2800 4 320 17:40 03.02.2020
3516 Mist -35 1010 73 2800 4 320 17:20 03.02.2020
3517 Fog -35 1010 73 6000 4 320 16:59 03.02.2020
3518 Fog -35 1010 73 6000 4 320 16:39 03.02.2020
3519 Fog -35 1010 73 6000 4 320 16:20 03.02.2020
3520 Mist -33 1011 67 2500 4 340 15:56 03.02.2020
3521 Mist -33 1011 67 2500 4 340 15:37 03.02.2020
3522 Mist -33 1011 67 2500 4 340 15:18 03.02.2020
3523 Mist -34 1011 73 1700 5 340 14:42 03.02.2020
3524 Mist -34 1011 73 1700 5 340 14:23 03.02.2020
3525 Mist -34 1011 73 1400 5 350 13:56 03.02.2020
3526 Mist -34 1011 73 1400 5 350 13:37 03.02.2020
3527 Mist -34 1011 73 1400 5 350 13:19 03.02.2020
3528 Mist -35 1012 73 2400 3 350 12:55 03.02.2020
3529 Mist -35 1012 73 2400 3 350 12:36 03.02.2020
3530 Mist -35 1012 73 2400 3 350 12:18 03.02.2020
3531 Mist -36 1013 73 2400 5 350 11:38 03.02.2020
3532 Mist -36 1013 73 2400 5 350 11:19 03.02.2020
3533 Mist -38 1013 73 4300 1 330 10:57 03.02.2020
3534 Mist -38 1013 73 4300 1 330 10:38 03.02.2020
3535 Mist -38 1013 73 4300 1 330 10:18 03.02.2020
3536 Clouds -38 1014 65 10000 3 360 09:39 03.02.2020
3537 Clouds -38 1014 65 10000 3 360 09:19 03.02.2020
3538 Clouds -38 1014 65 10000 3 360 09:19 03.02.2020
3539 Clouds -38 1014 65 6000 5 350 08:41 03.02.2020
3540 Clear -38 1014 65 6000 5 350 08:23 03.02.2020
3541 Mist -38 1014 65 5000 4 350 07:43 03.02.2020
3542 Mist -38 1014 65 5000 4 350 07:23 03.02.2020
3543 Mist -38 1014 65 5000 4 320 06:57 03.02.2020
3544 Mist -39 1015 72 3200 6 330 06:31 03.02.2020
3545 Mist -39 1015 72 4000 6 340 05:58 03.02.2020
3546 Mist -37 1015 65 2700 7 340 05:34 03.02.2020
3547 Mist -37 1015 65 1400 3 340 04:47 03.02.2020
3548 Fog -39 1016 65 800 5 340 02:53 03.02.2020
3549 Mist -38 1016 65 1900 6 340 02:32 03.02.2020
3550 Mist -40 1017 72 1400 6 350 00:50 03.02.2020
3551 Mist -40 1017 65 2100 5 340 00:30 03.02.2020
3552 Mist -40 1017 65 2600 4 320 23:59 02.02.2020
3553 Mist -40 1017 65 3300 3 290 23:37 02.02.2020
3554 Mist -40 1017 65 3300 3 290 23:18 02.02.2020
3555 Mist -40 1017 65 3300 3 290 23:18 02.02.2020
3556 Mist -41 1018 64 2800 4 320 22:40 02.02.2020
3557 Mist -41 1018 64 2800 4 320 22:22 02.02.2020
3558 Mist -40 1018 65 2600 2 330 21:58 02.02.2020
3559 Mist -41 1018 64 2100 3 320 21:39 02.02.2020
3560 Mist -41 1018 64 2100 3 320 21:20 02.02.2020
3561 Mist -41 1018 64 3400 6 330 20:57 02.02.2020
3562 Mist -41 1018 64 3400 6 330 20:39 02.02.2020
3563 Mist -41 1018 64 3400 6 330 20:20 02.02.2020
3564 Mist -40 1018 65 1600 3 330 19:57 02.02.2020
3565 Mist -40 1018 65 1600 3 330 19:39 02.02.2020
3566 Mist -40 1018 65 1600 3 330 19:21 02.02.2020
3567 Mist -42 1018 64 2400 3 360 18:56 02.02.2020
3568 Mist -42 1018 64 2400 3 360 18:37 02.02.2020
3569 Mist -42 1018 64 2400 3 360 18:19 02.02.2020
3570 Mist -39 1019 65 1300 6 350 17:57 02.02.2020
3571 Mist -39 1019 65 1300 6 350 17:37 02.02.2020
3572 Mist -39 1019 65 1300 6 350 17:37 02.02.2020
3573 Mist -39 1019 65 1300 6 350 17:18 02.02.2020
3574 Mist -39 1019 65 1300 6 350 17:18 02.02.2020
3575 Mist -41 1019 64 1700 4 350 16:57 02.02.2020
3576 Mist -41 1019 64 1700 4 350 16:37 02.02.2020
3577 Mist -41 1019 64 1700 4 350 16:18 02.02.2020
3578 Mist -42 1020 64 1700 5 340 15:55 02.02.2020
3579 Mist -42 1020 64 1700 5 340 15:36 02.02.2020
3580 Mist -42 1020 64 1700 5 340 15:18 02.02.2020
3581 Mist -41 1020 64 2400 6 340 14:43 02.02.2020
3582 Mist -41 1020 64 2400 6 340 14:19 02.02.2020
3583 Mist -41 1020 64 2400 6 340 14:19 02.02.2020
3584 Mist -42 1020 72 4600 3 360 13:58 02.02.2020
3585 Mist -42 1020 72 4600 3 360 13:39 02.02.2020
3586 Mist -42 1020 72 4600 3 360 13:20 02.02.2020
3587 Mist -41 1021 64 4300 4 360 12:56 02.02.2020
3588 Mist -41 1021 64 4300 4 360 12:37 02.02.2020
3589 Mist -41 1021 64 4300 4 360 12:18 02.02.2020
3590 Mist -40 1021 65 4800 5 350 11:42 02.02.2020
3591 Mist -40 1021 65 4800 5 350 11:19 02.02.2020
3592 Mist -41 1021 72 2100 5 340 10:57 02.02.2020
3593 Mist -41 1021 72 2100 5 340 10:38 02.02.2020
3594 Mist -41 1021 72 2100 5 340 10:20 02.02.2020
3595 Mist -39 1021 65 2900 5 340 09:57 02.02.2020
3596 Mist -39 1021 65 2900 5 340 09:38 02.02.2020
3597 Mist -39 1021 65 2900 5 340 09:38 02.02.2020
3598 Mist -39 1021 65 2900 5 340 09:20 02.02.2020
3599 Mist -40 1020 65 1600 5 340 08:44 02.02.2020
3600 Mist -40 1020 65 1600 5 340 08:24 02.02.2020
3601 Mist -39 1020 65 1200 2 240 07:47 02.02.2020
3602 Mist -39 1020 65 1200 2 240 07:28 02.02.2020
3603 Mist -39 1020 65 1600 4 350 06:45 02.02.2020
3604 Mist -39 1020 65 1600 4 350 06:27 02.02.2020
3605 Mist -40 1021 72 1200 6 350 05:48 02.02.2020
3606 Mist -39 1021 65 1800 3 360 04:48 02.02.2020
3607 Mist -38 1021 73 1400 1 320 03:30 02.02.2020
3608 Mist -40 1021 72 1900 4 340 02:35 02.02.2020
3609 Mist -40 1022 65 1800 3 360 01:55 02.02.2020
3610 Mist -40 1022 65 1800 3 360 01:23 02.02.2020
3611 Mist -40 1021 65 2700 3 340 00:44 02.02.2020
3612 Mist -40 1021 65 2700 3 340 00:22 02.02.2020
3613 Mist -41 1022 64 2100 1 340 23:47 01.02.2020
3614 Mist -41 1022 64 2100 1 340 23:23 01.02.2020
3615 Mist -41 1021 72 2000 2 340 22:54 01.02.2020
3616 Mist -41 1021 72 2000 2 340 22:36 01.02.2020
3617 Mist -41 1021 72 2000 2 340 22:18 01.02.2020
3618 Mist -42 1020 64 1200 3 350 21:39 01.02.2020
3619 Mist -42 1020 64 1200 3 350 21:18 01.02.2020
3620 Fog -40 1020 65 900 5 350 20:41 01.02.2020
3621 Fog -40 1020 65 900 5 350 20:20 01.02.2020
3622 Mist -41 1019 64 1000 3 320 19:57 01.02.2020
3623 Mist -41 1019 64 1000 3 320 19:39 01.02.2020
3624 Mist -41 1019 64 1000 3 320 19:20 01.02.2020
3625 Mist -41 1019 72 1700 4 340 18:58 01.02.2020
3626 Mist -41 1019 72 1700 4 340 18:40 01.02.2020
3627 Mist -41 1019 72 1700 4 340 18:22 01.02.2020
3628 Mist -40 1019 72 1700 2 360 17:58 01.02.2020
3629 Mist -40 1019 72 1700 2 360 17:39 01.02.2020
3630 Mist -40 1019 72 1700 2 360 17:19 01.02.2020
3631 Mist -40 1019 72 2500 5 340 16:43 01.02.2020
3632 Mist -40 1019 72 2500 5 340 16:24 01.02.2020
3633 Mist -40 1018 72 8000 4 330 15:58 01.02.2020
3634 Mist -40 1018 72 8000 4 330 15:40 01.02.2020
3635 Mist -40 1018 72 8000 4 330 15:20 01.02.2020
3636 Mist -39 1018 65 4900 4 350 14:41 01.02.2020
3637 Mist -39 1018 65 4900 4 350 14:22 01.02.2020
3638 Clouds -39 1018 72 7000 4 330 13:59 01.02.2020
3639 Clouds -39 1018 72 7000 4 330 13:41 01.02.2020
3640 Clouds -39 1018 72 7000 4 330 13:18 01.02.2020
3641 Mist -39 1018 72 9000 1 340 12:43 01.02.2020
3642 Mist -39 1017 72 6000 3 340 12:24 01.02.2020
3643 Mist -38 1017 65 3900 2 360 11:45 01.02.2020
3644 Mist -39 1017 72 6000 3 350 11:24 01.02.2020
3645 Mist -38 1017 65 4900 5 330 10:59 01.02.2020
3646 Mist -37 1016 65 1800 3 340 10:41 01.02.2020
3647 Mist -37 1016 65 1800 3 340 10:23 01.02.2020
3648 Mist -37 1016 65 4000 1 360 09:59 01.02.2020
3649 Clear -37 1016 65 8000 4 350 09:41 01.02.2020
3650 Clear -38 1016 65 8000 4 350 09:21 01.02.2020
3651 Mist -38 1016 73 2300 4 330 08:58 01.02.2020
3652 Mist -37 1016 73 2700 3 360 08:22 01.02.2020
3653 Mist -37 1015 73 1700 4 360 07:43 01.02.2020
3654 Mist -38 1016 73 5000 5 360 07:24 01.02.2020
3655 Mist -39 1016 65 7000 4 340 06:44 01.02.2020
3656 Mist -37 1015 65 2900 2 300 05:54 01.02.2020
3657 Mist -37 1015 73 2300 1 320 04:32 01.02.2020
3658 Fog -36 1015 66 10000 3 350 03:26 01.02.2020
3659 Fog -35 1015 66 10000 2 330 02:58 01.02.2020
3660 Fog -35 1015 66 10000 2 330 02:39 01.02.2020
3661 Fog -35 1015 66 10000 2 330 02:19 01.02.2020
3662 Clouds -35 1015 73 10000 3 340 01:40 01.02.2020
3663 Clouds -35 1015 73 10000 3 340 01:19 01.02.2020
3664 Clear -35 1015 73 10000 3 350 00:23 01.02.2020
3665 Clear -34 1015 66 10000 2 30 23:41 31.01.2020
3666 Clear -34 1015 66 10000 2 30 23:18 31.01.2020
3667 Fog -36 1015 73 10000 2 30 22:56 31.01.2020
3668 Fog -36 1015 73 10000 2 30 22:38 31.01.2020
3669 Fog -36 1015 73 10000 2 30 22:20 31.01.2020
3670 Clear -35 1015 73 10000 4 360 21:40 31.01.2020
3671 Clear -35 1015 73 10000 4 360 21:21 31.01.2020
3672 Clear -34 1014 73 9000 1 40 20:58 31.01.2020
3673 Clear -34 1014 73 9000 1 40 20:40 31.01.2020
3674 Clear -34 1014 73 9000 4 10 20:22 31.01.2020
3675 Clouds -34 1014 73 9000 4 10 20:00 31.01.2020
3676 Clouds -34 1014 73 9000 4 10 19:40 31.01.2020
3677 Clouds -34 1014 73 9000 4 10 19:22 31.01.2020
3678 Clouds -34 1014 73 9000 4 10 19:22 31.01.2020
3679 Clouds -33 1015 67 10000 5 350 18:58 31.01.2020
3680 Clouds -33 1015 67 10000 5 350 18:36 31.01.2020
3681 Clouds -33 1015 67 10000 5 350 18:18 31.01.2020
3682 Clouds -33 1015 74 10000 3 360 17:43 31.01.2020
3683 Clouds -33 1015 74 10000 3 360 17:25 31.01.2020
3684 Clouds -33 1015 74 6000 3 20 16:57 31.01.2020
3685 Clouds -33 1015 74 6000 3 20 16:38 31.01.2020
3686 Clouds -33 1015 74 6000 3 20 16:19 31.01.2020
3687 Mist -33 1014 74 5000 5 350 15:57 31.01.2020
3688 Mist -33 1014 74 5000 5 350 15:39 31.01.2020
3689 Mist -33 1014 74 5000 5 350 15:19 31.01.2020
3690 Clouds -33 1014 74 7000 3 20 14:43 31.01.2020
3691 Clouds -33 1014 74 7000 3 20 14:24 31.01.2020
3692 Snow -32 1014 74 4100 6 350 13:55 31.01.2020
3693 Snow -32 1014 74 4100 6 350 13:36 31.01.2020
3694 Snow -31 1014 74 7000 5 350 12:59 31.01.2020
3695 Snow -31 1014 74 7000 5 350 12:41 31.01.2020
3696 Snow -31 1014 74 7000 5 350 12:22 31.01.2020
3697 Snow -30 1014 74 7000 3 20 11:46 31.01.2020
3698 Snow -30 1014 74 7000 3 20 11:26 31.01.2020
3699 Snow -28 1014 75 7000 3 360 10:59 31.01.2020
3700 Snow -28 1014 75 7000 3 360 10:41 31.01.2020
3701 Snow -28 1014 75 7000 3 360 10:21 31.01.2020
3702 Snow -28 1013 75 9000 2 340 09:57 31.01.2020
3703 Snow -28 1013 75 9000 2 340 09:39 31.01.2020
3704 Snow -28 1013 75 9000 2 340 09:19 31.01.2020
3705 Clouds -27 1013 75 10000 2 360 08:52 31.01.2020
3706 Clouds -27 1013 75 10000 2 360 08:27 31.01.2020
3707 Clouds -28 1013 82 9000 2 360 07:53 31.01.2020
3708 Clouds -28 1013 82 9000 2 360 07:25 31.01.2020
3709 Clouds -28 1013 75 10000 3 20 06:48 31.01.2020
3710 Clouds -29 1013 75 6000 3 360 06:18 31.01.2020
3711 Clouds -28 1013 75 10000 4 20 05:46 31.01.2020
3712 Clouds -26 1013 75 10000 3 340 04:56 31.01.2020
3713 Snow -24 1013 76 5000 5 320 02:58 31.01.2020
3714 Snow -24 1013 83 8000 4 340 01:38 31.01.2020
3715 Snow -23 1013 76 10000 4 340 00:46 31.01.2020
3716 Snow -24 1013 83 10000 5 340 00:26 31.01.2020
3717 Snow -24 1013 83 7000 4 330 23:57 30.01.2020
3718 Snow -23 1013 76 7000 4 330 23:25 30.01.2020
3719 Snow -23 1013 76 10000 4 330 22:57 30.01.2020
3720 Snow -23 1013 76 10000 4 330 22:57 30.01.2020
3721 Snow -23 1012 76 4400 4 340 22:36 30.01.2020
3722 Snow -23 1012 76 4400 4 340 22:36 30.01.2020
3723 Snow -23 1012 76 4400 4 340 22:18 30.01.2020
3724 Snow -23 1012 83 6000 3 350 21:55 30.01.2020
3725 Snow -22 1012 76 3400 3 360 21:37 30.01.2020
3726 Snow -22 1012 83 4900 2 340 21:18 30.01.2020
3727 Snow -23 1012 83 4900 2 340 20:40 30.01.2020
3728 Snow -23 1012 83 4900 2 340 20:22 30.01.2020
3729 Snow -23 1012 83 4900 2 340 20:22 30.01.2020
3730 Snow -23 1012 83 7000 2 350 19:56 30.01.2020
3731 Snow -23 1012 83 7000 2 350 19:38 30.01.2020
3732 Snow -23 1012 83 7000 2 350 19:18 30.01.2020
3733 Snow -23 1012 76 8000 1 30 18:41 30.01.2020
3734 Snow -23 1012 76 8000 1 30 18:22 30.01.2020
3735 Snow -23 1012 76 6000 2 340 17:58 30.01.2020
3736 Snow -23 1012 76 6000 2 340 17:39 30.01.2020
3737 Snow -23 1012 76 6000 2 340 17:19 30.01.2020
3738 Snow -23 1012 76 6000 2 340 17:19 30.01.2020
3739 Snow -23 1012 76 6000 2 340 16:56 30.01.2020
3740 Snow -23 1012 76 6000 2 340 16:38 30.01.2020
3741 Snow -23 1012 76 6000 2 340 16:20 30.01.2020
3742 Snow -23 1012 76 6000 1.59 52 15:43 30.01.2020
3743 Snow -23 1012 76 6000 1.59 52 15:20 30.01.2020
3744 Snow -24 1013 83 9000 2 350 14:50 30.01.2020
3745 Snow -24 1013 83 9000 2 350 14:27 30.01.2020
3746 Snow -23 1013 76 10000 2 350 13:58 30.01.2020
3747 Snow -23 1013 76 10000 2 350 13:38 30.01.2020
3748 Snow -23 1013 76 10000 2 350 13:38 30.01.2020
3749 Snow -23 1013 76 10000 2 350 13:20 30.01.2020
3750 Clouds -23 1013 76 10000 2 350 12:43 30.01.2020
3751 Clouds -23 1013 76 10000 2 350 12:24 30.01.2020
3752 Snow -23 1013 76 10000 2 350 11:58 30.01.2020
3753 Snow -23 1013 76 10000 2 350 11:40 30.01.2020
3754 Snow -23 1013 76 10000 2 350 11:21 30.01.2020
3755 Snow -24 1013 83 10000 1 310 10:43 30.01.2020
3756 Snow -24 1013 83 10000 1 310 10:24 30.01.2020
3757 Snow -21 1012 76 10000 1 10 09:56 30.01.2020
3758 Snow -21 1012 76 10000 1 10 09:37 30.01.2020
3759 Snow -21 1012 76 10000 1 10 09:19 30.01.2020
3760 Snow -24 1013 83 10000 1 350 08:42 30.01.2020
3761 Snow -24 1013 83 10000 1 350 08:22 30.01.2020
3762 Clouds -24 1013 83 10000 2 30 07:52 30.01.2020
3763 Clouds -24 1013 83 10000 2 30 07:32 30.01.2020
3764 Clouds -25 1013 75 10000 1 70 06:49 30.01.2020
3765 Clouds -25 1013 75 10000 2 50 06:31 30.01.2020
3766 Clouds -26 1013 83 10000 2 30 05:47 30.01.2020
3767 Clouds -25 1013 83 10000 1 350 05:27 30.01.2020
3768 Clouds -24 1013 83 10000 0.82 28 04:23 30.01.2020
3769 Clouds -24 1013 83 10000 1 340 03:46 30.01.2020
3770 Clouds -22 1013 76 10000 1 100 02:52 30.01.2020
3771 Snow -23 1013 83 10000 1 340 00:54 30.01.2020
3772 Snow -23 1013 76 10000 1 100 00:23 30.01.2020
3773 Fog -24 1013 76 10000 1.57 9 23:49 29.01.2020
3774 Fog -25 1013 83 10000 1.57 9 23:23 29.01.2020
3775 Clouds -24 1013 83 10000 1 100 22:59 29.01.2020
3776 Clouds -23 1013 76 10000 1 50 22:40 29.01.2020
3777 Clouds -22 1013 76 10000 1 50 22:19 29.01.2020
3778 Clouds -21 1013 83 10000 1 70 21:59 29.01.2020
3779 Clouds -21 1013 76 10000 1 50 21:40 29.01.2020
3780 Clouds -21 1013 76 10000 1 50 21:20 29.01.2020
3781 Clouds -20 1013 83 10000 1 350 20:59 29.01.2020
3782 Clouds -20 1013 83 10000 1 350 20:39 29.01.2020
3783 Clouds -20 1013 83 10000 1 350 20:21 29.01.2020
3784 Clouds -20 1013 76 10000 1 330 19:57 29.01.2020
3785 Clouds -20 1013 76 10000 1 330 19:38 29.01.2020
3786 Clouds -20 1013 76 10000 1 330 19:20 29.01.2020
3787 Clouds -20 1013 83 10000 2 340 18:55 29.01.2020
3788 Clouds -20 1013 83 10000 2 340 18:37 29.01.2020
3789 Clouds -20 1013 83 10000 2 340 18:37 29.01.2020
3790 Clouds -20 1013 83 10000 2 340 18:18 29.01.2020
3791 Clouds -20 1013 83 10000 2 340 18:18 29.01.2020
3792 Clouds -19 1013 77 8000 1 330 17:40 29.01.2020
3793 Clouds -19 1013 77 8000 1 330 17:22 29.01.2020
3794 Clouds -19 1013 77 8000 1 330 17:22 29.01.2020
3795 Clouds -19 1013 77 8000 1 330 17:22 29.01.2020
3796 Clouds -19 1013 77 8000 1 330 17:22 29.01.2020
3797 Clouds -18 1014 84 9000 1 330 16:43 29.01.2020
3798 Clouds -18 1014 84 9000 1 330 16:23 29.01.2020
3799 Snow -17 1014 84 10000 3.65 332 15:59 29.01.2020
3800 Snow -17 1014 84 10000 3.65 332 15:38 29.01.2020
3801 Snow -17 1014 84 10000 3.65 332 15:20 29.01.2020
3802 Snow -18 1014 84 10000 1 340 14:45 29.01.2020
3803 Snow -18 1014 84 10000 1 340 14:22 29.01.2020
3804 Clouds -17 1015 84 10000 1 290 13:57 29.01.2020
3805 Clouds -17 1015 84 10000 1 290 13:38 29.01.2020
3806 Clouds -17 1015 84 10000 1 290 13:20 29.01.2020
3807 Clouds -17 1015 84 10000 3.15 332 12:56 29.01.2020
3808 Clouds -17 1015 84 10000 3.15 332 12:37 29.01.2020
3809 Clouds -17 1015 84 10000 3.15 332 12:19 29.01.2020
3810 Snow -17 1016 84 10000 3.15 332 11:45 29.01.2020
3811 Snow -17 1016 84 10000 3.15 332 11:22 29.01.2020
3812 Snow -17 1016 84 10000 1 70 10:47 29.01.2020
3813 Snow -17 1017 84 10000 1 220 10:27 29.01.2020
3814 Snow -16 1017 84 10000 1 220 09:59 29.01.2020
3815 Snow -16 1017 84 10000 1 220 09:40 29.01.2020
3816 Snow -16 1017 84 10000 1 220 09:20 29.01.2020
3817 Snow -16 1017 84 7000 1 20 08:56 29.01.2020
3818 Snow -16 1017 84 7000 1 20 08:38 29.01.2020
3819 Snow -16 1017 84 7000 1 20 08:38 29.01.2020
3820 Snow -16 1017 84 7000 1 20 08:18 29.01.2020
3821 Clouds -16 1018 84 10000 3 150 07:43 29.01.2020
3822 Clouds -16 1018 84 10000 3 150 07:23 29.01.2020
3823 Clouds -16 1018 84 10000 3 150 07:23 29.01.2020
3824 Snow -17 1018 91 10000 4 150 06:38 29.01.2020
3825 Snow -17 1018 91 10000 4 150 06:20 29.01.2020
3826 Clouds -16 1018 84 10000 4 150 05:54 29.01.2020
3827 Clouds -16 1018 84 10000 4 150 05:35 29.01.2020
3828 Clouds -17 1019 84 10000 3 160 04:39 29.01.2020
3829 Clouds -17 1019 84 10000 3 160 04:18 29.01.2020
3830 Snow -16 1020 84 10000 2 150 02:40 29.01.2020
3831 Snow -16 1021 84 10000 2 190 01:34 29.01.2020
3832 Snow -16 1021 84 10000 2 180 00:41 29.01.2020
3833 Snow -16 1021 84 10000 2 180 00:23 29.01.2020
3834 Snow -16 1022 84 10000 1 190 23:41 28.01.2020
3835 Snow -16 1022 84 10000 1 190 23:20 28.01.2020
3836 Snow -16 1022 84 3700 1 180 22:57 28.01.2020
3837 Snow -16 1022 84 10000 1 180 22:39 28.01.2020
3838 Snow -16 1022 84 10000 1 180 22:20 28.01.2020
3839 Snow -16 1022 84 10000 1 180 22:20 28.01.2020
3840 Snow -17 1022 84 10000 1 190 21:41 28.01.2020
3841 Snow -17 1022 84 10000 1 190 21:20 28.01.2020
3842 Snow -17 1022 84 10000 1 190 21:20 28.01.2020
3843 Snow -17 1023 84 10000 1 200 20:46 28.01.2020
3844 Snow -17 1023 84 10000 1 200 20:28 28.01.2020
3845 Snow -17 1023 84 10000 2 210 19:59 28.01.2020
3846 Snow -17 1023 84 10000 2 210 19:38 28.01.2020
3847 Snow -17 1023 84 10000 2 210 19:19 28.01.2020
3848 Snow -17 1023 84 10000 1 180 18:57 28.01.2020
3849 Snow -17 1023 84 10000 1 180 18:38 28.01.2020
3850 Snow -17 1023 84 10000 1 180 18:20 28.01.2020
3851 Snow -17 1024 84 10000 1 180 17:55 28.01.2020
3852 Snow -17 1024 84 10000 1 180 17:36 28.01.2020
3853 Snow -17 1024 84 10000 1 180 17:18 28.01.2020
3854 Snow -16 1024 84 10000 1 240 16:45 28.01.2020
3855 Snow -16 1024 84 10000 1 240 16:27 28.01.2020
3856 Snow -16 1025 84 10000 1 210 15:59 28.01.2020
3857 Snow -16 1025 84 10000 1 210 15:40 28.01.2020
3858 Snow -16 1025 84 10000 1 210 15:18 28.01.2020
3859 Snow -16 1025 84 10000 1 190 14:44 28.01.2020
3860 Snow -16 1025 84 10000 1 190 14:20 28.01.2020
3861 Snow -17 1025 84 10000 2 180 13:45 28.01.2020
3862 Snow -17 1025 84 10000 2 180 13:25 28.01.2020
3863 Snow -16 1025 84 10000 2 180 12:58 28.01.2020
3864 Snow -16 1025 84 10000 2 180 12:40 28.01.2020
3865 Snow -16 1025 84 10000 2 180 12:22 28.01.2020
3866 Snow -16 1026 84 10000 2 190 11:41 28.01.2020
3867 Snow -16 1026 84 10000 2 190 11:22 28.01.2020
3868 Snow -18 1026 84 10000 1 240 10:55 28.01.2020
3869 Snow -18 1026 84 10000 1 240 10:37 28.01.2020
3870 Snow -18 1026 84 10000 1 240 10:18 28.01.2020
3871 Snow -17 1026 84 10000 1 270 09:42 28.01.2020
3872 Snow -17 1026 84 10000 1 270 09:20 28.01.2020
3873 Snow -18 1026 84 10000 0.99 48 08:46 28.01.2020
3874 Snow -18 1026 84 10000 0.99 48 08:26 28.01.2020
3875 Snow -16 1026 84 10000 2.05 354 07:57 28.01.2020
3876 Snow -16 1026 84 10000 2.05 354 07:35 28.01.2020
3877 Snow -16 1026 84 10000 2.05 354 06:48 28.01.2020
3878 Snow -16 1026 84 10000 1 290 06:25 28.01.2020
3879 Snow -16 1026 84 10000 1 240 05:42 28.01.2020
3880 Snow -16 1026 84 10000 1 270 05:24 28.01.2020
3881 Snow -16 1025 84 10000 2 350 03:51 28.01.2020
3882 Snow -16 1025 84 10000 3 330 02:55 28.01.2020
3883 Snow -16 1026 84 10000 4 360 02:25 28.01.2020
3884 Snow -16 1026 84 10000 4 350 01:56 28.01.2020
3885 Snow -17 1026 77 10000 4 350 01:22 28.01.2020
3886 Snow -17 1026 84 10000 3 340 00:45 28.01.2020
3887 Snow -17 1026 84 10000 3 340 00:24 28.01.2020
3888 Snow -17 1026 84 10000 3 330 23:46 27.01.2020
3889 Snow -17 1026 84 10000 3 340 23:28 27.01.2020
3890 Snow -17 1026 84 10000 3 340 23:28 27.01.2020
3891 Clouds -17 1025 84 10000 4 330 22:45 27.01.2020
3892 Clouds -17 1025 84 10000 4 350 22:22 27.01.2020
3893 Snow -16 1025 84 10000 3 360 21:59 27.01.2020
3894 Snow -17 1026 84 1000 3 330 21:39 27.01.2020
3895 Snow -18 1026 84 1000 3 330 21:19 27.01.2020
3896 Snow -18 1026 84 10000 3 360 20:59 27.01.2020
3897 Snow -18 1026 84 10000 3 360 20:40 27.01.2020
3898 Snow -18 1026 84 10000 3 360 20:21 27.01.2020
3899 Clouds -18 1026 84 10000 3 360 19:58 27.01.2020
3900 Clouds -18 1026 84 10000 3 360 19:40 27.01.2020
3901 Clouds -18 1026 84 10000 3 360 19:21 27.01.2020
3902 Clouds -17 1026 84 10000 2 10 18:55 27.01.2020
3903 Clouds -17 1026 84 10000 2 10 18:37 27.01.2020
3904 Clouds -17 1026 84 10000 2 10 18:19 27.01.2020
3905 Clouds -17 1026 84 0 1.79 360 17:39 27.01.2020
3906 Snow -18 1026 84 8000 1 20 17:19 27.01.2020
3907 Snow -18 1026 84 8000 1 20 16:57 27.01.2020
3908 Snow -18 1026 84 8000 1 20 16:39 27.01.2020
3909 Snow -18 1026 84 8000 1 20 16:21 27.01.2020
3910 Snow -16 1027 84 6000 2.15 303 15:54 27.01.2020
3911 Snow -16 1027 84 6000 2.15 303 15:36 27.01.2020
3912 Snow -16 1027 84 6000 2.15 303 15:18 27.01.2020
3913 Fog -14 1027 84 800 2 190 14:40 27.01.2020
3914 Fog -14 1027 84 800 2 190 14:21 27.01.2020
3915 Clouds -17 1028 84 10000 2 20 13:54 27.01.2020
3916 Clouds -17 1028 84 10000 2 20 13:36 27.01.2020
3917 Clouds -17 1028 84 10000 2 20 13:18 27.01.2020
3918 Clouds -14 1028 84 10000 3 330 12:41 27.01.2020
3919 Clouds -14 1028 84 10000 3 330 12:22 27.01.2020
3920 Clouds -12 1028 85 10000 1 180 11:43 27.01.2020
3921 Clouds -12 1028 85 10000 1 180 11:23 27.01.2020
3922 Snow -11 1028 78 10000 3 120 10:57 27.01.2020
3923 Snow -11 1028 78 10000 3 120 10:57 27.01.2020
3924 Snow -11 1028 78 10000 3 120 10:39 27.01.2020
3925 Snow -11 1028 78 10000 3 120 10:20 27.01.2020
3926 Clouds -13 1029 84 10000 2 200 09:40 27.01.2020
3927 Clouds -13 1029 84 10000 2 200 09:19 27.01.2020
3928 Clouds -11 1028 85 10000 1 10 08:57 27.01.2020
3929 Clouds -11 1028 85 10000 1 10 08:39 27.01.2020
3930 Clouds -11 1028 85 10000 1 10 08:19 27.01.2020
3931 Clouds -10 1029 78 10000 2.17 131 07:47 27.01.2020
3932 Clouds -10 1029 78 10000 2.17 131 07:47 27.01.2020
3933 Clouds -10 1029 78 10000 2.17 131 07:29 27.01.2020
3934 Snow -10 1029 85 10000 4 140 06:38 27.01.2020
3935 Clouds -10 1029 78 10000 5 140 05:51 27.01.2020
3936 Snow -11 1029 85 10000 6 140 05:18 27.01.2020
3937 Snow -11 1029 78 10000 6 110 03:35 27.01.2020
3938 Snow -10 1029 78 10000 10 110 01:56 27.01.2020
3939 Snow -10 1029 78 10000 10 110 01:27 27.01.2020
3940 Snow -10 1029 78 10000 10 110 00:42 27.01.2020
3941 Snow -10 1029 72 10000 9 110 00:22 27.01.2020
3942 Clouds -11 1030 78 10000 8 110 23:44 26.01.2020
3943 Clouds -12 1030 78 10000 8 110 23:26 26.01.2020
3944 Clouds -11 1030 78 10000 9 110 22:59 26.01.2020
3945 Clouds -11 1030 78 10000 9 110 22:39 26.01.2020
3946 Clouds -11 1030 78 10000 9 110 22:20 26.01.2020
3947 Clouds -10 1029 72 10000 9 110 21:58 26.01.2020
3948 Clouds -12 1029 85 10000 8 110 21:39 26.01.2020
3949 Clouds -12 1029 85 10000 8 110 21:21 26.01.2020
3950 Clouds -11 1030 78 10000 6 110 20:58 26.01.2020
3951 Clouds -11 1030 78 10000 6 110 20:38 26.01.2020
3952 Clouds -11 1030 78 10000 6 110 20:19 26.01.2020
3953 Clouds -10 1030 72 10000 6 100 19:59 26.01.2020
3954 Clouds -10 1030 72 10000 6 100 19:59 26.01.2020
3955 Clouds -10 1030 72 10000 6 100 19:39 26.01.2020
3956 Clouds -10 1030 72 10000 6 100 19:21 26.01.2020
3957 Clouds -11 1029 78 10000 6 90 18:56 26.01.2020
3958 Clouds -11 1029 78 10000 6 90 18:38 26.01.2020
3959 Clouds -11 1029 78 10000 6 90 18:20 26.01.2020
3960 Clouds -10 1029 72 10000 8 100 17:55 26.01.2020
3961 Clouds -10 1029 72 10000 8 100 17:37 26.01.2020
3962 Clouds -10 1029 72 10000 8 100 17:18 26.01.2020
3963 Clouds -11 1029 78 10000 8 90 16:56 26.01.2020
3964 Clouds -11 1029 78 10000 8 90 16:38 26.01.2020
3965 Clouds -11 1029 78 10000 8 90 16:19 26.01.2020
3966 Clouds -17 1031 95 0 5.73 89 15:43 26.01.2020
3967 Clouds -17 1031 95 0 5.73 89 15:21 26.01.2020
3968 Clouds -17 1031 95 0 5.73 89 14:58 26.01.2020
3969 Clouds -17 1031 95 0 5.73 89 14:38 26.01.2020
3970 Clouds -11 1030 78 0 7.6 80 14:19 26.01.2020
3971 Clouds -11 1030 78 0 6.71 90 13:40 26.01.2020
3972 Clouds -11 1030 78 0 6.71 90 13:19 26.01.2020
3973 Clouds -11 1030 78 0 5.81 90 12:56 26.01.2020
3974 Clouds -11 1030 78 0 5.81 90 12:37 26.01.2020
3975 Clouds -11 1030 78 0 5.81 90 12:19 26.01.2020
3976 Clouds -17 1031 95 0 5.5 90 11:57 26.01.2020
3977 Clouds -17 1031 95 0 5.5 90 11:36 26.01.2020
3978 Snow -10 1029 78 9000 8 90 11:18 26.01.2020
3979 Snow -10 1029 78 9000 8 90 10:55 26.01.2020
3980 Snow -10 1029 78 9000 8 90 10:37 26.01.2020
3981 Snow -10 1029 78 9000 8 90 10:18 26.01.2020
3982 Snow -11 1030 78 10000 10 110 09:41 26.01.2020
3983 Snow -11 1030 78 10000 10 110 09:23 26.01.2020
3984 Snow -10 1030 78 10000 8 110 08:57 26.01.2020
3985 Snow -10 1030 78 10000 8 110 08:39 26.01.2020
3986 Snow -10 1030 78 10000 8 110 08:21 26.01.2020
3987 Snow -10 1029 85 10000 7 120 07:50 26.01.2020
3988 Snow -10 1029 85 10000 7 120 07:26 26.01.2020
3989 Snow -10 1029 85 10000 6 120 06:40 26.01.2020
3990 Snow -10 1029 85 10000 6 120 06:22 26.01.2020
3991 Snow -9 1028 78 10000 6 120 05:27 26.01.2020
3992 Snow -9 1028 78 10000 6 110 03:23 26.01.2020
3993 Snow -9 1028 78 10000 6 110 02:38 26.01.2020
3994 Snow -9 1029 78 10000 5 110 01:43 26.01.2020
3995 Snow -9 1029 78 10000 5 110 01:22 26.01.2020
3996 Snow -9 1028 78 10000 5 100 00:41 26.01.2020
3997 Snow -9 1028 78 10000 5 100 00:20 26.01.2020
3998 Clouds -16 1030 94 0 5.12 77 23:38 25.01.2020
3999 Clouds -17 1030 95 0 5.3 85 23:20 25.01.2020
4000 Clouds -17 1030 95 0 5.3 85 22:45 25.01.2020
4001 Clouds -17 1030 95 0 5.3 85 22:21 25.01.2020
4002 Clouds -17 1030 95 0 5.3 85 21:59 25.01.2020
4003 Clouds -17 1030 95 0 5.3 85 21:41 25.01.2020
4004 Clouds -17 1030 95 0 5.3 85 21:22 25.01.2020
4005 Clouds -17 1030 95 0 5.3 85 20:55 25.01.2020
4006 Clouds -17 1030 95 0 5.3 85 20:36 25.01.2020
4007 Clouds -17 1029 96 0 5.15 85 20:18 25.01.2020
4008 Clouds -17 1029 96 0 5.12 84 19:42 25.01.2020
4009 Clouds -17 1029 96 0 5.12 84 19:20 25.01.2020
4010 Clouds -17 1029 96 0 5.15 85 18:56 25.01.2020
4011 Clouds -17 1029 96 0 5.15 85 18:38 25.01.2020
4012 Clouds -17 1029 96 0 5.12 84 18:20 25.01.2020
4013 Clouds -17 1029 96 0 5.12 84 17:40 25.01.2020
4014 Clouds -17 1029 96 0 4.29 82 17:19 25.01.2020
4015 Clouds -17 1029 96 0 4.29 82 16:57 25.01.2020
4016 Clouds -17 1029 96 0 4.29 82 16:38 25.01.2020
4017 Clouds -17 1029 96 0 4.29 82 16:19 25.01.2020
4018 Clouds -17 1029 96 0 4.29 82 15:47 25.01.2020
4019 Clouds -17 1029 96 0 4.29 82 15:25 25.01.2020
4020 Clouds -17 1029 96 0 4.29 82 14:57 25.01.2020
4021 Clouds -17 1029 96 0 4.29 82 14:39 25.01.2020
4022 Clouds -16 1030 95 0 3.92 76 14:18 25.01.2020
4023 Clouds -16 1030 95 0 3.92 76 13:42 25.01.2020
4024 Clouds -16 1030 95 0 3.92 76 13:22 25.01.2020
4025 Clouds -16 1030 96 0 3.71 72 12:45 25.01.2020
4026 Snow -8 1027 78 9000 7 100 12:25 25.01.2020
4027 Snow -8 1027 78 9000 7 100 11:45 25.01.2020
4028 Snow -8 1027 78 9000 7 100 11:22 25.01.2020
4029 Snow -8 1027 78 9000 7 100 11:22 25.01.2020
4030 Snow -8 1027 78 10000 7 110 10:59 25.01.2020
4031 Snow -8 1027 78 10000 7 110 10:40 25.01.2020
4032 Snow -8 1027 78 10000 7 110 10:20 25.01.2020
4033 Snow -8 1027 78 10000 6 100 09:41 25.01.2020
4034 Snow -8 1027 78 10000 6 100 09:22 25.01.2020
4035 Snow -8 1027 78 10000 7 100 08:47 25.01.2020
4036 Snow -8 1027 78 10000 7 100 08:28 25.01.2020
4037 Snow -8 1026 78 10000 5 100 07:50 25.01.2020
4038 Snow -9 1026 78 10000 5 100 06:54 25.01.2020
4039 Snow -9 1026 78 10000 5 100 06:28 25.01.2020
4040 Snow -10 1026 85 10000 1 270 05:48 25.01.2020
4041 Snow -10 1026 85 10000 1 270 05:23 25.01.2020
4042 Snow -13 1026 84 10000 2.08 32 03:53 25.01.2020
4043 Snow -13 1026 84 10000 2.08 32 03:22 25.01.2020
4044 Snow -14 1026 84 10000 2 30 02:22 25.01.2020
4045 Snow -14 1026 84 10000 3 20 01:48 25.01.2020
4046 Snow -15 1027 84 10000 2 20 00:44 25.01.2020
4047 Snow -15 1027 84 10000 2 20 00:26 25.01.2020
4048 Snow -16 1026 84 10000 1 350 23:58 24.01.2020
4049 Snow -16 1026 84 10000 1 350 23:40 24.01.2020
4050 Snow -16 1026 84 10000 1 350 23:40 24.01.2020
4051 Snow -16 1026 84 10000 1 350 23:22 24.01.2020
4052 Snow -16 1026 77 10000 1 350 22:44 24.01.2020
4053 Snow -16 1026 77 10000 1 350 22:25 24.01.2020
4054 Snow -17 1026 84 10000 2 350 21:43 24.01.2020
4055 Snow -17 1026 84 10000 2 350 21:21 24.01.2020
4056 Snow -17 1025 77 10000 1 340 20:59 24.01.2020
4057 Snow -17 1025 77 10000 1 340 20:40 24.01.2020
4058 Snow -17 1025 77 10000 1 340 20:20 24.01.2020
4059 Clouds -18 1025 77 10000 1 280 19:57 24.01.2020
4060 Clouds -18 1025 77 10000 1 280 19:38 24.01.2020
4061 Clouds -18 1025 77 10000 1 280 19:20 24.01.2020
4062 Clouds -18 1025 84 10000 1 320 18:43 24.01.2020
4063 Clouds -18 1025 84 10000 1 320 18:24 24.01.2020
4064 Clouds -19 1025 84 10000 1 340 17:56 24.01.2020
4065 Clouds -19 1025 84 10000 1 340 17:38 24.01.2020
4066 Clouds -19 1025 84 10000 1 340 17:18 24.01.2020
4067 Clouds -19 1025 84 10000 2 300 16:39 24.01.2020
4068 Clouds -19 1025 84 10000 2 300 16:20 24.01.2020
4069 Clouds -19 1025 84 10000 1 270 15:43 24.01.2020
4070 Clouds -19 1025 84 10000 1 270 15:23 24.01.2020
4071 Snow -20 1025 83 10000 1 300 14:58 24.01.2020
4072 Snow -20 1025 83 10000 1 300 14:40 24.01.2020
4073 Snow -20 1025 83 10000 1 300 14:21 24.01.2020
4074 Snow -20 1025 76 3600 1 270 13:43 24.01.2020
4075 Snow -20 1025 76 3600 1 270 13:23 24.01.2020
4076 Snow -21 1025 83 1600 2 270 12:45 24.01.2020
4077 Snow -21 1025 83 1600 2 270 12:23 24.01.2020
4078 Snow -21 1024 83 1700 2 280 11:57 24.01.2020
4079 Snow -21 1024 83 1700 2 280 11:39 24.01.2020
4080 Snow -21 1024 83 1700 2 280 11:18 24.01.2020
4081 Snow -20 1024 76 2700 2 300 10:42 24.01.2020
4082 Snow -20 1024 76 2700 2 300 10:21 24.01.2020
4083 Snow -20 1023 83 3600 4 340 09:54 24.01.2020
4084 Snow -20 1023 83 3600 4 340 09:36 24.01.2020
4085 Snow -20 1023 83 3600 4 340 09:18 24.01.2020
4086 Snow -21 1023 83 2000 5 350 08:39 24.01.2020
4087 Snow -21 1023 83 2000 5 350 08:39 24.01.2020
4088 Snow -21 1023 83 2000 5 350 08:19 24.01.2020
4089 Snow -20 1023 76 1800 6 350 07:47 24.01.2020
4090 Snow -20 1023 76 1800 6 350 07:22 24.01.2020
4091 Snow -21 1023 76 1100 7 350 06:45 24.01.2020
4092 Snow -21 1022 83 750 6 350 06:24 24.01.2020
4093 Snow -21 1022 76 5000 4 360 05:33 24.01.2020
4094 Snow -23 1023 76 1800 5 360 03:36 24.01.2020
4095 Snow -24 1023 83 1200 6 350 02:40 24.01.2020
4096 Snow -25 1023 83 1200 6 350 02:21 24.01.2020
4097 Snow -24 1023 75 1400 7 360 01:39 24.01.2020
4098 Snow -26 1023 75 1700 9 360 00:49 24.01.2020
4099 Snow -26 1022 75 2000 7 360 00:19 24.01.2020
4100 Snow -26 1023 75 1500 7 350 23:42 23.01.2020
4101 Snow -27 1022 82 2800 8 350 23:23 23.01.2020
4102 Snow -26 1022 75 5000 6 350 22:58 23.01.2020
4103 Snow -25 1022 75 4500 6 360 22:37 23.01.2020
4104 Snow -25 1022 75 4500 6 360 22:37 23.01.2020
4105 Snow -25 1022 75 4500 6 360 22:18 23.01.2020
4106 Snow -25 1022 75 8000 5 10 21:55 23.01.2020
4107 Snow -25 1022 75 10000 6 10 21:37 23.01.2020
4108 Snow -25 1022 75 10000 6 10 21:19 23.01.2020
4109 Snow -25 1022 75 10000 6 10 21:19 23.01.2020
4110 Snow -26 1021 75 8000 5 360 20:55 23.01.2020
4111 Snow -26 1021 75 8000 5 360 20:37 23.01.2020
4112 Snow -26 1021 75 8000 5 360 20:18 23.01.2020
4113 Snow -27 1021 75 9000 5 10 19:42 23.01.2020
4114 Snow -27 1021 75 9000 5 10 19:23 23.01.2020
4115 Snow -27 1021 75 8000 5 340 18:58 23.01.2020
4116 Snow -27 1021 75 8000 5 340 18:38 23.01.2020
4117 Snow -27 1021 75 8000 5 340 18:19 23.01.2020
4118 Snow -27 1021 75 9000 6 10 17:55 23.01.2020
4119 Snow -27 1021 75 9000 6 10 17:37 23.01.2020
4120 Snow -27 1021 75 9000 6 10 17:18 23.01.2020
4121 Snow -29 1021 75 8000 5 10 16:39 23.01.2020
4122 Snow -29 1021 75 8000 5 10 16:20 23.01.2020
4123 Snow -29 1021 75 8000 5 10 16:20 23.01.2020
4124 Snow -28 1021 75 8000 4 20 15:58 23.01.2020
4125 Snow -28 1021 75 8000 4 20 15:39 23.01.2020
4126 Snow -28 1021 75 8000 4 20 15:19 23.01.2020
4127 Snow -29 1020 75 4100 3 320 14:58 23.01.2020
4128 Snow -29 1020 75 4100 3 320 14:40 23.01.2020
4129 Snow -29 1020 75 4100 3 320 14:22 23.01.2020
4130 Snow -29 1020 75 1500 5 340 13:55 23.01.2020
4131 Snow -29 1020 75 1500 5 340 13:37 23.01.2020
4132 Snow -29 1020 75 1500 5 340 13:18 23.01.2020
4133 Snow -29 1019 75 2500 5 10 12:42 23.01.2020
4134 Snow -29 1019 75 2500 5 10 12:24 23.01.2020
4135 Snow -30 1019 74 2600 5 20 11:56 23.01.2020
4136 Snow -30 1019 74 2600 5 20 11:37 23.01.2020
4137 Snow -30 1019 74 2600 5 20 11:18 23.01.2020
4138 Snow -32 1019 74 4800 3 340 10:42 23.01.2020
4139 Snow -32 1019 74 4800 3 340 10:19 23.01.2020
4140 Clouds -32 1019 74 10000 2 340 09:42 23.01.2020
4141 Clouds -32 1019 74 10000 2 340 09:24 23.01.2020
4142 Clouds -32 1018 74 10000 2 360 08:58 23.01.2020
4143 Clouds -32 1018 74 10000 2 360 08:40 23.01.2020
4144 Clear -32 1018 74 10000 2 360 08:21 23.01.2020
4145 Clear -32 1018 67 10000 2 340 07:44 23.01.2020
4146 Clear -32 1018 67 10000 2 340 07:24 23.01.2020
4147 Clear -32 1017 74 10000 4 20 06:51 23.01.2020
4148 Clear -32 1017 74 10000 4 20 06:51 23.01.2020
4149 Clear -32 1017 67 10000 3 10 06:20 23.01.2020
4150 Clear -34 1017 66 10000 2 30 05:37 23.01.2020
4151 Clear -33 1017 74 10000 2 10 04:22 23.01.2020
4152 Clear -31 1016 74 10000 3 350 02:33 23.01.2020
4153 Clouds -32 1016 74 10000 2 40 00:58 23.01.2020
4154 Clouds -33 1016 74 10000 2 30 00:27 23.01.2020
4155 Clouds -33 1015 67 10000 2 60 23:47 22.01.2020
4156 Clouds -33 1015 67 10000 2 30 23:29 22.01.2020
4157 Clouds -33 1015 67 10000 2 340 22:58 22.01.2020
4158 Clouds -33 1014 67 10000 2 360 22:39 22.01.2020
4159 Clouds -33 1014 67 10000 2 360 22:21 22.01.2020
4160 Clouds -33 1014 74 10000 3 20 21:39 22.01.2020
4161 Clouds -33 1014 74 10000 3 20 21:21 22.01.2020
4162 Clouds -34 1012 66 10000 3 20 20:56 22.01.2020
4163 Clouds -34 1012 66 10000 3 20 20:37 22.01.2020
4164 Clear -34 1012 66 10000 3 20 20:18 22.01.2020
4165 Clear -34 1012 73 10000 3 50 19:55 22.01.2020
4166 Clear -34 1012 73 10000 3 50 19:37 22.01.2020
4167 Clear -34 1012 73 10000 3 50 19:18 22.01.2020
4168 Clear -33 1011 74 10000 3 40 18:56 22.01.2020
4169 Clear -33 1011 74 10000 3 40 18:37 22.01.2020
4170 Clear -33 1011 74 10000 3 40 18:18 22.01.2020
4171 Clear -33 1011 74 10000 2 40 17:40 22.01.2020
4172 Clear -33 1011 74 10000 2 40 17:21 22.01.2020
4173 Clear -31 1011 74 10000 3 10 16:58 22.01.2020
4174 Clear -31 1011 74 10000 3 10 16:58 22.01.2020
4175 Clear -31 1011 74 10000 3 10 16:39 22.01.2020
4176 Clear -31 1011 74 10000 3 10 16:21 22.01.2020
4177 Clear -31 1010 74 10000 3 20 15:56 22.01.2020
4178 Clear -31 1010 74 10000 3 20 15:38 22.01.2020
4179 Clear -31 1010 74 10000 3 20 15:18 22.01.2020
4180 Clear -30 1010 67 10000 2 360 14:39 22.01.2020
4181 Clouds -30 1010 67 10000 2 360 14:20 22.01.2020
4182 Clouds -31 1009 67 10000 3 360 13:58 22.01.2020
4183 Clouds -31 1009 67 10000 3 360 13:38 22.01.2020
4184 Clouds -31 1009 67 10000 3 360 13:19 22.01.2020
4185 Snow -30 1009 74 10000 1 350 12:57 22.01.2020
4186 Snow -30 1009 74 10000 1 350 12:39 22.01.2020
4187 Snow -30 1009 74 10000 1 350 12:19 22.01.2020
4188 Snow -30 1008 74 10000 2 360 11:58 22.01.2020
4189 Snow -30 1008 74 10000 2 360 11:39 22.01.2020
4190 Snow -30 1008 74 10000 2 360 11:19 22.01.2020
4191 Snow -30 1008 74 10000 2 360 11:19 22.01.2020
4192 Snow -30 1008 74 10000 2 360 11:19 22.01.2020
4193 Clouds -31 1007 74 10000 1 30 10:54 22.01.2020
4194 Clouds -31 1007 74 10000 1 30 10:36 22.01.2020
4195 Clouds -31 1007 74 10000 1 30 10:18 22.01.2020
4196 Clouds -31 1007 74 10000 2 20 09:41 22.01.2020
4197 Clouds -31 1007 74 10000 2 20 09:23 22.01.2020
4198 Clouds -30 1006 74 10000 3 10 08:57 22.01.2020
4199 Clouds -30 1006 74 10000 3 10 08:38 22.01.2020
4200 Clouds -30 1006 74 10000 3 10 08:20 22.01.2020
4201 Clouds -31 1006 74 10000 3 10 07:46 22.01.2020
4202 Clouds -31 1006 74 10000 3 10 07:27 22.01.2020
4203 Clouds -32 1005 74 10000 3 10 06:38 22.01.2020
4204 Clouds -33 1005 74 10000 3 10 06:20 22.01.2020
4205 Clouds -33 1005 74 10000 3 20 05:19 22.01.2020
4206 Clouds -30 1004 74 10000 2 40 03:29 22.01.2020
4207 Clouds -29 1004 75 10000 2 10 02:49 22.01.2020
4208 Clouds -29 1004 75 10000 2 20 01:42 22.01.2020
4209 Clouds -29 1004 68 10000 2 360 00:43 22.01.2020
4210 Clouds -30 1004 74 10000 3 20 00:25 22.01.2020
4211 Clouds -29 1003 68 10000 2 340 23:38 21.01.2020
4212 Clouds -29 1003 68 10000 2 340 23:38 21.01.2020
4213 Clouds -29 1003 68 10000 2 340 23:20 21.01.2020
4214 Clouds -29 1003 75 10000 2 330 22:55 21.01.2020
4215 Clouds -29 1003 75 10000 2 350 22:36 21.01.2020
4216 Clouds -29 1003 75 10000 2 350 22:18 21.01.2020
4217 Clouds -29 1002 75 10000 3 350 21:55 21.01.2020
4218 Clouds -29 1002 75 10000 2 320 21:36 21.01.2020
4219 Clouds -29 1002 75 10000 2 320 21:18 21.01.2020
4220 Clouds -30 1002 74 10000 1 10 20:39 21.01.2020
4221 Clear -30 1002 74 10000 1 10 20:20 21.01.2020
4222 Clouds -28 1001 75 10000 2 10 19:58 21.01.2020
4223 Clouds -28 1001 75 10000 2 10 19:58 21.01.2020
4224 Clouds -28 1001 75 10000 2 10 19:40 21.01.2020
4225 Clouds -28 1001 75 10000 2 10 19:21 21.01.2020
4226 Clouds -28 1001 82 6000 1 330 18:57 21.01.2020
4227 Clouds -28 1001 82 6000 1 330 18:39 21.01.2020
4228 Clouds -28 1001 82 6000 1 330 18:21 21.01.2020
4229 Clouds -27 1001 75 10000 1 40 17:57 21.01.2020
4230 Clouds -27 1001 75 10000 1 40 17:38 21.01.2020
4231 Clouds -27 1001 75 10000 1 40 17:18 21.01.2020
4232 Clear -28 1000 75 10000 3 350 16:38 21.01.2020
4233 Clear -28 1000 75 10000 3 350 16:19 21.01.2020
4234 Clear -30 1000 74 9000 2 340 15:59 21.01.2020
4235 Clear -30 1000 74 9000 2 340 15:39 21.01.2020
4236 Clear -30 1000 74 9000 2 340 15:19 21.01.2020
4237 Clear -30 1000 74 10000 2 350 14:40 21.01.2020
4238 Clouds -30 1000 74 10000 2 350 14:22 21.01.2020
4239 Clouds -27 999 75 10000 1 30 13:55 21.01.2020
4240 Clouds -27 999 75 10000 1 30 13:37 21.01.2020
4241 Clouds -27 999 75 10000 1 30 13:18 21.01.2020
4242 Clouds -28 999 75 10000 1 30 12:42 21.01.2020
4243 Clouds -28 999 75 10000 1 30 12:24 21.01.2020
4244 Clouds -29 999 75 10000 1 30 11:56 21.01.2020
4245 Clouds -29 999 75 10000 1 30 11:38 21.01.2020
4246 Clouds -29 999 75 10000 1 30 11:19 21.01.2020
4247 Clouds -28 999 75 9000 2 340 10:43 21.01.2020
4248 Clouds -28 999 75 9000 2 340 10:23 21.01.2020
4249 Clouds -28 998 75 9000 3 330 09:56 21.01.2020
4250 Clouds -28 998 75 9000 3 330 09:38 21.01.2020
4251 Clouds -28 998 75 9000 3 330 09:19 21.01.2020
4252 Clouds -28 998 75 10000 3 350 08:41 21.01.2020
4253 Clouds -28 998 75 10000 3 350 08:22 21.01.2020
4254 Fog -26 997 83 10000 2 10 07:43 21.01.2020
4255 Fog -26 997 83 10000 2 10 07:24 21.01.2020
4256 Fog -26 997 75 10000 3 10 06:57 21.01.2020
4257 Clouds -26 997 83 9000 3 360 06:38 21.01.2020
4258 Fog -25 997 75 10000 2 10 05:53 21.01.2020
4259 Clouds -26 997 75 7000 3 10 05:32 21.01.2020
4260 Clouds -26 997 75 7000 4 360 04:37 21.01.2020
4261 Clouds -26 996 75 10000 1 40 02:27 21.01.2020
4262 Clouds -26 996 75 10000 2 20 01:36 21.01.2020
4263 Clouds -26 996 75 10000 2 20 00:45 21.01.2020
4264 Fog -27 996 75 10000 1 50 00:25 21.01.2020
4265 Fog -27 996 82 10000 2 10 23:56 20.01.2020
4266 Fog -26 996 75 10000 3 20 23:36 20.01.2020
4267 Fog -26 996 75 10000 3 20 23:18 20.01.2020
4268 Fog -26 995 83 10000 3 20 22:40 20.01.2020
4269 Fog -26 995 83 10000 3 20 22:21 20.01.2020
4270 Fog -26 995 83 10000 2 10 21:58 20.01.2020
4271 Fog -25 995 75 10000 2 40 21:38 20.01.2020
4272 Fog -25 995 75 10000 2 40 21:20 20.01.2020
4273 Fog -25 995 75 10000 2 350 20:59 20.01.2020
4274 Fog -25 995 75 10000 2 350 20:41 20.01.2020
4275 Fog -25 995 75 10000 2 350 20:20 20.01.2020
4276 Clouds -25 994 83 10000 2 30 19:58 20.01.2020
4277 Clouds -25 994 83 10000 2 30 19:40 20.01.2020
4278 Clouds -25 994 83 10000 2 30 19:19 20.01.2020
4279 Clouds -25 994 75 10000 2 10 18:54 20.01.2020
4280 Clouds -25 994 75 10000 2 10 18:36 20.01.2020
4281 Clouds -25 994 75 10000 2 10 18:18 20.01.2020
4282 Clouds -26 994 75 10000 3 10 17:38 20.01.2020
4283 Clouds -26 994 75 10000 3 10 17:19 20.01.2020
4284 Clouds -26 994 83 10000 3 360 16:46 20.01.2020
4285 Clouds -26 994 83 10000 3 360 16:26 20.01.2020
4286 Clouds -26 994 83 10000 2 350 15:59 20.01.2020
4287 Clouds -26 994 83 10000 2 350 15:40 20.01.2020
4288 Clouds -26 994 83 10000 2 350 15:22 20.01.2020
4289 Clouds -25 994 75 10000 3 340 14:56 20.01.2020
4290 Clouds -25 994 75 10000 3 340 14:37 20.01.2020
4291 Clouds -25 994 75 10000 3 340 14:37 20.01.2020
4292 Clouds -25 994 75 10000 3 340 14:19 20.01.2020
4293 Clouds -26 994 75 10000 2 340 13:42 20.01.2020
4294 Clouds -26 994 75 10000 2 340 13:24 20.01.2020
4295 Clouds -26 994 83 10000 1 20 12:58 20.01.2020
4296 Clouds -26 994 83 10000 1 20 12:40 20.01.2020
4297 Clouds -26 994 83 10000 1 20 12:21 20.01.2020
4298 Clouds -23 994 76 10000 4 330 11:43 20.01.2020
4299 Clouds -23 994 76 10000 4 330 11:24 20.01.2020
4300 Clouds -24 994 83 10000 2 320 10:58 20.01.2020
4301 Clouds -24 994 83 10000 2 320 10:40 20.01.2020
4302 Clouds -24 994 83 10000 2 320 10:20 20.01.2020
4303 Clouds -23 994 83 10000 1 40 09:41 20.01.2020
4304 Clouds -24 994 83 10000 1 40 09:22 20.01.2020
4305 Clouds -25 994 75 10000 3 20 08:54 20.01.2020
4306 Clouds -24 994 76 10000 1 40 08:31 20.01.2020
4307 Clouds -26 994 83 10000 2 20 07:55 20.01.2020
4308 Clouds -25 994 75 10000 2 10 07:36 20.01.2020
4309 Clouds -25 994 75 10000 2 10 07:18 20.01.2020
4310 Clouds -25 994 75 10000 3 40 06:35 20.01.2020
4311 Fog -27 994 75 10000 3 20 05:56 20.01.2020
4312 Clouds -27 994 82 10000 2 40 05:37 20.01.2020
4313 Clear -27 994 82 10000 2 40 05:18 20.01.2020
4314 Fog -27 994 82 10000 1 320 03:46 20.01.2020
4315 Fog -27 994 75 900 1 270 01:58 20.01.2020
4316 Mist -27 994 75 3500 3 320 01:38 20.01.2020
4317 Clouds -26 993 83 10000 4 360 00:46 20.01.2020
4318 Clouds -26 993 75 10000 3 10 00:27 20.01.2020
4319 Clouds -26 994 83 10000 2 40 23:55 19.01.2020
4320 Clouds -27 993 75 10000 5 350 23:36 19.01.2020
4321 Clouds -27 993 75 10000 5 350 23:18 19.01.2020
4322 Clouds -27 994 82 10000 3 330 22:54 19.01.2020
4323 Clouds -26 993 83 10000 3 10 22:36 19.01.2020
4324 Clouds -25 993 83 10000 3 10 22:18 19.01.2020
4325 Clouds -26 994 75 10000 2 40 21:55 19.01.2020
4326 Clouds -26 994 75 10000 2 40 21:55 19.01.2020
4327 Clouds -26 994 75 10000 2 40 21:55 19.01.2020
4328 Clouds -26 994 82 10000 2 30 21:37 19.01.2020
4329 Clouds -27 994 82 10000 2 30 21:19 19.01.2020
4330 Clouds -25 993 75 10000 2 290 20:55 19.01.2020
4331 Clouds -25 993 75 10000 2 290 20:55 19.01.2020
4332 Clouds -25 993 75 10000 2 290 20:37 19.01.2020
4333 Clouds -25 993 75 10000 2 290 20:18 19.01.2020
4334 Clouds -24 993 76 10000 2 20 19:54 19.01.2020
4335 Clouds -24 993 76 10000 2 20 19:36 19.01.2020
4336 Clouds -24 993 76 10000 2 20 19:18 19.01.2020
4337 Clouds -22 994 83 10000 2 360 18:54 19.01.2020
4338 Clouds -22 994 83 10000 2 360 18:36 19.01.2020
4339 Clouds -22 994 83 10000 2 360 18:18 19.01.2020
4340 Clouds -25 994 83 10000 1 40 17:56 19.01.2020
4341 Clouds -25 994 83 10000 1 40 17:38 19.01.2020
4342 Clear -25 994 83 10000 1 40 17:18 19.01.2020
4343 Clear -22 995 76 10000 1 230 16:54 19.01.2020
4344 Clear -22 995 76 10000 1 230 16:36 19.01.2020
4345 Clear -22 995 76 10000 1 230 16:18 19.01.2020
4346 Clear -23 995 76 10000 1 360 15:41 19.01.2020
4347 Clear -23 995 76 10000 1 360 15:22 19.01.2020
4348 Clear -23 995 83 10000 2 20 14:59 19.01.2020
4349 Clear -23 995 83 10000 2 20 14:40 19.01.2020
4350 Clouds -23 995 83 10000 2 20 14:20 19.01.2020
4351 Clouds -24 995 83 10000 1 100 13:59 19.01.2020
4352 Clouds -24 995 83 10000 1 100 13:40 19.01.2020
4353 Clouds -24 995 83 10000 1 100 13:21 19.01.2020
4354 Clouds -21 996 76 10000 2 290 12:59 19.01.2020
4355 Clouds -21 996 76 10000 2 290 12:40 19.01.2020
4356 Clouds -21 996 76 10000 2 290 12:21 19.01.2020
4357 Clouds -21 996 76 10000 5 20 11:57 19.01.2020
4358 Clouds -21 996 76 10000 5 20 11:37 19.01.2020
4359 Clouds -21 996 76 10000 5 20 11:18 19.01.2020
4360 Clouds -21 996 83 10000 1 30 10:40 19.01.2020
4361 Clouds -21 996 83 10000 1 30 10:20 19.01.2020
4362 Clouds -20 997 76 10000 4 340 09:57 19.01.2020
4363 Clouds -20 997 76 10000 4 340 09:38 19.01.2020
4364 Clouds -20 997 76 10000 4 340 09:20 19.01.2020
4365 Clouds -18 997 77 10000 3 350 08:55 19.01.2020
4366 Clouds -18 997 77 10000 3 350 08:33 19.01.2020
4367 Clouds -17 997 77 10000 5 10 07:55 19.01.2020
4368 Clouds -17 997 77 10000 5 10 07:29 19.01.2020
4369 Clouds -15 997 77 10000 7 10 06:55 19.01.2020
4370 Clouds -15 997 77 10000 7 10 06:22 19.01.2020
4371 Snow -11 997 78 10000 5 30 03:58 19.01.2020
4372 Clouds -13 998 78 10000 2 80 02:34 19.01.2020
4373 Clouds -13 999 84 10000 1 270 01:42 19.01.2020
4374 Clouds -13 999 84 10000 1 270 01:20 19.01.2020
4375 Clouds -12 999 78 10000 1 170 00:44 19.01.2020
4376 Clouds -12 1000 78 10000 4 260 00:21 19.01.2020
4377 Clouds -12 1000 78 10000 4 260 23:54 18.01.2020
4378 Clouds -12 1000 78 10000 2 210 23:36 18.01.2020
4379 Clouds -11 1000 78 10000 2 210 23:18 18.01.2020
4380 Clouds -10 1000 72 10000 4 90 22:41 18.01.2020
4381 Clouds -9 1000 72 10000 4 90 22:23 18.01.2020
4382 Clouds -8 1001 67 10000 2 60 21:58 18.01.2020
4383 Snow -9 1001 78 10000 1 280 21:39 18.01.2020
4384 Snow -9 1001 78 10000 1 280 21:20 18.01.2020
4385 Clouds -8 1001 78 10000 3 60 20:57 18.01.2020
4386 Clouds -8 1001 78 10000 3 60 20:39 18.01.2020
4387 Clouds -8 1001 78 10000 3 60 20:39 18.01.2020
4388 Clouds -8 1001 78 10000 3 60 20:19 18.01.2020
4389 Clouds -8 1001 72 10000 7 30 19:43 18.01.2020
4390 Clouds -8 1001 72 10000 7 30 19:24 18.01.2020
4391 Clouds -6 1002 67 10000 2 120 18:43 18.01.2020
4392 Clouds -6 1002 67 10000 2 120 18:25 18.01.2020
4393 Clouds -6 1002 73 10000 3 40 17:59 18.01.2020
4394 Clouds -6 1002 73 10000 3 40 17:40 18.01.2020
4395 Clouds -6 1002 73 10000 3 40 17:20 18.01.2020
4396 Clouds -6 1002 79 10000 6 80 16:57 18.01.2020
4397 Clouds -6 1002 79 10000 6 80 16:38 18.01.2020
4398 Clouds -6 1002 79 10000 6 80 16:38 18.01.2020
4399 Clouds -6 1002 79 10000 6 80 16:19 18.01.2020
4400 Clouds -6 1002 79 10000 8 70 15:44 18.01.2020
4401 Clouds -6 1002 79 10000 8 70 15:26 18.01.2020
4402 Clouds -5 1002 79 10000 9 100 14:59 18.01.2020
4403 Clouds -5 1002 79 10000 9 100 14:40 18.01.2020
4404 Clouds -5 1002 79 10000 9 100 14:19 18.01.2020
4405 Clouds -4 1002 79 9000 11 90 13:56 18.01.2020
4406 Clouds -4 1002 79 9000 11 90 13:36 18.01.2020
4407 Clouds -4 1002 79 9000 11 90 13:18 18.01.2020
4408 Clouds -4 1002 79 9000 11 90 13:18 18.01.2020
4409 Snow -4 1003 79 6000 10 100 12:41 18.01.2020
4410 Snow -4 1003 79 6000 10 100 12:21 18.01.2020
4411 Snow -4 1003 85 900 14 100 11:56 18.01.2020
4412 Snow -4 1003 85 900 14 100 11:38 18.01.2020
4413 Snow -4 1003 85 900 14 100 11:19 18.01.2020
4414 Snow -4 1003 92 750 15 100 10:41 18.01.2020
4415 Snow -4 1003 92 750 15 100 10:20 18.01.2020
4416 Snow -4 1003 92 750 15 100 10:20 18.01.2020
4417 Snow -4 1003 92 1400 14 90 09:54 18.01.2020
4418 Snow -4 1003 92 1400 14 90 09:36 18.01.2020
4419 Snow -5 1003 92 9000 9 100 08:59 18.01.2020
4420 Snow -5 1003 92 9000 9 100 08:41 18.01.2020
4421 Snow -5 1003 92 9000 9 100 08:20 18.01.2020
4422 Snow -4 1003 85 4400 12 100 07:52 18.01.2020
4423 Snow -4 1003 85 4400 12 100 07:32 18.01.2020
4424 Snow -3 1003 86 4300 12 100 06:48 18.01.2020
4425 Snow -3 1003 86 4300 12 100 06:19 18.01.2020
4426 Snow -3 1003 86 4300 12 100 06:19 18.01.2020
4427 Snow -3 1003 86 1700 14 90 05:31 18.01.2020
4428 Snow -3 1003 92 1100 13 90 03:46 18.01.2020
4429 Snow -3 1003 92 1100 12 110 02:20 18.01.2020
4430 Snow -2 1003 92 1200 10 100 01:36 18.01.2020
4431 Snow -3 1003 92 5000 4 20 00:38 18.01.2020
4432 Snow -4 1003 92 5000 4 20 00:19 18.01.2020
4433 Snow -5 1004 92 2100 3 360 23:44 17.01.2020
4434 Snow -5 1004 85 10000 3 10 23:21 17.01.2020
4435 Clouds -2 1004 79 10000 4 30 22:59 17.01.2020
4436 Snow -2 1004 79 10000 5 90 22:40 17.01.2020
4437 Snow -2 1004 79 10000 5 90 22:19 17.01.2020
4438 Snow -2 1004 86 9000 5 100 21:42 17.01.2020
4439 Clouds -2 1004 79 10000 3 100 21:24 17.01.2020
4440 Clouds -3 1003 79 10000 6 110 20:59 17.01.2020
4441 Clouds -3 1003 79 10000 6 110 20:40 17.01.2020
4442 Clouds -3 1003 79 10000 6 110 20:20 17.01.2020
4443 Clouds -3 1003 79 10000 6 110 20:20 17.01.2020
4444 Clouds -4 1003 85 10000 3 80 19:57 17.01.2020
4445 Clouds -4 1003 85 10000 3 80 19:38 17.01.2020
4446 Clouds -4 1003 85 10000 3 80 19:19 17.01.2020
4447 Clouds -4 1003 79 10000 4 110 18:57 17.01.2020
4448 Clouds -4 1003 79 10000 4 110 18:37 17.01.2020
4449 Clouds -4 1003 79 10000 4 110 18:19 17.01.2020
4450 Clouds -3 1002 79 10000 7 100 17:39 17.01.2020
4451 Clouds -3 1002 79 10000 7 100 17:21 17.01.2020
4452 Clouds -3 1002 86 10000 7 110 16:44 17.01.2020
4453 Clouds -3 1002 86 10000 7 110 16:21 17.01.2020
4454 Clouds -2 1002 79 10000 8 110 15:58 17.01.2020
4455 Clouds -2 1002 79 10000 8 110 15:58 17.01.2020
4456 Clouds -2 1002 79 10000 8 110 15:40 17.01.2020
4457 Clouds -2 1002 79 10000 8 110 15:21 17.01.2020
4458 Clouds -3 1001 86 10000 9 110 14:43 17.01.2020
4459 Clouds -3 1001 86 10000 9 110 14:24 17.01.2020
4460 Clouds -3 1001 79 10000 9 110 13:45 17.01.2020
4461 Clouds -3 1001 79 10000 9 110 13:23 17.01.2020
4462 Clouds -2 1000 74 10000 7 120 12:48 17.01.2020
4463 Clouds -2 1000 74 10000 7 120 12:23 17.01.2020
4464 Clouds -3 999 73 10000 7 120 11:56 17.01.2020
4465 Clouds -3 999 73 10000 7 120 11:37 17.01.2020
4466 Clouds -3 999 73 10000 7 120 11:18 17.01.2020
4467 Clear -3 999 73 10000 8 130 10:41 17.01.2020
4468 Clear -3 999 73 10000 8 130 10:22 17.01.2020
4469 Clear -3 999 68 10000 7 140 09:56 17.01.2020
4470 Clear -3 999 68 10000 7 140 09:37 17.01.2020
4471 Clear -3 999 68 10000 7 140 09:18 17.01.2020
4472 Clear -4 998 73 10000 6 140 08:42 17.01.2020
4473 Clouds -4 998 73 10000 6 140 08:23 17.01.2020
4474 Clouds -4 996 79 10000 5 140 07:51 17.01.2020
4475 Clouds -4 996 79 10000 5 140 07:31 17.01.2020
4476 Clouds -4 996 79 10000 5 140 06:56 17.01.2020
4477 Clouds -4 996 73 10000 5 150 06:37 17.01.2020
4478 Clouds -5 994 79 10000 4 160 05:27 17.01.2020
4479 Clouds -4 991 85 0 5.2 186 03:38 17.01.2020
4480 Clouds -9 993 84 0 5.2 186 02:44 17.01.2020
4481 Snow -3 989 86 0 6.71 180 01:46 17.01.2020
4482 Snow -2 988 92 0 6.71 160 01:27 17.01.2020
4483 Snow -1 987 86 0 7.6 160 00:43 17.01.2020
4484 Snow -1 986 100 1500 14 140 00:20 17.01.2020
4485 Snow -1 986 100 1500 14 140 23:42 16.01.2020
4486 Snow -1 986 100 1500 14 140 23:24 16.01.2020
4487 Snow -1 986 100 1000 16 130 22:43 16.01.2020
4488 Snow -1 986 100 650 16 130 22:22 16.01.2020
4489 Snow -1 986 92 1000 17 130 21:57 16.01.2020
4490 Snow -1 986 92 1000 17 130 21:57 16.01.2020
4491 Snow -1 986 92 800 17 120 21:39 16.01.2020
4492 Snow -1 986 92 800 17 120 21:19 16.01.2020
4493 Snow -1 987 92 800 17 130 20:59 16.01.2020
4494 Snow -1 987 92 800 17 130 20:39 16.01.2020
4495 Snow -1 987 92 800 17 130 20:20 16.01.2020
4496 Snow -1 988 92 900 17 130 19:57 16.01.2020
4497 Snow -1 988 92 900 17 130 19:39 16.01.2020
4498 Snow -1 988 92 900 17 130 19:20 16.01.2020
4499 Snow -1 988 92 600 17 130 18:56 16.01.2020
4500 Snow -1 988 92 600 17 130 18:37 16.01.2020
4501 Snow -1 988 92 600 17 130 18:18 16.01.2020
4502 Snow -1 988 92 600 17 130 18:18 16.01.2020
4503 Snow -1 988 92 600 17 130 18:18 16.01.2020
4504 Snow -1 988 92 700 17 130 17:55 16.01.2020
4505 Snow -1 988 92 700 17 130 17:37 16.01.2020
4506 Snow -1 988 92 700 17 130 17:18 16.01.2020
4507 Snow -1 989 92 550 18 130 16:40 16.01.2020
4508 Snow -1 989 92 550 18 130 16:21 16.01.2020
4509 Snow -1 990 92 450 18 130 15:55 16.01.2020
4510 Snow -1 990 92 450 18 130 15:37 16.01.2020
4511 Snow -1 990 92 450 18 130 15:18 16.01.2020
4512 Snow -1 990 92 450 19 130 14:41 16.01.2020
4513 Snow -1 990 92 450 19 130 14:23 16.01.2020
4514 Snow -1 991 92 550 17 130 13:46 16.01.2020
4515 Snow -1 991 92 550 17 130 13:28 16.01.2020
4516 Snow -1 992 92 450 17 130 12:57 16.01.2020
4517 Snow -1 992 92 450 17 130 12:38 16.01.2020
4518 Snow -1 992 92 450 17 130 12:20 16.01.2020
4519 Snow -1 993 92 650 18 130 11:41 16.01.2020
4520 Snow -1 993 92 650 18 130 11:23 16.01.2020
4521 Snow -1 994 100 550 17 130 10:55 16.01.2020
4522 Snow -1 994 100 550 17 130 10:55 16.01.2020
4523 Snow -1 994 100 550 17 130 10:37 16.01.2020
4524 Snow -1 994 100 550 17 130 10:19 16.01.2020
4525 Snow -1 994 100 750 16 130 09:43 16.01.2020
4526 Snow -1 994 100 750 16 130 09:24 16.01.2020
4527 Snow -1 995 100 650 16 130 08:58 16.01.2020
4528 Snow -1 995 100 650 16 130 08:40 16.01.2020
4529 Snow -1 995 100 650 16 130 08:19 16.01.2020
4530 Snow 0 996 96 800 15 130 07:42 16.01.2020
4531 Snow 0 996 96 800 15 130 07:23 16.01.2020
4532 Snow 0 996 96 900 15 130 06:52 16.01.2020
4533 Snow 0 997 96 900 15 130 06:34 16.01.2020
4534 Snow 0 997 96 1000 13 130 05:49 16.01.2020
4535 Snow 0 997 90 1100 13 140 04:50 16.01.2020
4536 Snow 0 998 90 1300 11 130 03:57 16.01.2020
4537 Clouds 0 999 90 7000 10 130 02:47 16.01.2020
4538 Snow 0 1000 95 5000 11 130 01:34 16.01.2020
4539 Clouds 0 1000 97 6000 12 130 00:43 16.01.2020
4540 Clouds 0 1000 97 5000 11 130 00:23 16.01.2020
4541 Snow 0 1000 97 4300 11 130 23:45 15.01.2020
4542 Snow 0 1000 93 1900 12 130 23:22 15.01.2020
4543 Snow 0 1000 93 2300 12 130 22:56 15.01.2020
4544 Snow 0 1000 93 3000 12 130 22:38 15.01.2020
4545 Snow 0 1000 93 3000 12 130 22:18 15.01.2020
4546 Snow 0 1000 93 2300 13 130 21:56 15.01.2020
4547 Snow 0 999 93 1800 19 140 21:37 15.01.2020
4548 Snow 0 999 93 1800 19 140 21:37 15.01.2020
4549 Snow 0 999 93 1800 19 140 21:18 15.01.2020
4550 Snow 0 999 93 1500 19 140 20:55 15.01.2020
4551 Snow 0 999 93 1500 19 140 20:37 15.01.2020
4552 Snow 0 999 93 1500 19 140 20:18 15.01.2020
4553 Snow 0 999 93 1300 19 140 19:54 15.01.2020
4554 Snow 0 999 93 1300 19 140 19:36 15.01.2020
4555 Snow 0 999 93 1300 19 140 19:18 15.01.2020
4556 Snow 0 999 93 1300 19 140 19:18 15.01.2020
4557 Snow 0 1000 93 1700 20 140 18:55 15.01.2020
4558 Snow 0 1000 93 1700 20 140 18:37 15.01.2020
4559 Snow 0 1000 93 1700 20 140 18:19 15.01.2020
4560 Snow 0 999 93 650 23 140 17:41 15.01.2020
4561 Snow 0 999 93 650 23 140 17:22 15.01.2020
4562 Clouds 0 1000 91 600 22 130 16:59 15.01.2020
4563 Clouds 0 1000 91 600 22 130 16:39 15.01.2020
4564 Clouds 0 1000 91 600 22 130 16:21 15.01.2020
4565 Snow 0 1001 91 350 23 130 15:43 15.01.2020
4566 Snow 0 1001 91 350 23 130 15:21 15.01.2020
4567 Snow 0 1001 91 350 23 130 15:21 15.01.2020
4568 Snow 0 1002 91 250 23 130 14:58 15.01.2020
4569 Snow 0 1002 91 250 23 130 14:39 15.01.2020
4570 Snow 0 1002 95 250 23 130 14:18 15.01.2020
4571 Snow -1 1003 92 200 23 130 13:45 15.01.2020
4572 Snow -1 1003 92 200 23 130 13:26 15.01.2020
4573 Snow -1 1004 92 200 24 120 12:58 15.01.2020
4574 Snow -1 1004 92 200 24 120 12:39 15.01.2020
4575 Snow -1 1004 92 200 24 120 12:19 15.01.2020
4576 Snow -2 1006 92 250 22 120 11:56 15.01.2020
4577 Snow -2 1006 92 250 22 120 11:36 15.01.2020
4578 Snow -2 1006 92 250 22 120 11:18 15.01.2020
4579 Snow -2 1006 100 150 23 120 10:41 15.01.2020
4580 Snow -2 1006 100 150 23 120 10:23 15.01.2020
4581 Snow -2 1008 92 250 21 110 09:42 15.01.2020
4582 Snow -2 1008 92 250 21 110 09:22 15.01.2020
4583 Snow -2 1010 92 250 22 110 08:55 15.01.2020
4584 Snow -2 1010 92 250 22 110 08:37 15.01.2020
4585 Snow -2 1010 92 250 22 110 08:19 15.01.2020
4586 Snow -1 1012 86 450 21 120 07:43 15.01.2020
4587 Snow -1 1012 86 450 21 120 07:24 15.01.2020
4588 Snow -1 1013 86 400 21 120 06:44 15.01.2020
4589 Snow -1 1013 86 400 21 120 06:18 15.01.2020
4590 Clouds -1 1016 92 750 15 110 04:34 15.01.2020
4591 Clouds -2 1020 86 2900 13 110 02:30 15.01.2020
4592 Clouds -2 1022 86 7000 10 110 01:25 15.01.2020
4593 Clouds -3 1022 92 5000 9 110 00:45 15.01.2020
4594 Clouds -2 1023 86 5000 10 110 00:26 15.01.2020
4595 Clouds -2 1023 86 2000 12 120 23:48 14.01.2020
4596 Clouds -2 1022 86 3600 11 120 23:29 14.01.2020
4597 Clouds -3 1023 92 7000 11 110 22:59 14.01.2020
4598 Clouds -3 1024 86 10000 10 120 22:40 14.01.2020
4599 Clouds -2 1024 86 10000 10 120 22:19 14.01.2020
4600 Clouds -1 1024 80 10000 10 120 21:58 14.01.2020
4601 Clouds -2 1024 79 10000 10 130 21:39 14.01.2020
4602 Clouds -2 1024 79 10000 10 130 21:20 14.01.2020
4603 Clouds -3 1024 86 10000 10 120 20:57 14.01.2020
4604 Clouds -3 1024 86 0 8.94 120 20:39 14.01.2020
4605 Clouds -3 1024 79 10000 11 120 20:19 14.01.2020
4606 Clouds -2 1024 79 10000 11 120 19:55 14.01.2020
4607 Clouds -2 1024 79 10000 11 120 19:37 14.01.2020
4608 Clouds -2 1024 79 10000 11 120 19:18 14.01.2020
4609 Clouds -1 1025 74 0 7.6 120 18:41 14.01.2020
4610 Clouds -2 1026 74 10000 10 140 18:20 14.01.2020
4611 Clouds -2 1026 74 10000 10 140 17:59 14.01.2020
4612 Clouds -2 1026 74 10000 10 140 17:37 14.01.2020
4613 Clouds -2 1026 74 10000 10 140 17:18 14.01.2020
4614 Clouds -3 1026 73 10000 10 100 16:55 14.01.2020
4615 Clouds -3 1026 73 10000 10 100 16:37 14.01.2020
4616 Clouds -3 1026 73 10000 10 100 16:18 14.01.2020
4617 Clouds -2 1026 68 10000 6 140 15:42 14.01.2020
4618 Clouds -2 1026 68 10000 6 140 15:19 14.01.2020
4619 Clouds -2 1026 63 10000 7 140 14:47 14.01.2020
4620 Clouds -2 1026 63 10000 7 140 14:23 14.01.2020
4621 Clouds -3 1027 68 10000 6 170 13:59 14.01.2020
4622 Clouds -3 1027 68 10000 6 170 13:40 14.01.2020
4623 Clouds -3 1027 68 10000 6 170 13:19 14.01.2020
4624 Clouds -3 1027 68 10000 6 170 13:19 14.01.2020
4625 Clouds -5 1026 67 10000 4 170 12:42 14.01.2020
4626 Clouds -5 1026 67 10000 4 170 12:23 14.01.2020
4627 Clouds -6 1026 73 10000 2 140 11:57 14.01.2020
4628 Clouds -6 1026 73 10000 2 140 11:38 14.01.2020
4629 Clouds -6 1026 73 10000 2 140 11:20 14.01.2020
4630 Clouds -6 1026 62 10000 4 170 10:55 14.01.2020
4631 Clouds -6 1026 62 10000 4 170 10:36 14.01.2020
4632 Clouds -6 1026 62 10000 4 170 10:18 14.01.2020
4633 Clouds -6 1026 62 10000 4 170 10:18 14.01.2020
4634 Clouds -7 1026 67 10000 3 170 09:42 14.01.2020
4635 Clouds -7 1026 67 10000 3 170 09:21 14.01.2020
4636 Clouds -8 1025 67 10000 5 170 08:57 14.01.2020
4637 Clouds -8 1025 67 10000 5 170 08:39 14.01.2020
4638 Clouds -8 1025 67 10000 5 170 08:20 14.01.2020
4639 Clouds -9 1025 66 10000 3 150 07:38 14.01.2020
4640 Clouds -9 1025 66 10000 4 140 06:59 14.01.2020
4641 Clouds -10 1024 66 10000 3 130 06:40 14.01.2020
4642 Clouds -10 1024 66 10000 3 140 05:35 14.01.2020
4643 Clear -10 1023 66 10000 2 130 04:23 14.01.2020
4644 Clear -11 1023 66 10000 3 150 03:43 14.01.2020
4645 Clear -11 1022 66 10000 3 140 02:26 14.01.2020
4646 Clear -12 1022 66 10000 3 150 01:18 14.01.2020
4647 Clear -13 1021 65 10000 2 130 00:39 14.01.2020
4648 Clear -13 1021 65 10000 2 130 00:21 14.01.2020
4649 Clear -13 1020 71 10000 3 140 23:38 13.01.2020
4650 Clear -15 1020 71 10000 3 140 23:18 13.01.2020
4651 Clouds -16 1020 84 10000 2 130 22:54 13.01.2020
4652 Clear -16 1020 77 10000 2 100 22:36 13.01.2020
4653 Clear -16 1020 77 10000 2 100 22:18 13.01.2020
4654 Clear -17 1019 84 10000 3 100 21:54 13.01.2020
4655 Clear -17 1019 84 10000 3 100 21:54 13.01.2020
4656 Clear -17 1019 84 10000 3 100 21:54 13.01.2020
4657 Clear -17 1019 77 10000 2 60 21:36 13.01.2020
4658 Clear -17 1019 77 10000 2 60 21:18 13.01.2020
4659 Clear -16 1018 77 10000 3 300 20:42 13.01.2020
4660 Clear -16 1018 77 10000 3 300 20:22 13.01.2020
4661 Clear -15 1017 77 10000 3 280 19:59 13.01.2020
4662 Clear -15 1017 77 10000 3 280 19:40 13.01.2020
4663 Clear -15 1017 77 10000 3 280 19:20 13.01.2020
4664 Clear -14 1017 77 10000 5 240 18:58 13.01.2020
4665 Clear -14 1017 77 10000 5 240 18:37 13.01.2020
4666 Clear -14 1017 77 10000 5 240 18:19 13.01.2020
4667 Clear -16 1016 84 10000 3 300 17:55 13.01.2020
4668 Clear -16 1016 84 10000 3 300 17:36 13.01.2020
4669 Clear -16 1016 84 10000 3 300 17:18 13.01.2020
4670 Clear -15 1014 77 0 2.68 270 16:40 13.01.2020
4671 Clear -15 1014 77 0 2.68 270 16:21 13.01.2020
4672 Clear -14 1014 71 0 7.58 242 15:55 13.01.2020
4673 Clear -14 1014 71 0 7.58 242 15:36 13.01.2020
4674 Clear -14 1014 71 0 7.58 242 15:18 13.01.2020
4675 Clear -14 1013 71 0 2.68 250 14:42 13.01.2020
4676 Clear -14 1013 71 0 2.68 250 14:23 13.01.2020
4677 Clouds -15 1012 84 0 8.25 244 13:57 13.01.2020
4678 Clouds -15 1012 84 0 8.25 244 13:38 13.01.2020
4679 Clouds -15 1012 84 0 8.39 245 13:20 13.01.2020
4680 Clouds -14 1011 84 0 7.6 300 12:43 13.01.2020
4681 Snow -14 1011 84 10000 2 290 12:23 13.01.2020
4682 Snow -13 1011 84 10000 2 290 11:59 13.01.2020
4683 Snow -13 1011 84 10000 2 290 11:39 13.01.2020
4684 Snow -13 1011 84 10000 2 290 11:19 13.01.2020
4685 Clouds -13 1009 84 9000 7 270 10:57 13.01.2020
4686 Clouds -13 1009 84 9000 7 270 10:38 13.01.2020
4687 Clouds -13 1009 84 9000 7 270 10:20 13.01.2020
4688 Clouds -13 1008 84 3100 11 280 09:55 13.01.2020
4689 Clouds -13 1008 84 3100 11 280 09:37 13.01.2020
4690 Clouds -13 1008 84 3100 11 280 09:19 13.01.2020
4691 Snow -13 1006 84 1300 14 280 08:39 13.01.2020
4692 Snow -13 1006 84 1300 14 280 08:20 13.01.2020
4693 Snow -12 1005 85 900 14 280 07:46 13.01.2020
4694 Snow -12 1005 85 900 14 280 07:27 13.01.2020
4695 Snow -12 1004 92 1200 15 280 06:39 13.01.2020
4696 Snow -11 1004 92 1200 15 280 06:18 13.01.2020
4697 Snow -11 1002 85 600 16 280 05:20 13.01.2020
4698 Snow -10 999 92 450 17 280 03:47 13.01.2020
4699 Snow -10 998 92 350 16 290 02:51 13.01.2020
4700 Snow -8 997 92 350 16 290 02:31 13.01.2020
4701 Snow -7 996 92 450 15 290 01:47 13.01.2020
4702 Snow -4 994 92 1600 5 330 00:59 13.01.2020
4703 Snow -4 994 92 3100 6 330 00:37 13.01.2020
4704 Snow -4 994 92 3100 6 330 00:19 13.01.2020
4705 Snow -4 992 92 10000 4 350 23:41 12.01.2020
4706 Snow -4 992 92 10000 4 350 23:22 12.01.2020
4707 Snow -4 991 92 10000 4 340 22:57 12.01.2020
4708 Clouds -5 991 100 10000 4 340 22:39 12.01.2020
4709 Clouds -5 991 100 10000 4 340 22:20 12.01.2020
4710 Snow -5 990 92 10000 3 20 21:54 12.01.2020
4711 Snow -5 990 92 10000 3 20 21:54 12.01.2020
4712 Snow -5 990 92 10000 3 20 21:54 12.01.2020
4713 Snow -5 990 92 9000 1 340 21:36 12.01.2020
4714 Snow -5 990 92 9000 1 340 21:36 12.01.2020
4715 Snow -4 990 92 9000 1 340 21:18 12.01.2020
4716 Snow -3 989 92 8000 3 10 20:54 12.01.2020
4717 Snow -3 989 92 8000 3 10 20:36 12.01.2020
4718 Snow -3 989 92 8000 3 10 20:18 12.01.2020
4719 Snow -3 989 92 9000 4 10 19:54 12.01.2020
4720 Snow -3 989 92 9000 4 10 19:54 12.01.2020
4721 Snow -3 989 92 9000 4 10 19:36 12.01.2020
4722 Snow -3 989 92 9000 4 10 19:18 12.01.2020
4723 Snow -2 988 92 9000 4 30 18:54 12.01.2020
4724 Snow -2 988 92 9000 4 30 18:36 12.01.2020
4725 Snow -2 988 92 9000 4 30 18:18 12.01.2020
4726 Snow -1 988 86 10000 6 40 17:42 12.01.2020
4727 Snow -1 988 86 10000 6 40 17:21 12.01.2020
4728 Snow -1 987 86 7000 10 90 16:57 12.01.2020
4729 Snow -1 987 86 7000 10 90 16:38 12.01.2020
4730 Snow -1 987 86 7000 10 90 16:20 12.01.2020
4731 Snow -1 988 92 1900 9 90 15:55 12.01.2020
4732 Snow -1 988 92 1900 9 90 15:36 12.01.2020
4733 Snow -1 988 92 1900 9 90 15:18 12.01.2020
4734 Snow -1 988 92 4600 9 90 14:42 12.01.2020
4735 Snow -1 988 92 4600 9 90 14:22 12.01.2020
4736 Snow -1 988 92 1800 12 90 13:56 12.01.2020
4737 Snow -1 988 92 1800 12 90 13:38 12.01.2020
4738 Snow -1 988 92 1800 12 90 13:20 12.01.2020
4739 Snow -1 988 92 1800 12 90 13:20 12.01.2020
4740 Snow -1 987 92 1100 11 100 12:44 12.01.2020
4741 Snow -1 987 92 1100 11 100 12:21 12.01.2020
4742 Snow -1 987 92 1100 13 100 11:59 12.01.2020
4743 Snow -1 987 92 1100 13 100 11:40 12.01.2020
4744 Snow -1 987 92 1100 13 100 11:21 12.01.2020
4745 Snow -1 987 92 1100 14 110 10:56 12.01.2020
4746 Snow -1 987 92 1100 14 110 10:37 12.01.2020
4747 Snow -1 987 92 1100 14 110 10:18 12.01.2020
4748 Snow -1 988 92 1600 11 100 09:41 12.01.2020
4749 Snow -1 988 92 1600 11 100 09:21 12.01.2020
4750 Clouds -1 988 92 4800 11 100 08:47 12.01.2020
4751 Clouds -1 988 92 4800 11 100 08:21 12.01.2020
4752 Clouds -1 988 92 1800 14 110 07:46 12.01.2020
4753 Clouds -1 988 92 1800 14 110 07:25 12.01.2020
4754 Clouds -1 988 92 1100 16 120 06:50 12.01.2020
4755 Clouds -1 988 92 1100 16 120 06:32 12.01.2020
4756 Clouds -1 988 92 1200 16 130 05:49 12.01.2020
4757 Clouds -1 988 92 3100 14 120 04:53 12.01.2020
4758 Snow -1 988 92 1100 14 100 03:33 12.01.2020
4759 Clouds -2 988 92 3700 14 100 02:43 12.01.2020
4760 Clouds -2 988 92 3700 14 100 02:22 12.01.2020
4761 Clouds -2 989 92 4000 13 110 01:30 12.01.2020
4762 Clouds -3 989 92 1800 15 110 00:45 12.01.2020
4763 Clouds -3 989 92 1800 15 110 00:22 12.01.2020
4764 Clouds -4 989 85 1300 15 110 23:56 11.01.2020
4765 Clouds -4 989 85 1300 15 110 23:37 11.01.2020
4766 Clouds -4 989 85 1300 15 110 23:18 11.01.2020
4767 Clouds -5 988 85 2300 14 110 22:56 11.01.2020
4768 Clouds -5 988 85 2300 14 110 22:37 11.01.2020
4769 Clouds -5 988 85 2300 14 110 22:18 11.01.2020
4770 Clouds -5 988 85 1100 15 100 21:43 11.01.2020
4771 Clouds -5 988 85 1100 15 100 21:19 11.01.2020
4772 Clouds -6 988 85 350 18 100 20:55 11.01.2020
4773 Clouds -6 988 85 350 18 100 20:37 11.01.2020
4774 Clouds -6 988 85 350 18 100 20:18 11.01.2020
4775 Clouds -7 988 92 200 21 90 19:55 11.01.2020
4776 Clouds -7 988 92 200 21 90 19:36 11.01.2020
4777 Clouds -7 988 92 200 21 90 19:18 11.01.2020
4778 Clouds -7 987 85 150 20 90 18:54 11.01.2020
4779 Clouds -7 987 85 150 20 90 18:36 11.01.2020
4780 Clouds -7 987 85 150 20 90 18:18 11.01.2020
4781 Clouds -8 988 92 350 21 100 17:54 11.01.2020
4782 Clouds -8 988 92 350 21 100 17:36 11.01.2020
4783 Clouds -8 988 92 350 21 100 17:18 11.01.2020
4784 Clouds -8 990 85 400 22 100 16:41 11.01.2020
4785 Clouds -8 990 85 400 22 100 16:22 11.01.2020
4786 Clouds -8 990 85 400 22 100 16:22 11.01.2020
4787 Clouds -8 987 85 100 23 100 15:42 11.01.2020
4788 Clouds -8 987 85 100 23 100 15:24 11.01.2020
4789 Clouds -8 989 85 100 25 90 14:58 11.01.2020
4790 Clouds -8 989 85 100 25 90 14:40 11.01.2020
4791 Clouds -8 989 85 100 25 90 14:22 11.01.2020
4792 Clouds -8 989 85 100 26 90 13:55 11.01.2020
4793 Clouds -8 989 85 100 26 90 13:37 11.01.2020
4794 Clouds -8 989 85 100 26 90 13:18 11.01.2020
4795 Clouds -8 989 85 50 25 90 12:42 11.01.2020
4796 Clouds -8 989 85 50 25 90 12:24 11.01.2020
4797 Snow -6 989 85 150 23 90 11:54 11.01.2020
4798 Snow -6 989 85 150 23 90 11:36 11.01.2020
4799 Snow -6 989 85 150 23 90 11:18 11.01.2020
4800 Snow -6 989 85 150 23 90 11:18 11.01.2020
4801 Snow -5 990 85 800 17 80 10:42 11.01.2020
4802 Snow -5 990 85 800 17 80 10:42 11.01.2020
4803 Snow -5 990 85 800 17 80 10:23 11.01.2020
4804 Snow -6 991 85 650 17 90 09:39 11.01.2020
4805 Snow -6 991 85 650 17 90 09:21 11.01.2020
4806 Snow -6 991 85 650 17 90 09:21 11.01.2020
4807 Snow -7 992 85 400 18 90 08:43 11.01.2020
4808 Snow -7 992 85 400 18 90 08:23 11.01.2020
4809 Snow -7 993 79 650 16 90 07:45 11.01.2020
4810 Snow -7 993 79 650 16 90 07:26 11.01.2020
4811 Snow -8 994 85 800 16 90 06:55 11.01.2020
4812 Snow -8 994 85 800 16 90 06:22 11.01.2020
4813 Snow -8 995 85 150 21 100 04:48 11.01.2020
4814 Snow -8 995 85 150 21 100 04:30 11.01.2020
4815 Snow -9 995 85 150 22 100 03:49 11.01.2020
4816 Snow -9 996 85 250 20 90 02:41 11.01.2020
4817 Snow -9 997 85 300 19 90 01:44 11.01.2020
4818 Snow -9 997 85 300 19 90 01:20 11.01.2020
4819 Snow -9 998 85 400 19 90 00:46 11.01.2020
4820 Snow -9 998 85 400 19 90 00:20 11.01.2020
4821 Snow -10 999 85 750 19 80 23:41 10.01.2020
4822 Snow -10 999 85 750 19 80 23:22 10.01.2020
4823 Snow -10 1000 85 600 19 90 22:59 10.01.2020
4824 Snow -10 1000 85 600 19 90 22:40 10.01.2020
4825 Snow -10 1000 85 600 19 90 22:21 10.01.2020
4826 Snow -9 1000 78 400 22 90 21:58 10.01.2020
4827 Snow -9 1000 78 400 22 90 21:39 10.01.2020
4828 Snow -9 1000 78 400 22 90 21:19 10.01.2020
4829 Snow -10 1000 85 300 23 90 20:55 10.01.2020
4830 Snow -10 1000 85 300 23 90 20:37 10.01.2020
4831 Snow -10 1000 85 300 23 90 20:18 10.01.2020
4832 Snow -10 1001 85 300 21 90 19:39 10.01.2020
4833 Snow -10 1001 85 300 21 90 19:20 10.01.2020
4834 Clouds -10 1000 85 150 23 90 18:54 10.01.2020
4835 Clouds -10 1000 85 150 23 90 18:36 10.01.2020
4836 Clouds -10 1000 85 150 23 90 18:18 10.01.2020
4837 Clouds -11 1001 85 150 22 90 17:55 10.01.2020
4838 Clouds -11 1001 85 150 22 90 17:37 10.01.2020
4839 Clouds -11 1001 85 150 22 90 17:18 10.01.2020
4840 Clouds -11 1002 85 200 16 90 16:41 10.01.2020
4841 Clouds -11 1002 85 200 16 90 16:21 10.01.2020
4842 Snow -11 1004 85 2500 8 30 15:56 10.01.2020
4843 Snow -11 1004 85 2500 8 30 15:37 10.01.2020
4844 Snow -11 1004 85 2500 8 30 15:19 10.01.2020
4845 Snow -11 1005 85 4500 11 30 14:56 10.01.2020
4846 Snow -11 1005 85 4500 11 30 14:38 10.01.2020
4847 Snow -11 1005 85 4500 11 30 14:19 10.01.2020
4848 Snow -10 1006 78 9000 12 50 13:45 10.01.2020
4849 Snow -10 1006 78 9000 12 50 13:27 10.01.2020
4850 Snow -10 1007 78 8000 13 70 12:59 10.01.2020
4851 Snow -10 1007 78 8000 13 70 12:40 10.01.2020
4852 Snow -10 1007 78 8000 13 70 12:21 10.01.2020
4853 Snow -11 1006 78 1000 19 90 11:57 10.01.2020
4854 Snow -11 1006 78 1000 19 90 11:39 10.01.2020
4855 Snow -11 1006 78 1000 19 90 11:19 10.01.2020
4856 Snow -11 1006 78 650 19 90 10:58 10.01.2020
4857 Snow -11 1006 78 650 19 90 10:38 10.01.2020
4858 Snow -11 1006 78 650 19 90 10:18 10.01.2020
4859 Snow -11 1006 72 1200 11 90 09:45 10.01.2020
4860 Snow -11 1006 72 1200 11 90 09:26 10.01.2020
4861 Snow -11 1008 72 9000 10 40 08:56 10.01.2020
4862 Snow -11 1008 72 9000 10 40 08:37 10.01.2020
4863 Snow -11 1008 72 9000 10 40 08:37 10.01.2020
4864 Snow -11 1008 72 9000 10 40 08:18 10.01.2020
4865 Clouds -11 1008 66 10000 10 70 07:41 10.01.2020
4866 Clouds -11 1008 66 10000 10 70 07:19 10.01.2020
4867 Clouds -11 1010 61 10000 5 20 06:37 10.01.2020
4868 Clouds -11 1010 61 10000 5 20 06:19 10.01.2020
4869 Clouds -12 1010 72 10000 6 50 05:19 10.01.2020
4870 Clouds -12 1009 72 10000 3 180 03:31 10.01.2020
4871 Clouds -12 1009 72 10000 3 180 03:31 10.01.2020
4872 Clouds -12 1009 66 5000 13 90 02:52 10.01.2020
4873 Clouds -12 1009 60 6000 14 90 02:19 10.01.2020
4874 Clouds -11 1011 51 10000 7 50 01:30 10.01.2020
4875 Clouds -13 1011 60 10000 4 50 00:49 10.01.2020
4876 Clouds -14 1011 65 10000 6 30 00:31 10.01.2020
4877 Clouds -15 1012 71 10000 8 20 23:55 09.01.2020
4878 Clouds -15 1012 65 10000 8 20 23:36 09.01.2020
4879 Clouds -14 1012 65 10000 8 20 23:18 09.01.2020
4880 Clouds -14 1012 65 10000 9 30 22:54 09.01.2020
4881 Clouds -14 1012 65 10000 10 20 22:36 09.01.2020
4882 Clouds -14 1012 65 10000 10 20 22:18 09.01.2020
4883 Clouds -12 1012 60 10000 7 30 21:54 09.01.2020
4884 Clouds -12 1012 60 10000 8 20 21:36 09.01.2020
4885 Clouds -12 1012 60 10000 8 20 21:18 09.01.2020
4886 Clouds -12 1012 60 10000 8 20 21:18 09.01.2020
4887 Clouds -12 1012 60 10000 6 20 20:54 09.01.2020
4888 Clouds -12 1012 60 10000 6 20 20:36 09.01.2020
4889 Clouds -12 1012 60 10000 6 20 20:18 09.01.2020
4890 Clouds -12 1012 51 10000 3 40 19:39 09.01.2020
4891 Clouds -12 1012 51 10000 3 40 19:20 09.01.2020
4892 Clouds -12 1012 51 10000 6 50 18:56 09.01.2020
4893 Clouds -12 1012 51 10000 6 50 18:38 09.01.2020
4894 Clouds -12 1012 51 10000 6 50 18:20 09.01.2020
4895 Clouds -12 1013 51 10000 6 50 17:41 09.01.2020
4896 Clouds -12 1013 51 10000 6 50 17:19 09.01.2020
4897 Clouds -12 1014 51 10000 5 50 16:56 09.01.2020
4898 Clouds -12 1014 51 10000 5 50 16:38 09.01.2020
4899 Clouds -12 1014 51 10000 5 50 16:20 09.01.2020
4900 Clouds -13 1014 55 10000 7 60 15:43 09.01.2020
4901 Clouds -13 1014 55 10000 7 60 15:22 09.01.2020
4902 Clouds -14 1015 65 10000 10 80 14:57 09.01.2020
4903 Clouds -14 1015 65 10000 10 80 14:38 09.01.2020
4904 Clouds -14 1015 65 10000 10 80 14:18 09.01.2020
4905 Clouds -13 1015 60 10000 12 80 13:55 09.01.2020
4906 Clouds -13 1015 60 10000 12 80 13:37 09.01.2020
4907 Clouds -13 1015 60 10000 12 80 13:18 09.01.2020
4908 Clouds -14 1016 65 10000 7 70 12:42 09.01.2020
4909 Clouds -14 1016 65 10000 7 70 12:24 09.01.2020
4910 Clouds -13 1017 65 10000 2 330 11:59 09.01.2020
4911 Clouds -13 1017 65 10000 2 330 11:41 09.01.2020
4912 Clouds -13 1017 65 10000 2 330 11:23 09.01.2020
4913 Clouds -13 1017 65 10000 3 10 10:56 09.01.2020
4914 Clouds -13 1017 65 10000 3 10 10:37 09.01.2020
4915 Clouds -13 1017 65 10000 3 10 10:19 09.01.2020
4916 Clouds -14 1017 77 10000 3 70 09:41 09.01.2020
4917 Clouds -14 1017 77 10000 3 70 09:41 09.01.2020
4918 Clouds -14 1017 77 10000 3 70 09:23 09.01.2020
4919 Clouds -14 1018 77 10000 3 360 08:56 09.01.2020
4920 Clouds -14 1018 77 10000 3 360 08:38 09.01.2020
4921 Clouds -14 1018 77 10000 3 360 08:19 09.01.2020
4922 Clouds -14 1018 77 10000 5 60 07:45 09.01.2020
4923 Clouds -14 1018 77 10000 5 60 07:27 09.01.2020
4924 Clouds -14 1019 77 10000 8 70 06:39 09.01.2020
4925 Clouds -14 1019 77 10000 6 80 06:21 09.01.2020
4926 Clouds -14 1019 77 10000 5 50 05:50 09.01.2020
4927 Clouds -14 1019 77 10000 3 40 04:46 09.01.2020
4928 Clouds -13 1020 78 10000 2 110 03:55 09.01.2020
4929 Clouds -14 1020 77 10000 8 80 03:26 09.01.2020
4930 Clouds -13 1020 84 10000 8 90 02:31 09.01.2020
4931 Clouds -13 1020 78 10000 9 80 01:41 09.01.2020
4932 Clouds -13 1021 84 10000 6 100 00:44 09.01.2020
4933 Clouds -13 1021 84 10000 8 90 00:23 09.01.2020
4934 Clouds -13 1021 84 10000 9 90 23:58 08.01.2020
4935 Clouds -13 1021 84 10000 7 100 23:38 08.01.2020
4936 Clouds -13 1021 84 10000 7 100 23:19 08.01.2020
4937 Clouds -13 1020 84 10000 7 90 22:40 08.01.2020
4938 Clouds -13 1020 84 10000 7 90 22:40 08.01.2020
4939 Snow -13 1021 84 6000 9 100 22:21 08.01.2020
4940 Snow -12 1021 85 2100 10 110 21:58 08.01.2020
4941 Snow -12 1021 85 2100 10 110 21:40 08.01.2020
4942 Snow -12 1021 85 2100 10 110 21:20 08.01.2020
4943 Snow -12 1021 85 8000 8 100 20:59 08.01.2020
4944 Snow -12 1021 85 8000 8 100 20:40 08.01.2020
4945 Snow -12 1021 85 8000 8 100 20:20 08.01.2020
4946 Clouds -15 1021 84 10000 1 10 19:57 08.01.2020
4947 Clouds -15 1021 84 10000 1 10 19:38 08.01.2020
4948 Clouds -15 1021 84 10000 1 10 19:19 08.01.2020
4949 Clouds -19 1021 84 10000 3.73 355 18:57 08.01.2020
4950 Clouds -19 1021 84 10000 3.73 355 18:38 08.01.2020
4951 Clouds -19 1021 84 10000 3.73 355 18:18 08.01.2020
4952 Clouds -24 1022 76 10000 1 340 17:56 08.01.2020
4953 Clouds -24 1022 76 10000 1 340 17:37 08.01.2020
4954 Clouds -24 1022 76 10000 1 340 17:18 08.01.2020
4955 Clouds -24 1022 76 10000 1 340 17:18 08.01.2020
4956 Clouds -22 1021 83 10000 1 290 16:55 08.01.2020
4957 Clouds -22 1021 83 10000 1 290 16:37 08.01.2020
4958 Clouds -22 1021 83 10000 1 290 16:18 08.01.2020
4959 Mist -23 1022 83 9000 2 320 15:42 08.01.2020
4960 Mist -23 1022 83 9000 2 320 15:21 08.01.2020
4961 Mist -23 1022 83 10000 1 270 14:57 08.01.2020
4962 Mist -23 1022 83 10000 1 270 14:39 08.01.2020
4963 Mist -23 1022 83 10000 1 270 14:20 08.01.2020
4964 Mist -22 1022 76 4600 2 320 13:40 08.01.2020
4965 Mist -22 1022 76 4600 2 320 13:19 08.01.2020
4966 Mist -21 1021 83 5000 1 270 12:43 08.01.2020
4967 Mist -21 1021 83 5000 1 270 12:20 08.01.2020
4968 Clouds -19 1022 77 10000 2 300 11:59 08.01.2020
4969 Clouds -19 1022 77 10000 2 300 11:40 08.01.2020
4970 Clouds -19 1022 77 10000 2 300 11:19 08.01.2020
4971 Clouds -19 1022 77 10000 2 300 11:19 08.01.2020
4972 Snow -16 1021 77 10000 4 140 10:55 08.01.2020
4973 Snow -16 1021 77 10000 4 140 10:37 08.01.2020
4974 Snow -16 1021 77 10000 4 140 10:37 08.01.2020
4975 Snow -16 1021 77 10000 4 140 10:37 08.01.2020
4976 Snow -16 1021 77 10000 4 140 10:18 08.01.2020
4977 Mist -18 1021 84 4600 1 220 09:41 08.01.2020
4978 Mist -18 1021 84 4600 1 220 09:19 08.01.2020
4979 Clouds -22 1021 83 10000 2 300 08:57 08.01.2020
4980 Clouds -22 1021 83 10000 2 300 08:37 08.01.2020
4981 Clouds -22 1021 83 10000 2 300 08:19 08.01.2020
4982 Snow -22 1021 76 10000 1 290 07:48 08.01.2020
4983 Snow -22 1021 76 10000 1 290 07:29 08.01.2020
4984 Snow -23 1020 83 10000 3 320 06:45 08.01.2020
4985 Snow -23 1020 83 10000 3 320 06:22 08.01.2020
4986 Clouds -23 1020 76 10000 3 330 05:41 08.01.2020
4987 Clouds -23 1020 76 10000 4 320 04:56 08.01.2020
4988 Clouds -23 1020 76 10000 4 320 04:24 08.01.2020
4989 Clouds -23 1020 83 10000 5 110 02:45 08.01.2020
4990 Clouds -23 1020 83 10000 5 110 02:22 08.01.2020
4991 Clouds -17 1020 84 10000 2 150 01:48 08.01.2020
4992 Clouds -17 1020 84 10000 2 150 01:19 08.01.2020
4993 Clouds -24 1020 76 10000 2 350 00:28 08.01.2020
4994 Snow -21 1020 83 10000 4 110 23:57 07.01.2020
4995 Snow -21 1020 83 10000 4 110 23:39 07.01.2020
4996 Snow -21 1020 83 10000 4 110 23:20 07.01.2020
4997 Snow -21 1020 83 10000 4 110 23:20 07.01.2020
4998 Snow -24 1020 83 10000 3 10 22:40 07.01.2020
4999 Snow -24 1020 83 10000 3 10 22:20 07.01.2020
5000 Snow -20 1020 76 10000 4 20 21:56 07.01.2020
5001 Snow -20 1020 76 10000 4 20 21:38 07.01.2020
5002 Snow -20 1020 76 10000 4 20 21:20 07.01.2020
5003 Snow -22 1020 76 10000 3 10 20:55 07.01.2020
5004 Snow -22 1020 76 10000 3 10 20:36 07.01.2020
5005 Snow -22 1020 76 10000 3 10 20:36 07.01.2020
5006 Snow -22 1020 76 10000 3 10 20:18 07.01.2020
5007 Snow -27 1020 75 10000 2 350 19:38 07.01.2020
5008 Snow -27 1020 75 10000 2 350 19:19 07.01.2020
5009 Snow -27 1020 82 10000 5 100 18:58 07.01.2020
5010 Snow -27 1020 82 10000 5 100 18:58 07.01.2020
5011 Snow -27 1020 82 10000 5 100 18:40 07.01.2020
5012 Snow -27 1020 82 10000 5 100 18:19 07.01.2020
5013 Snow -25 1020 75 10000 4 120 17:58 07.01.2020
5014 Snow -25 1020 75 10000 4 120 17:39 07.01.2020
5015 Snow -25 1020 75 10000 4 120 17:20 07.01.2020
5016 Snow -30 1021 74 10000 1 290 16:56 07.01.2020
5017 Snow -30 1021 74 10000 1 290 16:37 07.01.2020
5018 Snow -30 1021 74 10000 1 290 16:37 07.01.2020
5019 Snow -30 1021 74 10000 1 290 16:19 07.01.2020
5020 Snow -28 1021 75 10000 3 10 15:57 07.01.2020
5021 Snow -28 1021 75 10000 3 10 15:38 07.01.2020
5022 Snow -28 1021 75 10000 3 10 15:19 07.01.2020
5023 Clouds -30 1021 74 10000 1 80 14:42 07.01.2020
5024 Clouds -30 1021 74 10000 1 80 14:24 07.01.2020
5025 Clear -31 1022 74 10000 3 60 13:57 07.01.2020
5026 Clear -31 1022 74 10000 3 60 13:39 07.01.2020
5027 Clear -31 1022 74 10000 3 60 13:18 07.01.2020
5028 Clear -30 1022 74 10000 1 70 12:41 07.01.2020
5029 Clear -30 1022 74 10000 1 70 12:19 07.01.2020
5030 Clear -30 1022 67 10000 1 70 11:45 07.01.2020
5031 Clear -30 1022 67 10000 1 70 11:23 07.01.2020
5032 Clouds -30 1022 74 10000 2 110 10:59 07.01.2020
5033 Clouds -30 1022 74 10000 2 110 10:41 07.01.2020
5034 Clouds -30 1022 74 10000 2 110 10:23 07.01.2020
5035 Clear -31 1022 74 10000 3 90 09:56 07.01.2020
5036 Clear -31 1022 74 10000 3 90 09:38 07.01.2020
5037 Clear -31 1022 74 10000 3 90 09:19 07.01.2020
5038 Clear -31 1022 74 10000 2 60 08:42 07.01.2020
5039 Clear -31 1022 74 10000 2 60 08:22 07.01.2020
5040 Clear -30 1023 74 10000 3 80 07:54 07.01.2020
5041 Clear -30 1023 74 10000 3 80 07:27 07.01.2020
5042 Clear -30 1023 74 10000 2 20 06:53 07.01.2020
5043 Clear -30 1023 74 10000 2 20 06:32 07.01.2020
5044 Clear -30 1023 74 10000 3 20 05:49 07.01.2020
5045 Clear -32 1024 74 10000 2 10 04:33 07.01.2020
5046 Clear -31 1023 74 10000 2 40 03:26 07.01.2020
5047 Clear -30 1024 67 10000 3 20 02:21 07.01.2020
5048 Clear -30 1024 74 10000 4 10 01:51 07.01.2020
5049 Clear -31 1024 67 10000 2 20 01:26 07.01.2020
5050 Clear -32 1024 67 10000 3 20 00:37 07.01.2020
5051 Clear -32 1024 67 10000 3 20 00:18 07.01.2020
5052 Clear -34 1025 73 10000 3 20 23:39 06.01.2020
5053 Clear -34 1025 73 10000 3 20 23:39 06.01.2020
5054 Clear -33 1025 67 10000 2 350 23:21 06.01.2020
5055 Clear -34 1025 73 10000 2 350 22:58 06.01.2020
5056 Clear -34 1025 73 10000 2 350 22:38 06.01.2020
5057 Clear -34 1025 73 10000 2 350 22:20 06.01.2020
5058 Clear -34 1025 73 10000 2 360 21:56 06.01.2020
5059 Clear -34 1025 73 10000 2 360 21:37 06.01.2020
5060 Clear -34 1025 73 10000 2 360 21:19 06.01.2020
5061 Clear -35 1025 73 10000 2 350 20:56 06.01.2020
5062 Clear -35 1025 73 10000 2 350 20:37 06.01.2020
5063 Clear -35 1025 73 10000 2 350 20:19 06.01.2020
5064 Clear -35 1025 66 10000 2 10 19:55 06.01.2020
5065 Clear -35 1025 66 10000 2 10 19:37 06.01.2020
5066 Clear -35 1025 66 10000 2 10 19:18 06.01.2020
5067 Clear -36 1025 73 10000 4 340 18:44 06.01.2020
5068 Clear -36 1025 73 10000 4 340 18:21 06.01.2020
5069 Clear -35 1025 73 10000 3 340 17:40 06.01.2020
5070 Clear -35 1025 73 10000 3 340 17:20 06.01.2020
5071 Clear -35 1025 73 10000 3 350 16:58 06.01.2020
5072 Clear -35 1025 73 10000 3 350 16:40 06.01.2020
5073 Clear -35 1025 73 10000 3 350 16:22 06.01.2020
5074 Clear -35 1025 66 10000 3 330 15:59 06.01.2020
5075 Clear -35 1025 66 10000 3 330 15:37 06.01.2020
5076 Clear -35 1025 66 10000 3 330 15:18 06.01.2020
5077 Clear -36 1025 73 10000 4 360 14:41 06.01.2020
5078 Clear -36 1025 73 10000 4 360 14:22 06.01.2020
5079 Clear -36 1026 73 10000 4 340 13:59 06.01.2020
5080 Clear -36 1026 73 10000 4 340 13:39 06.01.2020
5081 Clear -36 1026 73 10000 4 340 13:21 06.01.2020
5082 Clear -35 1025 66 10000 3 330 12:55 06.01.2020
5083 Clear -35 1025 66 10000 3 330 12:37 06.01.2020
5084 Clear -35 1025 66 10000 3 330 12:37 06.01.2020
5085 Clear -35 1025 66 10000 3 330 12:18 06.01.2020
5086 Clear -35 1025 73 10000 3 340 11:42 06.01.2020
5087 Clear -35 1025 73 10000 3 340 11:24 06.01.2020
5088 Clear -35 1025 73 10000 4 330 10:59 06.01.2020
5089 Clear -35 1025 73 10000 4 330 10:40 06.01.2020
5090 Clear -35 1025 73 10000 4 330 10:20 06.01.2020
5091 Clear -35 1025 73 10000 2 350 09:39 06.01.2020
5092 Clear -35 1025 73 10000 2 350 09:21 06.01.2020
5093 Clear -35 1025 73 10000 2 10 08:52 06.01.2020
5094 Clear -35 1025 73 10000 2 10 08:34 06.01.2020
5095 Clear -34 1025 73 10000 2 20 07:57 06.01.2020
5096 Clear -34 1025 73 10000 2 20 07:37 06.01.2020
5097 Clear -34 1025 73 10000 3 360 06:49 06.01.2020
5098 Fog -33 1025 67 10000 3 10 06:30 06.01.2020
5099 Fog -35 1025 73 10000 3 350 05:48 06.01.2020
5100 Fog -34 1025 66 10000 3 10 04:55 06.01.2020
5101 Fog -34 1025 66 10000 3 360 04:21 06.01.2020
5102 Fog -34 1025 66 10000 3 20 03:25 06.01.2020
5103 Fog -33 1024 74 10000 4 360 02:25 06.01.2020
5104 Fog -33 1025 74 10000 3 360 01:46 06.01.2020
5105 Fog -33 1025 74 10000 3 360 01:28 06.01.2020
5106 Fog -33 1025 74 10000 4 330 00:44 06.01.2020
5107 Fog -33 1025 74 10000 4 330 00:44 06.01.2020
5108 Fog -33 1025 74 10000 4 330 00:24 06.01.2020
5109 Fog -34 1024 73 10000 5 350 23:43 05.01.2020
5110 Fog -34 1024 73 10000 5 350 23:23 05.01.2020
5111 Clouds -34 1025 66 10000 5 350 22:58 05.01.2020
5112 Clouds -34 1025 66 10000 5 350 22:39 05.01.2020
5113 Clouds -34 1025 66 10000 5 350 22:20 05.01.2020
5114 Clouds -34 1024 73 10000 2 10 21:56 05.01.2020
5115 Clouds -34 1024 73 10000 2 10 21:37 05.01.2020
5116 Clouds -34 1024 73 10000 2 10 21:37 05.01.2020
5117 Clouds -34 1024 73 10000 2 10 21:19 05.01.2020
5118 Clear -34 1024 66 10000 4 330 20:56 05.01.2020
5119 Clear -34 1024 66 10000 4 330 20:37 05.01.2020
5120 Clear -34 1024 66 10000 4 330 20:19 05.01.2020
5121 Clear -34 1024 66 10000 5 340 19:56 05.01.2020
5122 Clear -34 1024 66 10000 5 340 19:37 05.01.2020
5123 Clear -34 1024 66 10000 5 340 19:19 05.01.2020
5124 Clear -34 1024 66 10000 5 340 18:55 05.01.2020
5125 Clear -34 1024 66 10000 5 340 18:36 05.01.2020
5126 Clear -34 1024 66 10000 5 340 18:18 05.01.2020
5127 Clear -35 1025 73 10000 5 340 17:57 05.01.2020
5128 Clear -35 1025 73 10000 5 340 17:37 05.01.2020
5129 Clear -35 1025 73 10000 5 340 17:18 05.01.2020
5130 Clear -34 1024 66 10000 3 340 16:55 05.01.2020
5131 Clear -34 1024 66 10000 3 340 16:36 05.01.2020
5132 Clear -34 1024 66 10000 3 340 16:18 05.01.2020
5133 Clear -35 1024 66 10000 4 350 15:37 05.01.2020
5134 Clear -35 1024 66 10000 4 350 15:36 05.01.2020
5135 Clear -35 1024 66 10000 4 350 15:36 05.01.2020
5136 Clear -35 1024 66 10000 4 350 15:18 05.01.2020
5137 Clear -35 1024 73 10000 6 340 14:54 05.01.2020
5138 Clear -35 1024 73 10000 6 340 14:36 05.01.2020
5139 Clear -35 1024 73 10000 6 340 14:18 05.01.2020
5140 Clear -34 1024 73 10000 6 340 13:40 05.01.2020
5141 Clear -34 1024 73 10000 6 340 13:21 05.01.2020
5142 Clear -35 1024 73 10000 4 350 12:58 05.01.2020
5143 Clear -35 1024 73 10000 4 350 12:39 05.01.2020
5144 Clear -35 1024 73 10000 4 350 12:21 05.01.2020
5145 Clear -36 1024 66 10000 5 350 11:55 05.01.2020
5146 Clear -36 1024 66 10000 5 350 11:37 05.01.2020
5147 Clear -36 1024 66 10000 5 350 11:19 05.01.2020
5148 Clear -36 1024 73 10000 5 320 10:56 05.01.2020
5149 Clear -36 1024 73 10000 5 320 10:36 05.01.2020
5150 Clear -36 1024 73 10000 5 320 10:36 05.01.2020
5151 Clear -36 1024 73 10000 5 320 10:18 05.01.2020
5152 Clear -36 1024 66 10000 5 330 09:41 05.01.2020
5153 Clear -36 1024 66 10000 5 330 09:21 05.01.2020
5154 Clear -36 1024 73 10000 5 350 08:46 05.01.2020
5155 Clear -36 1024 73 10000 5 350 08:27 05.01.2020
5156 Clear -35 1024 73 10000 6 330 07:55 05.01.2020
5157 Clear -35 1024 73 10000 6 330 07:35 05.01.2020
5158 Clear -35 1025 66 10000 5 340 06:59 05.01.2020
5159 Fog -35 1025 66 10000 6 350 05:58 05.01.2020
5160 Fog -35 1025 66 10000 6 350 05:30 05.01.2020
5161 Fog -35 1025 66 10000 6 350 05:30 05.01.2020
5162 Fog -34 1024 66 10000 3 350 04:34 05.01.2020
5163 Clear -35 1024 73 10000 2 320 03:47 05.01.2020
5164 Clear -35 1024 66 10000 6 350 02:45 05.01.2020
5165 Clear -35 1025 73 10000 7 330 02:20 05.01.2020
5166 Clear -34 1024 66 10000 6 350 01:40 05.01.2020
5167 Clear -35 1024 73 10000 4 310 01:18 05.01.2020
5168 Clear -34 1024 66 10000 4 340 00:41 05.01.2020
5169 Clear -35 1024 73 10000 4 340 00:22 05.01.2020
5170 Clear -35 1025 66 10000 2 350 23:59 04.01.2020
5171 Clear -35 1025 66 10000 2 350 23:39 04.01.2020
5172 Clear -36 1025 66 10000 5 350 23:19 04.01.2020
5173 Clear -36 1026 66 10000 6 350 22:39 04.01.2020
5174 Clear -35 1025 66 10000 2 360 22:21 04.01.2020
5175 Clear -35 1025 66 10000 4 340 21:57 04.01.2020
5176 Clear -35 1025 66 10000 4 340 21:38 04.01.2020
5177 Clear -35 1025 66 10000 5 340 21:19 04.01.2020
5178 Clear -35 1025 66 10000 5 330 20:57 04.01.2020
5179 Clear -35 1025 66 10000 5 330 20:38 04.01.2020
5180 Clear -35 1025 66 10000 5 330 20:20 04.01.2020
5181 Clear -35 1026 66 10000 4 10 19:42 04.01.2020
5182 Clear -35 1026 66 10000 4 10 19:42 04.01.2020
5183 Clear -35 1026 66 10000 4 10 19:24 04.01.2020
5184 Clear -36 1026 66 10000 3 360 18:59 04.01.2020
5185 Clear -36 1026 66 10000 3 360 18:40 04.01.2020
5186 Clear -36 1026 66 10000 3 360 18:22 04.01.2020
5187 Clear -36 1025 66 10000 2 360 17:59 04.01.2020
5188 Clear -36 1025 66 10000 2 360 17:40 04.01.2020
5189 Clear -36 1025 66 10000 2 360 17:22 04.01.2020
5190 Clear -35 1025 66 10000 5 330 16:54 04.01.2020
5191 Clear -35 1025 66 10000 5 330 16:36 04.01.2020
5192 Clear -35 1025 66 10000 5 330 16:18 04.01.2020
5193 Clear -35 1025 66 10000 4 330 15:42 04.01.2020
5194 Clear -35 1025 66 10000 4 330 15:42 04.01.2020
5195 Clear -35 1025 66 10000 4 330 15:20 04.01.2020
5196 Clear -36 1025 73 10000 3 10 14:58 04.01.2020
5197 Clear -36 1025 73 10000 3 10 14:40 04.01.2020
5198 Clear -36 1025 73 10000 3 10 14:20 04.01.2020
5199 Clear -36 1026 66 10000 4 20 13:56 04.01.2020
5200 Clear -36 1026 66 10000 4 20 13:37 04.01.2020
5201 Clear -36 1026 66 10000 4 20 13:37 04.01.2020
5202 Clear -36 1026 66 10000 4 20 13:19 04.01.2020
5203 Clear -36 1026 66 10000 5 330 12:42 04.01.2020
5204 Clear -36 1026 66 10000 5 330 12:20 04.01.2020
5205 Clear -36 1025 66 10000 3 330 11:59 04.01.2020
5206 Clear -36 1025 66 10000 3 330 11:40 04.01.2020
5207 Clear -36 1025 66 10000 3 330 11:40 04.01.2020
5208 Clear -36 1025 66 10000 3 330 11:20 04.01.2020
5209 Clear -36 1026 66 8000 5 340 10:59 04.01.2020
5210 Clear -36 1026 66 8000 5 340 10:38 04.01.2020
5211 Clear -36 1026 66 8000 5 340 10:19 04.01.2020
5212 Clear -36 1026 73 9000 5 330 09:43 04.01.2020
5213 Clear -36 1026 73 9000 5 330 09:25 04.01.2020
5214 Clear -35 1026 66 10000 3 340 08:47 04.01.2020
5215 Clear -35 1026 66 10000 3 340 08:28 04.01.2020
5216 Fog -36 1026 73 10000 4 330 07:51 04.01.2020
5217 Fog -36 1026 73 10000 4 330 07:33 04.01.2020
5218 Fog -36 1026 66 10000 4 330 06:43 04.01.2020
5219 Clear -36 1026 73 7000 2 350 05:52 04.01.2020
5220 Clear -35 1026 66 10000 3 350 04:48 04.01.2020
5221 Clear -35 1026 66 10000 3 350 04:28 04.01.2020
5222 Clear -35 1026 66 10000 2 330 03:20 04.01.2020
5223 Fog -35 1027 66 10000 6 350 02:38 04.01.2020
5224 Fog -35 1027 66 10000 6 350 02:18 04.01.2020
5225 Fog -36 1027 73 10000 7 330 01:37 04.01.2020
5226 Fog -36 1027 73 10000 7 330 01:18 04.01.2020
5227 Fog -35 1027 73 10000 6 340 00:29 04.01.2020
5228 Fog -36 1028 73 10000 6 350 23:57 03.01.2020
5229 Fog -36 1028 73 10000 6 350 23:29 03.01.2020
5230 Clear -36 1028 66 10000 5 350 22:57 03.01.2020
5231 Clear -36 1028 66 10000 5 350 22:57 03.01.2020
5232 Clear -36 1028 66 10000 5 350 22:39 03.01.2020
5233 Clear -36 1028 66 10000 5 350 22:18 03.01.2020
5234 Clear -36 1028 73 10000 6 350 21:57 03.01.2020
5235 Clear -36 1028 73 10000 6 350 21:37 03.01.2020
5236 Clear -36 1028 73 10000 6 350 21:18 03.01.2020
5237 Clear -35 1028 66 6000 7 320 20:54 03.01.2020
5238 Clear -35 1028 66 6000 7 320 20:54 03.01.2020
5239 Clear -35 1028 66 6000 7 320 20:36 03.01.2020
5240 Clear -35 1028 66 6000 7 320 20:18 03.01.2020
5241 Clear -36 1029 73 10000 5 330 19:42 03.01.2020
5242 Clear -36 1029 73 10000 5 330 19:23 03.01.2020
5243 Clear -35 1029 66 10000 6 350 18:54 03.01.2020
5244 Clear -35 1029 66 10000 6 350 18:36 03.01.2020
5245 Clear -35 1029 66 10000 6 350 18:18 03.01.2020
5246 Clear -34 1030 66 10000 5 340 17:41 03.01.2020
5247 Clear -34 1030 66 10000 5 340 17:21 03.01.2020
5248 Clear -35 1030 73 10000 5 340 16:58 03.01.2020
5249 Clear -35 1030 73 10000 5 340 16:39 03.01.2020
5250 Clear -35 1030 73 10000 5 340 16:20 03.01.2020
5251 Clear -35 1030 73 10000 5 330 15:41 03.01.2020
5252 Clear -35 1030 73 10000 5 330 15:19 03.01.2020
5253 Clear -35 1030 66 10000 1 300 14:40 03.01.2020
5254 Clear -35 1030 66 10000 1 300 14:40 03.01.2020
5255 Clear -35 1030 66 10000 1 300 14:20 03.01.2020
5256 Mist -36 1031 73 8000 3 290 13:59 03.01.2020
5257 Mist -36 1031 73 8000 3 290 13:40 03.01.2020
5258 Mist -36 1031 73 8000 3 290 13:21 03.01.2020
5259 Clear -36 1032 66 8000 3 310 12:41 03.01.2020
5260 Clear -36 1032 66 8000 3 310 12:22 03.01.2020
5261 Clear -36 1032 73 10000 5 330 11:54 03.01.2020
5262 Clear -36 1032 73 10000 5 330 11:35 03.01.2020
5263 Clear -36 1033 73 10000 5 340 10:58 03.01.2020
5264 Clear -36 1033 73 10000 5 340 10:39 03.01.2020
5265 Clear -36 1033 73 10000 5 340 10:21 03.01.2020
5266 Clear -36 1033 66 10000 4 10 09:55 03.01.2020
5267 Clear -36 1033 66 10000 4 10 09:37 03.01.2020
5268 Clear -36 1033 66 10000 4 10 09:19 03.01.2020
5269 Mist -36 1034 73 10000 3 350 08:45 03.01.2020
5270 Mist -36 1034 73 10000 3 350 08:23 03.01.2020
5271 Clear -36 1034 66 10000 3 330 07:56 03.01.2020
5272 Clear -36 1034 66 10000 3 330 07:37 03.01.2020
5273 Clear -36 1034 66 10000 3 330 07:18 03.01.2020
5274 Mist -37 1034 73 6000 4 340 06:42 03.01.2020
5275 Mist -37 1034 73 6000 4 340 06:22 03.01.2020
5276 Mist -37 1034 73 4500 5 320 04:59 03.01.2020
5277 Clear -36 1034 66 6000 6 340 03:42 03.01.2020
5278 Clouds -36 1035 73 8000 4 360 02:53 03.01.2020
5279 Clouds -36 1036 73 6000 4 360 01:51 03.01.2020
5280 Mist -36 1035 73 2700 7 330 01:33 03.01.2020
5281 Mist -35 1035 66 10000 5 340 00:43 03.01.2020
5282 Fog -35 1035 73 10000 6 360 00:24 03.01.2020
5283 Clear -36 1036 66 8000 7 10 23:39 02.01.2020
5284 Clear -36 1036 66 8000 7 10 23:20 02.01.2020
5285 Clear -36 1036 73 9000 7 340 22:59 02.01.2020
5286 Clear -36 1036 73 9000 7 340 22:41 02.01.2020
5287 Clear -36 1036 73 9000 7 340 22:20 02.01.2020
5288 Mist -35 1036 73 5000 7 350 21:57 02.01.2020
5289 Mist -35 1036 73 5000 7 350 21:38 02.01.2020
5290 Mist -35 1036 73 5000 7 350 21:19 02.01.2020
5291 Mist -36 1037 73 5000 6 360 20:56 02.01.2020
5292 Mist -36 1037 73 5000 6 360 20:37 02.01.2020
5293 Mist -36 1037 73 5000 6 360 20:19 02.01.2020
5294 Mist -37 1037 65 3300 7 340 19:54 02.01.2020
5295 Mist -37 1037 65 3300 7 340 19:54 02.01.2020
5296 Mist -37 1037 65 3300 7 340 19:36 02.01.2020
5297 Mist -37 1037 65 3300 7 340 19:18 02.01.2020
5298 Fog -34 1037 73 10000 5 360 18:43 02.01.2020
5299 Fog -34 1037 73 10000 5 360 18:25 02.01.2020
5300 Mist -34 1037 66 5000 5 20 17:58 02.01.2020
5301 Mist -34 1037 66 5000 5 20 17:39 02.01.2020
5302 Mist -34 1037 66 5000 5 20 17:20 02.01.2020
5303 Clouds -35 1037 73 7000 4 330 16:58 02.01.2020
5304 Clouds -35 1037 73 7000 4 330 16:58 02.01.2020
5305 Clouds -35 1037 73 7000 4 330 16:40 02.01.2020
5306 Clouds -35 1037 73 7000 4 330 16:20 02.01.2020
5307 Mist -36 1037 66 2100 9 330 15:58 02.01.2020
5308 Mist -36 1037 66 2100 9 330 15:58 02.01.2020
5309 Mist -36 1037 66 2100 9 330 15:40 02.01.2020
5310 Mist -35 1037 73 5000 6 330 15:21 02.01.2020
5311 Mist -35 1037 73 5000 6 330 14:57 02.01.2020
5312 Mist -35 1037 73 5000 6 330 14:36 02.01.2020
5313 Mist -35 1037 73 5000 6 330 14:36 02.01.2020
5314 Mist -35 1037 73 5000 6 330 14:18 02.01.2020
5315 Mist -36 1037 73 4700 8 350 13:49 02.01.2020
5316 Mist -36 1037 73 4700 8 350 13:31 02.01.2020
5317 Fog -35 1037 73 10000 5 360 12:46 02.01.2020
5318 Fog -35 1038 66 10000 5 340 12:26 02.01.2020
5319 Fog -35 1038 66 10000 5 340 11:59 02.01.2020
5320 Fog -35 1038 66 10000 5 340 11:40 02.01.2020
5321 Fog -35 1038 66 10000 5 340 11:20 02.01.2020
5322 Clear -36 1038 73 9000 6 20 10:44 02.01.2020
5323 Clear -36 1038 73 9000 6 20 10:26 02.01.2020
5324 Fog -36 1037 73 10000 7 340 09:51 02.01.2020
5325 Fog -36 1037 73 10000 7 340 09:33 02.01.2020
5326 Fog -34 1037 73 10000 4 360 08:47 02.01.2020
5327 Fog -34 1037 73 10000 4 360 08:27 02.01.2020
5328 Fog -35 1037 66 10000 3 10 07:54 02.01.2020
5329 Fog -35 1037 66 10000 3 10 07:30 02.01.2020
5330 Clear -36 1037 73 9000 6 340 06:55 02.01.2020
5331 Clear -36 1037 73 9000 6 340 06:36 02.01.2020
5332 Fog -35 1036 66 10000 6 360 05:35 02.01.2020
5333 Fog -35 1036 73 10000 5 350 04:33 02.01.2020
5334 Fog -33 1036 67 10000 5 360 02:54 02.01.2020
5335 Fog -32 1035 67 10000 5 40 01:59 02.01.2020
5336 Fog -32 1035 67 10000 5 40 01:39 02.01.2020
5337 Fog -35 1035 73 10000 4 360 00:59 02.01.2020
5338 Fog -35 1035 73 10000 4 360 00:34 02.01.2020
5339 Fog -34 1035 66 10000 6 10 23:56 01.01.2020
5340 Fog -34 1035 66 10000 6 10 23:37 01.01.2020
5341 Fog -34 1035 66 10000 6 10 23:18 01.01.2020
5342 Fog -33 1034 67 10000 5 360 22:38 01.01.2020
5343 Fog -33 1034 67 10000 5 360 22:19 01.01.2020
5344 Fog -33 1033 74 10000 6 360 21:56 01.01.2020
5345 Fog -33 1033 74 10000 6 360 21:38 01.01.2020
5346 Fog -33 1033 74 10000 6 360 21:19 01.01.2020
5347 Fog -33 1033 74 10000 6 360 21:19 01.01.2020
5348 Clear -32 1033 74 10000 5 350 20:55 01.01.2020
5349 Clear -32 1033 74 10000 5 350 20:37 01.01.2020
5350 Clear -32 1033 74 10000 5 350 20:19 01.01.2020
5351 Clear -32 1033 74 10000 5 350 20:19 01.01.2020
5352 Clear -31 1032 74 10000 6 350 19:55 01.01.2020
5353 Clear -31 1032 74 10000 6 350 19:37 01.01.2020
5354 Clear -31 1032 74 10000 6 350 19:19 01.01.2020
5355 Clear -32 1032 74 10000 5 10 18:55 01.01.2020
5356 Clear -32 1032 74 10000 5 10 18:36 01.01.2020
5357 Clear -32 1032 74 10000 5 10 18:18 01.01.2020
5358 Clear -32 1032 74 10000 6 20 17:56 01.01.2020
5359 Clear -32 1032 74 10000 6 20 17:56 01.01.2020
5360 Clear -32 1032 74 10000 6 20 17:37 01.01.2020
5361 Clear -32 1032 74 10000 6 20 17:18 01.01.2020
5362 Fog -32 1031 74 10000 5 10 16:40 01.01.2020
5363 Fog -32 1031 74 10000 5 10 16:40 01.01.2020
5364 Fog -32 1031 74 10000 5 10 16:21 01.01.2020
5365 Fog -32 1031 74 10000 5 10 15:57 01.01.2020
5366 Fog -32 1031 74 10000 5 10 15:39 01.01.2020
5367 Fog -32 1031 74 10000 5 10 15:20 01.01.2020
5368 Fog -33 1031 67 10000 4 20 14:58 01.01.2020
5369 Fog -33 1031 67 10000 4 20 14:58 01.01.2020
5370 Fog -33 1031 67 10000 4 20 14:40 01.01.2020
5371 Fog -33 1031 67 10000 4 20 14:21 01.01.2020
5372 Fog -33 1031 67 10000 4 20 14:21 01.01.2020
5373 Fog -32 1031 67 10000 4 360 13:56 01.01.2020
5374 Fog -32 1031 67 10000 4 360 13:37 01.01.2020
5375 Fog -32 1031 67 10000 4 360 13:37 01.01.2020
5376 Fog -32 1031 67 10000 4 360 13:37 01.01.2020
5377 Fog -32 1031 67 10000 4 360 13:37 01.01.2020
5378 Fog -32 1031 67 10000 4 360 13:18 01.01.2020
5379 Fog -32 1030 74 10000 7 10 12:55 01.01.2020
5380 Fog -32 1030 74 10000 7 10 12:37 01.01.2020
5381 Fog -32 1030 74 10000 7 10 12:18 01.01.2020
5382 Fog -33 1030 74 10000 4 20 11:43 01.01.2020
5383 Fog -33 1030 74 10000 4 20 11:22 01.01.2020
5384 Fog -32 1029 74 10000 7 10 10:59 01.01.2020
5385 Fog -32 1029 74 10000 7 10 10:40 01.01.2020
5386 Fog -32 1029 74 10000 7 10 10:20 01.01.2020
5387 Fog -32 1029 74 10000 5 360 09:56 01.01.2020
5388 Fog -32 1029 74 10000 5 360 09:37 01.01.2020
5389 Fog -32 1029 74 10000 5 360 09:18 01.01.2020
5390 Clouds -32 1029 74 9000 6 350 08:55 01.01.2020
5391 Clouds -32 1029 74 9000 6 350 08:36 01.01.2020
5392 Clouds -32 1029 74 9000 6 350 08:36 01.01.2020
5393 Clouds -32 1029 74 9000 6 350 08:36 01.01.2020
5394 Clouds -32 1029 74 9000 6 350 08:18 01.01.2020
5395 Mist -30 1028 74 2200 5 330 07:48 01.01.2020
5396 Mist -30 1028 74 2200 5 330 07:30 01.01.2020
5397 Mist -30 1028 74 2700 6 340 06:44 01.01.2020
5398 Mist -30 1028 74 2700 6 340 06:20 01.01.2020
5399 Mist -30 1027 74 2500 6 340 05:21 01.01.2020
5400 Mist -31 1027 74 3400 4 350 03:43 01.01.2020
5401 Mist -31 1027 74 3400 4 350 03:22 01.01.2020
5402 Mist -31 1027 74 3400 4 350 03:22 01.01.2020
5403 Mist -31 1027 67 3400 4 360 02:56 01.01.2020
5404 Mist -31 1027 67 3400 4 360 02:33 01.01.2020
5405 Fog -33 1027 74 10000 3 10 01:45 01.01.2020
5406 Fog -33 1027 74 10000 3 10 01:25 01.01.2020
5407 Fog -33 1027 74 10000 2 340 00:57 01.01.2020
5408 Fog -33 1027 74 10000 2 340 00:38 01.01.2020
5409 Fog -33 1027 74 10000 2 340 00:20 01.01.2020
5410 Fog -33 1026 74 10000 4 10 23:40 31.12.2019
5411 Fog -33 1026 74 10000 4 10 23:21 31.12.2019
5412 Fog -33 1026 74 10000 2 20 22:57 31.12.2019
5413 Fog -33 1026 74 10000 2 20 22:38 31.12.2019
5414 Fog -33 1026 74 10000 2 20 22:19 31.12.2019
5415 Clear -35 1025 66 10000 4 360 21:57 31.12.2019
5416 Clear -35 1025 66 10000 4 360 21:37 31.12.2019
5417 Clear -35 1025 66 10000 4 360 21:19 31.12.2019
5418 Clear -35 1025 66 10000 4 360 21:19 31.12.2019
5419 Clear -36 1025 73 10000 4 30 20:54 31.12.2019
5420 Clear -36 1025 73 10000 4 30 20:36 31.12.2019
5421 Clear -36 1025 73 10000 4 30 20:18 31.12.2019
5422 Clear -36 1025 73 10000 3 10 19:41 31.12.2019
5423 Clear -36 1025 73 10000 3 10 19:22 31.12.2019
5424 Clear -35 1024 66 10000 4 20 18:59 31.12.2019
5425 Clear -35 1024 66 10000 4 20 18:40 31.12.2019
5426 Clear -35 1024 66 10000 4 20 18:20 31.12.2019
5427 Clear -35 1023 66 10000 4 30 17:57 31.12.2019
5428 Clear -35 1023 66 10000 4 30 17:38 31.12.2019
5429 Clear -35 1023 66 10000 4 30 17:19 31.12.2019
5430 Fog -36 1023 73 10000 3 20 16:57 31.12.2019
5431 Fog -36 1023 73 10000 3 20 16:38 31.12.2019
5432 Fog -36 1023 73 10000 3 20 16:19 31.12.2019
5433 Fog -34 1022 73 10000 6 10 15:57 31.12.2019
5434 Fog -34 1022 73 10000 6 10 15:39 31.12.2019
5435 Fog -34 1022 73 10000 6 10 15:21 31.12.2019
5436 Fog -34 1022 73 10000 5 10 14:58 31.12.2019
5437 Fog -34 1022 73 10000 5 10 14:39 31.12.2019
5438 Fog -34 1022 73 10000 5 10 14:19 31.12.2019
5439 Fog -34 1021 66 10000 6 10 13:58 31.12.2019
5440 Fog -34 1021 66 10000 6 10 13:40 31.12.2019
5441 Fog -34 1021 66 10000 6 10 13:21 31.12.2019
5442 Fog -36 1021 66 10000 4 20 12:58 31.12.2019
5443 Fog -36 1021 66 10000 4 20 12:40 31.12.2019
5444 Fog -36 1021 66 10000 4 20 12:20 31.12.2019
5445 Fog -36 1021 73 10000 3 30 11:56 31.12.2019
5446 Fog -36 1021 73 10000 3 30 11:38 31.12.2019
5447 Fog -36 1021 73 10000 3 30 11:20 31.12.2019
5448 Fog -35 1020 73 10000 4 10 10:58 31.12.2019
5449 Fog -35 1020 73 10000 4 10 10:38 31.12.2019
5450 Fog -35 1020 73 10000 4 10 10:20 31.12.2019
5451 Fog -35 1020 73 10000 4 10 09:59 31.12.2019
5452 Fog -35 1020 73 10000 4 10 09:39 31.12.2019
5453 Fog -35 1020 73 10000 4 10 09:39 31.12.2019
5454 Fog -35 1020 73 10000 4 10 09:21 31.12.2019
5455 Fog -36 1019 66 10000 3 10 08:57 31.12.2019
5456 Fog -36 1019 66 10000 3 10 08:39 31.12.2019
5457 Fog -36 1019 66 10000 3 10 08:19 31.12.2019
5458 Clouds -35 1019 73 9000 4 360 07:43 31.12.2019
5459 Clouds -35 1019 73 9000 4 360 07:21 31.12.2019
5460 Fog -36 1019 73 10000 5 360 06:50 31.12.2019
5461 Fog -34 1019 73 10000 4 360 05:58 31.12.2019
5462 Fog -36 1019 73 10000 4 10 04:30 31.12.2019
5463 Fog -35 1019 73 10000 3 10 03:38 31.12.2019
5464 Fog -34 1019 73 10000 2 30 02:55 31.12.2019
5465 Fog -31 1019 74 10000 3 20 02:19 31.12.2019
5466 Fog -32 1019 67 10000 4 360 01:48 31.12.2019
5467 Fog -34 1019 73 10000 4 340 01:27 31.12.2019
5468 Fog -33 1019 74 10000 3 350 00:46 31.12.2019
5469 Fog -33 1019 74 10000 4 20 00:22 31.12.2019
5470 Fog -32 1019 74 10000 4 360 23:56 30.12.2019
5471 Fog -32 1019 67 10000 4 360 23:38 30.12.2019
5472 Fog -32 1019 67 10000 4 360 23:20 30.12.2019
5473 Fog -32 1019 74 10000 4 360 22:58 30.12.2019
5474 Fog -32 1019 74 10000 4 360 22:39 30.12.2019
5475 Fog -32 1019 67 10000 5 10 22:20 30.12.2019
5476 Fog -33 1019 67 10000 5 20 21:57 30.12.2019
5477 Fog -33 1019 67 10000 5 20 21:38 30.12.2019
5478 Fog -33 1019 67 10000 5 20 21:38 30.12.2019
5479 Fog -33 1019 67 10000 5 20 21:38 30.12.2019
5480 Fog -33 1019 74 10000 5 30 21:19 30.12.2019
5481 Fog -32 1019 74 10000 5 10 20:56 30.12.2019
5482 Fog -32 1019 74 10000 5 10 20:56 30.12.2019
5483 Fog -32 1019 74 10000 5 10 20:38 30.12.2019
5484 Fog -32 1019 74 10000 5 10 20:20 30.12.2019
5485 Clear -32 1019 74 10000 6 360 19:57 30.12.2019
5486 Clear -32 1019 74 10000 6 360 19:37 30.12.2019
5487 Clear -32 1019 74 10000 6 360 19:19 30.12.2019
5488 Fog -34 1019 73 10000 5 350 18:56 30.12.2019
5489 Fog -34 1019 73 10000 5 350 18:38 30.12.2019
5490 Fog -34 1019 73 10000 5 350 18:20 30.12.2019
5491 Fog -33 1019 74 10000 5 10 17:55 30.12.2019
5492 Fog -33 1019 74 10000 5 10 17:37 30.12.2019
5493 Fog -33 1019 74 10000 5 10 17:18 30.12.2019
5494 Fog -34 1018 73 10000 3 360 16:56 30.12.2019
5495 Fog -34 1018 73 10000 3 360 16:36 30.12.2019
5496 Fog -34 1018 73 10000 3 360 16:18 30.12.2019
5497 Fog -34 1018 73 10000 3 10 15:55 30.12.2019
5498 Fog -34 1018 73 10000 3 10 15:36 30.12.2019
5499 Fog -34 1018 73 10000 3 10 15:18 30.12.2019
5500 Fog -33 1018 74 10000 4 30 14:42 30.12.2019
5501 Fog -33 1018 74 10000 4 30 14:19 30.12.2019
5502 Fog -33 1018 74 10000 3 30 13:56 30.12.2019
5503 Fog -33 1018 74 10000 3 30 13:37 30.12.2019
5504 Fog -33 1018 74 10000 3 30 13:19 30.12.2019
5505 Clouds -35 1019 73 10000 3 30 12:43 30.12.2019
5506 Clouds -35 1019 73 10000 3 30 12:20 30.12.2019
5507 Snow -34 1018 73 10000 2 10 11:59 30.12.2019
5508 Snow -34 1018 73 10000 2 10 11:40 30.12.2019
5509 Snow -34 1018 73 10000 2 10 11:19 30.12.2019
5510 Snow -34 1018 73 10000 2 10 11:19 30.12.2019
5511 Fog -33 1018 67 10000 4 10 10:45 30.12.2019
5512 Fog -33 1018 67 10000 4 10 10:22 30.12.2019
5513 Fog -35 1018 73 10000 4 20 09:59 30.12.2019
5514 Fog -35 1018 73 10000 4 20 09:41 30.12.2019
5515 Fog -35 1018 73 10000 4 20 09:20 30.12.2019
5516 Fog -35 1018 73 10000 4 10 08:54 30.12.2019
5517 Fog -35 1018 73 10000 4 10 08:36 30.12.2019
5518 Fog -35 1018 73 10000 4 10 08:18 30.12.2019
5519 Fog -34 1018 73 10000 4 20 07:39 30.12.2019
5520 Fog -34 1018 66 10000 2 50 06:52 30.12.2019
5521 Mist -32 1017 74 4500 4 10 05:24 30.12.2019
5522 Mist -32 1017 74 2300 6 20 03:58 30.12.2019
5523 Mist -31 1017 67 4500 6 30 03:19 30.12.2019
5524 Mist -32 1017 74 3000 6 30 02:40 30.12.2019
5525 Clouds -31 1017 74 6000 5 20 01:55 30.12.2019
5526 Clouds -31 1017 74 9000 6 10 01:23 30.12.2019
5527 Fog -31 1018 74 10000 5 10 00:45 30.12.2019
5528 Fog -32 1018 74 10000 5 10 00:19 30.12.2019
5529 Fog -31 1019 67 10000 6 360 23:39 29.12.2019
5530 Fog -31 1019 67 10000 6 360 23:21 29.12.2019
5531 Fog -31 1019 67 10000 6 360 22:55 29.12.2019
5532 Fog -31 1019 74 10000 6 360 22:37 29.12.2019
5533 Fog -32 1019 74 10000 6 360 22:18 29.12.2019
5534 Fog -31 1019 67 10000 5 360 21:43 29.12.2019
5535 Fog -31 1019 74 10000 6 360 21:21 29.12.2019
5536 Fog -32 1019 67 10000 6 10 20:57 29.12.2019
5537 Fog -32 1019 67 10000 6 10 20:39 29.12.2019
5538 Fog -32 1019 67 10000 6 10 20:21 29.12.2019
5539 Fog -31 1020 74 10000 4 350 19:59 29.12.2019
5540 Fog -31 1020 74 10000 4 350 19:40 29.12.2019
5541 Fog -31 1020 74 10000 4 350 19:40 29.12.2019
5542 Fog -31 1020 74 10000 4 350 19:21 29.12.2019
5543 Fog -31 1021 67 10000 4 10 18:58 29.12.2019
5544 Fog -31 1021 67 10000 4 10 18:39 29.12.2019
5545 Fog -31 1021 67 10000 4 10 18:20 29.12.2019
5546 Fog -33 1021 74 10000 4 10 17:58 29.12.2019
5547 Fog -33 1021 74 10000 4 10 17:39 29.12.2019
5548 Fog -33 1021 74 10000 4 10 17:20 29.12.2019
5549 Fog -32 1022 74 10000 5 10 16:57 29.12.2019
5550 Fog -32 1022 74 10000 5 10 16:38 29.12.2019
5551 Fog -32 1022 74 10000 5 10 16:38 29.12.2019
5552 Fog -32 1022 74 10000 5 10 16:38 29.12.2019
5553 Fog -32 1022 74 10000 5 10 16:20 29.12.2019
5554 Fog -31 1022 74 10000 6 10 15:58 29.12.2019
5555 Fog -31 1022 74 10000 6 10 15:39 29.12.2019
5556 Fog -31 1022 74 10000 6 10 15:20 29.12.2019
5557 Fog -32 1023 74 10000 5 360 14:58 29.12.2019
5558 Fog -32 1023 74 10000 5 360 14:38 29.12.2019
5559 Fog -32 1023 74 10000 5 360 14:18 29.12.2019
5560 Clear -32 1024 74 9000 5 10 13:57 29.12.2019
5561 Clear -32 1024 74 9000 5 10 13:38 29.12.2019
5562 Clear -32 1024 74 9000 5 10 13:20 29.12.2019
5563 Fog -31 1025 74 10000 5 10 12:46 29.12.2019
5564 Fog -31 1025 74 10000 5 10 12:27 29.12.2019
5565 Fog -31 1026 74 10000 5 30 11:59 29.12.2019
5566 Fog -31 1026 74 10000 5 30 11:40 29.12.2019
5567 Fog -31 1026 74 10000 5 30 11:20 29.12.2019
5568 Fog -30 1026 67 10000 4 20 10:55 29.12.2019
5569 Fog -30 1026 67 10000 4 20 10:37 29.12.2019
5570 Fog -30 1026 67 10000 4 20 10:18 29.12.2019
5571 Fog -31 1027 74 10000 5 50 09:43 29.12.2019
5572 Fog -31 1027 74 10000 5 50 09:25 29.12.2019
5573 Fog -31 1028 67 10000 4 30 08:50 29.12.2019
5574 Fog -31 1028 67 10000 4 30 08:29 29.12.2019
5575 Fog -31 1029 74 10000 6 20 07:58 29.12.2019
5576 Fog -31 1029 74 10000 6 20 07:31 29.12.2019
5577 Fog -31 1029 74 10000 8 20 06:57 29.12.2019
5578 Fog -31 1029 74 10000 8 20 06:27 29.12.2019
5579 Clear -32 1030 74 9000 5 10 05:54 29.12.2019
5580 Fog -32 1030 74 10000 7 350 04:47 29.12.2019
5581 Fog -32 1030 74 10000 7 350 04:28 29.12.2019
5582 Fog -31 1031 74 10000 4 10 03:28 29.12.2019
5583 Fog -32 1031 74 10000 3 360 02:22 29.12.2019
5584 Fog -33 1032 67 10000 1 10 01:42 29.12.2019
5585 Fog -33 1032 67 10000 1 10 01:23 29.12.2019
5586 Fog -33 1032 74 10000 4 350 00:44 29.12.2019
5587 Fog -33 1032 74 10000 4 350 00:24 29.12.2019
5588 Fog -33 1032 67 10000 2 30 23:45 28.12.2019
5589 Fog -33 1032 67 10000 2 30 23:19 28.12.2019
5590 Fog -33 1032 67 10000 2 30 23:19 28.12.2019
5591 Clear -33 1032 74 10000 2 20 22:54 28.12.2019
5592 Clear -33 1032 74 10000 2 20 22:36 28.12.2019
5593 Clear -33 1032 74 10000 2 20 22:18 28.12.2019
5594 Clear -33 1032 74 10000 2 10 21:55 28.12.2019
5595 Clear -33 1032 74 10000 2 10 21:36 28.12.2019
5596 Clear -33 1032 74 10000 2 10 21:18 28.12.2019
5597 Clear -32 1032 74 10000 2 340 20:40 28.12.2019
5598 Clear -32 1032 74 10000 2 340 20:22 28.12.2019
5599 Clear -31 1033 67 10000 2 20 19:59 28.12.2019
5600 Clear -31 1033 67 10000 2 20 19:40 28.12.2019
5601 Clear -31 1033 67 10000 2 20 19:22 28.12.2019
5602 Clear -31 1033 74 10000 3 20 18:59 28.12.2019
5603 Clear -31 1033 74 10000 3 20 18:40 28.12.2019
5604 Clear -31 1033 74 10000 3 20 18:19 28.12.2019
5605 Clear -31 1033 74 10000 2 20 17:56 28.12.2019
5606 Clear -31 1033 74 10000 2 20 17:38 28.12.2019
5607 Clear -31 1033 74 10000 2 20 17:19 28.12.2019
5608 Clear -31 1034 74 10000 2 30 16:46 28.12.2019
5609 Clear -31 1034 74 10000 2 30 16:26 28.12.2019
5610 Clear -30 1034 74 10000 3 20 15:57 28.12.2019
5611 Clear -30 1034 74 10000 3 20 15:39 28.12.2019
5612 Clear -30 1034 74 10000 3 20 15:19 28.12.2019
5613 Clear -29 1034 68 10000 4 10 14:44 28.12.2019
5614 Clear -29 1034 68 10000 4 10 14:24 28.12.2019
5615 Clear -29 1034 68 10000 4 10 14:24 28.12.2019
5616 Clear -30 1034 74 10000 3 10 13:57 28.12.2019
5617 Clear -30 1034 74 10000 3 10 13:38 28.12.2019
5618 Clear -30 1034 74 10000 3 10 13:19 28.12.2019
5619 Clear -30 1034 74 10000 3 10 13:19 28.12.2019
5620 Clear -30 1034 67 10000 2 10 12:43 28.12.2019
5621 Clear -30 1034 67 10000 2 10 12:24 28.12.2019
5622 Clear -30 1034 67 10000 2 10 12:24 28.12.2019
5623 Clear -32 1034 74 10000 4 10 11:58 28.12.2019
5624 Clear -32 1034 74 10000 4 10 11:39 28.12.2019
5625 Clear -32 1034 74 10000 4 10 11:20 28.12.2019
5626 Clear -31 1035 74 10000 4 10 10:46 28.12.2019
5627 Clear -31 1035 74 10000 4 10 10:46 28.12.2019
5628 Clear -31 1035 74 10000 4 10 10:22 28.12.2019
5629 Clear -31 1035 74 10000 4 10 10:22 28.12.2019
5630 Clear -31 1035 74 10000 4 10 10:22 28.12.2019
5631 Clear -31 1035 74 10000 4 10 10:22 28.12.2019
5632 Clear -31 1035 74 10000 4 20 09:58 28.12.2019
5633 Clear -31 1035 74 10000 4 20 09:40 28.12.2019
5634 Clear -31 1035 74 10000 4 20 09:20 28.12.2019
5635 Clear -33 1035 74 10000 3 360 08:44 28.12.2019
5636 Clear -33 1035 74 10000 3 360 08:26 28.12.2019
5637 Clear -35 1036 73 10000 2 360 07:55 28.12.2019
5638 Clear -35 1036 73 10000 2 360 07:32 28.12.2019
5639 Clear -35 1035 66 8000 2 40 06:41 28.12.2019
5640 Fog -35 1035 73 10000 4 340 04:59 28.12.2019
5641 Clear -34 1036 66 9000 3 350 03:47 28.12.2019
5642 Mist -33 1036 67 5000 3 350 02:49 28.12.2019
5643 Clouds -34 1036 73 9000 4 330 01:59 28.12.2019
5644 Clouds -34 1036 73 9000 4 330 01:31 28.12.2019
5645 Clouds -35 1036 73 9000 3 340 00:58 28.12.2019
5646 Clouds -35 1036 73 9000 3 340 00:40 28.12.2019
5647 Clouds -35 1036 73 9000 3 340 00:20 28.12.2019
5648 Fog -35 1035 73 9000 4 350 23:44 27.12.2019
5649 Fog -35 1035 73 9000 4 350 23:20 27.12.2019
5650 Clouds -35 1035 73 9000 4 340 22:58 27.12.2019
5651 Clouds -35 1035 73 9000 4 340 22:39 27.12.2019
5652 Clouds -35 1035 73 9000 4 340 22:20 27.12.2019
5653 Mist -36 1035 73 4100 4 310 21:56 27.12.2019
5654 Mist -36 1035 73 4100 4 310 21:37 27.12.2019
5655 Mist -36 1035 73 4100 4 310 21:19 27.12.2019
5656 Clouds -36 1034 73 9000 3 330 20:42 27.12.2019
5657 Clouds -36 1034 73 9000 3 330 20:23 27.12.2019
5658 Mist -37 1034 73 4700 2 260 19:43 27.12.2019
5659 Mist -37 1034 73 4700 2 260 19:21 27.12.2019
5660 Mist -36 1034 66 2100 5 340 18:59 27.12.2019
5661 Mist -36 1034 66 2100 5 340 18:40 27.12.2019
5662 Mist -36 1034 66 2100 5 340 18:21 27.12.2019
5663 Mist -35 1034 66 2000 4 340 17:58 27.12.2019
5664 Mist -35 1034 66 2000 4 340 17:40 27.12.2019
5665 Mist -35 1034 66 2000 4 340 17:19 27.12.2019
5666 Mist -35 1033 66 1900 2 360 16:59 27.12.2019
5667 Mist -35 1033 66 1900 2 360 16:39 27.12.2019
5668 Mist -35 1033 66 1900 2 360 16:20 27.12.2019
5669 Mist -36 1033 73 1100 3 350 15:45 27.12.2019
5670 Mist -36 1033 73 1100 3 350 15:23 27.12.2019
5671 Clouds -36 1033 73 9000 1 360 14:58 27.12.2019
5672 Clouds -36 1033 73 9000 1 360 14:40 27.12.2019
5673 Clouds -36 1033 73 9000 1 360 14:21 27.12.2019
5674 Fog -37 1033 73 10000 2 10 13:57 27.12.2019
5675 Fog -37 1033 73 10000 2 10 13:39 27.12.2019
5676 Fog -37 1033 73 10000 2 10 13:21 27.12.2019
5677 Mist -36 1033 66 2800 1 10 12:44 27.12.2019
5678 Mist -36 1033 66 2800 1 10 12:24 27.12.2019
5679 Fog -36 1033 73 10000 2 340 11:46 27.12.2019
5680 Fog -36 1033 73 10000 2 340 11:27 27.12.2019
5681 Fog -34 1032 66 10000 2 340 10:59 27.12.2019
5682 Fog -34 1032 66 10000 2 340 10:41 27.12.2019
5683 Fog -34 1032 66 10000 2 340 10:23 27.12.2019
5684 Fog -35 1032 66 10000 1 30 09:49 27.12.2019
5685 Fog -35 1032 66 10000 1 30 09:22 27.12.2019
5686 Fog -35 1032 73 10000 2 340 08:59 27.12.2019
5687 Fog -35 1032 73 10000 2 340 08:40 27.12.2019
5688 Fog -35 1032 73 10000 2 340 08:18 27.12.2019
5689 Fog -33 1031 67 10000 3 10 07:38 27.12.2019
5690 Fog -33 1032 67 10000 2 360 06:43 27.12.2019
5691 Fog -33 1031 74 10000 2 20 06:22 27.12.2019
5692 Fog -34 1031 66 10000 3 350 04:33 27.12.2019
5693 Fog -33 1030 74 10000 2 350 02:28 27.12.2019
5694 Fog -33 1031 74 10000 2 30 01:42 27.12.2019
5695 Fog -33 1030 67 10000 1 30 01:20 27.12.2019
5696 Fog -34 1030 66 10000 2 40 00:46 27.12.2019
5697 Fog -33 1030 67 10000 3 20 00:25 27.12.2019
5698 Clear -34 1030 73 8000 3 10 23:54 26.12.2019
5699 Mist -34 1030 73 9000 2 350 23:36 26.12.2019
5700 Mist -34 1030 73 9000 2 350 23:18 26.12.2019
5701 Mist -33 1029 74 10000 1 10 22:38 26.12.2019
5702 Mist -33 1029 74 2800 2 340 22:18 26.12.2019
5703 Mist -35 1029 73 10000 3 340 21:40 26.12.2019
5704 Mist -34 1028 73 5000 3 320 21:21 26.12.2019
5705 Clear -33 1028 74 10000 4 350 20:57 26.12.2019
5706 Clear -33 1028 74 10000 4 350 20:38 26.12.2019
5707 Clear -33 1028 74 10000 4 350 20:19 26.12.2019
5708 Fog -32 1028 67 10000 2 360 19:55 26.12.2019
5709 Fog -32 1028 67 10000 2 360 19:37 26.12.2019
5710 Fog -32 1028 67 10000 2 360 19:19 26.12.2019
5711 Fog -33 1027 74 10000 3 40 18:55 26.12.2019
5712 Fog -33 1027 74 10000 3 40 18:36 26.12.2019
5713 Fog -33 1027 74 10000 3 40 18:18 26.12.2019
5714 Fog -32 1027 74 10000 2 30 17:41 26.12.2019
5715 Fog -32 1027 74 10000 2 30 17:21 26.12.2019
5716 Fog -32 1027 74 10000 2 30 17:21 26.12.2019
5717 Mist -32 1027 74 10000 5 360 16:49 26.12.2019
5718 Mist -32 1027 74 10000 5 360 16:26 26.12.2019
5719 Fog -31 1027 74 10000 2 360 15:57 26.12.2019
5720 Fog -31 1027 74 10000 2 360 15:38 26.12.2019
5721 Fog -31 1027 74 10000 2 360 15:19 26.12.2019
5722 Clear -30 1026 74 10000 5 10 14:41 26.12.2019
5723 Clear -30 1026 74 10000 5 10 14:23 26.12.2019
5724 Clouds -32 1026 74 10000 2 20 13:55 26.12.2019
5725 Clouds -32 1026 74 10000 2 20 13:36 26.12.2019
5726 Clouds -32 1026 74 10000 2 20 13:18 26.12.2019
5727 Clouds -33 1026 74 10000 2 20 12:45 26.12.2019
5728 Clouds -33 1026 74 10000 2 20 12:25 26.12.2019
5729 Fog -32 1025 74 10000 3 30 11:59 26.12.2019
5730 Fog -32 1025 74 10000 3 30 11:40 26.12.2019
5731 Fog -32 1025 74 10000 3 30 11:21 26.12.2019
5732 Fog -32 1024 74 10000 1 40 10:50 26.12.2019
5733 Fog -32 1024 74 10000 1 40 10:27 26.12.2019
5734 Fog -30 1024 74 10000 3 360 09:55 26.12.2019
5735 Fog -30 1024 74 10000 3 360 09:36 26.12.2019
5736 Fog -30 1024 74 10000 3 360 09:18 26.12.2019
5737 Fog -30 1023 74 10000 3 20 08:39 26.12.2019
5738 Fog -30 1023 74 10000 3 20 08:21 26.12.2019
5739 Fog -33 1023 74 10000 3 40 07:44 26.12.2019
5740 Fog -33 1023 74 10000 3 40 07:24 26.12.2019
5741 Fog -32 1023 74 10000 3 30 06:39 26.12.2019
5742 Fog -32 1022 74 10000 3 20 06:20 26.12.2019
5743 Fog -33 1022 74 10000 3 30 05:43 26.12.2019
5744 Fog -29 1021 74 10000 2 10 04:36 26.12.2019
5745 Fog -28 1021 82 10000 1 310 03:32 26.12.2019
5746 Clouds -28 1020 75 10000 1 40 02:47 26.12.2019
5747 Fog -29 1020 75 10000 1 100 02:29 26.12.2019
5748 Fog -29 1020 75 10000 2 40 01:44 26.12.2019
5749 Fog -29 1020 82 10000 1 50 01:25 26.12.2019
5750 Fog -31 1020 74 10000 1 50 00:44 26.12.2019
5751 Fog -27 1020 75 10000 1 10 00:23 26.12.2019
5752 Fog -27 1020 75 10000 2 340 23:58 25.12.2019
5753 Fog -27 1019 82 10000 2 340 23:37 25.12.2019
5754 Fog -27 1019 82 10000 2 340 23:19 25.12.2019
5755 Fog -27 1019 82 10000 2 340 23:19 25.12.2019
5756 Fog -26 1019 83 10000 3 360 22:57 25.12.2019
5757 Fog -25 1018 75 10000 4 360 22:37 25.12.2019
5758 Fog -25 1018 75 10000 4 360 22:19 25.12.2019
5759 Clouds -26 1018 83 10000 4 10 21:57 25.12.2019
5760 Clouds -26 1018 83 10000 4 10 21:39 25.12.2019
5761 Clouds -26 1018 75 10000 3 20 21:19 25.12.2019
5762 Clouds -30 1018 82 10000 4 20 20:41 25.12.2019
5763 Clouds -30 1018 82 10000 4 20 20:41 25.12.2019
5764 Clouds -30 1018 82 10000 4 20 20:21 25.12.2019
5765 Clouds -30 1017 74 10000 2 40 19:59 25.12.2019
5766 Clouds -30 1017 74 10000 2 40 19:41 25.12.2019
5767 Clouds -30 1017 74 10000 2 40 19:21 25.12.2019
5768 Clouds -28 1017 75 10000 3 340 18:40 25.12.2019
5769 Clouds -28 1017 75 10000 3 340 18:21 25.12.2019
5770 Clouds -28 1016 75 10000 2 360 17:58 25.12.2019
5771 Clouds -28 1016 75 10000 2 360 17:39 25.12.2019
5772 Clouds -28 1016 75 10000 2 360 17:18 25.12.2019
5773 Clouds -28 1016 75 10000 3 360 16:55 25.12.2019
5774 Clouds -28 1016 75 10000 3 360 16:55 25.12.2019
5775 Clouds -28 1016 75 10000 3 360 16:36 25.12.2019
5776 Clouds -28 1016 75 10000 3 360 16:18 25.12.2019
5777 Clouds -27 1016 75 10000 3 10 15:56 25.12.2019
5778 Clouds -27 1016 75 10000 3 10 15:37 25.12.2019
5779 Clouds -27 1016 75 10000 3 10 15:18 25.12.2019
5780 Clouds -27 1016 75 10000 4 360 14:54 25.12.2019
5781 Clouds -27 1016 75 10000 4 360 14:36 25.12.2019
5782 Clouds -27 1016 75 10000 4 360 14:18 25.12.2019
5783 Clouds -27 1016 75 10000 1 20 13:41 25.12.2019
5784 Clouds -27 1016 75 10000 1 20 13:20 25.12.2019
5785 Clouds -27 1015 82 10000 3 340 12:43 25.12.2019
5786 Clouds -27 1015 82 10000 3 340 12:22 25.12.2019
5787 Clouds -26 1015 83 10000 1 40 11:58 25.12.2019
5788 Clouds -26 1015 83 10000 1 40 11:58 25.12.2019
5789 Clouds -26 1015 83 10000 1 40 11:40 25.12.2019
5790 Clouds -26 1015 83 10000 1 40 11:20 25.12.2019
5791 Clouds -27 1015 75 10000 3 10 10:39 25.12.2019
5792 Clouds -27 1015 75 10000 3 10 10:21 25.12.2019
5793 Clouds -26 1015 83 10000 3 350 09:58 25.12.2019
5794 Clouds -26 1015 83 10000 3 350 09:40 25.12.2019
5795 Clouds -26 1015 83 10000 3 350 09:40 25.12.2019
5796 Clouds -26 1015 83 10000 3 350 09:21 25.12.2019
5797 Clouds -25 1015 75 10000 3 340 08:42 25.12.2019
5798 Clouds -25 1015 75 10000 3 340 08:23 25.12.2019
5799 Clouds -25 1015 75 10000 3 340 08:23 25.12.2019
5800 Clouds -25 1015 83 10000 3 340 07:43 25.12.2019
5801 Clouds -25 1015 83 10000 3 340 07:22 25.12.2019
5802 Clouds -22 1015 76 10000 3 10 06:24 25.12.2019
5803 Snow -22 1015 83 10000 2 20 05:50 25.12.2019
5804 Snow -21 1014 76 10000 2 20 04:44 25.12.2019
5805 Snow -19 1014 84 10000 1 30 04:24 25.12.2019
5806 Snow -19 1014 84 9000 3.39 327 03:44 25.12.2019
5807 Snow -19 1014 84 9000 3.39 327 03:44 25.12.2019
5808 Snow -19 1014 84 10000 1 30 02:59 25.12.2019
5809 Snow -20 1015 83 10000 1 30 02:30 25.12.2019
5810 Snow -20 1015 83 10000 1 30 01:53 25.12.2019
5811 Snow -19 1015 77 9000 1 360 01:22 25.12.2019
5812 Snow -19 1015 77 9000 1 30 00:42 25.12.2019
5813 Snow -18 1015 84 8000 2 10 00:23 25.12.2019
5814 Snow -18 1015 77 9000 1 10 23:40 24.12.2019
5815 Snow -18 1015 84 7000 3.34 320 23:20 24.12.2019
5816 Snow -18 1015 84 6000 1 360 22:55 24.12.2019
5817 Snow -18 1015 84 8000 1 50 22:37 24.12.2019
5818 Snow -18 1015 84 8000 1 50 22:19 24.12.2019
5819 Snow -18 1015 84 7000 1 60 21:41 24.12.2019
5820 Snow -19 1014 84 8000 1 20 21:22 24.12.2019
5821 Snow -19 1014 77 8000 1 20 20:43 24.12.2019
5822 Snow -19 1014 77 8000 1 20 20:24 24.12.2019
5823 Snow -20 1014 83 9000 2 350 19:57 24.12.2019
5824 Snow -20 1014 83 9000 2 350 19:37 24.12.2019
5825 Snow -20 1014 83 9000 2 350 19:18 24.12.2019
5826 Snow -20 1014 83 10000 1 360 18:42 24.12.2019
5827 Snow -20 1014 83 10000 1 360 18:19 24.12.2019
5828 Snow -20 1014 76 8000 1 10 17:45 24.12.2019
5829 Snow -20 1014 76 8000 1 10 17:23 24.12.2019
5830 Snow -21 1014 83 10000 1 330 16:59 24.12.2019
5831 Snow -21 1014 83 10000 1 330 16:59 24.12.2019
5832 Snow -21 1014 83 10000 1 330 16:40 24.12.2019
5833 Snow -21 1014 83 10000 1 330 16:22 24.12.2019
5834 Snow -21 1014 83 10000 2 10 15:58 24.12.2019
5835 Snow -21 1014 83 10000 2 10 15:58 24.12.2019
5836 Snow -21 1014 83 10000 2 10 15:38 24.12.2019
5837 Snow -21 1014 83 10000 2 10 15:20 24.12.2019
5838 Snow -20 1014 76 10000 3 360 14:59 24.12.2019
5839 Snow -20 1014 76 10000 3 360 14:40 24.12.2019
5840 Snow -20 1014 76 10000 3 360 14:22 24.12.2019
5841 Snow -21 1014 83 10000 3 360 13:57 24.12.2019
5842 Snow -21 1014 83 10000 3 360 13:39 24.12.2019
5843 Snow -21 1014 83 10000 3 360 13:20 24.12.2019
5844 Clouds -24 1014 83 10000 3 360 12:57 24.12.2019
5845 Clouds -24 1014 83 10000 3 360 12:38 24.12.2019
5846 Clouds -24 1014 83 10000 3 360 12:38 24.12.2019
5847 Clouds -24 1014 83 10000 3 360 12:19 24.12.2019
5848 Clear -24 1014 76 10000 2 10 11:58 24.12.2019
5849 Clear -24 1014 76 10000 2 10 11:38 24.12.2019
5850 Clear -24 1014 76 10000 2 10 11:38 24.12.2019
5851 Clear -24 1014 76 10000 2 10 11:20 24.12.2019
5852 Clear -25 1014 83 10000 3 40 10:57 24.12.2019
5853 Clear -25 1014 83 10000 3 40 10:38 24.12.2019
5854 Clear -25 1014 83 10000 3 40 10:20 24.12.2019
5855 Clear -23 1014 76 10000 2 40 09:58 24.12.2019
5856 Clear -23 1014 76 10000 2 40 09:40 24.12.2019
5857 Clear -23 1014 76 10000 2 40 09:21 24.12.2019
5858 Clear -25 1014 83 10000 2 10 08:47 24.12.2019
5859 Clear -25 1014 83 10000 2 10 08:25 24.12.2019
5860 Fog -26 1013 75 10000 2 10 07:59 24.12.2019
5861 Fog -26 1013 75 10000 2 10 07:39 24.12.2019
5862 Fog -26 1013 75 10000 2 10 07:21 24.12.2019
5863 Fog -25 1013 75 10000 2 20 06:40 24.12.2019
5864 Fog -24 1013 83 10000 3 360 06:22 24.12.2019
5865 Fog -24 1013 76 10000 2 360 05:53 24.12.2019
5866 Fog -24 1013 76 10000 4 40 05:19 24.12.2019
5867 Clear -22 1013 83 10000 5 350 04:21 24.12.2019
5868 Clear -22 1013 83 10000 5 340 03:48 24.12.2019
5869 Clear -19 1013 77 10000 3 320 02:29 24.12.2019
5870 Clear -18 1013 77 10000 7 360 01:57 24.12.2019
5871 Clear -17 1013 77 10000 6 360 01:26 24.12.2019
5872 Clear -16 1012 77 10000 4 330 00:58 24.12.2019
5873 Clear -16 1012 77 10000 4 330 00:40 24.12.2019
5874 Clear -17 1012 84 10000 4 350 00:20 24.12.2019
5875 Clouds -17 1012 84 10000 4 330 23:43 23.12.2019
5876 Clouds -17 1013 77 10000 9 350 23:24 23.12.2019
5877 Clear -18 1012 77 10000 9 360 22:57 23.12.2019
5878 Clear -18 1012 77 10000 9 360 22:38 23.12.2019
5879 Clear -18 1012 77 10000 9 360 22:38 23.12.2019
5880 Snow -18 1012 84 10000 8 360 22:20 23.12.2019
5881 Snow -18 1012 77 10000 4 360 21:57 23.12.2019
5882 Snow -18 1012 77 10000 4 360 21:57 23.12.2019
5883 Snow -18 1012 77 10000 3 330 21:37 23.12.2019
5884 Snow -18 1012 77 10000 3 330 21:19 23.12.2019
5885 Snow -19 1012 84 10000 7 340 20:59 23.12.2019
5886 Snow -19 1012 84 10000 7 340 20:40 23.12.2019
5887 Snow -19 1012 84 10000 7 340 20:19 23.12.2019
5888 Snow -19 1012 77 10000 5 340 19:58 23.12.2019
5889 Snow -19 1012 77 10000 5 340 19:40 23.12.2019
5890 Snow -19 1012 77 10000 5 340 19:21 23.12.2019
5891 Snow -19 1012 84 10000 4 350 18:58 23.12.2019
5892 Snow -19 1012 84 10000 4 350 18:58 23.12.2019
5893 Snow -19 1012 84 10000 4 350 18:39 23.12.2019
5894 Snow -19 1012 84 10000 4 350 18:21 23.12.2019
5895 Snow -19 1012 77 10000 5 340 17:59 23.12.2019
5896 Snow -19 1012 77 10000 5 340 17:40 23.12.2019
5897 Snow -19 1012 77 10000 5 340 17:19 23.12.2019
5898 Snow -20 1011 83 10000 4 350 16:57 23.12.2019
5899 Snow -20 1011 83 10000 4 350 16:39 23.12.2019
5900 Snow -20 1011 83 10000 4 350 16:19 23.12.2019
5901 Snow -20 1011 83 10000 4 350 16:19 23.12.2019
5902 Snow -21 1011 83 10000 4 350 15:57 23.12.2019
5903 Snow -21 1011 83 10000 4 350 15:37 23.12.2019
5904 Snow -21 1011 83 10000 4 350 15:19 23.12.2019
5905 Clouds -23 1011 76 10000 5 350 14:56 23.12.2019
5906 Clouds -23 1011 76 10000 5 350 14:38 23.12.2019
5907 Clouds -23 1011 76 10000 5 350 14:19 23.12.2019
5908 Clouds -25 1010 75 10000 3 340 13:56 23.12.2019
5909 Clouds -25 1010 75 10000 3 340 13:38 23.12.2019
5910 Clouds -25 1010 75 10000 3 340 13:20 23.12.2019
5911 Clear -26 1010 75 6000 2 340 12:55 23.12.2019
5912 Clear -26 1010 75 6000 2 340 12:36 23.12.2019
5913 Clear -26 1010 75 6000 2 340 12:18 23.12.2019
5914 Clear -25 1010 83 10000 4 360 11:42 23.12.2019
5915 Clear -25 1010 83 10000 4 360 11:24 23.12.2019
5916 Clear -25 1009 75 10000 4 350 10:56 23.12.2019
5917 Clear -25 1009 75 10000 4 350 10:38 23.12.2019
5918 Clear -25 1009 75 10000 4 350 10:20 23.12.2019
5919 Clear -25 1009 75 10000 4 340 09:58 23.12.2019
5920 Clear -25 1009 75 10000 4 340 09:39 23.12.2019
5921 Clear -25 1009 75 10000 4 340 09:19 23.12.2019
5922 Clear -27 1009 75 10000 4 350 08:42 23.12.2019
5923 Clear -27 1009 75 10000 4 350 08:23 23.12.2019
5924 Clouds -24 1008 76 10000 4 350 07:57 23.12.2019
5925 Clouds -24 1008 76 10000 4 350 07:38 23.12.2019
5926 Clouds -25 1008 75 10000 3 350 07:19 23.12.2019
5927 Clouds -26 1008 75 10000 3 350 06:43 23.12.2019
5928 Clouds -24 1008 76 10000 3 10 06:22 23.12.2019
5929 Clouds -25 1008 75 10000 2 360 05:46 23.12.2019
5930 Clouds -26 1008 83 10000 3 10 05:18 23.12.2019
5931 Clouds -26 1007 75 10000 4 360 04:19 23.12.2019
5932 Clouds -26 1007 75 10000 2 350 02:48 23.12.2019
5933 Clouds -25 1007 75 10000 3 10 02:20 23.12.2019
5934 Clouds -26 1007 75 10000 3 20 01:51 23.12.2019
5935 Clouds -26 1007 75 10000 1 30 01:32 23.12.2019
5936 Clouds -26 1007 75 10000 1 30 01:32 23.12.2019
5937 Clouds -25 1007 69 10000 1 20 00:54 23.12.2019
5938 Clouds -24 1007 69 10000 3 310 00:35 23.12.2019
5939 Clouds -24 1007 69 10000 3 360 23:57 22.12.2019
5940 Clouds -24 1007 69 10000 3 360 23:38 22.12.2019
5941 Clouds -24 1007 69 10000 3 30 23:20 22.12.2019
5942 Clouds -25 1007 69 10000 2 20 22:57 22.12.2019
5943 Clouds -25 1007 69 10000 4 20 22:38 22.12.2019
5944 Clouds -24 1007 69 10000 4 20 22:19 22.12.2019
5945 Clouds -24 1007 63 10000 3 20 21:56 22.12.2019
5946 Clouds -24 1007 63 10000 3 20 21:38 22.12.2019
5947 Clouds -24 1006 69 10000 2 20 21:20 22.12.2019
5948 Clouds -26 1006 75 10000 3 360 20:41 22.12.2019
5949 Clouds -26 1006 75 10000 3 360 20:19 22.12.2019
5950 Clouds -25 1006 75 10000 6 340 19:58 22.12.2019
5951 Clouds -25 1006 75 10000 6 340 19:40 22.12.2019
5952 Clouds -25 1006 75 10000 6 340 19:20 22.12.2019
5953 Clouds -21 1006 58 10000 7 340 18:58 22.12.2019
5954 Clouds -21 1006 58 10000 7 340 18:38 22.12.2019
5955 Clouds -21 1006 58 10000 7 340 18:19 22.12.2019
5956 Clouds -21 1006 63 10000 9 360 17:55 22.12.2019
5957 Clouds -21 1006 63 10000 9 360 17:36 22.12.2019
5958 Clouds -21 1006 63 10000 9 360 17:18 22.12.2019
5959 Clouds -16 1005 54 10000 10 10 16:42 22.12.2019
5960 Clouds -16 1005 54 10000 10 10 16:23 22.12.2019
5961 Clouds -16 1005 54 10000 10 10 16:23 22.12.2019
5962 Clouds -20 1006 64 10000 7 360 15:58 22.12.2019
5963 Clouds -20 1006 64 10000 7 360 15:39 22.12.2019
5964 Clouds -20 1006 64 10000 7 360 15:21 22.12.2019
5965 Clouds -20 1006 64 10000 5 360 14:59 22.12.2019
5966 Clouds -20 1006 64 10000 5 360 14:38 22.12.2019
5967 Clouds -20 1006 64 10000 5 360 14:19 22.12.2019
5968 Clouds -22 1006 69 10000 6 350 13:56 22.12.2019
5969 Clouds -22 1006 69 10000 6 350 13:38 22.12.2019
5970 Clouds -22 1006 69 10000 6 350 13:19 22.12.2019
5971 Clouds -21 1006 70 10000 3 350 12:57 22.12.2019
5972 Clouds -21 1006 70 10000 3 350 12:57 22.12.2019
5973 Clouds -21 1006 70 10000 3 350 12:38 22.12.2019
5974 Clouds -21 1006 70 10000 3 350 12:19 22.12.2019
5975 Clouds -21 1006 70 10000 3 350 12:19 22.12.2019
5976 Clouds -21 1006 70 10000 3 350 12:19 22.12.2019
5977 Clouds -22 1006 76 10000 6 20 11:58 22.12.2019
5978 Clouds -22 1006 76 10000 6 20 11:39 22.12.2019
5979 Clouds -22 1006 76 10000 6 20 11:19 22.12.2019
5980 Clouds -21 1006 70 10000 4 30 10:57 22.12.2019
5981 Clouds -21 1006 70 10000 4 30 10:38 22.12.2019
5982 Clouds -21 1006 70 10000 4 30 10:19 22.12.2019
5983 Clouds -22 1006 76 10000 5 40 09:58 22.12.2019
5984 Clouds -22 1006 76 10000 5 40 09:39 22.12.2019
5985 Clouds -22 1006 76 10000 5 40 09:21 22.12.2019
5986 Clouds -20 1006 76 10000 3 30 08:45 22.12.2019
5987 Clouds -20 1006 76 10000 3 30 08:23 22.12.2019
5988 Clouds -22 1006 76 10000 3 30 07:50 22.12.2019
5989 Clouds -22 1006 76 10000 3 30 07:21 22.12.2019
5990 Clouds -22 1006 76 10000 3 30 07:21 22.12.2019
5991 Clouds -19 1007 70 10000 1 50 06:56 22.12.2019
5992 Clouds -19 1007 70 10000 1 50 06:27 22.12.2019
5993 Clouds -20 1007 76 10000 3.5 8 05:41 22.12.2019
5994 Clouds -20 1007 76 10000 3.7 8 05:20 22.12.2019
5995 Clouds -15 1007 71 10000 3 40 04:26 22.12.2019
5996 Fog -23 1007 76 10000 3 30 02:56 22.12.2019
5997 Fog -23 1007 76 10000 3 30 02:34 22.12.2019
5998 Fog -23 1007 83 10000 1 20 01:32 22.12.2019
5999 Fog -21 1007 83 10000 2 160 00:57 22.12.2019
6000 Fog -21 1007 83 10000 2 160 00:38 22.12.2019
6001 Fog -21 1007 83 10000 2 160 00:20 22.12.2019
6002 Fog -25 1007 75 10000 2 130 23:41 21.12.2019
6003 Fog -25 1007 75 10000 2 130 23:22 21.12.2019
6004 Clear -18 1007 84 10000 2 120 22:57 21.12.2019
6005 Clear -18 1007 84 10000 2 120 22:39 21.12.2019
6006 Clear -18 1007 84 10000 2 120 22:18 21.12.2019
6007 Clear -22 1006 76 10000 4 100 21:56 21.12.2019
6008 Clear -22 1006 76 10000 4 100 21:37 21.12.2019
6009 Clear -22 1006 76 10000 4 100 21:18 21.12.2019
6010 Clear -17 1006 77 10000 2 110 20:57 21.12.2019
6011 Clear -17 1006 77 10000 2 110 20:37 21.12.2019
6012 Clear -17 1006 77 10000 2 110 20:37 21.12.2019
6013 Clear -17 1006 77 10000 2 110 20:19 21.12.2019
6014 Clear -17 1005 84 10000 4 170 19:56 21.12.2019
6015 Clear -17 1005 84 10000 4 170 19:36 21.12.2019
6016 Clear -17 1005 84 10000 4 170 19:18 21.12.2019
6017 Clear -20 1004 83 10000 3 160 18:42 21.12.2019
6018 Clear -20 1004 83 10000 3 160 18:23 21.12.2019
6019 Clear -27 1004 82 10000 1 120 17:56 21.12.2019
6020 Clear -27 1004 82 10000 1 120 17:56 21.12.2019
6021 Clear -27 1004 82 10000 1 120 17:38 21.12.2019
6022 Clear -27 1004 82 10000 1 120 17:20 21.12.2019
6023 Clear -20 1004 76 10000 1 50 16:57 21.12.2019
6024 Clear -20 1004 76 10000 1 50 16:38 21.12.2019
6025 Clear -20 1004 76 10000 1 50 16:18 21.12.2019
6026 Clear -25 1003 83 10000 2 80 15:55 21.12.2019
6027 Clear -25 1003 83 10000 2 80 15:37 21.12.2019
6028 Clear -25 1003 83 10000 2 80 15:18 21.12.2019
6029 Clear -24 1003 83 10000 3 90 14:42 21.12.2019
6030 Clear -24 1003 83 10000 3 90 14:23 21.12.2019
6031 Clear -23 1002 76 10000 3 90 13:58 21.12.2019
6032 Clear -23 1002 76 10000 3 90 13:39 21.12.2019
6033 Clear -23 1002 76 10000 3 90 13:19 21.12.2019
6034 Clear -19 1001 84 10000 2 250 12:56 21.12.2019
6035 Clear -19 1001 84 10000 2 250 12:38 21.12.2019
6036 Clear -19 1001 84 10000 2 250 12:38 21.12.2019
6037 Clear -19 1001 84 10000 2 250 12:38 21.12.2019
6038 Clear -19 1001 84 10000 2 250 12:20 21.12.2019
6039 Clear -17 1000 77 10000 4 170 11:48 21.12.2019
6040 Clear -17 1000 77 10000 4 170 11:27 21.12.2019
6041 Clear -17 999 84 10000 6 170 10:59 21.12.2019
6042 Clear -17 999 84 10000 6 170 10:41 21.12.2019
6043 Clear -17 999 84 10000 6 170 10:22 21.12.2019
6044 Clouds -17 998 84 10000 5 160 09:58 21.12.2019
6045 Clouds -17 998 84 10000 5 160 09:39 21.12.2019
6046 Clouds -17 998 84 10000 5 160 09:19 21.12.2019
6047 Clouds -16 997 77 10000 4 160 08:51 21.12.2019
6048 Clouds -16 997 77 10000 4 160 08:27 21.12.2019
6049 Clear -17 997 77 10000 2 180 07:58 21.12.2019
6050 Clear -17 997 77 10000 2 180 07:58 21.12.2019
6051 Clear -17 997 77 10000 2 180 07:39 21.12.2019
6052 Clear -17 997 77 10000 2 180 07:20 21.12.2019
6053 Clouds -14 996 71 10000 4 260 06:40 21.12.2019
6054 Clouds -14 996 71 10000 4 260 06:22 21.12.2019
6055 Clouds -13 994 78 10000 4 260 05:25 21.12.2019
6056 Snow -14 994 84 4500 1 20 04:34 21.12.2019
6057 Snow -14 993 84 5000 1 10 03:56 21.12.2019
6058 Snow -14 991 77 10000 2 40 02:25 21.12.2019
6059 Snow -12 990 78 10000 6.2 237 01:50 21.12.2019
6060 Clouds -13 990 84 10000 6.14 235 01:25 21.12.2019
6061 Clouds -12 989 78 10000 1 220 00:48 21.12.2019
6062 Clouds -12 989 78 10000 4 270 00:28 21.12.2019
6063 Snow -11 989 78 10000 5 260 23:39 20.12.2019
6064 Snow -11 989 78 10000 5 260 23:39 20.12.2019
6065 Snow -10 988 78 10000 2 220 23:21 20.12.2019
6066 Snow -10 987 92 10000 2 340 22:59 20.12.2019
6067 Snow -10 987 92 10000 2 340 22:39 20.12.2019
6068 Snow -10 987 92 10000 2 340 22:19 20.12.2019
6069 Snow -9 986 85 10000 5 290 21:42 20.12.2019
6070 Snow -9 986 85 10000 5 290 21:21 20.12.2019
6071 Snow -8 985 85 5000 4 260 20:59 20.12.2019
6072 Snow -8 985 85 5000 4 260 20:38 20.12.2019
6073 Snow -8 985 85 5000 4 260 20:19 20.12.2019
6074 Snow -7 984 85 2000 2 200 19:56 20.12.2019
6075 Snow -7 984 85 2000 2 200 19:38 20.12.2019
6076 Snow -7 984 85 2000 2 200 19:18 20.12.2019
6077 Snow -7 982 92 1200 4 250 18:41 20.12.2019
6078 Snow -7 982 92 1200 4 250 18:23 20.12.2019
6079 Snow -7 981 85 10000 4 300 17:58 20.12.2019
6080 Snow -7 981 85 10000 4 300 17:40 20.12.2019
6081 Snow -7 981 85 10000 4 300 17:20 20.12.2019
6082 Clouds -7 980 85 10000 6 270 16:57 20.12.2019
6083 Clouds -7 980 85 10000 6 270 16:38 20.12.2019
6084 Clouds -7 980 85 10000 6 270 16:19 20.12.2019
6085 Clouds -8 979 85 10000 5 200 15:55 20.12.2019
6086 Clouds -8 979 85 10000 5 200 15:37 20.12.2019
6087 Clouds -8 979 85 10000 5 200 15:37 20.12.2019
6088 Clouds -8 979 85 10000 5 200 15:18 20.12.2019
6089 Clouds -6 978 85 10000 7 200 14:42 20.12.2019
6090 Clouds -6 978 85 10000 7 200 14:24 20.12.2019
6091 Clouds -3 977 86 10000 7 200 13:57 20.12.2019
6092 Clouds -3 977 86 10000 7 200 13:38 20.12.2019
6093 Clouds -3 977 86 10000 7 200 13:19 20.12.2019
6094 Snow -2 977 92 10000 3 170 12:57 20.12.2019
6095 Snow -2 977 92 10000 3 170 12:37 20.12.2019
6096 Snow -2 977 92 10000 3 170 12:18 20.12.2019
6097 Snow -2 977 100 1800 3 190 11:57 20.12.2019
6098 Snow -2 977 100 1800 3 190 11:39 20.12.2019
6099 Snow -2 977 100 1800 3 190 11:18 20.12.2019
6100 Snow -2 977 100 1800 3 190 11:18 20.12.2019
6101 Snow -1 976 92 1600 1 170 10:56 20.12.2019
6102 Snow -1 976 92 1600 1 170 10:38 20.12.2019
6103 Snow -1 976 92 1600 1 170 10:19 20.12.2019
6104 Snow -1 976 92 2000 3 210 09:43 20.12.2019
6105 Snow -1 976 92 2000 3 210 09:21 20.12.2019
6106 Snow 0 976 90 1000 9 120 08:57 20.12.2019
6107 Snow 0 976 90 1000 9 120 08:38 20.12.2019
6108 Snow 0 976 98 1000 9 120 08:20 20.12.2019
6109 Snow 0 976 98 1000 9 120 08:20 20.12.2019
6110 Snow 0 976 98 750 13 100 07:57 20.12.2019
6111 Snow 0 976 98 750 13 100 07:37 20.12.2019
6112 Snow 0 976 98 750 13 100 07:18 20.12.2019
6113 Snow -1 976 92 700 15 110 06:44 20.12.2019
6114 Clouds -1 976 92 400 15 110 06:26 20.12.2019
6115 Clouds -1 977 92 200 20 100 05:47 20.12.2019
6116 Clouds -1 977 92 150 21 100 05:18 20.12.2019
6117 Clouds -2 978 92 100 26 100 03:49 20.12.2019
6118 Clouds -2 979 92 100 26 100 03:20 20.12.2019
6119 Clouds -3 981 92 100 25 100 02:20 20.12.2019
6120 Clouds -4 983 92 50 27 90 01:36 20.12.2019
6121 Clouds -4 984 92 50 26 90 00:56 20.12.2019
6122 Clouds -4 986 92 50 26 90 00:35 20.12.2019
6123 Clouds -4 987 92 100 23 100 23:58 19.12.2019
6124 Clouds -4 987 92 100 23 100 23:58 19.12.2019
6125 Clouds -4 988 92 100 23 100 23:40 19.12.2019
6126 Clouds -4 988 92 100 23 100 23:19 19.12.2019
6127 Clouds -4 990 92 50 22 100 22:40 19.12.2019
6128 Clouds -4 990 92 50 22 100 22:22 19.12.2019
6129 Clouds -5 991 92 100 21 100 21:59 19.12.2019
6130 Clouds -5 991 92 100 21 100 21:59 19.12.2019
6131 Clouds -5 992 92 100 19 100 21:41 19.12.2019
6132 Clouds -5 992 92 100 19 100 21:19 19.12.2019
6133 Snow -5 994 92 150 17 100 20:57 19.12.2019
6134 Snow -5 994 92 150 17 100 20:38 19.12.2019
6135 Snow -5 994 92 150 17 100 20:20 19.12.2019
6136 Snow -5 996 92 200 11 100 19:58 19.12.2019
6137 Snow -5 996 92 200 11 100 19:40 19.12.2019
6138 Snow -5 996 92 200 11 100 19:40 19.12.2019
6139 Snow -5 996 92 200 11 100 19:19 19.12.2019
6140 Snow -5 996 92 200 11 100 19:19 19.12.2019
6141 Snow -5 996 92 200 11 100 19:19 19.12.2019
6142 Snow -5 996 92 200 11 100 19:19 19.12.2019
6143 Snow -6 997 92 250 11 100 18:58 19.12.2019
6144 Snow -6 997 92 250 11 100 18:40 19.12.2019
6145 Snow -8 997 92 250 11 100 18:20 19.12.2019
6146 Snow -8 999 92 500 10 90 17:56 19.12.2019
6147 Snow -8 999 92 500 10 90 17:38 19.12.2019
6148 Snow -8 999 92 500 10 90 17:18 19.12.2019
6149 Snow -8 1001 92 550 11 100 16:56 19.12.2019
6150 Snow -8 1001 92 550 11 100 16:37 19.12.2019
6151 Snow -8 1001 92 550 11 100 16:37 19.12.2019
6152 Snow -8 1001 92 550 11 100 16:19 19.12.2019
6153 Snow -8 1002 92 400 10 90 15:57 19.12.2019
6154 Snow -8 1002 92 400 10 90 15:57 19.12.2019
6155 Snow -8 1002 92 400 10 90 15:37 19.12.2019
6156 Snow -8 1002 92 400 10 90 15:19 19.12.2019
6157 Snow -8 1002 92 400 10 90 15:19 19.12.2019
6158 Fog -9 1004 92 600 10 100 14:54 19.12.2019
6159 Fog -9 1004 92 600 10 100 14:36 19.12.2019
6160 Fog -9 1004 92 600 10 100 14:18 19.12.2019
6161 Fog -9 1005 85 550 8 90 13:38 19.12.2019
6162 Fog -9 1005 85 550 8 90 13:20 19.12.2019
6163 Fog -9 1006 85 750 7 90 12:58 19.12.2019
6164 Fog -9 1006 85 750 7 90 12:40 19.12.2019
6165 Fog -9 1006 85 750 7 90 12:19 19.12.2019
6166 Fog -9 1006 85 750 7 90 12:19 19.12.2019
6167 Fog -9 1006 85 750 7 90 12:19 19.12.2019
6168 Snow -9 1007 85 1300 3 110 11:59 19.12.2019
6169 Snow -9 1007 85 1300 3 110 11:40 19.12.2019
6170 Snow -9 1007 85 1300 3 110 11:18 19.12.2019
6171 Snow -9 1007 85 2000 2 80 10:58 19.12.2019
6172 Snow -9 1007 85 2000 2 80 10:58 19.12.2019
6173 Snow -9 1007 85 2000 2 80 10:38 19.12.2019
6174 Snow -9 1007 85 2000 2 80 10:20 19.12.2019
6175 Snow -15 1008 84 900 1 360 09:56 19.12.2019
6176 Snow -15 1008 84 900 1 360 09:37 19.12.2019
6177 Snow -15 1008 84 900 1 360 09:19 19.12.2019
6178 Snow -17 1008 84 9000 3 30 08:55 19.12.2019
6179 Snow -17 1008 84 9000 3 30 08:36 19.12.2019
6180 Snow -17 1008 84 9000 3 30 08:18 19.12.2019
6181 Mist -18 1008 84 5000 3 360 07:40 19.12.2019
6182 Mist -18 1008 84 5000 3 360 07:22 19.12.2019
6183 Clouds -17 1009 84 7000 2 360 06:55 19.12.2019
6184 Mist -17 1009 84 2100 2 350 06:37 19.12.2019
6185 Mist -17 1009 84 2100 2 350 06:18 19.12.2019
6186 Fog -18 1009 84 450 2 20 05:42 19.12.2019
6187 Fog -18 1009 84 450 2 20 05:19 19.12.2019
6188 Mist -17 1010 91 3600 2 360 03:51 19.12.2019
6189 Snow -17 1010 84 10000 2 360 02:28 19.12.2019
6190 Snow -16 1011 84 10000 3 330 01:24 19.12.2019
6191 Snow -16 1011 84 10000 3 320 00:57 19.12.2019
6192 Snow -16 1011 84 10000 3 340 00:38 19.12.2019
6193 Snow -16 1011 84 10000 3 340 00:19 19.12.2019
6194 Snow -16 1011 84 10000 3 340 00:19 19.12.2019
6195 Snow -16 1011 84 10000 3 350 23:44 18.12.2019
6196 Snow -16 1011 84 10000 3 350 23:19 18.12.2019
6197 Clouds -16 1011 84 10000 2 340 22:56 18.12.2019
6198 Clouds -18 1011 84 10000 3 340 22:38 18.12.2019
6199 Clouds -19 1011 84 10000 3 340 22:20 18.12.2019
6200 Clouds -19 1011 84 10000 4 340 21:58 18.12.2019
6201 Clouds -18 1010 84 10000 2 330 21:39 18.12.2019
6202 Clouds -18 1010 84 10000 2 330 21:39 18.12.2019
6203 Clouds -17 1010 84 10000 2 330 21:20 18.12.2019
6204 Snow -16 1010 84 9000 3 340 20:56 18.12.2019
6205 Snow -16 1010 84 9000 3 340 20:38 18.12.2019
6206 Snow -16 1010 84 9000 3 340 20:20 18.12.2019
6207 Snow -15 1011 84 10000 3 340 19:56 18.12.2019
6208 Snow -15 1011 84 10000 3 340 19:38 18.12.2019
6209 Snow -15 1011 84 10000 3 340 19:38 18.12.2019
6210 Snow -15 1011 84 10000 3 340 19:18 18.12.2019
6211 Snow -15 1010 84 10000 3 350 18:54 18.12.2019
6212 Snow -15 1010 84 10000 3 350 18:36 18.12.2019
6213 Snow -15 1010 84 10000 3 350 18:18 18.12.2019
6214 Snow -15 1010 84 10000 4 350 17:55 18.12.2019
6215 Snow -15 1010 84 10000 4 350 17:37 18.12.2019
6216 Snow -15 1010 84 10000 4 350 17:18 18.12.2019
6217 Snow -15 1010 84 5000 4 340 16:42 18.12.2019
6218 Snow -15 1010 84 5000 4 340 16:23 18.12.2019
6219 Snow -14 1009 84 3400 4 330 15:57 18.12.2019
6220 Snow -14 1009 84 3400 4 330 15:39 18.12.2019
6221 Snow -14 1009 84 3400 4 330 15:21 18.12.2019
6222 Snow -14 1009 92 1300 3 340 14:56 18.12.2019
6223 Snow -14 1009 92 1300 3 340 14:36 18.12.2019
6224 Snow -14 1009 92 1300 3 340 14:18 18.12.2019
6225 Snow -13 1009 84 1300 3 350 13:54 18.12.2019
6226 Snow -13 1009 84 1300 3 350 13:36 18.12.2019
6227 Snow -13 1009 84 1300 3 350 13:18 18.12.2019
6228 Snow -13 1009 84 1300 3 350 13:18 18.12.2019
6229 Snow -13 1009 84 2000 4 330 12:40 18.12.2019
6230 Snow -13 1009 84 2000 4 330 12:40 18.12.2019
6231 Snow -13 1009 84 2000 4 330 12:21 18.12.2019
6232 Snow -13 1009 84 1800 4 340 11:57 18.12.2019
6233 Snow -13 1009 84 1800 4 340 11:39 18.12.2019
6234 Snow -13 1009 84 1800 4 340 11:20 18.12.2019
6235 Snow -13 1008 92 1400 4 340 10:58 18.12.2019
6236 Snow -13 1008 92 1400 4 340 10:39 18.12.2019
6237 Snow -13 1008 92 1400 4 340 10:20 18.12.2019
6238 Snow -13 1008 92 2100 3 340 09:57 18.12.2019
6239 Snow -13 1008 92 2100 3 340 09:20 18.12.2019
6240 Snow -13 1008 92 5000 2 10 08:43 18.12.2019
6241 Snow -13 1008 92 5000 2 10 08:24 18.12.2019
6242 Snow -13 1007 84 9000 2 20 07:57 18.12.2019
6243 Snow -13 1007 84 9000 2 20 07:39 18.12.2019
6244 Snow -13 1007 84 9000 2 20 07:20 18.12.2019
6245 Snow -13 1007 84 10000 3 10 06:52 18.12.2019
6246 Snow -13 1007 84 9000 1 20 06:24 18.12.2019
6247 Snow -13 1007 84 10000 1 20 05:35 18.12.2019
6248 Snow -13 1007 84 10000 1 20 05:35 18.12.2019
6249 Snow -13 1006 84 10000 1 10 03:49 18.12.2019
6250 Clouds -14 1006 92 10000 1 10 02:46 18.12.2019
6251 Clouds -14 1006 84 10000 1 20 02:27 18.12.2019
6252 Clouds -14 1006 84 10000 1 10 01:44 18.12.2019
6253 Clouds -14 1006 84 10000 1 20 01:25 18.12.2019
6254 Snow -14 1006 84 10000 1 10 00:42 18.12.2019
6255 Snow -14 1006 84 10000 1 10 00:24 18.12.2019
6256 Snow -14 1006 84 10000 1 360 23:59 17.12.2019
6257 Snow -14 1006 84 10000 1 360 23:59 17.12.2019
6258 Snow -14 1006 84 10000 1 360 23:59 17.12.2019
6259 Snow -15 1006 92 10000 1 10 23:40 17.12.2019
6260 Snow -15 1006 92 10000 1 10 23:21 17.12.2019
6261 Snow -14 1006 84 10000 1 350 22:57 17.12.2019
6262 Snow -14 1006 84 10000 1 350 22:57 17.12.2019
6263 Snow -14 1005 84 10000 2 360 22:39 17.12.2019
6264 Snow -14 1005 84 10000 2 360 22:19 17.12.2019
6265 Snow -14 1005 84 6000 2 340 21:57 17.12.2019
6266 Snow -14 1005 84 10000 2 360 21:38 17.12.2019
6267 Snow -14 1005 84 10000 2 360 21:20 17.12.2019
6268 Snow -14 1005 84 4200 1 350 20:59 17.12.2019
6269 Snow -14 1005 84 4200 1 350 20:39 17.12.2019
6270 Snow -14 1005 84 4200 1 350 20:19 17.12.2019
6271 Snow -14 1004 84 7000 1 350 19:57 17.12.2019
6272 Snow -14 1004 84 7000 1 350 19:39 17.12.2019
6273 Snow -14 1004 84 7000 1 350 19:19 17.12.2019
6274 Mist -14 1004 84 4400 1 340 18:57 17.12.2019
6275 Mist -14 1004 84 4400 1 340 18:57 17.12.2019
6276 Mist -14 1004 84 4400 1 340 18:37 17.12.2019
6277 Mist -14 1004 84 4400 1 340 18:19 17.12.2019
6278 Clouds -14 1003 84 0 5.8 323 17:54 17.12.2019
6279 Clouds -14 1003 84 0 5.8 323 17:36 17.12.2019
6280 Snow -14 1003 84 1600 3 350 17:18 17.12.2019
6281 Snow -14 1003 84 1600 3 350 16:54 17.12.2019
6282 Snow -14 1003 84 1600 3 350 16:36 17.12.2019
6283 Snow -14 1003 84 1600 3 350 16:18 17.12.2019
6284 Snow -14 1003 84 3700 3 330 15:38 17.12.2019
6285 Snow -14 1003 84 3700 3 330 15:20 17.12.2019
6286 Mist -15 1003 92 3000 4 340 14:56 17.12.2019
6287 Mist -15 1003 92 3000 4 340 14:38 17.12.2019
6288 Mist -15 1003 92 3000 4 340 14:19 17.12.2019
6289 Fog -15 1003 92 800 4 340 13:56 17.12.2019
6290 Fog -15 1003 92 800 4 340 13:38 17.12.2019
6291 Fog -15 1003 92 800 4 340 13:19 17.12.2019
6292 Snow -15 1003 92 650 4 340 12:58 17.12.2019
6293 Snow -15 1003 92 650 4 340 12:38 17.12.2019
6294 Snow -15 1003 92 650 4 340 12:38 17.12.2019
6295 Snow -15 1003 92 650 4 340 12:18 17.12.2019
6296 Fog -15 1003 84 7000 3 330 11:56 17.12.2019
6297 Fog -15 1003 84 7000 3 330 11:36 17.12.2019
6298 Fog -15 1003 84 7000 3 330 11:36 17.12.2019
6299 Fog -15 1003 84 7000 3 330 11:18 17.12.2019
6300 Snow -15 1003 84 9000 4 340 10:56 17.12.2019
6301 Snow -15 1003 84 9000 4 340 10:37 17.12.2019
6302 Snow -15 1003 84 9000 4 340 10:19 17.12.2019
6303 Snow -15 1003 84 10000 4 340 09:42 17.12.2019
6304 Snow -15 1003 84 10000 4 340 09:22 17.12.2019
6305 Snow -16 1003 84 3800 4 340 08:58 17.12.2019
6306 Snow -16 1003 84 3800 4 340 08:40 17.12.2019
6307 Snow -16 1003 84 3800 4 340 08:21 17.12.2019
6308 Snow -15 1002 92 6000 3 350 07:58 17.12.2019
6309 Snow -15 1002 92 6000 3 350 07:39 17.12.2019
6310 Snow -15 1002 92 6000 3 350 07:20 17.12.2019
6311 Mist -15 1003 84 1800 3 350 06:42 17.12.2019
6312 Mist -15 1003 84 1800 3 350 06:24 17.12.2019
6313 Clouds -14 1002 84 10000 3 330 05:41 17.12.2019
6314 Mist -15 1002 84 10000 3 330 04:51 17.12.2019
6315 Mist -16 1002 84 1100 3 340 03:40 17.12.2019
6316 Snow -16 1002 84 3200 1 330 02:22 17.12.2019
6317 Fog -17 1002 84 10000 2 340 01:21 17.12.2019
6318 Fog -18 1002 91 10000 1 340 00:45 17.12.2019
6319 Fog -18 1003 91 10000 2 10 00:21 17.12.2019
6320 Fog -18 1002 84 10000 3 10 23:44 16.12.2019
6321 Fog -17 1002 84 10000 2 50 23:20 16.12.2019
6322 Clouds -17 1003 84 10000 2 340 22:58 16.12.2019
6323 Clouds -16 1003 84 10000 2 340 22:38 16.12.2019
6324 Clouds -16 1003 84 10000 2 340 22:38 16.12.2019
6325 Clouds -15 1003 84 10000 2 340 22:20 16.12.2019
6326 Snow -14 1003 84 10000 1 330 21:57 16.12.2019
6327 Snow -14 1003 84 10000 2 10 21:39 16.12.2019
6328 Snow -13 1003 84 10000 2 10 21:20 16.12.2019
6329 Snow -14 1002 92 10000 2 330 20:58 16.12.2019
6330 Snow -14 1002 92 10000 2 330 20:39 16.12.2019
6331 Snow -14 1002 92 10000 2 330 20:39 16.12.2019
6332 Snow -14 1002 92 10000 2 330 20:19 16.12.2019
6333 Snow -13 1002 84 9000 1 340 19:56 16.12.2019
6334 Snow -13 1002 84 9000 1 340 19:37 16.12.2019
6335 Snow -13 1002 84 9000 1 340 19:19 16.12.2019
6336 Snow -13 1002 84 10000 1 350 18:59 16.12.2019
6337 Snow -13 1002 84 10000 1 350 18:40 16.12.2019
6338 Snow -13 1002 84 10000 1 350 18:20 16.12.2019
6339 Snow -13 1003 92 10000 2 360 17:58 16.12.2019
6340 Snow -13 1003 92 10000 2 360 17:39 16.12.2019
6341 Snow -13 1003 92 10000 2 360 17:21 16.12.2019
6342 Clouds -13 1002 84 10000 1 30 16:57 16.12.2019
6343 Clouds -13 1002 84 10000 1 30 16:39 16.12.2019
6344 Clouds -13 1002 84 10000 1 30 16:20 16.12.2019
6345 Snow -15 1002 92 9000 2 40 15:59 16.12.2019
6346 Snow -15 1002 92 9000 2 40 15:59 16.12.2019
6347 Snow -15 1002 92 9000 2 40 15:39 16.12.2019
6348 Snow -15 1002 92 9000 2 40 15:20 16.12.2019
6349 Snow -17 1003 84 10000 1 40 14:57 16.12.2019
6350 Snow -17 1003 84 10000 1 40 14:37 16.12.2019
6351 Snow -17 1003 84 10000 1 40 14:37 16.12.2019
6352 Snow -17 1003 84 10000 1 40 14:19 16.12.2019
6353 Snow -17 1003 84 10000 1 40 14:19 16.12.2019
6354 Snow -17 1003 84 10000 1 40 14:19 16.12.2019
6355 Snow -17 1003 84 10000 1 40 14:19 16.12.2019
6356 Snow -18 1003 84 10000 2 20 13:56 16.12.2019
6357 Snow -18 1003 84 10000 2 20 13:37 16.12.2019
6358 Snow -18 1003 84 10000 2 20 13:19 16.12.2019
6359 Snow -15 1003 84 1900 1 20 12:57 16.12.2019
6360 Snow -15 1003 84 1900 1 20 12:39 16.12.2019
6361 Snow -15 1003 84 1900 1 20 12:19 16.12.2019
6362 Snow -15 1003 84 10000 1 60 11:58 16.12.2019
6363 Snow -15 1003 84 10000 1 60 11:40 16.12.2019
6364 Snow -15 1003 84 10000 1 60 11:20 16.12.2019
6365 Clouds -13 1003 84 10000 1 360 10:56 16.12.2019
6366 Clouds -13 1003 84 10000 1 360 10:38 16.12.2019
6367 Clouds -13 1003 84 10000 1 360 10:19 16.12.2019
6368 Mist -14 1003 92 2700 1 50 09:45 16.12.2019
6369 Mist -14 1003 92 2700 1 50 09:27 16.12.2019
6370 Clouds -14 1003 84 10000 2 330 08:55 16.12.2019
6371 Clouds -14 1003 84 10000 2 330 08:37 16.12.2019
6372 Clouds -14 1003 84 10000 2 330 08:18 16.12.2019
6373 Clouds -11 1003 92 10000 1 50 07:42 16.12.2019
6374 Clouds -11 1003 92 10000 1 50 07:21 16.12.2019
6375 Clouds -11 1003 92 10000 1.97 307 06:45 16.12.2019
6376 Clouds -13 1003 84 10000 1 120 06:22 16.12.2019
6377 Clouds -14 1003 92 10000 1 150 05:49 16.12.2019
6378 Clouds -12 1003 92 10000 1 160 05:30 16.12.2019
6379 Snow -12 1003 85 8000 1 170 04:22 16.12.2019
6380 Snow -11 1003 85 2400 1 360 02:19 16.12.2019
6381 Snow -12 1003 92 2900 1 330 01:44 16.12.2019
6382 Snow -13 1003 84 10000 3 360 00:43 16.12.2019
6383 Snow -13 1003 84 10000 3 360 00:25 16.12.2019
6384 Snow -13 1003 84 10000 4 350 23:58 15.12.2019
6385 Snow -13 1003 84 4300 4 350 23:38 15.12.2019
6386 Snow -13 1003 84 4300 4 350 23:20 15.12.2019
6387 Snow -13 1003 84 4200 4 350 22:56 15.12.2019
6388 Snow -13 1003 84 5000 4 350 22:37 15.12.2019
6389 Snow -13 1003 84 5000 4 350 22:18 15.12.2019
6390 Snow -14 1003 92 4300 5 360 21:56 15.12.2019
6391 Snow -14 1003 92 4300 5 360 21:56 15.12.2019
6392 Snow -14 1003 92 2000 5 360 21:37 15.12.2019
6393 Snow -14 1003 92 2000 5 360 21:37 15.12.2019
6394 Snow -14 1003 92 2000 5 360 21:19 15.12.2019
6395 Snow -14 1003 84 6000 6 360 20:56 15.12.2019
6396 Snow -14 1003 84 6000 6 360 20:37 15.12.2019
6397 Snow -14 1003 84 6000 6 360 20:18 15.12.2019
6398 Snow -15 1002 84 2100 6 350 19:57 15.12.2019
6399 Snow -15 1002 84 2100 6 350 19:57 15.12.2019
6400 Snow -15 1002 84 2100 6 350 19:38 15.12.2019
6401 Snow -15 1002 84 2100 6 350 19:18 15.12.2019
6402 Snow -16 1003 84 2500 6 350 18:56 15.12.2019
6403 Snow -16 1003 84 2500 6 350 18:56 15.12.2019
6404 Snow -16 1003 84 2500 6 350 18:38 15.12.2019
6405 Snow -16 1003 84 2500 6 350 18:18 15.12.2019
6406 Snow -16 1003 84 2500 6 350 18:18 15.12.2019
6407 Snow -17 1003 84 1100 4 350 17:56 15.12.2019
6408 Snow -17 1003 84 1100 4 350 17:37 15.12.2019
6409 Snow -17 1003 84 1100 4 350 17:18 15.12.2019
6410 Snow -18 1003 91 3800 4 330 16:54 15.12.2019
6411 Snow -18 1003 91 3800 4 330 16:36 15.12.2019
6412 Snow -18 1003 91 3800 4 330 16:18 15.12.2019
6413 Snow -17 1003 84 10000 3 350 15:54 15.12.2019
6414 Snow -17 1003 84 10000 3 350 15:36 15.12.2019
6415 Snow -17 1003 84 10000 3 350 15:18 15.12.2019
6416 Clouds -18 1002 84 9000 4 340 14:54 15.12.2019
6417 Clouds -18 1002 84 9000 4 340 14:36 15.12.2019
6418 Clouds -18 1002 84 9000 4 340 14:18 15.12.2019
6419 Clouds -18 1002 84 9000 4 340 14:18 15.12.2019
6420 Clouds -17 1002 84 4500 3 10 13:54 15.12.2019
6421 Clouds -17 1002 84 4500 3 10 13:36 15.12.2019
6422 Clouds -17 1002 84 4500 3 10 13:18 15.12.2019
6423 Clouds -17 1002 84 10000 4 360 12:54 15.12.2019
6424 Clouds -17 1002 84 10000 4 360 12:36 15.12.2019
6425 Clouds -17 1002 84 10000 4 360 12:18 15.12.2019
6426 Clouds -16 1002 84 8000 5 10 11:38 15.12.2019
6427 Clouds -16 1002 84 8000 5 10 11:38 15.12.2019
6428 Clouds -16 1002 84 8000 5 10 11:38 15.12.2019
6429 Clouds -16 1002 84 8000 5 10 11:19 15.12.2019
6430 Clouds -16 1002 91 10000 4 10 10:56 15.12.2019
6431 Clouds -16 1002 91 10000 4 10 10:38 15.12.2019
6432 Clouds -16 1002 91 10000 4 10 10:19 15.12.2019
6433 Snow -14 1001 84 9000 4 10 09:57 15.12.2019
6434 Snow -14 1001 84 9000 4 10 09:37 15.12.2019
6435 Snow -14 1001 84 9000 4 10 09:19 15.12.2019
6436 Snow -13 1001 84 10000 4 10 08:42 15.12.2019
6437 Snow -13 1001 84 10000 4 10 08:23 15.12.2019
6438 Snow -14 1001 92 3800 4 10 07:59 15.12.2019
6439 Snow -14 1001 92 3800 4 10 07:38 15.12.2019
6440 Snow -14 1001 92 3800 4 10 07:19 15.12.2019
6441 Snow -14 1000 84 2600 3 10 06:24 15.12.2019
6442 Snow -14 999 84 10000 5 20 05:42 15.12.2019
6443 Snow -14 999 84 10000 5 20 05:20 15.12.2019
6444 Snow -14 999 84 10000 4 360 04:20 15.12.2019
6445 Snow -13 999 84 10000 4 10 02:50 15.12.2019
6446 Snow -13 999 84 10000 4 10 02:31 15.12.2019
6447 Snow -13 999 84 10000 3 10 01:40 15.12.2019
6448 Snow -14 999 92 10000 3 10 01:18 15.12.2019
6449 Snow -13 998 84 10000 4 10 00:49 15.12.2019
6450 Snow -13 998 92 10000 4 10 00:31 15.12.2019
6451 Snow -13 998 84 5000 4 350 23:41 14.12.2019
6452 Snow -13 998 84 5000 4 350 23:22 14.12.2019
6453 Snow -13 998 84 7000 4 350 22:59 14.12.2019
6454 Snow -13 998 84 7000 4 350 22:41 14.12.2019
6455 Snow -12 998 85 10000 2 350 22:22 14.12.2019
6456 Snow -11 997 85 10000 2 360 21:58 14.12.2019
6457 Snow -11 997 85 8000 4 350 21:39 14.12.2019
6458 Snow -11 997 85 8000 4 350 21:19 14.12.2019
6459 Snow -10 997 85 6000 2 350 20:59 14.12.2019
6460 Snow -10 997 85 6000 2 350 20:41 14.12.2019
6461 Snow -10 997 85 6000 2 350 20:20 14.12.2019
6462 Snow -10 997 85 7000 2 360 19:57 14.12.2019
6463 Snow -10 997 85 7000 2 360 19:39 14.12.2019
6464 Snow -10 997 85 7000 2 360 19:20 14.12.2019
6465 Snow -10 996 92 9000 3 30 18:56 14.12.2019
6466 Snow -10 996 92 9000 3 30 18:38 14.12.2019
6467 Snow -10 996 92 9000 3 30 18:19 14.12.2019
6468 Clouds -9 996 85 10000 3 360 17:44 14.12.2019
6469 Clouds -9 996 85 10000 3 360 17:24 14.12.2019
6470 Snow -9 996 92 10000 4 10 16:59 14.12.2019
6471 Snow -9 996 92 10000 4 10 16:40 14.12.2019
6472 Snow -9 996 92 10000 4 10 16:19 14.12.2019
6473 Snow -9 996 92 10000 4 10 16:19 14.12.2019
6474 Snow -8 996 85 10000 5 360 15:43 14.12.2019
6475 Snow -8 996 85 10000 5 360 15:25 14.12.2019
6476 Snow -8 995 92 8000 4 350 14:59 14.12.2019
6477 Snow -8 995 92 8000 4 350 14:39 14.12.2019
6478 Snow -8 995 92 8000 4 350 14:20 14.12.2019
6479 Snow -7 995 92 7000 5 340 13:58 14.12.2019
6480 Snow -7 995 92 7000 5 340 13:39 14.12.2019
6481 Snow -7 995 92 7000 5 340 13:19 14.12.2019
6482 Snow -5 995 85 10000 5 20 12:56 14.12.2019
6483 Snow -5 995 85 10000 5 20 12:37 14.12.2019
6484 Snow -5 995 85 10000 5 20 12:19 14.12.2019
6485 Snow -5 995 85 10000 5 20 11:56 14.12.2019
6486 Snow -5 995 85 10000 5 20 11:37 14.12.2019
6487 Snow -5 995 85 10000 5 20 11:18 14.12.2019
6488 Clouds -5 995 79 10000 4 40 10:55 14.12.2019
6489 Clouds -5 995 79 10000 4 40 10:55 14.12.2019
6490 Clouds -5 995 79 10000 4 40 10:37 14.12.2019
6491 Clouds -5 995 79 10000 4 40 10:19 14.12.2019
6492 Clouds -5 995 85 10000 6 20 09:42 14.12.2019
6493 Clouds -5 995 85 10000 6 20 09:21 14.12.2019
6494 Clouds -3 994 68 10000 4 60 08:56 14.12.2019
6495 Clouds -3 994 68 10000 4 60 08:56 14.12.2019
6496 Clouds -3 994 68 10000 4 60 08:37 14.12.2019
6497 Clouds -3 994 68 10000 4 60 08:18 14.12.2019
6498 Clouds -5 995 85 10000 6 10 07:40 14.12.2019
6499 Clouds -5 995 85 10000 6 10 07:20 14.12.2019
6500 Snow -5 994 85 10000 2 120 06:45 14.12.2019
6501 Snow -5 994 85 10000 2 120 06:22 14.12.2019
6502 Snow -6 995 85 10000 4 30 05:43 14.12.2019
6503 Snow -5 994 85 10000 7 40 03:44 14.12.2019
6504 Snow -4 994 85 8000 7 40 02:23 14.12.2019
6505 Snow -5 994 85 10000 8 30 01:44 14.12.2019
6506 Snow -4 994 79 10000 13 30 00:59 14.12.2019
6507 Snow -4 995 85 9000 10 30 00:40 14.12.2019
6508 Snow -4 995 85 9000 10 30 00:20 14.12.2019
6509 Snow -4 995 85 9000 7 20 23:41 13.12.2019
6510 Snow -4 995 85 9000 7 20 23:19 13.12.2019
6511 Snow -4 995 85 9000 6 20 22:56 13.12.2019
6512 Snow -4 995 85 9000 6 20 22:37 13.12.2019
6513 Snow -4 995 85 9000 6 20 22:18 13.12.2019
6514 Snow -3 995 79 9000 5 10 21:44 13.12.2019
6515 Snow -3 995 79 9000 5 10 21:22 13.12.2019
6516 Snow -3 995 79 8000 7 30 20:59 13.12.2019
6517 Snow -3 995 79 0 6.71 20 20:40 13.12.2019
6518 Snow -4 995 92 5000 8 30 20:20 13.12.2019
6519 Snow -4 995 92 5000 8 30 19:57 13.12.2019
6520 Snow -4 995 92 5000 8 30 19:39 13.12.2019
6521 Snow -4 995 92 5000 8 30 19:20 13.12.2019
6522 Snow -3 995 86 7000 5 50 18:55 13.12.2019
6523 Snow -3 995 86 7000 5 50 18:36 13.12.2019
6524 Snow -3 995 86 7000 5 50 18:18 13.12.2019
6525 Snow -3 995 86 2700 4 70 17:40 13.12.2019
6526 Snow -3 995 86 2700 4 70 17:19 13.12.2019
6527 Snow -2 995 79 4300 6 60 16:58 13.12.2019
6528 Snow -2 995 79 4300 6 60 16:39 13.12.2019
6529 Snow -2 995 79 4300 6 60 16:20 13.12.2019
6530 Snow -2 995 74 10000 9 60 15:43 13.12.2019
6531 Snow -2 995 74 10000 9 60 15:22 13.12.2019
6532 Snow -2 996 79 10000 8 50 14:58 13.12.2019
6533 Snow -2 996 79 10000 8 50 14:39 13.12.2019
6534 Snow -2 996 79 10000 8 50 14:20 13.12.2019
6535 Clouds -1 996 74 10000 8 50 13:56 13.12.2019
6536 Clouds -1 996 74 10000 8 50 13:37 13.12.2019
6537 Clouds -1 996 74 10000 8 50 13:18 13.12.2019
6538 Clouds -1 996 74 10000 5 30 12:42 13.12.2019
6539 Clouds -1 996 74 10000 5 30 12:19 13.12.2019
6540 Snow 0 996 95 10000 11 50 11:57 13.12.2019
6541 Snow 0 996 95 10000 11 50 11:39 13.12.2019
6542 Snow 0 996 95 10000 11 50 11:19 13.12.2019
6543 Snow -2 996 86 10000 13 40 10:41 13.12.2019
6544 Snow -2 996 86 10000 13 40 10:21 13.12.2019
6545 Clouds -2 996 79 10000 9 40 09:43 13.12.2019
6546 Clouds -2 996 79 10000 9 40 09:22 13.12.2019
6547 Clouds -2 997 79 10000 6 360 08:59 13.12.2019
6548 Clouds -2 997 79 10000 6 360 08:40 13.12.2019
6549 Clouds -2 997 79 10000 6 360 08:22 13.12.2019
6550 Clouds -3 997 86 10000 4 360 07:43 13.12.2019
6551 Clouds -3 997 86 10000 4 360 07:20 13.12.2019
6552 Clouds -2 997 86 10000 1 80 06:50 13.12.2019
6553 Clouds -3 997 86 10000 5 10 06:28 13.12.2019
6554 Clouds -3 997 86 10000 4 340 05:43 13.12.2019
6555 Clouds -3 997 86 10000 4 340 05:20 13.12.2019
6556 Clouds -3 997 86 10000 5 330 04:35 13.12.2019
6557 Clouds -3 997 86 10000 3 40 03:30 13.12.2019
6558 Clouds -4 997 85 10000 7 20 02:32 13.12.2019
6559 Clouds -4 997 85 10000 7 20 02:32 13.12.2019
6560 Clouds -5 998 85 10000 6 10 01:42 13.12.2019
6561 Clouds -5 998 85 10000 6 10 00:53 13.12.2019
6562 Clouds -5 998 85 10000 4 360 00:34 13.12.2019
6563 Clouds -5 999 92 10000 4 350 23:57 12.12.2019
6564 Clouds -5 999 92 10000 5 350 23:37 12.12.2019
6565 Clouds -5 999 92 10000 5 350 23:19 12.12.2019
6566 Clouds -5 999 92 10000 5 340 22:42 12.12.2019
6567 Clouds -5 999 92 10000 5 340 22:23 12.12.2019
6568 Clouds -4 999 85 10000 4 340 21:56 12.12.2019
6569 Clouds -4 999 85 10000 4 340 21:56 12.12.2019
6570 Clouds -4 999 85 10000 3 360 21:38 12.12.2019
6571 Clouds -4 999 85 10000 3 360 21:20 12.12.2019
6572 Clouds -4 999 85 10000 7 30 20:59 12.12.2019
6573 Clouds -4 999 85 10000 7 30 20:41 12.12.2019
6574 Clouds -4 999 85 10000 7 30 20:23 12.12.2019
6575 Clouds -4 999 85 10000 7 30 20:23 12.12.2019
6576 Clouds -4 999 85 10000 5 340 19:59 12.12.2019
6577 Clouds -4 999 85 10000 5 340 19:41 12.12.2019
6578 Clouds -4 999 85 10000 5 340 19:21 12.12.2019
6579 Clouds -4 1000 85 10000 4 10 18:57 12.12.2019
6580 Clouds -4 1000 85 10000 4 10 18:57 12.12.2019
6581 Clouds -4 1000 85 10000 4 10 18:57 12.12.2019
6582 Clouds -4 1000 85 10000 4 10 18:38 12.12.2019
6583 Clouds -4 1000 85 10000 4 10 18:20 12.12.2019
6584 Clouds -4 1000 85 10000 3 310 17:57 12.12.2019
6585 Clouds -4 1000 85 10000 3 310 17:39 12.12.2019
6586 Clouds -4 1000 85 10000 3 310 17:20 12.12.2019
6587 Clouds -1 1000 80 10000 2 80 16:57 12.12.2019
6588 Clouds -1 1000 80 10000 2 80 16:38 12.12.2019
6589 Clouds -1 1000 80 10000 2 80 16:20 12.12.2019
6590 Clouds -1 1000 86 10000 2 40 15:54 12.12.2019
6591 Clouds -1 1000 86 10000 2 40 15:36 12.12.2019
6592 Clouds -1 1000 86 10000 2 40 15:18 12.12.2019
6593 Clouds -1 1000 92 10000 5 100 14:38 12.12.2019
6594 Clouds -1 1000 92 10000 5 100 14:20 12.12.2019
6595 Clouds -1 1000 92 10000 7 100 13:57 12.12.2019
6596 Clouds -1 1000 92 10000 7 100 13:39 12.12.2019
6597 Clouds -1 1000 92 10000 7 100 13:21 12.12.2019
6598 Clouds -1 1000 92 10000 7 100 12:58 12.12.2019
6599 Clouds -1 1000 92 10000 7 100 12:40 12.12.2019
6600 Clouds -1 1000 92 10000 7 100 12:21 12.12.2019
6601 Clouds -1 1000 92 8000 7 100 11:56 12.12.2019
6602 Clouds -1 1000 92 8000 7 100 11:37 12.12.2019
6603 Clouds -1 1000 92 8000 7 100 11:19 12.12.2019
6604 Clouds -1 999 92 10000 8 100 10:55 12.12.2019
6605 Clouds -1 999 92 10000 8 100 10:55 12.12.2019
6606 Clouds -1 999 92 10000 8 100 10:37 12.12.2019
6607 Clouds -1 999 92 10000 8 100 10:19 12.12.2019
6608 Clouds -1 999 92 10000 8 110 09:42 12.12.2019
6609 Clouds -1 999 92 10000 8 110 09:24 12.12.2019
6610 Clouds -1 998 92 10000 8 110 08:58 12.12.2019
6611 Clouds -1 998 92 10000 8 110 08:38 12.12.2019
6612 Clouds -1 998 92 10000 8 110 08:38 12.12.2019
6613 Clouds -1 998 92 10000 8 110 08:20 12.12.2019
6614 Clouds -1 998 92 10000 7 110 07:46 12.12.2019
6615 Clouds 0 998 95 10000 8 100 07:25 12.12.2019
6616 Clouds -1 998 92 10000 8 110 06:54 12.12.2019
6617 Clouds 0 997 95 10000 8 110 06:33 12.12.2019
6618 Clouds -1 996 92 10000 9 110 05:40 12.12.2019
6619 Clouds -1 996 92 10000 7 110 04:52 12.12.2019
6620 Clouds -1 996 92 10000 7 110 04:52 12.12.2019
6621 Snow -5 995 92 10000 5 350 03:31 12.12.2019
6622 Snow -7 994 92 2800 5 10 02:38 12.12.2019
6623 Snow -6 994 92 2800 5 10 02:20 12.12.2019
6624 Snow -6 993 92 2500 5 360 01:40 12.12.2019
6625 Snow -6 993 92 2500 5 360 01:22 12.12.2019
6626 Snow -6 993 92 2300 5 360 00:46 12.12.2019
6627 Snow -7 993 92 5000 5 350 00:20 12.12.2019
6628 Snow -7 992 92 6000 5 360 23:44 11.12.2019
6629 Snow -6 992 92 6000 5 360 23:21 11.12.2019
6630 Snow -6 991 92 6000 5 360 22:57 11.12.2019
6631 Snow -6 991 92 2000 5 10 22:39 11.12.2019
6632 Snow -6 991 92 2000 5 10 22:20 11.12.2019
6633 Clouds -6 990 92 10000 4 20 21:57 11.12.2019
6634 Snow -6 989 92 10000 2 120 21:38 11.12.2019
6635 Snow -5 989 92 10000 2 120 21:20 11.12.2019
6636 Snow -5 988 92 1600 3 160 20:56 11.12.2019
6637 Snow -5 988 92 1600 3 160 20:37 11.12.2019
6638 Snow -5 988 92 1600 3 160 20:37 11.12.2019
6639 Snow -5 988 92 1600 3 160 20:19 11.12.2019
6640 Snow -5 987 100 10000 3 170 19:58 11.12.2019
6641 Snow -5 987 100 10000 3 170 19:39 11.12.2019
6642 Snow -5 987 100 10000 3 170 19:19 11.12.2019
6643 Snow -4 985 92 2100 4 150 18:42 11.12.2019
6644 Snow -4 985 92 2100 4 150 18:22 11.12.2019
6645 Snow -2 983 100 1600 4 180 17:57 11.12.2019
6646 Snow -2 983 100 1600 4 180 17:39 11.12.2019
6647 Snow -2 983 100 1600 4 180 17:19 11.12.2019
6648 Drizzle -2 981 100 700 5 160 16:57 11.12.2019
6649 Drizzle -2 981 100 700 5 160 16:39 11.12.2019
6650 Drizzle -2 981 100 700 5 160 16:21 11.12.2019
6651 Fog -2 978 92 1200 7 170 15:59 11.12.2019
6652 Fog -2 978 92 1200 7 170 15:40 11.12.2019
6653 Fog -2 978 92 1200 7 170 15:22 11.12.2019
6654 Mist -1 976 92 4000 6 170 14:56 11.12.2019
6655 Mist -1 976 92 4000 6 170 14:38 11.12.2019
6656 Mist -1 976 92 4000 6 170 14:20 11.12.2019
6657 Snow -1 974 92 2100 3 190 13:55 11.12.2019
6658 Snow -1 974 92 2100 3 190 13:37 11.12.2019
6659 Snow -1 974 92 2100 3 190 13:18 11.12.2019
6660 Snow 0 973 94 5000 3 340 12:56 11.12.2019
6661 Snow 0 973 94 5000 3 340 12:38 11.12.2019
6662 Snow 0 973 94 5000 3 340 12:19 11.12.2019
6663 Snow 0 972 94 3000 6 360 11:57 11.12.2019
6664 Snow 0 972 94 3000 6 360 11:38 11.12.2019
6665 Snow 0 972 95 3000 6 360 11:18 11.12.2019
6666 Snow 0 972 95 3400 9 10 10:45 11.12.2019
6667 Snow 0 972 95 3400 9 10 10:27 11.12.2019
6668 Snow 0 972 95 10000 9 20 09:59 11.12.2019
6669 Snow 0 972 95 10000 9 20 09:39 11.12.2019
6670 Snow 0 972 95 10000 9 20 09:20 11.12.2019
6671 Clouds -1 973 92 10000 9 20 08:57 11.12.2019
6672 Clouds -1 973 92 10000 9 20 08:38 11.12.2019
6673 Clouds -1 973 92 10000 9 20 08:19 11.12.2019
6674 Clouds 1 973 80 10000 6 50 07:47 11.12.2019
6675 Clouds 1 973 80 10000 6 50 07:28 11.12.2019
6676 Clouds 1 973 80 10000 4 50 06:59 11.12.2019
6677 Clouds 0 973 95 10000 7 360 06:40 11.12.2019
6678 Clouds 0 973 95 10000 7 360 06:21 11.12.2019
6679 Clouds 0 973 95 10000 9 20 05:41 11.12.2019
6680 Clouds 0 973 91 10000 9 20 05:18 11.12.2019
6681 Snow -1 973 92 1600 9 20 03:50 11.12.2019
6682 Snow 0 974 91 3000 7 20 02:49 11.12.2019
6683 Snow 0 975 95 5000 13 30 01:25 11.12.2019
6684 Snow 0 975 95 9000 13 30 00:47 11.12.2019
6685 Snow -2 975 92 4700 11 20 00:21 11.12.2019
6686 Snow -3 976 92 2700 9 10 23:49 10.12.2019
6687 Snow -4 976 100 600 10 360 23:30 10.12.2019
6688 Snow -4 977 100 450 10 10 22:58 10.12.2019
6689 Snow -4 977 92 300 11 10 22:40 10.12.2019
6690 Snow -4 977 92 300 11 10 22:40 10.12.2019
6691 Snow -4 977 92 300 11 10 22:22 10.12.2019
6692 Snow -4 977 92 350 12 10 21:56 10.12.2019
6693 Snow -4 978 92 800 11 360 21:38 10.12.2019
6694 Snow -4 978 92 800 11 360 21:38 10.12.2019
6695 Snow -4 978 92 800 11 360 21:38 10.12.2019
6696 Snow -4 978 92 800 11 360 21:19 10.12.2019
6697 Snow -4 979 100 1800 5 340 20:57 10.12.2019
6698 Snow -4 979 100 1800 5 340 20:37 10.12.2019
6699 Snow -4 979 100 1800 5 340 20:37 10.12.2019
6700 Snow -4 979 100 1800 5 340 20:19 10.12.2019
6701 Snow -3 980 92 1000 4 360 19:55 10.12.2019
6702 Snow -3 980 92 1000 4 360 19:37 10.12.2019
6703 Snow -3 980 92 1000 4 360 19:18 10.12.2019
6704 Snow -3 980 92 5000 5 350 18:40 10.12.2019
6705 Snow -3 980 92 5000 5 350 18:20 10.12.2019
6706 Snow -2 979 86 4300 14 40 17:58 10.12.2019
6707 Snow -2 979 86 4300 14 40 17:39 10.12.2019
6708 Snow -2 979 86 4300 14 40 17:20 10.12.2019
6709 Snow -2 979 92 1200 18 40 16:54 10.12.2019
6710 Snow -2 979 92 1200 18 40 16:36 10.12.2019
6711 Snow -2 979 92 1200 18 40 16:18 10.12.2019
6712 Snow -2 979 92 1200 18 40 16:18 10.12.2019
6713 Snow -2 980 92 2600 12 30 15:38 10.12.2019
6714 Snow -2 980 92 2600 12 30 15:18 10.12.2019
6715 Snow -3 982 92 800 5 360 14:56 10.12.2019
6716 Snow -3 982 92 800 5 360 14:37 10.12.2019
6717 Snow -3 982 92 800 5 360 14:19 10.12.2019
6718 Snow -3 982 92 1800 10 20 13:56 10.12.2019
6719 Snow -3 982 92 1800 10 20 13:38 10.12.2019
6720 Snow -3 982 92 1800 10 20 13:19 10.12.2019
6721 Snow -3 983 92 1500 11 30 12:47 10.12.2019
6722 Snow -3 983 92 1500 11 30 12:26 10.12.2019
6723 Snow -3 984 92 450 13 10 11:55 10.12.2019
6724 Snow -3 984 92 450 13 10 11:36 10.12.2019
6725 Snow -3 984 92 450 13 10 11:18 10.12.2019
6726 Snow -3 984 92 350 14 10 10:42 10.12.2019
6727 Snow -3 984 92 350 14 10 10:23 10.12.2019
6728 Snow -3 985 92 800 13 10 09:56 10.12.2019
6729 Snow -3 985 92 800 13 10 09:56 10.12.2019
6730 Snow -3 986 86 1100 10 10 09:38 10.12.2019
6731 Snow -3 986 86 1100 10 10 09:20 10.12.2019
6732 Snow -3 987 86 2700 11 10 08:57 10.12.2019
6733 Snow -3 988 86 9000 10 10 08:39 10.12.2019
6734 Snow -3 988 86 9000 10 10 08:19 10.12.2019
6735 Clouds -4 988 85 10000 8 10 07:44 10.12.2019
6736 Clouds -4 988 79 10000 11 10 07:26 10.12.2019
6737 Clouds -4 988 79 10000 11 10 07:26 10.12.2019
6738 Clouds -5 988 85 10000 12 20 06:49 10.12.2019
6739 Clouds -4 988 79 10000 9 30 06:24 10.12.2019
6740 Clouds -4 989 79 10000 3 60 05:56 10.12.2019
6741 Clouds -4 989 85 10000 8 10 05:33 10.12.2019
6742 Clouds -1 991 63 10000 2 350 03:54 10.12.2019
6743 Clouds -2 991 74 10000 9 30 02:57 10.12.2019
6744 Clouds -2 991 74 10000 8 10 01:54 10.12.2019
6745 Clouds -2 992 74 10000 5 40 01:27 10.12.2019
6746 Clouds -1 992 74 10000 4 70 00:51 10.12.2019
6747 Clouds 0 992 96 10000 8 60 00:24 10.12.2019
6748 Clouds -1 992 80 10000 6 80 23:55 09.12.2019
6749 Clouds 0 992 96 10000 8 90 23:36 09.12.2019
6750 Clouds 0 992 94 10000 8 90 23:18 09.12.2019
6751 Snow 0 992 94 9000 10 80 22:54 09.12.2019
6752 Snow 0 992 94 2100 4 60 22:36 09.12.2019
6753 Snow 0 992 94 2100 4 60 22:18 09.12.2019
6754 Snow -4 993 92 1200 2 340 21:54 09.12.2019
6755 Snow -4 993 92 3600 3.86 309 21:36 09.12.2019
6756 Snow -4 993 92 3600 3.86 309 21:18 09.12.2019
6757 Snow -4 992 92 3400 3.86 309 20:54 09.12.2019
6758 Snow -4 992 92 3400 3.86 309 20:36 09.12.2019
6759 Snow -4 992 92 3400 2.59 296 20:18 09.12.2019
6760 Snow -3 992 86 10000 2 190 19:54 09.12.2019
6761 Snow -3 992 86 10000 2 190 19:36 09.12.2019
6762 Snow -3 992 86 10000 2 190 19:18 09.12.2019
6763 Snow -3 991 92 500 4 160 18:40 09.12.2019
6764 Snow -3 991 92 500 4 160 18:20 09.12.2019
6765 Snow -3 991 92 2100 8